<?xml version="1.0" encoding="UTF-8" standalone="no" ?>
<gpx xmlns="http://www.topografix.com/GPX/1/1" xmlns:xsi="http://www.w3.org/2001/XMLSchema-instance" xsi:schemaLocation="http://www.topografix.com/GPX/1/1 http://www.topografix.com/GPX/1/1/gpx.xsd" version="1.1" creator="VisuGPX - https://www.visugpx.com">
  <metadata>
    <name>ski rando  col m rosset,charbonniere,ref balme</name>
    <desc><![CDATA[
]]></desc>
  </metadata>
  <trk>
    <name><![CDATA[ski rando  col m rosset,charbonniere,ref balme]]></name>
    <trkseg>
      <trkpt lat="45.59146" lon="6.67071">
        <ele>1422.8000488281</ele>
        <time>2012-02-22T09:16:21.000Z</time>
      </trkpt>
      <trkpt lat="45.59146" lon="6.67072">
        <ele>1422.8000488281</ele>
        <time>2012-02-22T09:16:22.000Z</time>
      </trkpt>
      <trkpt lat="45.59151" lon="6.67071">
        <ele>1422.4000244141</ele>
        <time>2012-02-22T09:16:39.000Z</time>
      </trkpt>
      <trkpt lat="45.59144" lon="6.67071">
        <ele>1420.5999755859</ele>
        <time>2012-02-22T09:17:39.000Z</time>
      </trkpt>
      <trkpt lat="45.59145" lon="6.67073">
        <ele>1422.5999755859</ele>
        <time>2012-02-22T09:17:43.000Z</time>
      </trkpt>
      <trkpt lat="45.59144" lon="6.6708">
        <ele>1422.1999511719</ele>
        <time>2012-02-22T09:17:51.000Z</time>
      </trkpt>
      <trkpt lat="45.59146" lon="6.67085">
        <ele>1421.8000488281</ele>
        <time>2012-02-22T09:17:58.000Z</time>
      </trkpt>
      <trkpt lat="45.59151" lon="6.6708">
        <ele>1422</ele>
        <time>2012-02-22T09:18:04.000Z</time>
      </trkpt>
      <trkpt lat="45.59157" lon="6.67074">
        <ele>1422.1999511719</ele>
        <time>2012-02-22T09:18:11.000Z</time>
      </trkpt>
      <trkpt lat="45.59161" lon="6.67072">
        <ele>1422.1999511719</ele>
        <time>2012-02-22T09:18:17.000Z</time>
      </trkpt>
      <trkpt lat="45.59166" lon="6.67076">
        <ele>1422.5999755859</ele>
        <time>2012-02-22T09:18:24.000Z</time>
      </trkpt>
      <trkpt lat="45.59171" lon="6.6708">
        <ele>1422.8000488281</ele>
        <time>2012-02-22T09:18:29.000Z</time>
      </trkpt>
      <trkpt lat="45.5918" lon="6.67083">
        <ele>1423</ele>
        <time>2012-02-22T09:18:36.000Z</time>
      </trkpt>
      <trkpt lat="45.59188" lon="6.67088">
        <ele>1423.1999511719</ele>
        <time>2012-02-22T09:18:43.000Z</time>
      </trkpt>
      <trkpt lat="45.59193" lon="6.67091">
        <ele>1423.5999755859</ele>
        <time>2012-02-22T09:18:50.000Z</time>
      </trkpt>
      <trkpt lat="45.59193" lon="6.67088">
        <ele>1419.8000488281</ele>
        <time>2012-02-22T09:18:55.000Z</time>
      </trkpt>
      <trkpt lat="45.59194" lon="6.67089">
        <ele>1423.1999511719</ele>
        <time>2012-02-22T09:19:01.000Z</time>
      </trkpt>
      <trkpt lat="45.59197" lon="6.67091">
        <ele>1420</ele>
        <time>2012-02-22T09:19:16.000Z</time>
      </trkpt>
      <trkpt lat="45.59196" lon="6.67093">
        <ele>1417.5999755859</ele>
        <time>2012-02-22T09:19:19.000Z</time>
      </trkpt>
      <trkpt lat="45.59197" lon="6.67092">
        <ele>1424.4000244141</ele>
        <time>2012-02-22T09:19:26.000Z</time>
      </trkpt>
      <trkpt lat="45.59197" lon="6.67091">
        <ele>1423</ele>
        <time>2012-02-22T09:19:29.000Z</time>
      </trkpt>
      <trkpt lat="45.59198" lon="6.67097">
        <ele>1422.5999755859</ele>
        <time>2012-02-22T09:19:54.000Z</time>
      </trkpt>
      <trkpt lat="45.59202" lon="6.67101">
        <ele>1422.5999755859</ele>
        <time>2012-02-22T09:20:00.000Z</time>
      </trkpt>
      <trkpt lat="45.59201" lon="6.67096">
        <ele>1422.5999755859</ele>
        <time>2012-02-22T09:20:07.000Z</time>
      </trkpt>
      <trkpt lat="45.59203" lon="6.67101">
        <ele>1422.5999755859</ele>
        <time>2012-02-22T09:20:14.000Z</time>
      </trkpt>
      <trkpt lat="45.59204" lon="6.67102">
        <ele>1422.4000244141</ele>
        <time>2012-02-22T09:20:20.000Z</time>
      </trkpt>
      <trkpt lat="45.59205" lon="6.67098">
        <ele>1422.4000244141</ele>
        <time>2012-02-22T09:20:24.000Z</time>
      </trkpt>
      <trkpt lat="45.59205" lon="6.67097">
        <ele>1422.4000244141</ele>
        <time>2012-02-22T09:20:25.000Z</time>
      </trkpt>
      <trkpt lat="45.59208" lon="6.6709">
        <ele>1422.8000488281</ele>
        <time>2012-02-22T09:20:31.000Z</time>
      </trkpt>
      <trkpt lat="45.59212" lon="6.67087">
        <ele>1422.1999511719</ele>
        <time>2012-02-22T09:20:37.000Z</time>
      </trkpt>
      <trkpt lat="45.59216" lon="6.67085">
        <ele>1422.5999755859</ele>
        <time>2012-02-22T09:20:43.000Z</time>
      </trkpt>
      <trkpt lat="45.5922" lon="6.67083">
        <ele>1422.8000488281</ele>
        <time>2012-02-22T09:20:48.000Z</time>
      </trkpt>
      <trkpt lat="45.59224" lon="6.67081">
        <ele>1422.1999511719</ele>
        <time>2012-02-22T09:20:52.000Z</time>
      </trkpt>
      <trkpt lat="45.59235" lon="6.67075">
        <ele>1422.4000244141</ele>
        <time>2012-02-22T09:21:00.000Z</time>
      </trkpt>
      <trkpt lat="45.59246" lon="6.67076">
        <ele>1422.5999755859</ele>
        <time>2012-02-22T09:21:08.000Z</time>
      </trkpt>
      <trkpt lat="45.59253" lon="6.67074">
        <ele>1422.4000244141</ele>
        <time>2012-02-22T09:21:14.000Z</time>
      </trkpt>
      <trkpt lat="45.5926" lon="6.67077">
        <ele>1423</ele>
        <time>2012-02-22T09:21:20.000Z</time>
      </trkpt>
      <trkpt lat="45.59266" lon="6.67076">
        <ele>1422.5999755859</ele>
        <time>2012-02-22T09:21:26.000Z</time>
      </trkpt>
      <trkpt lat="45.59275" lon="6.67075">
        <ele>1422.5999755859</ele>
        <time>2012-02-22T09:21:32.000Z</time>
      </trkpt>
      <trkpt lat="45.59281" lon="6.67076">
        <ele>1423</ele>
        <time>2012-02-22T09:21:37.000Z</time>
      </trkpt>
      <trkpt lat="45.59287" lon="6.67075">
        <ele>1422.5999755859</ele>
        <time>2012-02-22T09:21:43.000Z</time>
      </trkpt>
      <trkpt lat="45.59289" lon="6.67075">
        <ele>1422.8000488281</ele>
        <time>2012-02-22T09:21:46.000Z</time>
      </trkpt>
      <trkpt lat="45.59297" lon="6.67076">
        <ele>1422.8000488281</ele>
        <time>2012-02-22T09:21:52.000Z</time>
      </trkpt>
      <trkpt lat="45.59305" lon="6.67075">
        <ele>1423.1999511719</ele>
        <time>2012-02-22T09:22:00.000Z</time>
      </trkpt>
      <trkpt lat="45.59312" lon="6.67077">
        <ele>1422.8000488281</ele>
        <time>2012-02-22T09:22:05.000Z</time>
      </trkpt>
      <trkpt lat="45.59318" lon="6.67078">
        <ele>1422.8000488281</ele>
        <time>2012-02-22T09:22:09.000Z</time>
      </trkpt>
      <trkpt lat="45.59321" lon="6.67077">
        <ele>1422.8000488281</ele>
        <time>2012-02-22T09:22:11.000Z</time>
      </trkpt>
      <trkpt lat="45.59327" lon="6.67078">
        <ele>1423</ele>
        <time>2012-02-22T09:22:15.000Z</time>
      </trkpt>
      <trkpt lat="45.59331" lon="6.67075">
        <ele>1423.4000244141</ele>
        <time>2012-02-22T09:22:19.000Z</time>
      </trkpt>
      <trkpt lat="45.59335" lon="6.67069">
        <ele>1423.1999511719</ele>
        <time>2012-02-22T09:22:26.000Z</time>
      </trkpt>
      <trkpt lat="45.59338" lon="6.67066">
        <ele>1422.5999755859</ele>
        <time>2012-02-22T09:22:32.000Z</time>
      </trkpt>
      <trkpt lat="45.59343" lon="6.67065">
        <ele>1423</ele>
        <time>2012-02-22T09:22:38.000Z</time>
      </trkpt>
      <trkpt lat="45.59345" lon="6.67064">
        <ele>1423</ele>
        <time>2012-02-22T09:22:42.000Z</time>
      </trkpt>
      <trkpt lat="45.59356" lon="6.67065">
        <ele>1423.1999511719</ele>
        <time>2012-02-22T09:22:48.000Z</time>
      </trkpt>
      <trkpt lat="45.59366" lon="6.67064">
        <ele>1423</ele>
        <time>2012-02-22T09:22:54.000Z</time>
      </trkpt>
      <trkpt lat="45.59372" lon="6.67067">
        <ele>1423.8000488281</ele>
        <time>2012-02-22T09:23:01.000Z</time>
      </trkpt>
      <trkpt lat="45.59379" lon="6.6707">
        <ele>1423.8000488281</ele>
        <time>2012-02-22T09:23:07.000Z</time>
      </trkpt>
      <trkpt lat="45.59386" lon="6.6707">
        <ele>1424.4000244141</ele>
        <time>2012-02-22T09:23:13.000Z</time>
      </trkpt>
      <trkpt lat="45.59387" lon="6.6707">
        <ele>1424</ele>
        <time>2012-02-22T09:23:14.000Z</time>
      </trkpt>
      <trkpt lat="45.59391" lon="6.67068">
        <ele>1424.1999511719</ele>
        <time>2012-02-22T09:23:18.000Z</time>
      </trkpt>
      <trkpt lat="45.59398" lon="6.67065">
        <ele>1424.4000244141</ele>
        <time>2012-02-22T09:23:24.000Z</time>
      </trkpt>
      <trkpt lat="45.59402" lon="6.67062">
        <ele>1425</ele>
        <time>2012-02-22T09:23:28.000Z</time>
      </trkpt>
      <trkpt lat="45.59409" lon="6.6706">
        <ele>1425</ele>
        <time>2012-02-22T09:23:33.000Z</time>
      </trkpt>
      <trkpt lat="45.59412" lon="6.67057">
        <ele>1424.8000488281</ele>
        <time>2012-02-22T09:23:37.000Z</time>
      </trkpt>
      <trkpt lat="45.59414" lon="6.67054">
        <ele>1425.5999755859</ele>
        <time>2012-02-22T09:23:40.000Z</time>
      </trkpt>
      <trkpt lat="45.59419" lon="6.67051">
        <ele>1426</ele>
        <time>2012-02-22T09:23:45.000Z</time>
      </trkpt>
      <trkpt lat="45.59424" lon="6.67049">
        <ele>1426.1999511719</ele>
        <time>2012-02-22T09:23:50.000Z</time>
      </trkpt>
      <trkpt lat="45.59428" lon="6.67041">
        <ele>1426.1999511719</ele>
        <time>2012-02-22T09:23:56.000Z</time>
      </trkpt>
      <trkpt lat="45.59433" lon="6.6704">
        <ele>1427</ele>
        <time>2012-02-22T09:24:01.000Z</time>
      </trkpt>
      <trkpt lat="45.59442" lon="6.67038">
        <ele>1427.1999511719</ele>
        <time>2012-02-22T09:24:09.000Z</time>
      </trkpt>
      <trkpt lat="45.59449" lon="6.67035">
        <ele>1427.5999755859</ele>
        <time>2012-02-22T09:24:16.000Z</time>
      </trkpt>
      <trkpt lat="45.59454" lon="6.67033">
        <ele>1428.1999511719</ele>
        <time>2012-02-22T09:24:22.000Z</time>
      </trkpt>
      <trkpt lat="45.5946" lon="6.6703">
        <ele>1428.4000244141</ele>
        <time>2012-02-22T09:24:28.000Z</time>
      </trkpt>
      <trkpt lat="45.59465" lon="6.67028">
        <ele>1428.8000488281</ele>
        <time>2012-02-22T09:24:33.000Z</time>
      </trkpt>
      <trkpt lat="45.59469" lon="6.67026">
        <ele>1428.8000488281</ele>
        <time>2012-02-22T09:24:38.000Z</time>
      </trkpt>
      <trkpt lat="45.59474" lon="6.67025">
        <ele>1429</ele>
        <time>2012-02-22T09:24:43.000Z</time>
      </trkpt>
      <trkpt lat="45.59475" lon="6.67024">
        <ele>1429.1999511719</ele>
        <time>2012-02-22T09:24:44.000Z</time>
      </trkpt>
      <trkpt lat="45.5948" lon="6.67022">
        <ele>1429.5999755859</ele>
        <time>2012-02-22T09:24:51.000Z</time>
      </trkpt>
      <trkpt lat="45.59484" lon="6.67016">
        <ele>1429.8000488281</ele>
        <time>2012-02-22T09:24:57.000Z</time>
      </trkpt>
      <trkpt lat="45.59485" lon="6.67015">
        <ele>1429.5999755859</ele>
        <time>2012-02-22T09:24:58.000Z</time>
      </trkpt>
      <trkpt lat="45.59491" lon="6.6701">
        <ele>1430</ele>
        <time>2012-02-22T09:25:05.000Z</time>
      </trkpt>
      <trkpt lat="45.59496" lon="6.67007">
        <ele>1430.4000244141</ele>
        <time>2012-02-22T09:25:10.000Z</time>
      </trkpt>
      <trkpt lat="45.59501" lon="6.67004">
        <ele>1430.8000488281</ele>
        <time>2012-02-22T09:25:15.000Z</time>
      </trkpt>
      <trkpt lat="45.59506" lon="6.67003">
        <ele>1431.4000244141</ele>
        <time>2012-02-22T09:25:20.000Z</time>
      </trkpt>
      <trkpt lat="45.59514" lon="6.66997">
        <ele>1431.5999755859</ele>
        <time>2012-02-22T09:25:28.000Z</time>
      </trkpt>
      <trkpt lat="45.59515" lon="6.66996">
        <ele>1431.4000244141</ele>
        <time>2012-02-22T09:25:29.000Z</time>
      </trkpt>
      <trkpt lat="45.59518" lon="6.66994">
        <ele>1432</ele>
        <time>2012-02-22T09:25:33.000Z</time>
      </trkpt>
      <trkpt lat="45.59522" lon="6.66992">
        <ele>1432.4000244141</ele>
        <time>2012-02-22T09:25:38.000Z</time>
      </trkpt>
      <trkpt lat="45.5953" lon="6.66993">
        <ele>1433</ele>
        <time>2012-02-22T09:25:47.000Z</time>
      </trkpt>
      <trkpt lat="45.59537" lon="6.66995">
        <ele>1433.4000244141</ele>
        <time>2012-02-22T09:25:55.000Z</time>
      </trkpt>
      <trkpt lat="45.59545" lon="6.66998">
        <ele>1434.4000244141</ele>
        <time>2012-02-22T09:26:03.000Z</time>
      </trkpt>
      <trkpt lat="45.59549" lon="6.66996">
        <ele>1434</ele>
        <time>2012-02-22T09:26:07.000Z</time>
      </trkpt>
      <trkpt lat="45.59557" lon="6.66993">
        <ele>1434.8000488281</ele>
        <time>2012-02-22T09:26:15.000Z</time>
      </trkpt>
      <trkpt lat="45.59559" lon="6.66992">
        <ele>1434.4000244141</ele>
        <time>2012-02-22T09:26:17.000Z</time>
      </trkpt>
      <trkpt lat="45.59567" lon="6.66992">
        <ele>1434.8000488281</ele>
        <time>2012-02-22T09:26:24.000Z</time>
      </trkpt>
      <trkpt lat="45.59574" lon="6.66992">
        <ele>1435.1999511719</ele>
        <time>2012-02-22T09:26:31.000Z</time>
      </trkpt>
      <trkpt lat="45.5958" lon="6.66992">
        <ele>1435.5999755859</ele>
        <time>2012-02-22T09:26:38.000Z</time>
      </trkpt>
      <trkpt lat="45.59584" lon="6.66991">
        <ele>1436.1999511719</ele>
        <time>2012-02-22T09:26:42.000Z</time>
      </trkpt>
      <trkpt lat="45.59592" lon="6.66996">
        <ele>1435.8000488281</ele>
        <time>2012-02-22T09:26:51.000Z</time>
      </trkpt>
      <trkpt lat="45.59593" lon="6.66996">
        <ele>1436</ele>
        <time>2012-02-22T09:26:52.000Z</time>
      </trkpt>
      <trkpt lat="45.59601" lon="6.67002">
        <ele>1436.8000488281</ele>
        <time>2012-02-22T09:26:59.000Z</time>
      </trkpt>
      <trkpt lat="45.59603" lon="6.67004">
        <ele>1437.4000244141</ele>
        <time>2012-02-22T09:27:01.000Z</time>
      </trkpt>
      <trkpt lat="45.59605" lon="6.67008">
        <ele>1437.8000488281</ele>
        <time>2012-02-22T09:27:04.000Z</time>
      </trkpt>
      <trkpt lat="45.59613" lon="6.67013">
        <ele>1437.8000488281</ele>
        <time>2012-02-22T09:27:12.000Z</time>
      </trkpt>
      <trkpt lat="45.59619" lon="6.67017">
        <ele>1438</ele>
        <time>2012-02-22T09:27:18.000Z</time>
      </trkpt>
      <trkpt lat="45.59625" lon="6.67019">
        <ele>1439.1999511719</ele>
        <time>2012-02-22T09:27:25.000Z</time>
      </trkpt>
      <trkpt lat="45.59626" lon="6.67019">
        <ele>1438.5999755859</ele>
        <time>2012-02-22T09:27:26.000Z</time>
      </trkpt>
      <trkpt lat="45.59632" lon="6.67018">
        <ele>1439.8000488281</ele>
        <time>2012-02-22T09:27:33.000Z</time>
      </trkpt>
      <trkpt lat="45.59633" lon="6.6702">
        <ele>1438.8000488281</ele>
        <time>2012-02-22T09:27:37.000Z</time>
      </trkpt>
      <trkpt lat="45.59638" lon="6.67013">
        <ele>1439.4000244141</ele>
        <time>2012-02-22T09:27:43.000Z</time>
      </trkpt>
      <trkpt lat="45.5964" lon="6.67012">
        <ele>1439</ele>
        <time>2012-02-22T09:27:46.000Z</time>
      </trkpt>
      <trkpt lat="45.59644" lon="6.66997">
        <ele>1439.4000244141</ele>
        <time>2012-02-22T09:27:55.000Z</time>
      </trkpt>
      <trkpt lat="45.59643" lon="6.66986">
        <ele>1439.8000488281</ele>
        <time>2012-02-22T09:28:01.000Z</time>
      </trkpt>
      <trkpt lat="45.59642" lon="6.66977">
        <ele>1440.4000244141</ele>
        <time>2012-02-22T09:28:06.000Z</time>
      </trkpt>
      <trkpt lat="45.59643" lon="6.66974">
        <ele>1440.5999755859</ele>
        <time>2012-02-22T09:28:09.000Z</time>
      </trkpt>
      <trkpt lat="45.59644" lon="6.66971">
        <ele>1441.8000488281</ele>
        <time>2012-02-22T09:28:12.000Z</time>
      </trkpt>
      <trkpt lat="45.59647" lon="6.66965">
        <ele>1443.8000488281</ele>
        <time>2012-02-22T09:28:19.000Z</time>
      </trkpt>
      <trkpt lat="45.59648" lon="6.66963">
        <ele>1445</ele>
        <time>2012-02-22T09:28:24.000Z</time>
      </trkpt>
      <trkpt lat="45.5965" lon="6.66958">
        <ele>1446.1999511719</ele>
        <time>2012-02-22T09:28:30.000Z</time>
      </trkpt>
      <trkpt lat="45.59653" lon="6.66955">
        <ele>1448.1999511719</ele>
        <time>2012-02-22T09:28:37.000Z</time>
      </trkpt>
      <trkpt lat="45.59656" lon="6.66951">
        <ele>1450.4000244141</ele>
        <time>2012-02-22T09:28:45.000Z</time>
      </trkpt>
      <trkpt lat="45.5966" lon="6.66949">
        <ele>1451.8000488281</ele>
        <time>2012-02-22T09:28:52.000Z</time>
      </trkpt>
      <trkpt lat="45.59665" lon="6.66943">
        <ele>1453.5999755859</ele>
        <time>2012-02-22T09:28:58.000Z</time>
      </trkpt>
      <trkpt lat="45.59669" lon="6.66939">
        <ele>1454.8000488281</ele>
        <time>2012-02-22T09:29:04.000Z</time>
      </trkpt>
      <trkpt lat="45.59675" lon="6.66937">
        <ele>1456</ele>
        <time>2012-02-22T09:29:11.000Z</time>
      </trkpt>
      <trkpt lat="45.59677" lon="6.66937">
        <ele>1457.1999511719</ele>
        <time>2012-02-22T09:29:14.000Z</time>
      </trkpt>
      <trkpt lat="45.59679" lon="6.66932">
        <ele>1458</ele>
        <time>2012-02-22T09:29:21.000Z</time>
      </trkpt>
      <trkpt lat="45.59682" lon="6.66927">
        <ele>1460.1999511719</ele>
        <time>2012-02-22T09:29:27.000Z</time>
      </trkpt>
      <trkpt lat="45.59687" lon="6.66924">
        <ele>1461.5999755859</ele>
        <time>2012-02-22T09:29:33.000Z</time>
      </trkpt>
      <trkpt lat="45.59689" lon="6.6692">
        <ele>1461.5999755859</ele>
        <time>2012-02-22T09:29:41.000Z</time>
      </trkpt>
      <trkpt lat="45.59691" lon="6.66916">
        <ele>1463.5999755859</ele>
        <time>2012-02-22T09:29:48.000Z</time>
      </trkpt>
      <trkpt lat="45.59694" lon="6.66912">
        <ele>1465</ele>
        <time>2012-02-22T09:29:53.000Z</time>
      </trkpt>
      <trkpt lat="45.59699" lon="6.66915">
        <ele>1466</ele>
        <time>2012-02-22T09:30:00.000Z</time>
      </trkpt>
      <trkpt lat="45.59705" lon="6.66918">
        <ele>1465.8000488281</ele>
        <time>2012-02-22T09:30:07.000Z</time>
      </trkpt>
      <trkpt lat="45.59707" lon="6.66923">
        <ele>1465.4000244141</ele>
        <time>2012-02-22T09:30:10.000Z</time>
      </trkpt>
      <trkpt lat="45.59711" lon="6.66926">
        <ele>1466</ele>
        <time>2012-02-22T09:30:15.000Z</time>
      </trkpt>
      <trkpt lat="45.59711" lon="6.66933">
        <ele>1466.4000244141</ele>
        <time>2012-02-22T09:30:22.000Z</time>
      </trkpt>
      <trkpt lat="45.59714" lon="6.66937">
        <ele>1468.1999511719</ele>
        <time>2012-02-22T09:30:28.000Z</time>
      </trkpt>
      <trkpt lat="45.59717" lon="6.6694">
        <ele>1469</ele>
        <time>2012-02-22T09:30:33.000Z</time>
      </trkpt>
      <trkpt lat="45.59723" lon="6.66947">
        <ele>1470.1999511719</ele>
        <time>2012-02-22T09:30:42.000Z</time>
      </trkpt>
      <trkpt lat="45.59725" lon="6.66946">
        <ele>1469.1999511719</ele>
        <time>2012-02-22T09:30:47.000Z</time>
      </trkpt>
      <trkpt lat="45.59728" lon="6.66945">
        <ele>1472.5999755859</ele>
        <time>2012-02-22T09:30:53.000Z</time>
      </trkpt>
      <trkpt lat="45.5973" lon="6.66953">
        <ele>1473</ele>
        <time>2012-02-22T09:30:59.000Z</time>
      </trkpt>
      <trkpt lat="45.5973" lon="6.66959">
        <ele>1473.5999755859</ele>
        <time>2012-02-22T09:31:07.000Z</time>
      </trkpt>
      <trkpt lat="45.59732" lon="6.66962">
        <ele>1475.8000488281</ele>
        <time>2012-02-22T09:31:12.000Z</time>
      </trkpt>
      <trkpt lat="45.59734" lon="6.6696">
        <ele>1475.5999755859</ele>
        <time>2012-02-22T09:31:21.000Z</time>
      </trkpt>
      <trkpt lat="45.59737" lon="6.66963">
        <ele>1477.5999755859</ele>
        <time>2012-02-22T09:31:29.000Z</time>
      </trkpt>
      <trkpt lat="45.59741" lon="6.66957">
        <ele>1478.8000488281</ele>
        <time>2012-02-22T09:31:35.000Z</time>
      </trkpt>
      <trkpt lat="45.59741" lon="6.6695">
        <ele>1479.8000488281</ele>
        <time>2012-02-22T09:31:40.000Z</time>
      </trkpt>
      <trkpt lat="45.59742" lon="6.66943">
        <ele>1481.1999511719</ele>
        <time>2012-02-22T09:31:47.000Z</time>
      </trkpt>
      <trkpt lat="45.59744" lon="6.66946">
        <ele>1481.4000244141</ele>
        <time>2012-02-22T09:31:54.000Z</time>
      </trkpt>
      <trkpt lat="45.59744" lon="6.66959">
        <ele>1481.8000488281</ele>
        <time>2012-02-22T09:32:13.000Z</time>
      </trkpt>
      <trkpt lat="45.59749" lon="6.66951">
        <ele>1482</ele>
        <time>2012-02-22T09:32:23.000Z</time>
      </trkpt>
      <trkpt lat="45.59751" lon="6.66949">
        <ele>1483</ele>
        <time>2012-02-22T09:32:35.000Z</time>
      </trkpt>
      <trkpt lat="45.59752" lon="6.66946">
        <ele>1483</ele>
        <time>2012-02-22T09:32:54.000Z</time>
      </trkpt>
      <trkpt lat="45.59752" lon="6.66946">
        <ele>1481.1999511719</ele>
        <time>2012-02-22T09:32:58.000Z</time>
      </trkpt>
      <trkpt lat="45.59752" lon="6.6695">
        <ele>1480.5999755859</ele>
        <time>2012-02-22T09:33:50.000Z</time>
      </trkpt>
      <trkpt lat="45.59751" lon="6.66947">
        <ele>1481.8000488281</ele>
        <time>2012-02-22T09:34:04.000Z</time>
      </trkpt>
      <trkpt lat="45.59755" lon="6.6695">
        <ele>1480.8000488281</ele>
        <time>2012-02-22T09:35:00.000Z</time>
      </trkpt>
      <trkpt lat="45.5976" lon="6.66951">
        <ele>1481.4000244141</ele>
        <time>2012-02-22T09:35:08.000Z</time>
      </trkpt>
      <trkpt lat="45.59766" lon="6.66948">
        <ele>1482.5999755859</ele>
        <time>2012-02-22T09:35:15.000Z</time>
      </trkpt>
      <trkpt lat="45.59771" lon="6.66943">
        <ele>1483.4000244141</ele>
        <time>2012-02-22T09:35:22.000Z</time>
      </trkpt>
      <trkpt lat="45.59773" lon="6.66939">
        <ele>1484.1999511719</ele>
        <time>2012-02-22T09:35:28.000Z</time>
      </trkpt>
      <trkpt lat="45.59774" lon="6.66929">
        <ele>1486</ele>
        <time>2012-02-22T09:35:36.000Z</time>
      </trkpt>
      <trkpt lat="45.59775" lon="6.66924">
        <ele>1486.5999755859</ele>
        <time>2012-02-22T09:35:40.000Z</time>
      </trkpt>
      <trkpt lat="45.59776" lon="6.66918">
        <ele>1487.5999755859</ele>
        <time>2012-02-22T09:35:46.000Z</time>
      </trkpt>
      <trkpt lat="45.59778" lon="6.66912">
        <ele>1488.5999755859</ele>
        <time>2012-02-22T09:35:54.000Z</time>
      </trkpt>
      <trkpt lat="45.59778" lon="6.66909">
        <ele>1489.8000488281</ele>
        <time>2012-02-22T09:35:57.000Z</time>
      </trkpt>
      <trkpt lat="45.5978" lon="6.66903">
        <ele>1490.4000244141</ele>
        <time>2012-02-22T09:36:04.000Z</time>
      </trkpt>
      <trkpt lat="45.59781" lon="6.66899">
        <ele>1491</ele>
        <time>2012-02-22T09:36:09.000Z</time>
      </trkpt>
      <trkpt lat="45.59783" lon="6.66895">
        <ele>1492.8000488281</ele>
        <time>2012-02-22T09:36:15.000Z</time>
      </trkpt>
      <trkpt lat="45.59785" lon="6.66889">
        <ele>1492.5999755859</ele>
        <time>2012-02-22T09:36:22.000Z</time>
      </trkpt>
      <trkpt lat="45.59787" lon="6.66885">
        <ele>1494</ele>
        <time>2012-02-22T09:36:29.000Z</time>
      </trkpt>
      <trkpt lat="45.5979" lon="6.66881">
        <ele>1495</ele>
        <time>2012-02-22T09:36:36.000Z</time>
      </trkpt>
      <trkpt lat="45.59792" lon="6.66878">
        <ele>1495.8000488281</ele>
        <time>2012-02-22T09:36:42.000Z</time>
      </trkpt>
      <trkpt lat="45.59796" lon="6.66882">
        <ele>1496.5999755859</ele>
        <time>2012-02-22T09:36:54.000Z</time>
      </trkpt>
      <trkpt lat="45.59798" lon="6.66883">
        <ele>1497.1999511719</ele>
        <time>2012-02-22T09:37:00.000Z</time>
      </trkpt>
      <trkpt lat="45.59797" lon="6.66879">
        <ele>1498</ele>
        <time>2012-02-22T09:37:04.000Z</time>
      </trkpt>
      <trkpt lat="45.59798" lon="6.6687">
        <ele>1498.1999511719</ele>
        <time>2012-02-22T09:37:13.000Z</time>
      </trkpt>
      <trkpt lat="45.598" lon="6.66862">
        <ele>1499</ele>
        <time>2012-02-22T09:37:20.000Z</time>
      </trkpt>
      <trkpt lat="45.59803" lon="6.66857">
        <ele>1500.4000244141</ele>
        <time>2012-02-22T09:37:27.000Z</time>
      </trkpt>
      <trkpt lat="45.59805" lon="6.66852">
        <ele>1501.5999755859</ele>
        <time>2012-02-22T09:37:33.000Z</time>
      </trkpt>
      <trkpt lat="45.59806" lon="6.66846">
        <ele>1502.8000488281</ele>
        <time>2012-02-22T09:37:40.000Z</time>
      </trkpt>
      <trkpt lat="45.59809" lon="6.66842">
        <ele>1504.4000244141</ele>
        <time>2012-02-22T09:37:47.000Z</time>
      </trkpt>
      <trkpt lat="45.59813" lon="6.66838">
        <ele>1506.4000244141</ele>
        <time>2012-02-22T09:37:54.000Z</time>
      </trkpt>
      <trkpt lat="45.59816" lon="6.66836">
        <ele>1507</ele>
        <time>2012-02-22T09:37:59.000Z</time>
      </trkpt>
      <trkpt lat="45.59819" lon="6.6683">
        <ele>1508.1999511719</ele>
        <time>2012-02-22T09:38:06.000Z</time>
      </trkpt>
      <trkpt lat="45.59822" lon="6.66826">
        <ele>1509.5999755859</ele>
        <time>2012-02-22T09:38:11.000Z</time>
      </trkpt>
      <trkpt lat="45.59825" lon="6.6682">
        <ele>1511</ele>
        <time>2012-02-22T09:38:18.000Z</time>
      </trkpt>
      <trkpt lat="45.59827" lon="6.66817">
        <ele>1511.1999511719</ele>
        <time>2012-02-22T09:38:23.000Z</time>
      </trkpt>
      <trkpt lat="45.59831" lon="6.66813">
        <ele>1513</ele>
        <time>2012-02-22T09:38:30.000Z</time>
      </trkpt>
      <trkpt lat="45.59832" lon="6.66809">
        <ele>1512.8000488281</ele>
        <time>2012-02-22T09:38:35.000Z</time>
      </trkpt>
      <trkpt lat="45.59833" lon="6.66804">
        <ele>1513.8000488281</ele>
        <time>2012-02-22T09:38:43.000Z</time>
      </trkpt>
      <trkpt lat="45.59837" lon="6.668">
        <ele>1516</ele>
        <time>2012-02-22T09:38:52.000Z</time>
      </trkpt>
      <trkpt lat="45.59839" lon="6.66795">
        <ele>1517.1999511719</ele>
        <time>2012-02-22T09:38:58.000Z</time>
      </trkpt>
      <trkpt lat="45.5984" lon="6.66791">
        <ele>1517.4000244141</ele>
        <time>2012-02-22T09:39:05.000Z</time>
      </trkpt>
      <trkpt lat="45.59839" lon="6.66783">
        <ele>1518.4000244141</ele>
        <time>2012-02-22T09:39:18.000Z</time>
      </trkpt>
      <trkpt lat="45.59839" lon="6.66778">
        <ele>1518.8000488281</ele>
        <time>2012-02-22T09:39:27.000Z</time>
      </trkpt>
      <trkpt lat="45.59839" lon="6.66773">
        <ele>1519</ele>
        <time>2012-02-22T09:39:32.000Z</time>
      </trkpt>
      <trkpt lat="45.59839" lon="6.66767">
        <ele>1520.8000488281</ele>
        <time>2012-02-22T09:39:38.000Z</time>
      </trkpt>
      <trkpt lat="45.5984" lon="6.66762">
        <ele>1521.5999755859</ele>
        <time>2012-02-22T09:39:46.000Z</time>
      </trkpt>
      <trkpt lat="45.59841" lon="6.66761">
        <ele>1522</ele>
        <time>2012-02-22T09:39:50.000Z</time>
      </trkpt>
      <trkpt lat="45.59843" lon="6.66757">
        <ele>1522.8000488281</ele>
        <time>2012-02-22T09:39:57.000Z</time>
      </trkpt>
      <trkpt lat="45.59843" lon="6.66754">
        <ele>1523.1999511719</ele>
        <time>2012-02-22T09:40:02.000Z</time>
      </trkpt>
      <trkpt lat="45.59845" lon="6.66752">
        <ele>1524</ele>
        <time>2012-02-22T09:40:09.000Z</time>
      </trkpt>
      <trkpt lat="45.59848" lon="6.66753">
        <ele>1525.1999511719</ele>
        <time>2012-02-22T09:40:15.000Z</time>
      </trkpt>
      <trkpt lat="45.59849" lon="6.66751">
        <ele>1525.5999755859</ele>
        <time>2012-02-22T09:40:21.000Z</time>
      </trkpt>
      <trkpt lat="45.5985" lon="6.66747">
        <ele>1526.8000488281</ele>
        <time>2012-02-22T09:40:26.000Z</time>
      </trkpt>
      <trkpt lat="45.59851" lon="6.66744">
        <ele>1527.4000244141</ele>
        <time>2012-02-22T09:40:31.000Z</time>
      </trkpt>
      <trkpt lat="45.59852" lon="6.66742">
        <ele>1528.1999511719</ele>
        <time>2012-02-22T09:40:35.000Z</time>
      </trkpt>
      <trkpt lat="45.59853" lon="6.6674">
        <ele>1529.1999511719</ele>
        <time>2012-02-22T09:40:40.000Z</time>
      </trkpt>
      <trkpt lat="45.59854" lon="6.66735">
        <ele>1530.4000244141</ele>
        <time>2012-02-22T09:40:50.000Z</time>
      </trkpt>
      <trkpt lat="45.59853" lon="6.66732">
        <ele>1531</ele>
        <time>2012-02-22T09:41:00.000Z</time>
      </trkpt>
      <trkpt lat="45.59852" lon="6.66728">
        <ele>1531</ele>
        <time>2012-02-22T09:41:06.000Z</time>
      </trkpt>
      <trkpt lat="45.5985" lon="6.66722">
        <ele>1531.8000488281</ele>
        <time>2012-02-22T09:41:14.000Z</time>
      </trkpt>
      <trkpt lat="45.5985" lon="6.66718">
        <ele>1532.5999755859</ele>
        <time>2012-02-22T09:41:19.000Z</time>
      </trkpt>
      <trkpt lat="45.5985" lon="6.66713">
        <ele>1534.1999511719</ele>
        <time>2012-02-22T09:41:24.000Z</time>
      </trkpt>
      <trkpt lat="45.59849" lon="6.66706">
        <ele>1534.8000488281</ele>
        <time>2012-02-22T09:41:30.000Z</time>
      </trkpt>
      <trkpt lat="45.5985" lon="6.66704">
        <ele>1535.4000244141</ele>
        <time>2012-02-22T09:41:36.000Z</time>
      </trkpt>
      <trkpt lat="45.59852" lon="6.66705">
        <ele>1536</ele>
        <time>2012-02-22T09:41:43.000Z</time>
      </trkpt>
      <trkpt lat="45.59855" lon="6.66702">
        <ele>1537.4000244141</ele>
        <time>2012-02-22T09:41:49.000Z</time>
      </trkpt>
      <trkpt lat="45.59856" lon="6.66702">
        <ele>1537.8000488281</ele>
        <time>2012-02-22T09:41:51.000Z</time>
      </trkpt>
      <trkpt lat="45.59858" lon="6.66701">
        <ele>1538.5999755859</ele>
        <time>2012-02-22T09:41:57.000Z</time>
      </trkpt>
      <trkpt lat="45.59862" lon="6.66696">
        <ele>1540.4000244141</ele>
        <time>2012-02-22T09:42:04.000Z</time>
      </trkpt>
      <trkpt lat="45.59865" lon="6.66693">
        <ele>1541</ele>
        <time>2012-02-22T09:42:10.000Z</time>
      </trkpt>
      <trkpt lat="45.59871" lon="6.66683">
        <ele>1540.1999511719</ele>
        <time>2012-02-22T09:45:03.000Z</time>
      </trkpt>
      <trkpt lat="45.59875" lon="6.66681">
        <ele>1540.8000488281</ele>
        <time>2012-02-22T09:45:09.000Z</time>
      </trkpt>
      <trkpt lat="45.59877" lon="6.66679">
        <ele>1542.1999511719</ele>
        <time>2012-02-22T09:45:13.000Z</time>
      </trkpt>
      <trkpt lat="45.59877" lon="6.66675">
        <ele>1543.1999511719</ele>
        <time>2012-02-22T09:45:17.000Z</time>
      </trkpt>
      <trkpt lat="45.59876" lon="6.66669">
        <ele>1544.4000244141</ele>
        <time>2012-02-22T09:45:22.000Z</time>
      </trkpt>
      <trkpt lat="45.59875" lon="6.6666">
        <ele>1546</ele>
        <time>2012-02-22T09:45:29.000Z</time>
      </trkpt>
      <trkpt lat="45.59874" lon="6.66653">
        <ele>1546.8000488281</ele>
        <time>2012-02-22T09:45:36.000Z</time>
      </trkpt>
      <trkpt lat="45.59876" lon="6.66654">
        <ele>1548.4000244141</ele>
        <time>2012-02-22T09:45:41.000Z</time>
      </trkpt>
      <trkpt lat="45.59879" lon="6.66655">
        <ele>1550</ele>
        <time>2012-02-22T09:45:47.000Z</time>
      </trkpt>
      <trkpt lat="45.59886" lon="6.66658">
        <ele>1551.5999755859</ele>
        <time>2012-02-22T09:45:56.000Z</time>
      </trkpt>
      <trkpt lat="45.59889" lon="6.6666">
        <ele>1553</ele>
        <time>2012-02-22T09:46:01.000Z</time>
      </trkpt>
      <trkpt lat="45.59896" lon="6.66661">
        <ele>1553.8000488281</ele>
        <time>2012-02-22T09:46:10.000Z</time>
      </trkpt>
      <trkpt lat="45.59899" lon="6.66663">
        <ele>1554.1999511719</ele>
        <time>2012-02-22T09:46:14.000Z</time>
      </trkpt>
      <trkpt lat="45.59906" lon="6.66668">
        <ele>1556.8000488281</ele>
        <time>2012-02-22T09:46:25.000Z</time>
      </trkpt>
      <trkpt lat="45.59912" lon="6.6667">
        <ele>1557.5999755859</ele>
        <time>2012-02-22T09:46:33.000Z</time>
      </trkpt>
      <trkpt lat="45.59916" lon="6.66667">
        <ele>1559</ele>
        <time>2012-02-22T09:46:38.000Z</time>
      </trkpt>
      <trkpt lat="45.59917" lon="6.6666">
        <ele>1560.4000244141</ele>
        <time>2012-02-22T09:46:46.000Z</time>
      </trkpt>
      <trkpt lat="45.59917" lon="6.66654">
        <ele>1562</ele>
        <time>2012-02-22T09:46:52.000Z</time>
      </trkpt>
      <trkpt lat="45.59916" lon="6.66644">
        <ele>1562.4000244141</ele>
        <time>2012-02-22T09:47:00.000Z</time>
      </trkpt>
      <trkpt lat="45.59916" lon="6.6664">
        <ele>1563.1999511719</ele>
        <time>2012-02-22T09:47:04.000Z</time>
      </trkpt>
      <trkpt lat="45.59915" lon="6.66636">
        <ele>1564.4000244141</ele>
        <time>2012-02-22T09:47:10.000Z</time>
      </trkpt>
      <trkpt lat="45.59915" lon="6.66636">
        <ele>1564</ele>
        <time>2012-02-22T09:47:15.000Z</time>
      </trkpt>
      <trkpt lat="45.59916" lon="6.66637">
        <ele>1565</ele>
        <time>2012-02-22T09:47:17.000Z</time>
      </trkpt>
      <trkpt lat="45.59917" lon="6.66638">
        <ele>1565.4000244141</ele>
        <time>2012-02-22T09:47:18.000Z</time>
      </trkpt>
      <trkpt lat="45.59923" lon="6.66646">
        <ele>1567.1999511719</ele>
        <time>2012-02-22T09:47:30.000Z</time>
      </trkpt>
      <trkpt lat="45.59925" lon="6.66647">
        <ele>1568.1999511719</ele>
        <time>2012-02-22T09:47:33.000Z</time>
      </trkpt>
      <trkpt lat="45.59928" lon="6.66646">
        <ele>1568.5999755859</ele>
        <time>2012-02-22T09:47:36.000Z</time>
      </trkpt>
      <trkpt lat="45.59935" lon="6.66652">
        <ele>1570.8000488281</ele>
        <time>2012-02-22T09:47:45.000Z</time>
      </trkpt>
      <trkpt lat="45.59941" lon="6.66656">
        <ele>1571.5999755859</ele>
        <time>2012-02-22T09:47:52.000Z</time>
      </trkpt>
      <trkpt lat="45.59948" lon="6.6666">
        <ele>1573.8000488281</ele>
        <time>2012-02-22T09:48:01.000Z</time>
      </trkpt>
      <trkpt lat="45.59954" lon="6.66665">
        <ele>1575.5999755859</ele>
        <time>2012-02-22T09:48:11.000Z</time>
      </trkpt>
      <trkpt lat="45.59959" lon="6.66669">
        <ele>1576.5999755859</ele>
        <time>2012-02-22T09:48:19.000Z</time>
      </trkpt>
      <trkpt lat="45.59962" lon="6.66671">
        <ele>1578.1999511719</ele>
        <time>2012-02-22T09:48:23.000Z</time>
      </trkpt>
      <trkpt lat="45.59967" lon="6.66674">
        <ele>1578.8000488281</ele>
        <time>2012-02-22T09:48:31.000Z</time>
      </trkpt>
      <trkpt lat="45.59971" lon="6.66678">
        <ele>1580</ele>
        <time>2012-02-22T09:48:38.000Z</time>
      </trkpt>
      <trkpt lat="45.59974" lon="6.66681">
        <ele>1582.1999511719</ele>
        <time>2012-02-22T09:48:45.000Z</time>
      </trkpt>
      <trkpt lat="45.59976" lon="6.66681">
        <ele>1582.5999755859</ele>
        <time>2012-02-22T09:48:50.000Z</time>
      </trkpt>
      <trkpt lat="45.59977" lon="6.66679">
        <ele>1583.4000244141</ele>
        <time>2012-02-22T09:48:52.000Z</time>
      </trkpt>
      <trkpt lat="45.59978" lon="6.66675">
        <ele>1583.8000488281</ele>
        <time>2012-02-22T09:48:57.000Z</time>
      </trkpt>
      <trkpt lat="45.59978" lon="6.66669">
        <ele>1584.4000244141</ele>
        <time>2012-02-22T09:49:03.000Z</time>
      </trkpt>
      <trkpt lat="45.59977" lon="6.6666">
        <ele>1586</ele>
        <time>2012-02-22T09:49:10.000Z</time>
      </trkpt>
      <trkpt lat="45.59976" lon="6.66653">
        <ele>1587.1999511719</ele>
        <time>2012-02-22T09:49:16.000Z</time>
      </trkpt>
      <trkpt lat="45.59974" lon="6.66643">
        <ele>1587.5999755859</ele>
        <time>2012-02-22T09:49:24.000Z</time>
      </trkpt>
      <trkpt lat="45.59973" lon="6.66636">
        <ele>1589</ele>
        <time>2012-02-22T09:49:31.000Z</time>
      </trkpt>
      <trkpt lat="45.59976" lon="6.66639">
        <ele>1588.8000488281</ele>
        <time>2012-02-22T09:49:39.000Z</time>
      </trkpt>
      <trkpt lat="45.59978" lon="6.66643">
        <ele>1589.4000244141</ele>
        <time>2012-02-22T09:49:45.000Z</time>
      </trkpt>
      <trkpt lat="45.59981" lon="6.66639">
        <ele>1591</ele>
        <time>2012-02-22T09:50:29.000Z</time>
      </trkpt>
      <trkpt lat="45.5998" lon="6.66632">
        <ele>1591.1999511719</ele>
        <time>2012-02-22T09:50:34.000Z</time>
      </trkpt>
      <trkpt lat="45.59978" lon="6.66623">
        <ele>1593</ele>
        <time>2012-02-22T09:50:41.000Z</time>
      </trkpt>
      <trkpt lat="45.59976" lon="6.66618">
        <ele>1593.8000488281</ele>
        <time>2012-02-22T09:50:47.000Z</time>
      </trkpt>
      <trkpt lat="45.59974" lon="6.66612">
        <ele>1594.5999755859</ele>
        <time>2012-02-22T09:50:53.000Z</time>
      </trkpt>
      <trkpt lat="45.59972" lon="6.666">
        <ele>1596.4000244141</ele>
        <time>2012-02-22T09:51:28.000Z</time>
      </trkpt>
      <trkpt lat="45.59968" lon="6.66595">
        <ele>1598</ele>
        <time>2012-02-22T09:51:40.000Z</time>
      </trkpt>
      <trkpt lat="45.59966" lon="6.66591">
        <ele>1599</ele>
        <time>2012-02-22T09:51:46.000Z</time>
      </trkpt>
      <trkpt lat="45.59964" lon="6.66584">
        <ele>1600.8000488281</ele>
        <time>2012-02-22T09:51:55.000Z</time>
      </trkpt>
      <trkpt lat="45.59963" lon="6.66579">
        <ele>1601.8000488281</ele>
        <time>2012-02-22T09:52:00.000Z</time>
      </trkpt>
      <trkpt lat="45.59961" lon="6.66574">
        <ele>1603.1999511719</ele>
        <time>2012-02-22T09:52:05.000Z</time>
      </trkpt>
      <trkpt lat="45.5996" lon="6.6657">
        <ele>1603.8000488281</ele>
        <time>2012-02-22T09:52:10.000Z</time>
      </trkpt>
      <trkpt lat="45.59959" lon="6.66566">
        <ele>1606</ele>
        <time>2012-02-22T09:52:17.000Z</time>
      </trkpt>
      <trkpt lat="45.5996" lon="6.6656">
        <ele>1607</ele>
        <time>2012-02-22T09:52:28.000Z</time>
      </trkpt>
      <trkpt lat="45.59961" lon="6.66555">
        <ele>1608.1999511719</ele>
        <time>2012-02-22T09:52:33.000Z</time>
      </trkpt>
      <trkpt lat="45.59961" lon="6.6655">
        <ele>1608.4000244141</ele>
        <time>2012-02-22T09:52:39.000Z</time>
      </trkpt>
      <trkpt lat="45.59961" lon="6.66546">
        <ele>1609.4000244141</ele>
        <time>2012-02-22T09:52:45.000Z</time>
      </trkpt>
      <trkpt lat="45.59961" lon="6.6654">
        <ele>1611</ele>
        <time>2012-02-22T09:52:50.000Z</time>
      </trkpt>
      <trkpt lat="45.5996" lon="6.66539">
        <ele>1611.5999755859</ele>
        <time>2012-02-22T09:52:52.000Z</time>
      </trkpt>
      <trkpt lat="45.59959" lon="6.66531">
        <ele>1612.4000244141</ele>
        <time>2012-02-22T09:53:00.000Z</time>
      </trkpt>
      <trkpt lat="45.5996" lon="6.66523">
        <ele>1613</ele>
        <time>2012-02-22T09:53:05.000Z</time>
      </trkpt>
      <trkpt lat="45.59961" lon="6.66516">
        <ele>1613.8000488281</ele>
        <time>2012-02-22T09:53:11.000Z</time>
      </trkpt>
      <trkpt lat="45.59962" lon="6.66511">
        <ele>1613.8000488281</ele>
        <time>2012-02-22T09:53:16.000Z</time>
      </trkpt>
      <trkpt lat="45.59963" lon="6.66507">
        <ele>1614.8000488281</ele>
        <time>2012-02-22T09:53:22.000Z</time>
      </trkpt>
      <trkpt lat="45.59964" lon="6.66502">
        <ele>1616.1999511719</ele>
        <time>2012-02-22T09:53:28.000Z</time>
      </trkpt>
      <trkpt lat="45.59963" lon="6.66496">
        <ele>1617.1999511719</ele>
        <time>2012-02-22T09:53:36.000Z</time>
      </trkpt>
      <trkpt lat="45.59962" lon="6.66491">
        <ele>1618</ele>
        <time>2012-02-22T09:53:42.000Z</time>
      </trkpt>
      <trkpt lat="45.59959" lon="6.66484">
        <ele>1619.4000244141</ele>
        <time>2012-02-22T09:53:50.000Z</time>
      </trkpt>
      <trkpt lat="45.59959" lon="6.66477">
        <ele>1619.5999755859</ele>
        <time>2012-02-22T09:53:56.000Z</time>
      </trkpt>
      <trkpt lat="45.5996" lon="6.66471">
        <ele>1621</ele>
        <time>2012-02-22T09:54:01.000Z</time>
      </trkpt>
      <trkpt lat="45.59959" lon="6.66466">
        <ele>1621.4000244141</ele>
        <time>2012-02-22T09:54:07.000Z</time>
      </trkpt>
      <trkpt lat="45.59961" lon="6.66461">
        <ele>1622.8000488281</ele>
        <time>2012-02-22T09:54:15.000Z</time>
      </trkpt>
      <trkpt lat="45.59963" lon="6.66455">
        <ele>1624</ele>
        <time>2012-02-22T09:54:22.000Z</time>
      </trkpt>
      <trkpt lat="45.59964" lon="6.66447">
        <ele>1625</ele>
        <time>2012-02-22T09:54:30.000Z</time>
      </trkpt>
      <trkpt lat="45.59965" lon="6.66441">
        <ele>1626.4000244141</ele>
        <time>2012-02-22T09:54:36.000Z</time>
      </trkpt>
      <trkpt lat="45.59966" lon="6.66434">
        <ele>1627.8000488281</ele>
        <time>2012-02-22T09:54:43.000Z</time>
      </trkpt>
      <trkpt lat="45.59966" lon="6.66432">
        <ele>1628.5999755859</ele>
        <time>2012-02-22T09:54:45.000Z</time>
      </trkpt>
      <trkpt lat="45.59968" lon="6.66429">
        <ele>1629.1999511719</ele>
        <time>2012-02-22T09:54:51.000Z</time>
      </trkpt>
      <trkpt lat="45.59971" lon="6.66428">
        <ele>1631.1999511719</ele>
        <time>2012-02-22T09:54:56.000Z</time>
      </trkpt>
      <trkpt lat="45.59971" lon="6.66424">
        <ele>1632.4000244141</ele>
        <time>2012-02-22T09:55:01.000Z</time>
      </trkpt>
      <trkpt lat="45.59973" lon="6.66417">
        <ele>1633.5999755859</ele>
        <time>2012-02-22T09:55:07.000Z</time>
      </trkpt>
      <trkpt lat="45.59972" lon="6.66412">
        <ele>1634</ele>
        <time>2012-02-22T09:55:12.000Z</time>
      </trkpt>
      <trkpt lat="45.59973" lon="6.66406">
        <ele>1634.1999511719</ele>
        <time>2012-02-22T09:55:18.000Z</time>
      </trkpt>
      <trkpt lat="45.59975" lon="6.664">
        <ele>1635.1999511719</ele>
        <time>2012-02-22T09:55:25.000Z</time>
      </trkpt>
      <trkpt lat="45.59975" lon="6.66393">
        <ele>1637.8000488281</ele>
        <time>2012-02-22T09:55:31.000Z</time>
      </trkpt>
      <trkpt lat="45.59978" lon="6.6639">
        <ele>1638.5999755859</ele>
        <time>2012-02-22T09:55:37.000Z</time>
      </trkpt>
      <trkpt lat="45.59978" lon="6.66385">
        <ele>1640</ele>
        <time>2012-02-22T09:55:42.000Z</time>
      </trkpt>
      <trkpt lat="45.59981" lon="6.66379">
        <ele>1640.5999755859</ele>
        <time>2012-02-22T09:55:52.000Z</time>
      </trkpt>
      <trkpt lat="45.59981" lon="6.66373">
        <ele>1642</ele>
        <time>2012-02-22T09:55:59.000Z</time>
      </trkpt>
      <trkpt lat="45.59982" lon="6.66366">
        <ele>1644.1999511719</ele>
        <time>2012-02-22T09:56:05.000Z</time>
      </trkpt>
      <trkpt lat="45.59984" lon="6.66359">
        <ele>1644.5999755859</ele>
        <time>2012-02-22T09:56:13.000Z</time>
      </trkpt>
      <trkpt lat="45.59986" lon="6.66354">
        <ele>1646.1999511719</ele>
        <time>2012-02-22T09:56:18.000Z</time>
      </trkpt>
      <trkpt lat="45.59988" lon="6.66348">
        <ele>1646.8000488281</ele>
        <time>2012-02-22T09:56:24.000Z</time>
      </trkpt>
      <trkpt lat="45.59989" lon="6.66344">
        <ele>1648.4000244141</ele>
        <time>2012-02-22T09:56:29.000Z</time>
      </trkpt>
      <trkpt lat="45.59991" lon="6.66349">
        <ele>1649.1999511719</ele>
        <time>2012-02-22T09:56:34.000Z</time>
      </trkpt>
      <trkpt lat="45.59993" lon="6.66354">
        <ele>1649.5999755859</ele>
        <time>2012-02-22T09:56:40.000Z</time>
      </trkpt>
      <trkpt lat="45.59999" lon="6.66351">
        <ele>1652.1999511719</ele>
        <time>2012-02-22T09:56:48.000Z</time>
      </trkpt>
      <trkpt lat="45.6" lon="6.66347">
        <ele>1652.5999755859</ele>
        <time>2012-02-22T09:56:52.000Z</time>
      </trkpt>
      <trkpt lat="45.60002" lon="6.6634">
        <ele>1653.8000488281</ele>
        <time>2012-02-22T09:56:58.000Z</time>
      </trkpt>
      <trkpt lat="45.60009" lon="6.66338">
        <ele>1651.8000488281</ele>
        <time>2012-02-22T09:57:52.000Z</time>
      </trkpt>
      <trkpt lat="45.60004" lon="6.66337">
        <ele>1652.4000244141</ele>
        <time>2012-02-22T09:58:03.000Z</time>
      </trkpt>
      <trkpt lat="45.59995" lon="6.66336">
        <ele>1653.4000244141</ele>
        <time>2012-02-22T09:58:29.000Z</time>
      </trkpt>
      <trkpt lat="45.5999" lon="6.66331">
        <ele>1653.8000488281</ele>
        <time>2012-02-22T09:58:37.000Z</time>
      </trkpt>
      <trkpt lat="45.59999" lon="6.66319">
        <ele>1653.1999511719</ele>
        <time>2012-02-22T09:59:56.000Z</time>
      </trkpt>
      <trkpt lat="45.59998" lon="6.66311">
        <ele>1653.5999755859</ele>
        <time>2012-02-22T10:00:03.000Z</time>
      </trkpt>
      <trkpt lat="45.59997" lon="6.66307">
        <ele>1653.8000488281</ele>
        <time>2012-02-22T10:00:08.000Z</time>
      </trkpt>
      <trkpt lat="45.59997" lon="6.66306">
        <ele>1654.1999511719</ele>
        <time>2012-02-22T10:00:09.000Z</time>
      </trkpt>
      <trkpt lat="45.59997" lon="6.66301">
        <ele>1654.5999755859</ele>
        <time>2012-02-22T10:00:12.000Z</time>
      </trkpt>
      <trkpt lat="45.59999" lon="6.66291">
        <ele>1655</ele>
        <time>2012-02-22T10:00:19.000Z</time>
      </trkpt>
      <trkpt lat="45.59999" lon="6.66285">
        <ele>1655.1999511719</ele>
        <time>2012-02-22T10:00:24.000Z</time>
      </trkpt>
      <trkpt lat="45.6" lon="6.66283">
        <ele>1655.8000488281</ele>
        <time>2012-02-22T10:00:26.000Z</time>
      </trkpt>
      <trkpt lat="45.60001" lon="6.66281">
        <ele>1656.4000244141</ele>
        <time>2012-02-22T10:00:29.000Z</time>
      </trkpt>
      <trkpt lat="45.60002" lon="6.66275">
        <ele>1656.4000244141</ele>
        <time>2012-02-22T10:00:34.000Z</time>
      </trkpt>
      <trkpt lat="45.60003" lon="6.66271">
        <ele>1657</ele>
        <time>2012-02-22T10:00:39.000Z</time>
      </trkpt>
      <trkpt lat="45.60005" lon="6.66267">
        <ele>1658.4000244141</ele>
        <time>2012-02-22T10:00:45.000Z</time>
      </trkpt>
      <trkpt lat="45.60004" lon="6.66259">
        <ele>1659.4000244141</ele>
        <time>2012-02-22T10:00:51.000Z</time>
      </trkpt>
      <trkpt lat="45.60003" lon="6.6625">
        <ele>1659</ele>
        <time>2012-02-22T10:00:58.000Z</time>
      </trkpt>
      <trkpt lat="45.60004" lon="6.66243">
        <ele>1660</ele>
        <time>2012-02-22T10:01:04.000Z</time>
      </trkpt>
      <trkpt lat="45.60004" lon="6.66239">
        <ele>1661.4000244141</ele>
        <time>2012-02-22T10:01:09.000Z</time>
      </trkpt>
      <trkpt lat="45.60008" lon="6.66237">
        <ele>1662.4000244141</ele>
        <time>2012-02-22T10:01:16.000Z</time>
      </trkpt>
      <trkpt lat="45.60012" lon="6.66243">
        <ele>1663</ele>
        <time>2012-02-22T10:01:22.000Z</time>
      </trkpt>
      <trkpt lat="45.60015" lon="6.6625">
        <ele>1663.8000488281</ele>
        <time>2012-02-22T10:01:29.000Z</time>
      </trkpt>
      <trkpt lat="45.60018" lon="6.66252">
        <ele>1665.1999511719</ele>
        <time>2012-02-22T10:01:35.000Z</time>
      </trkpt>
      <trkpt lat="45.6002" lon="6.66251">
        <ele>1666.1999511719</ele>
        <time>2012-02-22T10:01:41.000Z</time>
      </trkpt>
      <trkpt lat="45.60022" lon="6.66246">
        <ele>1666.5999755859</ele>
        <time>2012-02-22T10:01:46.000Z</time>
      </trkpt>
      <trkpt lat="45.60023" lon="6.66239">
        <ele>1668.4000244141</ele>
        <time>2012-02-22T10:01:52.000Z</time>
      </trkpt>
      <trkpt lat="45.60023" lon="6.66234">
        <ele>1669</ele>
        <time>2012-02-22T10:01:57.000Z</time>
      </trkpt>
      <trkpt lat="45.60031" lon="6.66229">
        <ele>1671</ele>
        <time>2012-02-22T10:02:15.000Z</time>
      </trkpt>
      <trkpt lat="45.60033" lon="6.66224">
        <ele>1672.1999511719</ele>
        <time>2012-02-22T10:02:22.000Z</time>
      </trkpt>
      <trkpt lat="45.60035" lon="6.66219">
        <ele>1673</ele>
        <time>2012-02-22T10:02:30.000Z</time>
      </trkpt>
      <trkpt lat="45.60038" lon="6.66216">
        <ele>1675</ele>
        <time>2012-02-22T10:02:37.000Z</time>
      </trkpt>
      <trkpt lat="45.6004" lon="6.6622">
        <ele>1674.8000488281</ele>
        <time>2012-02-22T10:02:43.000Z</time>
      </trkpt>
      <trkpt lat="45.60043" lon="6.66214">
        <ele>1676.8000488281</ele>
        <time>2012-02-22T10:02:53.000Z</time>
      </trkpt>
      <trkpt lat="45.60044" lon="6.66208">
        <ele>1677.1999511719</ele>
        <time>2012-02-22T10:03:00.000Z</time>
      </trkpt>
      <trkpt lat="45.60043" lon="6.66204">
        <ele>1677.4000244141</ele>
        <time>2012-02-22T10:03:05.000Z</time>
      </trkpt>
      <trkpt lat="45.60043" lon="6.66198">
        <ele>1679</ele>
        <time>2012-02-22T10:03:11.000Z</time>
      </trkpt>
      <trkpt lat="45.60044" lon="6.66192">
        <ele>1678.4000244141</ele>
        <time>2012-02-22T10:03:16.000Z</time>
      </trkpt>
      <trkpt lat="45.60043" lon="6.66186">
        <ele>1679.5999755859</ele>
        <time>2012-02-22T10:03:22.000Z</time>
      </trkpt>
      <trkpt lat="45.60044" lon="6.66183">
        <ele>1681</ele>
        <time>2012-02-22T10:03:27.000Z</time>
      </trkpt>
      <trkpt lat="45.60044" lon="6.66177">
        <ele>1681.5999755859</ele>
        <time>2012-02-22T10:03:32.000Z</time>
      </trkpt>
      <trkpt lat="45.60044" lon="6.66173">
        <ele>1682.1999511719</ele>
        <time>2012-02-22T10:03:36.000Z</time>
      </trkpt>
      <trkpt lat="45.60042" lon="6.66168">
        <ele>1681.5999755859</ele>
        <time>2012-02-22T10:03:40.000Z</time>
      </trkpt>
      <trkpt lat="45.6004" lon="6.66161">
        <ele>1683.5999755859</ele>
        <time>2012-02-22T10:03:45.000Z</time>
      </trkpt>
      <trkpt lat="45.60042" lon="6.66158">
        <ele>1683.8000488281</ele>
        <time>2012-02-22T10:03:52.000Z</time>
      </trkpt>
      <trkpt lat="45.60046" lon="6.66161">
        <ele>1684.8000488281</ele>
        <time>2012-02-22T10:03:58.000Z</time>
      </trkpt>
      <trkpt lat="45.60048" lon="6.66164">
        <ele>1684.5999755859</ele>
        <time>2012-02-22T10:04:04.000Z</time>
      </trkpt>
      <trkpt lat="45.6005" lon="6.66165">
        <ele>1685</ele>
        <time>2012-02-22T10:04:06.000Z</time>
      </trkpt>
      <trkpt lat="45.60053" lon="6.66169">
        <ele>1686.1999511719</ele>
        <time>2012-02-22T10:04:13.000Z</time>
      </trkpt>
      <trkpt lat="45.60057" lon="6.66171">
        <ele>1688.1999511719</ele>
        <time>2012-02-22T10:04:19.000Z</time>
      </trkpt>
      <trkpt lat="45.60062" lon="6.66173">
        <ele>1688</ele>
        <time>2012-02-22T10:04:24.000Z</time>
      </trkpt>
      <trkpt lat="45.60066" lon="6.6617">
        <ele>1690</ele>
        <time>2012-02-22T10:04:36.000Z</time>
      </trkpt>
      <trkpt lat="45.60067" lon="6.66163">
        <ele>1691.1999511719</ele>
        <time>2012-02-22T10:04:44.000Z</time>
      </trkpt>
      <trkpt lat="45.60068" lon="6.66158">
        <ele>1693</ele>
        <time>2012-02-22T10:04:50.000Z</time>
      </trkpt>
      <trkpt lat="45.60069" lon="6.66152">
        <ele>1694.1999511719</ele>
        <time>2012-02-22T10:04:56.000Z</time>
      </trkpt>
      <trkpt lat="45.6007" lon="6.66147">
        <ele>1695.5999755859</ele>
        <time>2012-02-22T10:05:02.000Z</time>
      </trkpt>
      <trkpt lat="45.60072" lon="6.6614">
        <ele>1696.4000244141</ele>
        <time>2012-02-22T10:05:10.000Z</time>
      </trkpt>
      <trkpt lat="45.60072" lon="6.66134">
        <ele>1698.5999755859</ele>
        <time>2012-02-22T10:05:17.000Z</time>
      </trkpt>
      <trkpt lat="45.60072" lon="6.66133">
        <ele>1699.5999755859</ele>
        <time>2012-02-22T10:05:25.000Z</time>
      </trkpt>
      <trkpt lat="45.60076" lon="6.66142">
        <ele>1700</ele>
        <time>2012-02-22T10:05:33.000Z</time>
      </trkpt>
      <trkpt lat="45.6008" lon="6.66144">
        <ele>1700.5999755859</ele>
        <time>2012-02-22T10:05:41.000Z</time>
      </trkpt>
      <trkpt lat="45.60078" lon="6.66139">
        <ele>1700.8000488281</ele>
        <time>2012-02-22T10:05:51.000Z</time>
      </trkpt>
      <trkpt lat="45.60076" lon="6.66135">
        <ele>1701.1999511719</ele>
        <time>2012-02-22T10:06:08.000Z</time>
      </trkpt>
      <trkpt lat="45.60076" lon="6.6613">
        <ele>1701.1999511719</ele>
        <time>2012-02-22T10:06:13.000Z</time>
      </trkpt>
      <trkpt lat="45.60076" lon="6.66126">
        <ele>1701.5999755859</ele>
        <time>2012-02-22T10:06:17.000Z</time>
      </trkpt>
      <trkpt lat="45.60074" lon="6.6612">
        <ele>1702.4000244141</ele>
        <time>2012-02-22T10:06:25.000Z</time>
      </trkpt>
      <trkpt lat="45.60072" lon="6.66111">
        <ele>1703.1999511719</ele>
        <time>2012-02-22T10:06:33.000Z</time>
      </trkpt>
      <trkpt lat="45.60071" lon="6.66107">
        <ele>1703.8000488281</ele>
        <time>2012-02-22T10:06:37.000Z</time>
      </trkpt>
      <trkpt lat="45.60069" lon="6.66102">
        <ele>1703.1999511719</ele>
        <time>2012-02-22T10:06:42.000Z</time>
      </trkpt>
      <trkpt lat="45.60068" lon="6.66096">
        <ele>1704.4000244141</ele>
        <time>2012-02-22T10:06:48.000Z</time>
      </trkpt>
      <trkpt lat="45.60065" lon="6.66087">
        <ele>1704.1999511719</ele>
        <time>2012-02-22T10:06:56.000Z</time>
      </trkpt>
      <trkpt lat="45.60064" lon="6.66083">
        <ele>1705.4000244141</ele>
        <time>2012-02-22T10:06:59.000Z</time>
      </trkpt>
      <trkpt lat="45.60062" lon="6.66074">
        <ele>1705.4000244141</ele>
        <time>2012-02-22T10:07:07.000Z</time>
      </trkpt>
      <trkpt lat="45.60062" lon="6.66073">
        <ele>1705</ele>
        <time>2012-02-22T10:07:08.000Z</time>
      </trkpt>
      <trkpt lat="45.60059" lon="6.66065">
        <ele>1706.8000488281</ele>
        <time>2012-02-22T10:07:15.000Z</time>
      </trkpt>
      <trkpt lat="45.60057" lon="6.66059">
        <ele>1707.5999755859</ele>
        <time>2012-02-22T10:07:21.000Z</time>
      </trkpt>
      <trkpt lat="45.60054" lon="6.66054">
        <ele>1707.8000488281</ele>
        <time>2012-02-22T10:07:26.000Z</time>
      </trkpt>
      <trkpt lat="45.60052" lon="6.6605">
        <ele>1708.8000488281</ele>
        <time>2012-02-22T10:07:32.000Z</time>
      </trkpt>
      <trkpt lat="45.60048" lon="6.66047">
        <ele>1708.4000244141</ele>
        <time>2012-02-22T10:07:38.000Z</time>
      </trkpt>
      <trkpt lat="45.60045" lon="6.6604">
        <ele>1708.8000488281</ele>
        <time>2012-02-22T10:07:44.000Z</time>
      </trkpt>
      <trkpt lat="45.60043" lon="6.66034">
        <ele>1709.1999511719</ele>
        <time>2012-02-22T10:07:50.000Z</time>
      </trkpt>
      <trkpt lat="45.6004" lon="6.66028">
        <ele>1710.5999755859</ele>
        <time>2012-02-22T10:07:55.000Z</time>
      </trkpt>
      <trkpt lat="45.60039" lon="6.66023">
        <ele>1710</ele>
        <time>2012-02-22T10:07:59.000Z</time>
      </trkpt>
      <trkpt lat="45.60034" lon="6.66018">
        <ele>1711.8000488281</ele>
        <time>2012-02-22T10:08:05.000Z</time>
      </trkpt>
      <trkpt lat="45.60031" lon="6.66012">
        <ele>1711.5999755859</ele>
        <time>2012-02-22T10:08:14.000Z</time>
      </trkpt>
      <trkpt lat="45.60031" lon="6.66006">
        <ele>1712.1999511719</ele>
        <time>2012-02-22T10:08:19.000Z</time>
      </trkpt>
      <trkpt lat="45.60034" lon="6.65993">
        <ele>1712.8000488281</ele>
        <time>2012-02-22T10:08:27.000Z</time>
      </trkpt>
      <trkpt lat="45.6003" lon="6.65983">
        <ele>1713.5999755859</ele>
        <time>2012-02-22T10:08:35.000Z</time>
      </trkpt>
      <trkpt lat="45.60028" lon="6.65977">
        <ele>1714.8000488281</ele>
        <time>2012-02-22T10:08:40.000Z</time>
      </trkpt>
      <trkpt lat="45.60027" lon="6.6597">
        <ele>1714</ele>
        <time>2012-02-22T10:08:45.000Z</time>
      </trkpt>
      <trkpt lat="45.60027" lon="6.65965">
        <ele>1715.1999511719</ele>
        <time>2012-02-22T10:08:49.000Z</time>
      </trkpt>
      <trkpt lat="45.60027" lon="6.6596">
        <ele>1714.8000488281</ele>
        <time>2012-02-22T10:08:54.000Z</time>
      </trkpt>
      <trkpt lat="45.60029" lon="6.65955">
        <ele>1717</ele>
        <time>2012-02-22T10:09:00.000Z</time>
      </trkpt>
      <trkpt lat="45.60033" lon="6.65953">
        <ele>1717.1999511719</ele>
        <time>2012-02-22T10:09:05.000Z</time>
      </trkpt>
      <trkpt lat="45.60039" lon="6.65962">
        <ele>1717.1999511719</ele>
        <time>2012-02-22T10:09:14.000Z</time>
      </trkpt>
      <trkpt lat="45.60042" lon="6.65969">
        <ele>1717</ele>
        <time>2012-02-22T10:09:21.000Z</time>
      </trkpt>
      <trkpt lat="45.60045" lon="6.65974">
        <ele>1718.1999511719</ele>
        <time>2012-02-22T10:09:26.000Z</time>
      </trkpt>
      <trkpt lat="45.60048" lon="6.65978">
        <ele>1719.1999511719</ele>
        <time>2012-02-22T10:09:32.000Z</time>
      </trkpt>
      <trkpt lat="45.60054" lon="6.6598">
        <ele>1719.4000244141</ele>
        <time>2012-02-22T10:09:39.000Z</time>
      </trkpt>
      <trkpt lat="45.60055" lon="6.65986">
        <ele>1719.4000244141</ele>
        <time>2012-02-22T10:09:44.000Z</time>
      </trkpt>
      <trkpt lat="45.60059" lon="6.65992">
        <ele>1719.5999755859</ele>
        <time>2012-02-22T10:09:50.000Z</time>
      </trkpt>
      <trkpt lat="45.60062" lon="6.65996">
        <ele>1721</ele>
        <time>2012-02-22T10:09:55.000Z</time>
      </trkpt>
      <trkpt lat="45.60066" lon="6.65998">
        <ele>1720.8000488281</ele>
        <time>2012-02-22T10:10:00.000Z</time>
      </trkpt>
      <trkpt lat="45.6007" lon="6.66002">
        <ele>1721.5999755859</ele>
        <time>2012-02-22T10:10:06.000Z</time>
      </trkpt>
      <trkpt lat="45.60071" lon="6.66009">
        <ele>1721.4000244141</ele>
        <time>2012-02-22T10:10:11.000Z</time>
      </trkpt>
      <trkpt lat="45.60077" lon="6.66012">
        <ele>1722.8000488281</ele>
        <time>2012-02-22T10:10:17.000Z</time>
      </trkpt>
      <trkpt lat="45.60082" lon="6.66012">
        <ele>1722.5999755859</ele>
        <time>2012-02-22T10:10:24.000Z</time>
      </trkpt>
      <trkpt lat="45.60088" lon="6.66016">
        <ele>1724.5999755859</ele>
        <time>2012-02-22T10:10:31.000Z</time>
      </trkpt>
      <trkpt lat="45.60091" lon="6.66023">
        <ele>1724.5999755859</ele>
        <time>2012-02-22T10:10:38.000Z</time>
      </trkpt>
      <trkpt lat="45.60097" lon="6.66024">
        <ele>1725</ele>
        <time>2012-02-22T10:10:45.000Z</time>
      </trkpt>
      <trkpt lat="45.60102" lon="6.66021">
        <ele>1724.5999755859</ele>
        <time>2012-02-22T10:10:51.000Z</time>
      </trkpt>
      <trkpt lat="45.60103" lon="6.66014">
        <ele>1726.4000244141</ele>
        <time>2012-02-22T10:10:59.000Z</time>
      </trkpt>
      <trkpt lat="45.60099" lon="6.66008">
        <ele>1726</ele>
        <time>2012-02-22T10:11:04.000Z</time>
      </trkpt>
      <trkpt lat="45.60095" lon="6.66001">
        <ele>1727.5999755859</ele>
        <time>2012-02-22T10:11:12.000Z</time>
      </trkpt>
      <trkpt lat="45.60092" lon="6.65993">
        <ele>1727.4000244141</ele>
        <time>2012-02-22T10:11:19.000Z</time>
      </trkpt>
      <trkpt lat="45.60092" lon="6.65989">
        <ele>1727.8000488281</ele>
        <time>2012-02-22T10:11:23.000Z</time>
      </trkpt>
      <trkpt lat="45.60092" lon="6.65984">
        <ele>1728.8000488281</ele>
        <time>2012-02-22T10:11:28.000Z</time>
      </trkpt>
      <trkpt lat="45.60092" lon="6.6598">
        <ele>1729.4000244141</ele>
        <time>2012-02-22T10:11:33.000Z</time>
      </trkpt>
      <trkpt lat="45.60093" lon="6.65977">
        <ele>1731</ele>
        <time>2012-02-22T10:11:38.000Z</time>
      </trkpt>
      <trkpt lat="45.60095" lon="6.6597">
        <ele>1734</ele>
        <time>2012-02-22T10:11:50.000Z</time>
      </trkpt>
      <trkpt lat="45.60097" lon="6.65966">
        <ele>1734.8000488281</ele>
        <time>2012-02-22T10:11:55.000Z</time>
      </trkpt>
      <trkpt lat="45.60098" lon="6.65962">
        <ele>1736.8000488281</ele>
        <time>2012-02-22T10:12:00.000Z</time>
      </trkpt>
      <trkpt lat="45.60102" lon="6.65958">
        <ele>1738</ele>
        <time>2012-02-22T10:12:08.000Z</time>
      </trkpt>
      <trkpt lat="45.60104" lon="6.65952">
        <ele>1738.4000244141</ele>
        <time>2012-02-22T10:12:16.000Z</time>
      </trkpt>
      <trkpt lat="45.60105" lon="6.65949">
        <ele>1739.5999755859</ele>
        <time>2012-02-22T10:12:20.000Z</time>
      </trkpt>
      <trkpt lat="45.60107" lon="6.65946">
        <ele>1740.5999755859</ele>
        <time>2012-02-22T10:12:24.000Z</time>
      </trkpt>
      <trkpt lat="45.60109" lon="6.65941">
        <ele>1740.5999755859</ele>
        <time>2012-02-22T10:12:30.000Z</time>
      </trkpt>
      <trkpt lat="45.60115" lon="6.65938">
        <ele>1742.1999511719</ele>
        <time>2012-02-22T10:12:39.000Z</time>
      </trkpt>
      <trkpt lat="45.60114" lon="6.65936">
        <ele>1743</ele>
        <time>2012-02-22T10:12:42.000Z</time>
      </trkpt>
      <trkpt lat="45.60119" lon="6.6593">
        <ele>1744.4000244141</ele>
        <time>2012-02-22T10:12:50.000Z</time>
      </trkpt>
      <trkpt lat="45.60121" lon="6.65928">
        <ele>1746</ele>
        <time>2012-02-22T10:12:55.000Z</time>
      </trkpt>
      <trkpt lat="45.60124" lon="6.65927">
        <ele>1746.8000488281</ele>
        <time>2012-02-22T10:13:01.000Z</time>
      </trkpt>
      <trkpt lat="45.60125" lon="6.65933">
        <ele>1748.8000488281</ele>
        <time>2012-02-22T10:13:09.000Z</time>
      </trkpt>
      <trkpt lat="45.60126" lon="6.65935">
        <ele>1750.1999511719</ele>
        <time>2012-02-22T10:13:17.000Z</time>
      </trkpt>
      <trkpt lat="45.6013" lon="6.65933">
        <ele>1750.8000488281</ele>
        <time>2012-02-22T10:13:21.000Z</time>
      </trkpt>
      <trkpt lat="45.60135" lon="6.65929">
        <ele>1752</ele>
        <time>2012-02-22T10:13:27.000Z</time>
      </trkpt>
      <trkpt lat="45.60136" lon="6.65923">
        <ele>1752.8000488281</ele>
        <time>2012-02-22T10:13:32.000Z</time>
      </trkpt>
      <trkpt lat="45.60137" lon="6.65919">
        <ele>1754.1999511719</ele>
        <time>2012-02-22T10:13:38.000Z</time>
      </trkpt>
      <trkpt lat="45.60144" lon="6.65923">
        <ele>1755.8000488281</ele>
        <time>2012-02-22T10:13:48.000Z</time>
      </trkpt>
      <trkpt lat="45.60146" lon="6.65927">
        <ele>1756.4000244141</ele>
        <time>2012-02-22T10:13:53.000Z</time>
      </trkpt>
      <trkpt lat="45.60149" lon="6.65929">
        <ele>1758</ele>
        <time>2012-02-22T10:14:00.000Z</time>
      </trkpt>
      <trkpt lat="45.60154" lon="6.65927">
        <ele>1759</ele>
        <time>2012-02-22T10:14:06.000Z</time>
      </trkpt>
      <trkpt lat="45.60157" lon="6.65919">
        <ele>1761.8000488281</ele>
        <time>2012-02-22T10:14:18.000Z</time>
      </trkpt>
      <trkpt lat="45.6016" lon="6.6592">
        <ele>1762.1999511719</ele>
        <time>2012-02-22T10:14:22.000Z</time>
      </trkpt>
      <trkpt lat="45.60164" lon="6.65925">
        <ele>1763.4000244141</ele>
        <time>2012-02-22T10:14:30.000Z</time>
      </trkpt>
      <trkpt lat="45.60166" lon="6.65926">
        <ele>1764.8000488281</ele>
        <time>2012-02-22T10:14:36.000Z</time>
      </trkpt>
      <trkpt lat="45.60167" lon="6.65915">
        <ele>1766.5999755859</ele>
        <time>2012-02-22T10:14:44.000Z</time>
      </trkpt>
      <trkpt lat="45.60168" lon="6.65912">
        <ele>1767.8000488281</ele>
        <time>2012-02-22T10:14:47.000Z</time>
      </trkpt>
      <trkpt lat="45.60167" lon="6.65907">
        <ele>1768.5999755859</ele>
        <time>2012-02-22T10:14:49.000Z</time>
      </trkpt>
      <trkpt lat="45.60167" lon="6.65895">
        <ele>1769.5999755859</ele>
        <time>2012-02-22T10:14:58.000Z</time>
      </trkpt>
      <trkpt lat="45.60167" lon="6.6589">
        <ele>1772.1999511719</ele>
        <time>2012-02-22T10:15:04.000Z</time>
      </trkpt>
      <trkpt lat="45.60167" lon="6.65889">
        <ele>1772.4000244141</ele>
        <time>2012-02-22T10:15:05.000Z</time>
      </trkpt>
      <trkpt lat="45.60168" lon="6.65887">
        <ele>1773.8000488281</ele>
        <time>2012-02-22T10:15:08.000Z</time>
      </trkpt>
      <trkpt lat="45.60171" lon="6.65885">
        <ele>1773.5999755859</ele>
        <time>2012-02-22T10:15:14.000Z</time>
      </trkpt>
      <trkpt lat="45.60176" lon="6.65888">
        <ele>1776.1999511719</ele>
        <time>2012-02-22T10:15:21.000Z</time>
      </trkpt>
      <trkpt lat="45.60178" lon="6.65888">
        <ele>1776.8000488281</ele>
        <time>2012-02-22T10:15:23.000Z</time>
      </trkpt>
      <trkpt lat="45.60182" lon="6.65891">
        <ele>1777.4000244141</ele>
        <time>2012-02-22T10:15:28.000Z</time>
      </trkpt>
      <trkpt lat="45.60188" lon="6.6589">
        <ele>1778.4000244141</ele>
        <time>2012-02-22T10:15:34.000Z</time>
      </trkpt>
      <trkpt lat="45.6019" lon="6.65887">
        <ele>1778.8000488281</ele>
        <time>2012-02-22T10:15:40.000Z</time>
      </trkpt>
      <trkpt lat="45.60191" lon="6.65884">
        <ele>1780.8000488281</ele>
        <time>2012-02-22T10:15:46.000Z</time>
      </trkpt>
      <trkpt lat="45.60193" lon="6.65882">
        <ele>1783</ele>
        <time>2012-02-22T10:15:51.000Z</time>
      </trkpt>
      <trkpt lat="45.60197" lon="6.65879">
        <ele>1784.1999511719</ele>
        <time>2012-02-22T10:15:57.000Z</time>
      </trkpt>
      <trkpt lat="45.60197" lon="6.65878">
        <ele>1784.4000244141</ele>
        <time>2012-02-22T10:15:58.000Z</time>
      </trkpt>
      <trkpt lat="45.60202" lon="6.65878">
        <ele>1785.8000488281</ele>
        <time>2012-02-22T10:16:05.000Z</time>
      </trkpt>
      <trkpt lat="45.60208" lon="6.65877">
        <ele>1788.4000244141</ele>
        <time>2012-02-22T10:16:16.000Z</time>
      </trkpt>
      <trkpt lat="45.60211" lon="6.65881">
        <ele>1790.4000244141</ele>
        <time>2012-02-22T10:16:24.000Z</time>
      </trkpt>
      <trkpt lat="45.60213" lon="6.65877">
        <ele>1791</ele>
        <time>2012-02-22T10:16:29.000Z</time>
      </trkpt>
      <trkpt lat="45.60213" lon="6.6587">
        <ele>1792</ele>
        <time>2012-02-22T10:16:34.000Z</time>
      </trkpt>
      <trkpt lat="45.60212" lon="6.65864">
        <ele>1792.1999511719</ele>
        <time>2012-02-22T10:16:39.000Z</time>
      </trkpt>
      <trkpt lat="45.60212" lon="6.65859">
        <ele>1793.1999511719</ele>
        <time>2012-02-22T10:16:46.000Z</time>
      </trkpt>
      <trkpt lat="45.60212" lon="6.65857">
        <ele>1793.8000488281</ele>
        <time>2012-02-22T10:16:48.000Z</time>
      </trkpt>
      <trkpt lat="45.60211" lon="6.65846">
        <ele>1796.5999755859</ele>
        <time>2012-02-22T10:16:57.000Z</time>
      </trkpt>
      <trkpt lat="45.60211" lon="6.65837">
        <ele>1795.5999755859</ele>
        <time>2012-02-22T10:17:03.000Z</time>
      </trkpt>
      <trkpt lat="45.60212" lon="6.65831">
        <ele>1796.4000244141</ele>
        <time>2012-02-22T10:17:08.000Z</time>
      </trkpt>
      <trkpt lat="45.60214" lon="6.65828">
        <ele>1796.1999511719</ele>
        <time>2012-02-22T10:17:10.000Z</time>
      </trkpt>
      <trkpt lat="45.60211" lon="6.65817">
        <ele>1796</ele>
        <time>2012-02-22T10:17:16.000Z</time>
      </trkpt>
      <trkpt lat="45.60211" lon="6.65815">
        <ele>1796.8000488281</ele>
        <time>2012-02-22T10:17:18.000Z</time>
      </trkpt>
      <trkpt lat="45.6021" lon="6.65801">
        <ele>1798.8000488281</ele>
        <time>2012-02-22T10:17:27.000Z</time>
      </trkpt>
      <trkpt lat="45.60209" lon="6.6579">
        <ele>1800.8000488281</ele>
        <time>2012-02-22T10:17:35.000Z</time>
      </trkpt>
      <trkpt lat="45.60209" lon="6.65781">
        <ele>1801.4000244141</ele>
        <time>2012-02-22T10:17:42.000Z</time>
      </trkpt>
      <trkpt lat="45.60209" lon="6.65773">
        <ele>1802.5999755859</ele>
        <time>2012-02-22T10:17:48.000Z</time>
      </trkpt>
      <trkpt lat="45.60209" lon="6.65764">
        <ele>1803.8000488281</ele>
        <time>2012-02-22T10:17:56.000Z</time>
      </trkpt>
      <trkpt lat="45.60211" lon="6.65756">
        <ele>1805.5999755859</ele>
        <time>2012-02-22T10:18:03.000Z</time>
      </trkpt>
      <trkpt lat="45.60213" lon="6.65749">
        <ele>1807.8000488281</ele>
        <time>2012-02-22T10:18:10.000Z</time>
      </trkpt>
      <trkpt lat="45.60215" lon="6.65746">
        <ele>1807</ele>
        <time>2012-02-22T10:18:17.000Z</time>
      </trkpt>
      <trkpt lat="45.60218" lon="6.65742">
        <ele>1810</ele>
        <time>2012-02-22T10:18:23.000Z</time>
      </trkpt>
      <trkpt lat="45.6022" lon="6.65735">
        <ele>1812.1999511719</ele>
        <time>2012-02-22T10:18:30.000Z</time>
      </trkpt>
      <trkpt lat="45.60221" lon="6.65727">
        <ele>1812.1999511719</ele>
        <time>2012-02-22T10:18:39.000Z</time>
      </trkpt>
      <trkpt lat="45.60223" lon="6.65722">
        <ele>1815.1999511719</ele>
        <time>2012-02-22T10:18:44.000Z</time>
      </trkpt>
      <trkpt lat="45.60224" lon="6.6572">
        <ele>1815.5999755859</ele>
        <time>2012-02-22T10:18:49.000Z</time>
      </trkpt>
      <trkpt lat="45.60227" lon="6.6571">
        <ele>1815.5999755859</ele>
        <time>2012-02-22T10:19:00.000Z</time>
      </trkpt>
      <trkpt lat="45.6023" lon="6.65704">
        <ele>1817</ele>
        <time>2012-02-22T10:19:07.000Z</time>
      </trkpt>
      <trkpt lat="45.60232" lon="6.65699">
        <ele>1817.8000488281</ele>
        <time>2012-02-22T10:19:12.000Z</time>
      </trkpt>
      <trkpt lat="45.60234" lon="6.65691">
        <ele>1819</ele>
        <time>2012-02-22T10:19:20.000Z</time>
      </trkpt>
      <trkpt lat="45.60237" lon="6.65682">
        <ele>1820.5999755859</ele>
        <time>2012-02-22T10:19:28.000Z</time>
      </trkpt>
      <trkpt lat="45.60239" lon="6.65676">
        <ele>1822.4000244141</ele>
        <time>2012-02-22T10:19:35.000Z</time>
      </trkpt>
      <trkpt lat="45.6024" lon="6.65673">
        <ele>1821.4000244141</ele>
        <time>2012-02-22T10:19:38.000Z</time>
      </trkpt>
      <trkpt lat="45.60239" lon="6.65665">
        <ele>1824.1999511719</ele>
        <time>2012-02-22T10:19:45.000Z</time>
      </trkpt>
      <trkpt lat="45.60239" lon="6.65659">
        <ele>1824.4000244141</ele>
        <time>2012-02-22T10:19:51.000Z</time>
      </trkpt>
      <trkpt lat="45.6024" lon="6.65657">
        <ele>1825</ele>
        <time>2012-02-22T10:19:53.000Z</time>
      </trkpt>
      <trkpt lat="45.60239" lon="6.65653">
        <ele>1826.1999511719</ele>
        <time>2012-02-22T10:20:01.000Z</time>
      </trkpt>
      <trkpt lat="45.60241" lon="6.65648">
        <ele>1827.1999511719</ele>
        <time>2012-02-22T10:20:07.000Z</time>
      </trkpt>
      <trkpt lat="45.60242" lon="6.65641">
        <ele>1827.4000244141</ele>
        <time>2012-02-22T10:20:13.000Z</time>
      </trkpt>
      <trkpt lat="45.60242" lon="6.65634">
        <ele>1827.8000488281</ele>
        <time>2012-02-22T10:20:19.000Z</time>
      </trkpt>
      <trkpt lat="45.60243" lon="6.65629">
        <ele>1828</ele>
        <time>2012-02-22T10:20:24.000Z</time>
      </trkpt>
      <trkpt lat="45.60243" lon="6.65622">
        <ele>1829.5999755859</ele>
        <time>2012-02-22T10:20:32.000Z</time>
      </trkpt>
      <trkpt lat="45.60248" lon="6.65608">
        <ele>1830.1999511719</ele>
        <time>2012-02-22T10:22:30.000Z</time>
      </trkpt>
      <trkpt lat="45.60249" lon="6.65599">
        <ele>1829.5999755859</ele>
        <time>2012-02-22T10:22:32.000Z</time>
      </trkpt>
      <trkpt lat="45.60227" lon="6.65639">
        <ele>1830</ele>
        <time>2012-02-22T10:22:38.000Z</time>
      </trkpt>
      <trkpt lat="45.60242" lon="6.65634">
        <ele>1829.5999755859</ele>
        <time>2012-02-22T10:22:57.000Z</time>
      </trkpt>
      <trkpt lat="45.60239" lon="6.65653">
        <ele>1829.8000488281</ele>
        <time>2012-02-22T10:23:24.000Z</time>
      </trkpt>
      <trkpt lat="45.60251" lon="6.65623">
        <ele>1829.4000244141</ele>
        <time>2012-02-22T10:23:43.000Z</time>
      </trkpt>
      <trkpt lat="45.60251" lon="6.6562">
        <ele>1829.5999755859</ele>
        <time>2012-02-22T10:23:49.000Z</time>
      </trkpt>
      <trkpt lat="45.6025" lon="6.65622">
        <ele>1829.4000244141</ele>
        <time>2012-02-22T10:23:57.000Z</time>
      </trkpt>
      <trkpt lat="45.60256" lon="6.6563">
        <ele>1829</ele>
        <time>2012-02-22T10:24:02.000Z</time>
      </trkpt>
      <trkpt lat="45.60257" lon="6.6564">
        <ele>1829.1999511719</ele>
        <time>2012-02-22T10:24:08.000Z</time>
      </trkpt>
      <trkpt lat="45.60257" lon="6.65646">
        <ele>1829.1999511719</ele>
        <time>2012-02-22T10:24:10.000Z</time>
      </trkpt>
      <trkpt lat="45.60253" lon="6.65649">
        <ele>1829.5999755859</ele>
        <time>2012-02-22T10:24:16.000Z</time>
      </trkpt>
      <trkpt lat="45.60239" lon="6.6565">
        <ele>1829.4000244141</ele>
        <time>2012-02-22T10:24:25.000Z</time>
      </trkpt>
      <trkpt lat="45.60233" lon="6.65646">
        <ele>1827.8000488281</ele>
        <time>2012-02-22T10:24:35.000Z</time>
      </trkpt>
      <trkpt lat="45.60234" lon="6.65642">
        <ele>1830.5999755859</ele>
        <time>2012-02-22T10:24:39.000Z</time>
      </trkpt>
      <trkpt lat="45.60244" lon="6.65621">
        <ele>1830</ele>
        <time>2012-02-22T10:25:18.000Z</time>
      </trkpt>
      <trkpt lat="45.60259" lon="6.65609">
        <ele>1829.8000488281</ele>
        <time>2012-02-22T10:26:20.000Z</time>
      </trkpt>
      <trkpt lat="45.60252" lon="6.65621">
        <ele>1830.4000244141</ele>
        <time>2012-02-22T10:31:08.000Z</time>
      </trkpt>
      <trkpt lat="45.60254" lon="6.65619">
        <ele>1830.8000488281</ele>
        <time>2012-02-22T10:31:12.000Z</time>
      </trkpt>
      <trkpt lat="45.60255" lon="6.65621">
        <ele>1830.8000488281</ele>
        <time>2012-02-22T10:31:22.000Z</time>
      </trkpt>
      <trkpt lat="45.60256" lon="6.6562">
        <ele>1831.5999755859</ele>
        <time>2012-02-22T10:31:25.000Z</time>
      </trkpt>
      <trkpt lat="45.60259" lon="6.65613">
        <ele>1833.1999511719</ele>
        <time>2012-02-22T10:31:33.000Z</time>
      </trkpt>
      <trkpt lat="45.60263" lon="6.65606">
        <ele>1835.4000244141</ele>
        <time>2012-02-22T10:31:40.000Z</time>
      </trkpt>
      <trkpt lat="45.60266" lon="6.65601">
        <ele>1835.5999755859</ele>
        <time>2012-02-22T10:31:45.000Z</time>
      </trkpt>
      <trkpt lat="45.60269" lon="6.65595">
        <ele>1835.5999755859</ele>
        <time>2012-02-22T10:31:52.000Z</time>
      </trkpt>
      <trkpt lat="45.60272" lon="6.65589">
        <ele>1837.5999755859</ele>
        <time>2012-02-22T10:31:59.000Z</time>
      </trkpt>
      <trkpt lat="45.60275" lon="6.65584">
        <ele>1838.4000244141</ele>
        <time>2012-02-22T10:32:06.000Z</time>
      </trkpt>
      <trkpt lat="45.60278" lon="6.65579">
        <ele>1840.4000244141</ele>
        <time>2012-02-22T10:32:13.000Z</time>
      </trkpt>
      <trkpt lat="45.6028" lon="6.65577">
        <ele>1840.8000488281</ele>
        <time>2012-02-22T10:32:20.000Z</time>
      </trkpt>
      <trkpt lat="45.6028" lon="6.65586">
        <ele>1841.4000244141</ele>
        <time>2012-02-22T10:32:27.000Z</time>
      </trkpt>
      <trkpt lat="45.60282" lon="6.65593">
        <ele>1842.4000244141</ele>
        <time>2012-02-22T10:32:34.000Z</time>
      </trkpt>
      <trkpt lat="45.60283" lon="6.65601">
        <ele>1844</ele>
        <time>2012-02-22T10:32:42.000Z</time>
      </trkpt>
      <trkpt lat="45.60283" lon="6.65596">
        <ele>1844</ele>
        <time>2012-02-22T10:32:48.000Z</time>
      </trkpt>
      <trkpt lat="45.60286" lon="6.65589">
        <ele>1844.5999755859</ele>
        <time>2012-02-22T10:32:54.000Z</time>
      </trkpt>
      <trkpt lat="45.6029" lon="6.65584">
        <ele>1845.1999511719</ele>
        <time>2012-02-22T10:32:59.000Z</time>
      </trkpt>
      <trkpt lat="45.60295" lon="6.65577">
        <ele>1846.1999511719</ele>
        <time>2012-02-22T10:33:06.000Z</time>
      </trkpt>
      <trkpt lat="45.60296" lon="6.65577">
        <ele>1846.1999511719</ele>
        <time>2012-02-22T10:33:07.000Z</time>
      </trkpt>
      <trkpt lat="45.603" lon="6.65571">
        <ele>1847.4000244141</ele>
        <time>2012-02-22T10:33:15.000Z</time>
      </trkpt>
      <trkpt lat="45.60304" lon="6.65568">
        <ele>1850</ele>
        <time>2012-02-22T10:33:22.000Z</time>
      </trkpt>
      <trkpt lat="45.6031" lon="6.65564">
        <ele>1850.1999511719</ele>
        <time>2012-02-22T10:33:29.000Z</time>
      </trkpt>
      <trkpt lat="45.60315" lon="6.6556">
        <ele>1852</ele>
        <time>2012-02-22T10:33:36.000Z</time>
      </trkpt>
      <trkpt lat="45.60318" lon="6.65557">
        <ele>1853.4000244141</ele>
        <time>2012-02-22T10:33:41.000Z</time>
      </trkpt>
      <trkpt lat="45.60321" lon="6.65554">
        <ele>1853.8000488281</ele>
        <time>2012-02-22T10:33:45.000Z</time>
      </trkpt>
      <trkpt lat="45.60325" lon="6.65553">
        <ele>1854.4000244141</ele>
        <time>2012-02-22T10:33:50.000Z</time>
      </trkpt>
      <trkpt lat="45.60329" lon="6.65548">
        <ele>1856.8000488281</ele>
        <time>2012-02-22T10:33:59.000Z</time>
      </trkpt>
      <trkpt lat="45.60331" lon="6.65545">
        <ele>1857.4000244141</ele>
        <time>2012-02-22T10:34:04.000Z</time>
      </trkpt>
      <trkpt lat="45.60335" lon="6.65541">
        <ele>1857.5999755859</ele>
        <time>2012-02-22T10:34:12.000Z</time>
      </trkpt>
      <trkpt lat="45.6034" lon="6.65537">
        <ele>1859.4000244141</ele>
        <time>2012-02-22T10:34:20.000Z</time>
      </trkpt>
      <trkpt lat="45.60342" lon="6.65535">
        <ele>1862.1999511719</ele>
        <time>2012-02-22T10:34:25.000Z</time>
      </trkpt>
      <trkpt lat="45.60346" lon="6.65532">
        <ele>1862.1999511719</ele>
        <time>2012-02-22T10:34:31.000Z</time>
      </trkpt>
      <trkpt lat="45.60348" lon="6.65531">
        <ele>1863.8000488281</ele>
        <time>2012-02-22T10:34:35.000Z</time>
      </trkpt>
      <trkpt lat="45.60352" lon="6.65527">
        <ele>1863.1999511719</ele>
        <time>2012-02-22T10:34:42.000Z</time>
      </trkpt>
      <trkpt lat="45.60357" lon="6.65524">
        <ele>1866.1999511719</ele>
        <time>2012-02-22T10:34:50.000Z</time>
      </trkpt>
      <trkpt lat="45.60362" lon="6.65521">
        <ele>1866</ele>
        <time>2012-02-22T10:34:56.000Z</time>
      </trkpt>
      <trkpt lat="45.60367" lon="6.65518">
        <ele>1866.8000488281</ele>
        <time>2012-02-22T10:35:02.000Z</time>
      </trkpt>
      <trkpt lat="45.6037" lon="6.65517">
        <ele>1868.5999755859</ele>
        <time>2012-02-22T10:35:05.000Z</time>
      </trkpt>
      <trkpt lat="45.60375" lon="6.65515">
        <ele>1869.8000488281</ele>
        <time>2012-02-22T10:35:11.000Z</time>
      </trkpt>
      <trkpt lat="45.60382" lon="6.65512">
        <ele>1870</ele>
        <time>2012-02-22T10:35:20.000Z</time>
      </trkpt>
      <trkpt lat="45.6039" lon="6.65509">
        <ele>1871.8000488281</ele>
        <time>2012-02-22T10:35:29.000Z</time>
      </trkpt>
      <trkpt lat="45.60392" lon="6.65509">
        <ele>1874.1999511719</ele>
        <time>2012-02-22T10:35:33.000Z</time>
      </trkpt>
      <trkpt lat="45.60398" lon="6.65509">
        <ele>1875.1999511719</ele>
        <time>2012-02-22T10:35:41.000Z</time>
      </trkpt>
      <trkpt lat="45.60406" lon="6.65508">
        <ele>1875.8000488281</ele>
        <time>2012-02-22T10:35:50.000Z</time>
      </trkpt>
      <trkpt lat="45.60414" lon="6.65507">
        <ele>1877</ele>
        <time>2012-02-22T10:35:58.000Z</time>
      </trkpt>
      <trkpt lat="45.60417" lon="6.65508">
        <ele>1879.1999511719</ele>
        <time>2012-02-22T10:36:03.000Z</time>
      </trkpt>
      <trkpt lat="45.60422" lon="6.65508">
        <ele>1879.8000488281</ele>
        <time>2012-02-22T10:36:10.000Z</time>
      </trkpt>
      <trkpt lat="45.60423" lon="6.65508">
        <ele>1881.1999511719</ele>
        <time>2012-02-22T10:36:12.000Z</time>
      </trkpt>
      <trkpt lat="45.60429" lon="6.65511">
        <ele>1883.1999511719</ele>
        <time>2012-02-22T10:36:20.000Z</time>
      </trkpt>
      <trkpt lat="45.60433" lon="6.6551">
        <ele>1883.8000488281</ele>
        <time>2012-02-22T10:36:26.000Z</time>
      </trkpt>
      <trkpt lat="45.60438" lon="6.65508">
        <ele>1884</ele>
        <time>2012-02-22T10:36:30.000Z</time>
      </trkpt>
      <trkpt lat="45.60441" lon="6.65506">
        <ele>1886</ele>
        <time>2012-02-22T10:36:36.000Z</time>
      </trkpt>
      <trkpt lat="45.60446" lon="6.65503">
        <ele>1885.5999755859</ele>
        <time>2012-02-22T10:36:43.000Z</time>
      </trkpt>
      <trkpt lat="45.60451" lon="6.65499">
        <ele>1886.4000244141</ele>
        <time>2012-02-22T10:36:50.000Z</time>
      </trkpt>
      <trkpt lat="45.60457" lon="6.65494">
        <ele>1888.5999755859</ele>
        <time>2012-02-22T10:36:59.000Z</time>
      </trkpt>
      <trkpt lat="45.60463" lon="6.65492">
        <ele>1889.5999755859</ele>
        <time>2012-02-22T10:37:07.000Z</time>
      </trkpt>
      <trkpt lat="45.60468" lon="6.65491">
        <ele>1892.5999755859</ele>
        <time>2012-02-22T10:37:15.000Z</time>
      </trkpt>
      <trkpt lat="45.6047" lon="6.65491">
        <ele>1893.1999511719</ele>
        <time>2012-02-22T10:37:17.000Z</time>
      </trkpt>
      <trkpt lat="45.60476" lon="6.65489">
        <ele>1893.8000488281</ele>
        <time>2012-02-22T10:37:27.000Z</time>
      </trkpt>
      <trkpt lat="45.60481" lon="6.65487">
        <ele>1895.5999755859</ele>
        <time>2012-02-22T10:37:34.000Z</time>
      </trkpt>
      <trkpt lat="45.60487" lon="6.65485">
        <ele>1896</ele>
        <time>2012-02-22T10:37:43.000Z</time>
      </trkpt>
      <trkpt lat="45.60491" lon="6.65486">
        <ele>1898</ele>
        <time>2012-02-22T10:37:47.000Z</time>
      </trkpt>
      <trkpt lat="45.60496" lon="6.65486">
        <ele>1900.1999511719</ele>
        <time>2012-02-22T10:37:54.000Z</time>
      </trkpt>
      <trkpt lat="45.605" lon="6.65484">
        <ele>1900.8000488281</ele>
        <time>2012-02-22T10:38:01.000Z</time>
      </trkpt>
      <trkpt lat="45.60505" lon="6.6548">
        <ele>1901.1999511719</ele>
        <time>2012-02-22T10:38:09.000Z</time>
      </trkpt>
      <trkpt lat="45.60507" lon="6.65476">
        <ele>1903</ele>
        <time>2012-02-22T10:38:15.000Z</time>
      </trkpt>
      <trkpt lat="45.60508" lon="6.65475">
        <ele>1903.1999511719</ele>
        <time>2012-02-22T10:38:16.000Z</time>
      </trkpt>
      <trkpt lat="45.60513" lon="6.65467">
        <ele>1904</ele>
        <time>2012-02-22T10:38:25.000Z</time>
      </trkpt>
      <trkpt lat="45.60515" lon="6.6546">
        <ele>1906.1999511719</ele>
        <time>2012-02-22T10:38:32.000Z</time>
      </trkpt>
      <trkpt lat="45.60516" lon="6.65449">
        <ele>1907.1999511719</ele>
        <time>2012-02-22T10:38:40.000Z</time>
      </trkpt>
      <trkpt lat="45.60515" lon="6.65442">
        <ele>1909.4000244141</ele>
        <time>2012-02-22T10:38:46.000Z</time>
      </trkpt>
      <trkpt lat="45.60515" lon="6.65441">
        <ele>1909.5999755859</ele>
        <time>2012-02-22T10:38:47.000Z</time>
      </trkpt>
      <trkpt lat="45.60516" lon="6.65437">
        <ele>1910.4000244141</ele>
        <time>2012-02-22T10:38:52.000Z</time>
      </trkpt>
      <trkpt lat="45.60513" lon="6.65428">
        <ele>1911.1999511719</ele>
        <time>2012-02-22T10:39:00.000Z</time>
      </trkpt>
      <trkpt lat="45.60513" lon="6.65427">
        <ele>1910.5999755859</ele>
        <time>2012-02-22T10:39:01.000Z</time>
      </trkpt>
      <trkpt lat="45.60509" lon="6.6542">
        <ele>1912.8000488281</ele>
        <time>2012-02-22T10:39:07.000Z</time>
      </trkpt>
      <trkpt lat="45.60505" lon="6.65411">
        <ele>1913.8000488281</ele>
        <time>2012-02-22T10:39:15.000Z</time>
      </trkpt>
      <trkpt lat="45.60502" lon="6.65403">
        <ele>1915.8000488281</ele>
        <time>2012-02-22T10:39:24.000Z</time>
      </trkpt>
      <trkpt lat="45.60499" lon="6.65396">
        <ele>1917.5999755859</ele>
        <time>2012-02-22T10:39:32.000Z</time>
      </trkpt>
      <trkpt lat="45.60498" lon="6.65395">
        <ele>1916.5999755859</ele>
        <time>2012-02-22T10:39:33.000Z</time>
      </trkpt>
      <trkpt lat="45.60494" lon="6.65386">
        <ele>1918.5999755859</ele>
        <time>2012-02-22T10:39:41.000Z</time>
      </trkpt>
      <trkpt lat="45.60489" lon="6.65378">
        <ele>1920</ele>
        <time>2012-02-22T10:39:50.000Z</time>
      </trkpt>
      <trkpt lat="45.60486" lon="6.65371">
        <ele>1921.1999511719</ele>
        <time>2012-02-22T10:39:59.000Z</time>
      </trkpt>
      <trkpt lat="45.60485" lon="6.65367">
        <ele>1922</ele>
        <time>2012-02-22T10:40:07.000Z</time>
      </trkpt>
      <trkpt lat="45.60481" lon="6.65359">
        <ele>1922.8000488281</ele>
        <time>2012-02-22T10:40:22.000Z</time>
      </trkpt>
      <trkpt lat="45.60478" lon="6.65354">
        <ele>1923.4000244141</ele>
        <time>2012-02-22T10:40:29.000Z</time>
      </trkpt>
      <trkpt lat="45.60476" lon="6.6535">
        <ele>1925.4000244141</ele>
        <time>2012-02-22T10:40:35.000Z</time>
      </trkpt>
      <trkpt lat="45.60473" lon="6.65345">
        <ele>1926</ele>
        <time>2012-02-22T10:40:44.000Z</time>
      </trkpt>
      <trkpt lat="45.60471" lon="6.65342">
        <ele>1927.1999511719</ele>
        <time>2012-02-22T10:40:50.000Z</time>
      </trkpt>
      <trkpt lat="45.60469" lon="6.65338">
        <ele>1928.4000244141</ele>
        <time>2012-02-22T10:40:55.000Z</time>
      </trkpt>
      <trkpt lat="45.60466" lon="6.65333">
        <ele>1928.1999511719</ele>
        <time>2012-02-22T10:40:59.000Z</time>
      </trkpt>
      <trkpt lat="45.60465" lon="6.65323">
        <ele>1930.1999511719</ele>
        <time>2012-02-22T10:41:07.000Z</time>
      </trkpt>
      <trkpt lat="45.60466" lon="6.65323">
        <ele>1930.1999511719</ele>
        <time>2012-02-22T10:41:08.000Z</time>
      </trkpt>
      <trkpt lat="45.60466" lon="6.65313">
        <ele>1932.1999511719</ele>
        <time>2012-02-22T10:41:17.000Z</time>
      </trkpt>
      <trkpt lat="45.60468" lon="6.65307">
        <ele>1932.4000244141</ele>
        <time>2012-02-22T10:41:24.000Z</time>
      </trkpt>
      <trkpt lat="45.60475" lon="6.65303">
        <ele>1933.1999511719</ele>
        <time>2012-02-22T10:41:31.000Z</time>
      </trkpt>
      <trkpt lat="45.60478" lon="6.65302">
        <ele>1933.1999511719</ele>
        <time>2012-02-22T10:41:39.000Z</time>
      </trkpt>
      <trkpt lat="45.6048" lon="6.65304">
        <ele>1934</ele>
        <time>2012-02-22T10:41:52.000Z</time>
      </trkpt>
      <trkpt lat="45.60483" lon="6.65298">
        <ele>1933.4000244141</ele>
        <time>2012-02-22T10:42:02.000Z</time>
      </trkpt>
      <trkpt lat="45.60489" lon="6.65295">
        <ele>1932.4000244141</ele>
        <time>2012-02-22T10:42:09.000Z</time>
      </trkpt>
      <trkpt lat="45.60497" lon="6.65294">
        <ele>1932.8000488281</ele>
        <time>2012-02-22T10:42:16.000Z</time>
      </trkpt>
      <trkpt lat="45.60504" lon="6.65294">
        <ele>1933.5999755859</ele>
        <time>2012-02-22T10:42:23.000Z</time>
      </trkpt>
      <trkpt lat="45.60512" lon="6.65294">
        <ele>1933.5999755859</ele>
        <time>2012-02-22T10:42:30.000Z</time>
      </trkpt>
      <trkpt lat="45.6052" lon="6.65295">
        <ele>1934.4000244141</ele>
        <time>2012-02-22T10:42:37.000Z</time>
      </trkpt>
      <trkpt lat="45.60521" lon="6.65295">
        <ele>1934.4000244141</ele>
        <time>2012-02-22T10:42:38.000Z</time>
      </trkpt>
      <trkpt lat="45.60526" lon="6.65296">
        <ele>1935</ele>
        <time>2012-02-22T10:42:43.000Z</time>
      </trkpt>
      <trkpt lat="45.60535" lon="6.65297">
        <ele>1935.1999511719</ele>
        <time>2012-02-22T10:42:51.000Z</time>
      </trkpt>
      <trkpt lat="45.60543" lon="6.65297">
        <ele>1936</ele>
        <time>2012-02-22T10:42:57.000Z</time>
      </trkpt>
      <trkpt lat="45.6055" lon="6.65297">
        <ele>1936.8000488281</ele>
        <time>2012-02-22T10:43:02.000Z</time>
      </trkpt>
      <trkpt lat="45.60558" lon="6.65296">
        <ele>1935.8000488281</ele>
        <time>2012-02-22T10:43:07.000Z</time>
      </trkpt>
      <trkpt lat="45.60561" lon="6.65295">
        <ele>1936.8000488281</ele>
        <time>2012-02-22T10:43:10.000Z</time>
      </trkpt>
      <trkpt lat="45.6057" lon="6.65297">
        <ele>1938.1999511719</ele>
        <time>2012-02-22T10:43:18.000Z</time>
      </trkpt>
      <trkpt lat="45.60577" lon="6.65298">
        <ele>1939</ele>
        <time>2012-02-22T10:43:25.000Z</time>
      </trkpt>
      <trkpt lat="45.60584" lon="6.65298">
        <ele>1938.5999755859</ele>
        <time>2012-02-22T10:43:31.000Z</time>
      </trkpt>
      <trkpt lat="45.60592" lon="6.65296">
        <ele>1939.8000488281</ele>
        <time>2012-02-22T10:43:38.000Z</time>
      </trkpt>
      <trkpt lat="45.60596" lon="6.65301">
        <ele>1939.8000488281</ele>
        <time>2012-02-22T10:43:45.000Z</time>
      </trkpt>
      <trkpt lat="45.60601" lon="6.65303">
        <ele>1940</ele>
        <time>2012-02-22T10:43:51.000Z</time>
      </trkpt>
      <trkpt lat="45.60602" lon="6.65303">
        <ele>1940.5999755859</ele>
        <time>2012-02-22T10:43:55.000Z</time>
      </trkpt>
      <trkpt lat="45.60611" lon="6.65305">
        <ele>1942</ele>
        <time>2012-02-22T10:44:03.000Z</time>
      </trkpt>
      <trkpt lat="45.60614" lon="6.65306">
        <ele>1942.8000488281</ele>
        <time>2012-02-22T10:44:06.000Z</time>
      </trkpt>
      <trkpt lat="45.60625" lon="6.65302">
        <ele>1944.4000244141</ele>
        <time>2012-02-22T10:44:14.000Z</time>
      </trkpt>
      <trkpt lat="45.60629" lon="6.65301">
        <ele>1943.4000244141</ele>
        <time>2012-02-22T10:44:17.000Z</time>
      </trkpt>
      <trkpt lat="45.60638" lon="6.65302">
        <ele>1944.5999755859</ele>
        <time>2012-02-22T10:44:25.000Z</time>
      </trkpt>
      <trkpt lat="45.60641" lon="6.65304">
        <ele>1947.1999511719</ele>
        <time>2012-02-22T10:44:29.000Z</time>
      </trkpt>
      <trkpt lat="45.60645" lon="6.65305">
        <ele>1946.8000488281</ele>
        <time>2012-02-22T10:44:34.000Z</time>
      </trkpt>
      <trkpt lat="45.60651" lon="6.65307">
        <ele>1949.1999511719</ele>
        <time>2012-02-22T10:44:42.000Z</time>
      </trkpt>
      <trkpt lat="45.60659" lon="6.65312">
        <ele>1948.8000488281</ele>
        <time>2012-02-22T10:44:50.000Z</time>
      </trkpt>
      <trkpt lat="45.60666" lon="6.65314">
        <ele>1949.4000244141</ele>
        <time>2012-02-22T10:44:57.000Z</time>
      </trkpt>
      <trkpt lat="45.60671" lon="6.65316">
        <ele>1950.1999511719</ele>
        <time>2012-02-22T10:45:02.000Z</time>
      </trkpt>
      <trkpt lat="45.60676" lon="6.65316">
        <ele>1950.5999755859</ele>
        <time>2012-02-22T10:45:07.000Z</time>
      </trkpt>
      <trkpt lat="45.60683" lon="6.65317">
        <ele>1952</ele>
        <time>2012-02-22T10:45:14.000Z</time>
      </trkpt>
      <trkpt lat="45.60691" lon="6.65318">
        <ele>1952</ele>
        <time>2012-02-22T10:45:21.000Z</time>
      </trkpt>
      <trkpt lat="45.60695" lon="6.65318">
        <ele>1952.4000244141</ele>
        <time>2012-02-22T10:45:25.000Z</time>
      </trkpt>
      <trkpt lat="45.60701" lon="6.65326">
        <ele>1954.1999511719</ele>
        <time>2012-02-22T10:45:33.000Z</time>
      </trkpt>
      <trkpt lat="45.60707" lon="6.65328">
        <ele>1954</ele>
        <time>2012-02-22T10:45:38.000Z</time>
      </trkpt>
      <trkpt lat="45.60715" lon="6.65328">
        <ele>1955.4000244141</ele>
        <time>2012-02-22T10:45:45.000Z</time>
      </trkpt>
      <trkpt lat="45.60723" lon="6.65329">
        <ele>1955</ele>
        <time>2012-02-22T10:45:52.000Z</time>
      </trkpt>
      <trkpt lat="45.60727" lon="6.65332">
        <ele>1955</ele>
        <time>2012-02-22T10:45:56.000Z</time>
      </trkpt>
      <trkpt lat="45.60728" lon="6.65336">
        <ele>1955.1999511719</ele>
        <time>2012-02-22T10:45:58.000Z</time>
      </trkpt>
      <trkpt lat="45.60734" lon="6.65339">
        <ele>1956.5999755859</ele>
        <time>2012-02-22T10:46:05.000Z</time>
      </trkpt>
      <trkpt lat="45.60738" lon="6.65345">
        <ele>1958.5999755859</ele>
        <time>2012-02-22T10:46:11.000Z</time>
      </trkpt>
      <trkpt lat="45.60743" lon="6.65347">
        <ele>1958.5999755859</ele>
        <time>2012-02-22T10:46:17.000Z</time>
      </trkpt>
      <trkpt lat="45.60746" lon="6.65352">
        <ele>1960.4000244141</ele>
        <time>2012-02-22T10:46:25.000Z</time>
      </trkpt>
      <trkpt lat="45.6075" lon="6.65354">
        <ele>1962</ele>
        <time>2012-02-22T10:46:31.000Z</time>
      </trkpt>
      <trkpt lat="45.60751" lon="6.65355">
        <ele>1963.1999511719</ele>
        <time>2012-02-22T10:46:33.000Z</time>
      </trkpt>
      <trkpt lat="45.60754" lon="6.6536">
        <ele>1962.8000488281</ele>
        <time>2012-02-22T10:46:39.000Z</time>
      </trkpt>
      <trkpt lat="45.60757" lon="6.65367">
        <ele>1964.4000244141</ele>
        <time>2012-02-22T10:46:46.000Z</time>
      </trkpt>
      <trkpt lat="45.60757" lon="6.65371">
        <ele>1965.8000488281</ele>
        <time>2012-02-22T10:46:51.000Z</time>
      </trkpt>
      <trkpt lat="45.60761" lon="6.65373">
        <ele>1966.4000244141</ele>
        <time>2012-02-22T10:46:56.000Z</time>
      </trkpt>
      <trkpt lat="45.60765" lon="6.65372">
        <ele>1966.4000244141</ele>
        <time>2012-02-22T10:46:59.000Z</time>
      </trkpt>
      <trkpt lat="45.60772" lon="6.65373">
        <ele>1968.1999511719</ele>
        <time>2012-02-22T10:47:06.000Z</time>
      </trkpt>
      <trkpt lat="45.60779" lon="6.65374">
        <ele>1967</ele>
        <time>2012-02-22T10:47:13.000Z</time>
      </trkpt>
      <trkpt lat="45.60784" lon="6.65374">
        <ele>1970</ele>
        <time>2012-02-22T10:47:20.000Z</time>
      </trkpt>
      <trkpt lat="45.60788" lon="6.65376">
        <ele>1969.1999511719</ele>
        <time>2012-02-22T10:47:24.000Z</time>
      </trkpt>
      <trkpt lat="45.60791" lon="6.65377">
        <ele>1972.1999511719</ele>
        <time>2012-02-22T10:47:29.000Z</time>
      </trkpt>
      <trkpt lat="45.60794" lon="6.65378">
        <ele>1971.8000488281</ele>
        <time>2012-02-22T10:47:32.000Z</time>
      </trkpt>
      <trkpt lat="45.60796" lon="6.65379">
        <ele>1973</ele>
        <time>2012-02-22T10:47:35.000Z</time>
      </trkpt>
      <trkpt lat="45.60798" lon="6.65379">
        <ele>1971.4000244141</ele>
        <time>2012-02-22T10:47:38.000Z</time>
      </trkpt>
      <trkpt lat="45.60804" lon="6.65379">
        <ele>1972.4000244141</ele>
        <time>2012-02-22T10:47:44.000Z</time>
      </trkpt>
      <trkpt lat="45.60808" lon="6.6538">
        <ele>1974.4000244141</ele>
        <time>2012-02-22T10:47:49.000Z</time>
      </trkpt>
      <trkpt lat="45.60812" lon="6.6538">
        <ele>1973</ele>
        <time>2012-02-22T10:47:54.000Z</time>
      </trkpt>
      <trkpt lat="45.60814" lon="6.65381">
        <ele>1973.4000244141</ele>
        <time>2012-02-22T10:47:55.000Z</time>
      </trkpt>
      <trkpt lat="45.60818" lon="6.65383">
        <ele>1975.4000244141</ele>
        <time>2012-02-22T10:48:00.000Z</time>
      </trkpt>
      <trkpt lat="45.60827" lon="6.65384">
        <ele>1976.5999755859</ele>
        <time>2012-02-22T10:48:07.000Z</time>
      </trkpt>
      <trkpt lat="45.60834" lon="6.65387">
        <ele>1976.1999511719</ele>
        <time>2012-02-22T10:48:14.000Z</time>
      </trkpt>
      <trkpt lat="45.60836" lon="6.65387">
        <ele>1976</ele>
        <time>2012-02-22T10:48:15.000Z</time>
      </trkpt>
      <trkpt lat="45.60844" lon="6.65389">
        <ele>1977</ele>
        <time>2012-02-22T10:48:22.000Z</time>
      </trkpt>
      <trkpt lat="45.60851" lon="6.65391">
        <ele>1977.5999755859</ele>
        <time>2012-02-22T10:48:29.000Z</time>
      </trkpt>
      <trkpt lat="45.60857" lon="6.65392">
        <ele>1978</ele>
        <time>2012-02-22T10:48:35.000Z</time>
      </trkpt>
      <trkpt lat="45.60861" lon="6.65392">
        <ele>1978.4000244141</ele>
        <time>2012-02-22T10:48:38.000Z</time>
      </trkpt>
      <trkpt lat="45.60868" lon="6.65394">
        <ele>1979</ele>
        <time>2012-02-22T10:48:44.000Z</time>
      </trkpt>
      <trkpt lat="45.6087" lon="6.65394">
        <ele>1979.5999755859</ele>
        <time>2012-02-22T10:48:47.000Z</time>
      </trkpt>
      <trkpt lat="45.6088" lon="6.65393">
        <ele>1980.5999755859</ele>
        <time>2012-02-22T10:48:54.000Z</time>
      </trkpt>
      <trkpt lat="45.60887" lon="6.65397">
        <ele>1981</ele>
        <time>2012-02-22T10:49:01.000Z</time>
      </trkpt>
      <trkpt lat="45.60891" lon="6.65399">
        <ele>1981.8000488281</ele>
        <time>2012-02-22T10:49:06.000Z</time>
      </trkpt>
      <trkpt lat="45.60898" lon="6.65402">
        <ele>1982.8000488281</ele>
        <time>2012-02-22T10:49:12.000Z</time>
      </trkpt>
      <trkpt lat="45.60903" lon="6.65406">
        <ele>1983.1999511719</ele>
        <time>2012-02-22T10:49:18.000Z</time>
      </trkpt>
      <trkpt lat="45.60907" lon="6.65407">
        <ele>1983.8000488281</ele>
        <time>2012-02-22T10:49:23.000Z</time>
      </trkpt>
      <trkpt lat="45.60911" lon="6.65407">
        <ele>1984.5999755859</ele>
        <time>2012-02-22T10:49:27.000Z</time>
      </trkpt>
      <trkpt lat="45.60914" lon="6.65408">
        <ele>1986.1999511719</ele>
        <time>2012-02-22T10:49:31.000Z</time>
      </trkpt>
      <trkpt lat="45.6092" lon="6.6541">
        <ele>1986</ele>
        <time>2012-02-22T10:49:38.000Z</time>
      </trkpt>
      <trkpt lat="45.60924" lon="6.65411">
        <ele>1988.4000244141</ele>
        <time>2012-02-22T10:49:43.000Z</time>
      </trkpt>
      <trkpt lat="45.60927" lon="6.65413">
        <ele>1989.4000244141</ele>
        <time>2012-02-22T10:49:50.000Z</time>
      </trkpt>
      <trkpt lat="45.6093" lon="6.65415">
        <ele>1989</ele>
        <time>2012-02-22T10:49:55.000Z</time>
      </trkpt>
      <trkpt lat="45.60935" lon="6.65416">
        <ele>1990.5999755859</ele>
        <time>2012-02-22T10:50:02.000Z</time>
      </trkpt>
      <trkpt lat="45.60939" lon="6.65415">
        <ele>1990.5999755859</ele>
        <time>2012-02-22T10:50:07.000Z</time>
      </trkpt>
      <trkpt lat="45.60943" lon="6.65416">
        <ele>1991.8000488281</ele>
        <time>2012-02-22T10:50:12.000Z</time>
      </trkpt>
      <trkpt lat="45.60945" lon="6.65416">
        <ele>1993.5999755859</ele>
        <time>2012-02-22T10:50:15.000Z</time>
      </trkpt>
      <trkpt lat="45.60949" lon="6.65416">
        <ele>1993.5999755859</ele>
        <time>2012-02-22T10:50:19.000Z</time>
      </trkpt>
      <trkpt lat="45.60953" lon="6.65414">
        <ele>1993</ele>
        <time>2012-02-22T10:50:26.000Z</time>
      </trkpt>
      <trkpt lat="45.60953" lon="6.65413">
        <ele>1993</ele>
        <time>2012-02-22T10:50:32.000Z</time>
      </trkpt>
      <trkpt lat="45.60958" lon="6.65413">
        <ele>1995.1999511719</ele>
        <time>2012-02-22T10:50:38.000Z</time>
      </trkpt>
      <trkpt lat="45.6096" lon="6.65414">
        <ele>1996.8000488281</ele>
        <time>2012-02-22T10:50:42.000Z</time>
      </trkpt>
      <trkpt lat="45.60963" lon="6.65415">
        <ele>1998.4000244141</ele>
        <time>2012-02-22T10:50:44.000Z</time>
      </trkpt>
      <trkpt lat="45.60967" lon="6.65418">
        <ele>1996.8000488281</ele>
        <time>2012-02-22T10:50:49.000Z</time>
      </trkpt>
      <trkpt lat="45.6097" lon="6.65418">
        <ele>1997.8000488281</ele>
        <time>2012-02-22T10:50:52.000Z</time>
      </trkpt>
      <trkpt lat="45.60972" lon="6.65418">
        <ele>2000</ele>
        <time>2012-02-22T10:50:56.000Z</time>
      </trkpt>
      <trkpt lat="45.60974" lon="6.65419">
        <ele>2000</ele>
        <time>2012-02-22T10:51:02.000Z</time>
      </trkpt>
      <trkpt lat="45.60978" lon="6.65422">
        <ele>2000.8000488281</ele>
        <time>2012-02-22T10:51:08.000Z</time>
      </trkpt>
      <trkpt lat="45.60981" lon="6.65424">
        <ele>2002.8000488281</ele>
        <time>2012-02-22T10:51:14.000Z</time>
      </trkpt>
      <trkpt lat="45.60988" lon="6.65422">
        <ele>2006.1999511719</ele>
        <time>2012-02-22T10:51:22.000Z</time>
      </trkpt>
      <trkpt lat="45.60989" lon="6.65422">
        <ele>2006.8000488281</ele>
        <time>2012-02-22T10:51:24.000Z</time>
      </trkpt>
      <trkpt lat="45.60992" lon="6.65422">
        <ele>2007</ele>
        <time>2012-02-22T10:51:28.000Z</time>
      </trkpt>
      <trkpt lat="45.60996" lon="6.65422">
        <ele>2007</ele>
        <time>2012-02-22T10:51:34.000Z</time>
      </trkpt>
      <trkpt lat="45.61" lon="6.6542">
        <ele>2008.5999755859</ele>
        <time>2012-02-22T10:51:39.000Z</time>
      </trkpt>
      <trkpt lat="45.61001" lon="6.65419">
        <ele>2008.8000488281</ele>
        <time>2012-02-22T10:51:40.000Z</time>
      </trkpt>
      <trkpt lat="45.61004" lon="6.65419">
        <ele>2010.1999511719</ele>
        <time>2012-02-22T10:51:45.000Z</time>
      </trkpt>
      <trkpt lat="45.61008" lon="6.65418">
        <ele>2010.4000244141</ele>
        <time>2012-02-22T10:51:51.000Z</time>
      </trkpt>
      <trkpt lat="45.61015" lon="6.65416">
        <ele>2010.4000244141</ele>
        <time>2012-02-22T10:51:57.000Z</time>
      </trkpt>
      <trkpt lat="45.61021" lon="6.65415">
        <ele>2010.4000244141</ele>
        <time>2012-02-22T10:52:02.000Z</time>
      </trkpt>
      <trkpt lat="45.61024" lon="6.65415">
        <ele>2011</ele>
        <time>2012-02-22T10:52:07.000Z</time>
      </trkpt>
      <trkpt lat="45.61027" lon="6.65414">
        <ele>2012.4000244141</ele>
        <time>2012-02-22T10:52:12.000Z</time>
      </trkpt>
      <trkpt lat="45.61028" lon="6.65413">
        <ele>2012.5999755859</ele>
        <time>2012-02-22T10:52:13.000Z</time>
      </trkpt>
      <trkpt lat="45.61034" lon="6.6541">
        <ele>2012.8000488281</ele>
        <time>2012-02-22T10:52:20.000Z</time>
      </trkpt>
      <trkpt lat="45.61041" lon="6.65408">
        <ele>2012.8000488281</ele>
        <time>2012-02-22T10:52:27.000Z</time>
      </trkpt>
      <trkpt lat="45.61043" lon="6.65406">
        <ele>2012.5999755859</ele>
        <time>2012-02-22T10:52:32.000Z</time>
      </trkpt>
      <trkpt lat="45.61041" lon="6.65405">
        <ele>2014</ele>
        <time>2012-02-22T10:52:35.000Z</time>
      </trkpt>
      <trkpt lat="45.61039" lon="6.65405">
        <ele>2015.4000244141</ele>
        <time>2012-02-22T10:52:38.000Z</time>
      </trkpt>
      <trkpt lat="45.61044" lon="6.65405">
        <ele>2015.1999511719</ele>
        <time>2012-02-22T10:52:43.000Z</time>
      </trkpt>
      <trkpt lat="45.61049" lon="6.65404">
        <ele>2015.1999511719</ele>
        <time>2012-02-22T10:52:49.000Z</time>
      </trkpt>
      <trkpt lat="45.61052" lon="6.65403">
        <ele>2016.5999755859</ele>
        <time>2012-02-22T10:52:57.000Z</time>
      </trkpt>
      <trkpt lat="45.61057" lon="6.65403">
        <ele>2017.5999755859</ele>
        <time>2012-02-22T10:53:03.000Z</time>
      </trkpt>
      <trkpt lat="45.61062" lon="6.65401">
        <ele>2019</ele>
        <time>2012-02-22T10:53:08.000Z</time>
      </trkpt>
      <trkpt lat="45.61064" lon="6.65399">
        <ele>2020.4000244141</ele>
        <time>2012-02-22T10:53:11.000Z</time>
      </trkpt>
      <trkpt lat="45.61068" lon="6.65395">
        <ele>2020.8000488281</ele>
        <time>2012-02-22T10:53:17.000Z</time>
      </trkpt>
      <trkpt lat="45.61074" lon="6.65389">
        <ele>2021.8000488281</ele>
        <time>2012-02-22T10:53:25.000Z</time>
      </trkpt>
      <trkpt lat="45.61076" lon="6.65387">
        <ele>2022.5999755859</ele>
        <time>2012-02-22T10:53:30.000Z</time>
      </trkpt>
      <trkpt lat="45.6108" lon="6.65385">
        <ele>2023</ele>
        <time>2012-02-22T10:53:35.000Z</time>
      </trkpt>
      <trkpt lat="45.61083" lon="6.65385">
        <ele>2025</ele>
        <time>2012-02-22T10:53:39.000Z</time>
      </trkpt>
      <trkpt lat="45.61087" lon="6.65387">
        <ele>2024.1999511719</ele>
        <time>2012-02-22T10:53:44.000Z</time>
      </trkpt>
      <trkpt lat="45.61089" lon="6.6539">
        <ele>2027.4000244141</ele>
        <time>2012-02-22T10:53:49.000Z</time>
      </trkpt>
      <trkpt lat="45.61095" lon="6.6539">
        <ele>2027.1999511719</ele>
        <time>2012-02-22T10:53:56.000Z</time>
      </trkpt>
      <trkpt lat="45.61101" lon="6.6539">
        <ele>2030.4000244141</ele>
        <time>2012-02-22T10:54:03.000Z</time>
      </trkpt>
      <trkpt lat="45.61103" lon="6.65391">
        <ele>2031.4000244141</ele>
        <time>2012-02-22T10:54:05.000Z</time>
      </trkpt>
      <trkpt lat="45.61109" lon="6.65389">
        <ele>2030.1999511719</ele>
        <time>2012-02-22T10:54:12.000Z</time>
      </trkpt>
      <trkpt lat="45.61112" lon="6.65391">
        <ele>2032.5999755859</ele>
        <time>2012-02-22T10:54:17.000Z</time>
      </trkpt>
      <trkpt lat="45.61116" lon="6.65393">
        <ele>2032.1999511719</ele>
        <time>2012-02-22T10:54:22.000Z</time>
      </trkpt>
      <trkpt lat="45.61122" lon="6.65395">
        <ele>2033.5999755859</ele>
        <time>2012-02-22T10:54:30.000Z</time>
      </trkpt>
      <trkpt lat="45.61124" lon="6.65397">
        <ele>2034</ele>
        <time>2012-02-22T10:54:32.000Z</time>
      </trkpt>
      <trkpt lat="45.61124" lon="6.65404">
        <ele>2037.1999511719</ele>
        <time>2012-02-22T10:54:38.000Z</time>
      </trkpt>
      <trkpt lat="45.61125" lon="6.65411">
        <ele>2038.8000488281</ele>
        <time>2012-02-22T10:54:46.000Z</time>
      </trkpt>
      <trkpt lat="45.61125" lon="6.65415">
        <ele>2039.1999511719</ele>
        <time>2012-02-22T10:54:50.000Z</time>
      </trkpt>
      <trkpt lat="45.61125" lon="6.65418">
        <ele>2039</ele>
        <time>2012-02-22T10:54:53.000Z</time>
      </trkpt>
      <trkpt lat="45.61128" lon="6.65424">
        <ele>2039.1999511719</ele>
        <time>2012-02-22T10:54:58.000Z</time>
      </trkpt>
      <trkpt lat="45.61129" lon="6.65432">
        <ele>2039</ele>
        <time>2012-02-22T10:55:05.000Z</time>
      </trkpt>
      <trkpt lat="45.61129" lon="6.65436">
        <ele>2040.5999755859</ele>
        <time>2012-02-22T10:55:08.000Z</time>
      </trkpt>
      <trkpt lat="45.61129" lon="6.65439">
        <ele>2041.1999511719</ele>
        <time>2012-02-22T10:55:10.000Z</time>
      </trkpt>
      <trkpt lat="45.61134" lon="6.65443">
        <ele>2041.8000488281</ele>
        <time>2012-02-22T10:55:17.000Z</time>
      </trkpt>
      <trkpt lat="45.61141" lon="6.65445">
        <ele>2043.5999755859</ele>
        <time>2012-02-22T10:55:24.000Z</time>
      </trkpt>
      <trkpt lat="45.61146" lon="6.65449">
        <ele>2046.5999755859</ele>
        <time>2012-02-22T10:55:32.000Z</time>
      </trkpt>
      <trkpt lat="45.6115" lon="6.65452">
        <ele>2045.5999755859</ele>
        <time>2012-02-22T10:55:39.000Z</time>
      </trkpt>
      <trkpt lat="45.61154" lon="6.65454">
        <ele>2048.3999023438</ele>
        <time>2012-02-22T10:55:44.000Z</time>
      </trkpt>
      <trkpt lat="45.61158" lon="6.65457">
        <ele>2048.6000976562</ele>
        <time>2012-02-22T10:55:50.000Z</time>
      </trkpt>
      <trkpt lat="45.6116" lon="6.6546">
        <ele>2050.3999023438</ele>
        <time>2012-02-22T10:55:54.000Z</time>
      </trkpt>
      <trkpt lat="45.61166" lon="6.65464">
        <ele>2052.3999023438</ele>
        <time>2012-02-22T10:56:02.000Z</time>
      </trkpt>
      <trkpt lat="45.61171" lon="6.65468">
        <ele>2054.6000976562</ele>
        <time>2012-02-22T10:56:08.000Z</time>
      </trkpt>
      <trkpt lat="45.61176" lon="6.65471">
        <ele>2055.1999511719</ele>
        <time>2012-02-22T10:56:15.000Z</time>
      </trkpt>
      <trkpt lat="45.61178" lon="6.65473">
        <ele>2056.3999023438</ele>
        <time>2012-02-22T10:56:19.000Z</time>
      </trkpt>
      <trkpt lat="45.61181" lon="6.65476">
        <ele>2057.3999023438</ele>
        <time>2012-02-22T10:56:24.000Z</time>
      </trkpt>
      <trkpt lat="45.61186" lon="6.65474">
        <ele>2057.1999511719</ele>
        <time>2012-02-22T10:56:29.000Z</time>
      </trkpt>
      <trkpt lat="45.61191" lon="6.65476">
        <ele>2058.3999023438</ele>
        <time>2012-02-22T10:56:36.000Z</time>
      </trkpt>
      <trkpt lat="45.61195" lon="6.65477">
        <ele>2060</ele>
        <time>2012-02-22T10:56:41.000Z</time>
      </trkpt>
      <trkpt lat="45.61195" lon="6.65478">
        <ele>2059.6000976562</ele>
        <time>2012-02-22T10:56:42.000Z</time>
      </trkpt>
      <trkpt lat="45.61198" lon="6.6548">
        <ele>2059.6000976562</ele>
        <time>2012-02-22T10:56:47.000Z</time>
      </trkpt>
      <trkpt lat="45.61202" lon="6.65482">
        <ele>2061.8000488281</ele>
        <time>2012-02-22T10:56:53.000Z</time>
      </trkpt>
      <trkpt lat="45.61207" lon="6.65481">
        <ele>2063</ele>
        <time>2012-02-22T10:56:59.000Z</time>
      </trkpt>
      <trkpt lat="45.61212" lon="6.6548">
        <ele>2064.6000976562</ele>
        <time>2012-02-22T10:57:05.000Z</time>
      </trkpt>
      <trkpt lat="45.61219" lon="6.65478">
        <ele>2066</ele>
        <time>2012-02-22T10:57:13.000Z</time>
      </trkpt>
      <trkpt lat="45.61226" lon="6.65478">
        <ele>2067.6000976562</ele>
        <time>2012-02-22T10:57:20.000Z</time>
      </trkpt>
      <trkpt lat="45.61229" lon="6.65478">
        <ele>2069</ele>
        <time>2012-02-22T10:57:25.000Z</time>
      </trkpt>
      <trkpt lat="45.6123" lon="6.65478">
        <ele>2071.1999511719</ele>
        <time>2012-02-22T10:57:29.000Z</time>
      </trkpt>
      <trkpt lat="45.61235" lon="6.65478">
        <ele>2073</ele>
        <time>2012-02-22T10:57:37.000Z</time>
      </trkpt>
      <trkpt lat="45.61243" lon="6.65479">
        <ele>2072.8000488281</ele>
        <time>2012-02-22T10:57:45.000Z</time>
      </trkpt>
      <trkpt lat="45.61247" lon="6.65483">
        <ele>2075.8000488281</ele>
        <time>2012-02-22T10:57:51.000Z</time>
      </trkpt>
      <trkpt lat="45.61247" lon="6.65484">
        <ele>2076</ele>
        <time>2012-02-22T10:57:52.000Z</time>
      </trkpt>
      <trkpt lat="45.61249" lon="6.65487">
        <ele>2077.8000488281</ele>
        <time>2012-02-22T10:57:55.000Z</time>
      </trkpt>
      <trkpt lat="45.61254" lon="6.65492">
        <ele>2078.1999511719</ele>
        <time>2012-02-22T10:58:03.000Z</time>
      </trkpt>
      <trkpt lat="45.61256" lon="6.65495">
        <ele>2077.6000976562</ele>
        <time>2012-02-22T10:58:10.000Z</time>
      </trkpt>
      <trkpt lat="45.6126" lon="6.655">
        <ele>2080.1999511719</ele>
        <time>2012-02-22T10:58:17.000Z</time>
      </trkpt>
      <trkpt lat="45.61266" lon="6.65499">
        <ele>2081.6000976562</ele>
        <time>2012-02-22T10:58:23.000Z</time>
      </trkpt>
      <trkpt lat="45.6127" lon="6.65501">
        <ele>2081.3999023438</ele>
        <time>2012-02-22T10:58:29.000Z</time>
      </trkpt>
      <trkpt lat="45.61275" lon="6.65503">
        <ele>2082.3999023438</ele>
        <time>2012-02-22T10:58:36.000Z</time>
      </trkpt>
      <trkpt lat="45.61277" lon="6.65508">
        <ele>2083.8000488281</ele>
        <time>2012-02-22T10:58:43.000Z</time>
      </trkpt>
      <trkpt lat="45.61279" lon="6.65513">
        <ele>2086.8000488281</ele>
        <time>2012-02-22T10:58:49.000Z</time>
      </trkpt>
      <trkpt lat="45.6128" lon="6.65514">
        <ele>2087.6000976562</ele>
        <time>2012-02-22T10:58:50.000Z</time>
      </trkpt>
      <trkpt lat="45.61282" lon="6.65526">
        <ele>2087.1999511719</ele>
        <time>2012-02-22T10:58:59.000Z</time>
      </trkpt>
      <trkpt lat="45.61287" lon="6.65531">
        <ele>2090.6000976562</ele>
        <time>2012-02-22T10:59:05.000Z</time>
      </trkpt>
      <trkpt lat="45.61288" lon="6.65534">
        <ele>2089.3999023438</ele>
        <time>2012-02-22T10:59:08.000Z</time>
      </trkpt>
      <trkpt lat="45.61295" lon="6.65542">
        <ele>2092</ele>
        <time>2012-02-22T10:59:18.000Z</time>
      </trkpt>
      <trkpt lat="45.61299" lon="6.65544">
        <ele>2092.1999511719</ele>
        <time>2012-02-22T10:59:24.000Z</time>
      </trkpt>
      <trkpt lat="45.61304" lon="6.6555">
        <ele>2094</ele>
        <time>2012-02-22T10:59:32.000Z</time>
      </trkpt>
      <trkpt lat="45.6131" lon="6.65551">
        <ele>2094.3999023438</ele>
        <time>2012-02-22T10:59:39.000Z</time>
      </trkpt>
      <trkpt lat="45.61314" lon="6.65552">
        <ele>2096.8000488281</ele>
        <time>2012-02-22T10:59:44.000Z</time>
      </trkpt>
      <trkpt lat="45.6132" lon="6.65553">
        <ele>2097.8000488281</ele>
        <time>2012-02-22T10:59:52.000Z</time>
      </trkpt>
      <trkpt lat="45.61323" lon="6.65552">
        <ele>2098.3999023438</ele>
        <time>2012-02-22T10:59:59.000Z</time>
      </trkpt>
      <trkpt lat="45.61331" lon="6.65551">
        <ele>2100</ele>
        <time>2012-02-22T11:00:07.000Z</time>
      </trkpt>
      <trkpt lat="45.61336" lon="6.6555">
        <ele>2098.8000488281</ele>
        <time>2012-02-22T11:00:13.000Z</time>
      </trkpt>
      <trkpt lat="45.6134" lon="6.65549">
        <ele>2100.1999511719</ele>
        <time>2012-02-22T11:00:18.000Z</time>
      </trkpt>
      <trkpt lat="45.61346" lon="6.65548">
        <ele>2100.8000488281</ele>
        <time>2012-02-22T11:00:24.000Z</time>
      </trkpt>
      <trkpt lat="45.61352" lon="6.65549">
        <ele>2101.6000976562</ele>
        <time>2012-02-22T11:00:32.000Z</time>
      </trkpt>
      <trkpt lat="45.6136" lon="6.65551">
        <ele>2101.8000488281</ele>
        <time>2012-02-22T11:00:41.000Z</time>
      </trkpt>
      <trkpt lat="45.61369" lon="6.65553">
        <ele>2102.8000488281</ele>
        <time>2012-02-22T11:00:48.000Z</time>
      </trkpt>
      <trkpt lat="45.61374" lon="6.65556">
        <ele>2103.3999023438</ele>
        <time>2012-02-22T11:00:55.000Z</time>
      </trkpt>
      <trkpt lat="45.61377" lon="6.65558">
        <ele>2104.1999511719</ele>
        <time>2012-02-22T11:01:00.000Z</time>
      </trkpt>
      <trkpt lat="45.61383" lon="6.6556">
        <ele>2104.3999023438</ele>
        <time>2012-02-22T11:01:06.000Z</time>
      </trkpt>
      <trkpt lat="45.6139" lon="6.65561">
        <ele>2105.1999511719</ele>
        <time>2012-02-22T11:01:13.000Z</time>
      </trkpt>
      <trkpt lat="45.61391" lon="6.65561">
        <ele>2105.1999511719</ele>
        <time>2012-02-22T11:01:14.000Z</time>
      </trkpt>
      <trkpt lat="45.61399" lon="6.65559">
        <ele>2106.3999023438</ele>
        <time>2012-02-22T11:01:22.000Z</time>
      </trkpt>
      <trkpt lat="45.61405" lon="6.65559">
        <ele>2107.3999023438</ele>
        <time>2012-02-22T11:01:30.000Z</time>
      </trkpt>
      <trkpt lat="45.61408" lon="6.65556">
        <ele>2107.1999511719</ele>
        <time>2012-02-22T11:01:39.000Z</time>
      </trkpt>
      <trkpt lat="45.61408" lon="6.65561">
        <ele>2106.6000976562</ele>
        <time>2012-02-22T11:02:09.000Z</time>
      </trkpt>
      <trkpt lat="45.61399" lon="6.65564">
        <ele>2105.3999023438</ele>
        <time>2012-02-22T11:02:15.000Z</time>
      </trkpt>
      <trkpt lat="45.61391" lon="6.65568">
        <ele>2106.1999511719</ele>
        <time>2012-02-22T11:02:22.000Z</time>
      </trkpt>
      <trkpt lat="45.61386" lon="6.65575">
        <ele>2108.6000976562</ele>
        <time>2012-02-22T11:02:31.000Z</time>
      </trkpt>
      <trkpt lat="45.61385" lon="6.65578">
        <ele>2107.1999511719</ele>
        <time>2012-02-22T11:02:41.000Z</time>
      </trkpt>
      <trkpt lat="45.61385" lon="6.6558">
        <ele>2108.6000976562</ele>
        <time>2012-02-22T11:02:44.000Z</time>
      </trkpt>
      <trkpt lat="45.61388" lon="6.65585">
        <ele>2110</ele>
        <time>2012-02-22T11:02:49.000Z</time>
      </trkpt>
      <trkpt lat="45.61392" lon="6.65592">
        <ele>2111</ele>
        <time>2012-02-22T11:02:56.000Z</time>
      </trkpt>
      <trkpt lat="45.61396" lon="6.65597">
        <ele>2111.1999511719</ele>
        <time>2012-02-22T11:03:02.000Z</time>
      </trkpt>
      <trkpt lat="45.61401" lon="6.65603">
        <ele>2113.6000976562</ele>
        <time>2012-02-22T11:03:10.000Z</time>
      </trkpt>
      <trkpt lat="45.61405" lon="6.65608">
        <ele>2113.8000488281</ele>
        <time>2012-02-22T11:03:18.000Z</time>
      </trkpt>
      <trkpt lat="45.6141" lon="6.65613">
        <ele>2116</ele>
        <time>2012-02-22T11:03:27.000Z</time>
      </trkpt>
      <trkpt lat="45.61414" lon="6.65618">
        <ele>2118.3999023438</ele>
        <time>2012-02-22T11:03:34.000Z</time>
      </trkpt>
      <trkpt lat="45.61418" lon="6.6562">
        <ele>2119.8000488281</ele>
        <time>2012-02-22T11:03:41.000Z</time>
      </trkpt>
      <trkpt lat="45.61425" lon="6.65622">
        <ele>2121.1999511719</ele>
        <time>2012-02-22T11:03:48.000Z</time>
      </trkpt>
      <trkpt lat="45.61433" lon="6.65623">
        <ele>2121.3999023438</ele>
        <time>2012-02-22T11:03:56.000Z</time>
      </trkpt>
      <trkpt lat="45.61438" lon="6.65622">
        <ele>2121.6000976562</ele>
        <time>2012-02-22T11:04:02.000Z</time>
      </trkpt>
      <trkpt lat="45.61445" lon="6.65622">
        <ele>2122.1999511719</ele>
        <time>2012-02-22T11:04:09.000Z</time>
      </trkpt>
      <trkpt lat="45.61449" lon="6.65623">
        <ele>2122.6000976562</ele>
        <time>2012-02-22T11:04:17.000Z</time>
      </trkpt>
      <trkpt lat="45.61454" lon="6.65622">
        <ele>2123</ele>
        <time>2012-02-22T11:04:24.000Z</time>
      </trkpt>
      <trkpt lat="45.61455" lon="6.65621">
        <ele>2122.3999023438</ele>
        <time>2012-02-22T11:04:29.000Z</time>
      </trkpt>
      <trkpt lat="45.61464" lon="6.65617">
        <ele>2123.6000976562</ele>
        <time>2012-02-22T11:04:37.000Z</time>
      </trkpt>
      <trkpt lat="45.61473" lon="6.65612">
        <ele>2124.8000488281</ele>
        <time>2012-02-22T11:04:45.000Z</time>
      </trkpt>
      <trkpt lat="45.61476" lon="6.6561">
        <ele>2124.8000488281</ele>
        <time>2012-02-22T11:04:47.000Z</time>
      </trkpt>
      <trkpt lat="45.61489" lon="6.65604">
        <ele>2125.6000976562</ele>
        <time>2012-02-22T11:04:57.000Z</time>
      </trkpt>
      <trkpt lat="45.615" lon="6.65599">
        <ele>2126.3999023438</ele>
        <time>2012-02-22T11:05:04.000Z</time>
      </trkpt>
      <trkpt lat="45.61509" lon="6.65596">
        <ele>2127.8000488281</ele>
        <time>2012-02-22T11:05:10.000Z</time>
      </trkpt>
      <trkpt lat="45.6152" lon="6.65591">
        <ele>2128.1999511719</ele>
        <time>2012-02-22T11:05:19.000Z</time>
      </trkpt>
      <trkpt lat="45.61522" lon="6.6559">
        <ele>2129</ele>
        <time>2012-02-22T11:05:21.000Z</time>
      </trkpt>
      <trkpt lat="45.61528" lon="6.65586">
        <ele>2129.8000488281</ele>
        <time>2012-02-22T11:05:28.000Z</time>
      </trkpt>
      <trkpt lat="45.61533" lon="6.65585">
        <ele>2129.6000976562</ele>
        <time>2012-02-22T11:05:33.000Z</time>
      </trkpt>
      <trkpt lat="45.6154" lon="6.65583">
        <ele>2131.3999023438</ele>
        <time>2012-02-22T11:05:40.000Z</time>
      </trkpt>
      <trkpt lat="45.61546" lon="6.65584">
        <ele>2132.1999511719</ele>
        <time>2012-02-22T11:05:46.000Z</time>
      </trkpt>
      <trkpt lat="45.61555" lon="6.65586">
        <ele>2132.6000976562</ele>
        <time>2012-02-22T11:05:54.000Z</time>
      </trkpt>
      <trkpt lat="45.61563" lon="6.65587">
        <ele>2134</ele>
        <time>2012-02-22T11:06:01.000Z</time>
      </trkpt>
      <trkpt lat="45.61564" lon="6.65587">
        <ele>2134</ele>
        <time>2012-02-22T11:06:02.000Z</time>
      </trkpt>
      <trkpt lat="45.6157" lon="6.65587">
        <ele>2134.1999511719</ele>
        <time>2012-02-22T11:06:08.000Z</time>
      </trkpt>
      <trkpt lat="45.6158" lon="6.65586">
        <ele>2136.6000976562</ele>
        <time>2012-02-22T11:06:18.000Z</time>
      </trkpt>
      <trkpt lat="45.61581" lon="6.65585">
        <ele>2136.8000488281</ele>
        <time>2012-02-22T11:06:19.000Z</time>
      </trkpt>
      <trkpt lat="45.61584" lon="6.65585">
        <ele>2138.6000976562</ele>
        <time>2012-02-22T11:06:23.000Z</time>
      </trkpt>
      <trkpt lat="45.61593" lon="6.65581">
        <ele>2140.8000488281</ele>
        <time>2012-02-22T11:06:33.000Z</time>
      </trkpt>
      <trkpt lat="45.61598" lon="6.6558">
        <ele>2142.1999511719</ele>
        <time>2012-02-22T11:06:39.000Z</time>
      </trkpt>
      <trkpt lat="45.61604" lon="6.65577">
        <ele>2143</ele>
        <time>2012-02-22T11:06:47.000Z</time>
      </trkpt>
      <trkpt lat="45.61607" lon="6.65576">
        <ele>2145</ele>
        <time>2012-02-22T11:06:50.000Z</time>
      </trkpt>
      <trkpt lat="45.61613" lon="6.65576">
        <ele>2146.8000488281</ele>
        <time>2012-02-22T11:06:57.000Z</time>
      </trkpt>
      <trkpt lat="45.61614" lon="6.65576">
        <ele>2146.8000488281</ele>
        <time>2012-02-22T11:06:58.000Z</time>
      </trkpt>
      <trkpt lat="45.61618" lon="6.65576">
        <ele>2146.3999023438</ele>
        <time>2012-02-22T11:07:04.000Z</time>
      </trkpt>
      <trkpt lat="45.61626" lon="6.65577">
        <ele>2148</ele>
        <time>2012-02-22T11:07:12.000Z</time>
      </trkpt>
      <trkpt lat="45.6163" lon="6.65577">
        <ele>2149.3999023438</ele>
        <time>2012-02-22T11:07:17.000Z</time>
      </trkpt>
      <trkpt lat="45.61631" lon="6.65577">
        <ele>2150.8000488281</ele>
        <time>2012-02-22T11:07:19.000Z</time>
      </trkpt>
      <trkpt lat="45.61636" lon="6.65574">
        <ele>2152.3999023438</ele>
        <time>2012-02-22T11:07:25.000Z</time>
      </trkpt>
      <trkpt lat="45.61642" lon="6.65571">
        <ele>2154.6000976562</ele>
        <time>2012-02-22T11:07:35.000Z</time>
      </trkpt>
      <trkpt lat="45.61647" lon="6.65571">
        <ele>2155</ele>
        <time>2012-02-22T11:07:42.000Z</time>
      </trkpt>
      <trkpt lat="45.6165" lon="6.65569">
        <ele>2155</ele>
        <time>2012-02-22T11:07:48.000Z</time>
      </trkpt>
      <trkpt lat="45.61655" lon="6.65566">
        <ele>2157.6000976562</ele>
        <time>2012-02-22T11:07:56.000Z</time>
      </trkpt>
      <trkpt lat="45.61657" lon="6.65565">
        <ele>2158</ele>
        <time>2012-02-22T11:07:58.000Z</time>
      </trkpt>
      <trkpt lat="45.61662" lon="6.65563">
        <ele>2160.3999023438</ele>
        <time>2012-02-22T11:08:06.000Z</time>
      </trkpt>
      <trkpt lat="45.61662" lon="6.65566">
        <ele>2161.8000488281</ele>
        <time>2012-02-22T11:08:11.000Z</time>
      </trkpt>
      <trkpt lat="45.61661" lon="6.65569">
        <ele>2162.6000976562</ele>
        <time>2012-02-22T11:08:13.000Z</time>
      </trkpt>
      <trkpt lat="45.61661" lon="6.6558">
        <ele>2162.8000488281</ele>
        <time>2012-02-22T11:08:22.000Z</time>
      </trkpt>
      <trkpt lat="45.61661" lon="6.65586">
        <ele>2164.8000488281</ele>
        <time>2012-02-22T11:08:29.000Z</time>
      </trkpt>
      <trkpt lat="45.61662" lon="6.65586">
        <ele>2165.6000976562</ele>
        <time>2012-02-22T11:08:31.000Z</time>
      </trkpt>
      <trkpt lat="45.61668" lon="6.65584">
        <ele>2167.1999511719</ele>
        <time>2012-02-22T11:08:40.000Z</time>
      </trkpt>
      <trkpt lat="45.61671" lon="6.65582">
        <ele>2168.6000976562</ele>
        <time>2012-02-22T11:08:46.000Z</time>
      </trkpt>
      <trkpt lat="45.61675" lon="6.65579">
        <ele>2170.3999023438</ele>
        <time>2012-02-22T11:08:53.000Z</time>
      </trkpt>
      <trkpt lat="45.61675" lon="6.65582">
        <ele>2171.1999511719</ele>
        <time>2012-02-22T11:08:57.000Z</time>
      </trkpt>
      <trkpt lat="45.61676" lon="6.6559">
        <ele>2172</ele>
        <time>2012-02-22T11:09:06.000Z</time>
      </trkpt>
      <trkpt lat="45.61676" lon="6.65596">
        <ele>2173.3999023438</ele>
        <time>2012-02-22T11:09:13.000Z</time>
      </trkpt>
      <trkpt lat="45.61675" lon="6.65601">
        <ele>2175.3999023438</ele>
        <time>2012-02-22T11:09:19.000Z</time>
      </trkpt>
      <trkpt lat="45.61675" lon="6.65605">
        <ele>2176.8000488281</ele>
        <time>2012-02-22T11:09:26.000Z</time>
      </trkpt>
      <trkpt lat="45.61679" lon="6.65605">
        <ele>2177.6000976562</ele>
        <time>2012-02-22T11:09:33.000Z</time>
      </trkpt>
      <trkpt lat="45.6168" lon="6.65604">
        <ele>2177.6000976562</ele>
        <time>2012-02-22T11:09:35.000Z</time>
      </trkpt>
      <trkpt lat="45.61685" lon="6.65603">
        <ele>2178.8000488281</ele>
        <time>2012-02-22T11:09:42.000Z</time>
      </trkpt>
      <trkpt lat="45.61688" lon="6.65599">
        <ele>2181.3999023438</ele>
        <time>2012-02-22T11:09:51.000Z</time>
      </trkpt>
      <trkpt lat="45.61691" lon="6.65597">
        <ele>2183.1999511719</ele>
        <time>2012-02-22T11:09:57.000Z</time>
      </trkpt>
      <trkpt lat="45.61696" lon="6.65593">
        <ele>2184.1999511719</ele>
        <time>2012-02-22T11:10:04.000Z</time>
      </trkpt>
      <trkpt lat="45.61699" lon="6.65589">
        <ele>2186.8000488281</ele>
        <time>2012-02-22T11:10:11.000Z</time>
      </trkpt>
      <trkpt lat="45.617" lon="6.65589">
        <ele>2186.8000488281</ele>
        <time>2012-02-22T11:10:12.000Z</time>
      </trkpt>
      <trkpt lat="45.61705" lon="6.65583">
        <ele>2188</ele>
        <time>2012-02-22T11:10:21.000Z</time>
      </trkpt>
      <trkpt lat="45.61711" lon="6.65579">
        <ele>2189.8000488281</ele>
        <time>2012-02-22T11:10:29.000Z</time>
      </trkpt>
      <trkpt lat="45.61714" lon="6.65577">
        <ele>2192.1999511719</ele>
        <time>2012-02-22T11:10:34.000Z</time>
      </trkpt>
      <trkpt lat="45.61718" lon="6.65573">
        <ele>2193.1999511719</ele>
        <time>2012-02-22T11:10:41.000Z</time>
      </trkpt>
      <trkpt lat="45.61722" lon="6.65567">
        <ele>2193.1999511719</ele>
        <time>2012-02-22T11:10:50.000Z</time>
      </trkpt>
      <trkpt lat="45.61727" lon="6.65567">
        <ele>2196.3999023438</ele>
        <time>2012-02-22T11:10:57.000Z</time>
      </trkpt>
      <trkpt lat="45.61731" lon="6.6557">
        <ele>2196</ele>
        <time>2012-02-22T11:11:04.000Z</time>
      </trkpt>
      <trkpt lat="45.61732" lon="6.65571">
        <ele>2197</ele>
        <time>2012-02-22T11:11:06.000Z</time>
      </trkpt>
      <trkpt lat="45.61733" lon="6.65577">
        <ele>2198.1999511719</ele>
        <time>2012-02-22T11:11:14.000Z</time>
      </trkpt>
      <trkpt lat="45.61731" lon="6.65583">
        <ele>2199.8000488281</ele>
        <time>2012-02-22T11:11:19.000Z</time>
      </trkpt>
      <trkpt lat="45.61729" lon="6.65591">
        <ele>2200.1999511719</ele>
        <time>2012-02-22T11:11:26.000Z</time>
      </trkpt>
      <trkpt lat="45.61729" lon="6.656">
        <ele>2202</ele>
        <time>2012-02-22T11:11:37.000Z</time>
      </trkpt>
      <trkpt lat="45.61729" lon="6.6561">
        <ele>2205</ele>
        <time>2012-02-22T11:11:46.000Z</time>
      </trkpt>
      <trkpt lat="45.6173" lon="6.65613">
        <ele>2205.8000488281</ele>
        <time>2012-02-22T11:11:48.000Z</time>
      </trkpt>
      <trkpt lat="45.61733" lon="6.65617">
        <ele>2206</ele>
        <time>2012-02-22T11:11:55.000Z</time>
      </trkpt>
      <trkpt lat="45.61737" lon="6.6562">
        <ele>2207.1999511719</ele>
        <time>2012-02-22T11:12:02.000Z</time>
      </trkpt>
      <trkpt lat="45.61743" lon="6.65624">
        <ele>2210.8000488281</ele>
        <time>2012-02-22T11:12:13.000Z</time>
      </trkpt>
      <trkpt lat="45.61745" lon="6.65629">
        <ele>2212.3999023438</ele>
        <time>2012-02-22T11:12:22.000Z</time>
      </trkpt>
      <trkpt lat="45.61749" lon="6.65633">
        <ele>2214.3999023438</ele>
        <time>2012-02-22T11:12:29.000Z</time>
      </trkpt>
      <trkpt lat="45.61754" lon="6.65638">
        <ele>2216</ele>
        <time>2012-02-22T11:12:39.000Z</time>
      </trkpt>
      <trkpt lat="45.61759" lon="6.65642">
        <ele>2216.8000488281</ele>
        <time>2012-02-22T11:12:45.000Z</time>
      </trkpt>
      <trkpt lat="45.61763" lon="6.65647">
        <ele>2215.3999023438</ele>
        <time>2012-02-22T11:12:51.000Z</time>
      </trkpt>
      <trkpt lat="45.61764" lon="6.65648">
        <ele>2215.1999511719</ele>
        <time>2012-02-22T11:12:52.000Z</time>
      </trkpt>
      <trkpt lat="45.61769" lon="6.65654">
        <ele>2218.1999511719</ele>
        <time>2012-02-22T11:13:00.000Z</time>
      </trkpt>
      <trkpt lat="45.61771" lon="6.65655">
        <ele>2219.3999023438</ele>
        <time>2012-02-22T11:13:02.000Z</time>
      </trkpt>
      <trkpt lat="45.61775" lon="6.6566">
        <ele>2218.8000488281</ele>
        <time>2012-02-22T11:13:10.000Z</time>
      </trkpt>
      <trkpt lat="45.61779" lon="6.65661">
        <ele>2219.8000488281</ele>
        <time>2012-02-22T11:13:14.000Z</time>
      </trkpt>
      <trkpt lat="45.61783" lon="6.65663">
        <ele>2221.8000488281</ele>
        <time>2012-02-22T11:13:18.000Z</time>
      </trkpt>
      <trkpt lat="45.61785" lon="6.65665">
        <ele>2220.1999511719</ele>
        <time>2012-02-22T11:13:21.000Z</time>
      </trkpt>
      <trkpt lat="45.61789" lon="6.65667">
        <ele>2222.6000976562</ele>
        <time>2012-02-22T11:13:26.000Z</time>
      </trkpt>
      <trkpt lat="45.6179" lon="6.6567">
        <ele>2222.1999511719</ele>
        <time>2012-02-22T11:13:33.000Z</time>
      </trkpt>
      <trkpt lat="45.61793" lon="6.65672">
        <ele>2224</ele>
        <time>2012-02-22T11:13:38.000Z</time>
      </trkpt>
      <trkpt lat="45.61799" lon="6.65676">
        <ele>2225.8000488281</ele>
        <time>2012-02-22T11:13:47.000Z</time>
      </trkpt>
      <trkpt lat="45.61804" lon="6.65679">
        <ele>2228.3999023438</ele>
        <time>2012-02-22T11:13:56.000Z</time>
      </trkpt>
      <trkpt lat="45.61805" lon="6.65679">
        <ele>2228.6000976562</ele>
        <time>2012-02-22T11:13:57.000Z</time>
      </trkpt>
      <trkpt lat="45.61811" lon="6.65682">
        <ele>2231.1999511719</ele>
        <time>2012-02-22T11:14:04.000Z</time>
      </trkpt>
      <trkpt lat="45.61817" lon="6.65684">
        <ele>2231.1999511719</ele>
        <time>2012-02-22T11:14:12.000Z</time>
      </trkpt>
      <trkpt lat="45.61823" lon="6.65687">
        <ele>2233.1999511719</ele>
        <time>2012-02-22T11:14:21.000Z</time>
      </trkpt>
      <trkpt lat="45.6183" lon="6.6569">
        <ele>2234.6000976562</ele>
        <time>2012-02-22T11:14:30.000Z</time>
      </trkpt>
      <trkpt lat="45.6183" lon="6.6569">
        <ele>2234.6000976562</ele>
        <time>2012-02-22T11:14:31.000Z</time>
      </trkpt>
      <trkpt lat="45.61836" lon="6.6569">
        <ele>2236.1999511719</ele>
        <time>2012-02-22T11:14:38.000Z</time>
      </trkpt>
      <trkpt lat="45.61843" lon="6.65689">
        <ele>2236.8000488281</ele>
        <time>2012-02-22T11:14:46.000Z</time>
      </trkpt>
      <trkpt lat="45.61847" lon="6.65689">
        <ele>2236.3999023438</ele>
        <time>2012-02-22T11:14:51.000Z</time>
      </trkpt>
      <trkpt lat="45.61851" lon="6.65689">
        <ele>2238.3999023438</ele>
        <time>2012-02-22T11:14:55.000Z</time>
      </trkpt>
      <trkpt lat="45.61855" lon="6.65688">
        <ele>2239</ele>
        <time>2012-02-22T11:15:00.000Z</time>
      </trkpt>
      <trkpt lat="45.61856" lon="6.65689">
        <ele>2239.8000488281</ele>
        <time>2012-02-22T11:15:02.000Z</time>
      </trkpt>
      <trkpt lat="45.61863" lon="6.65688">
        <ele>2240.6000976562</ele>
        <time>2012-02-22T11:15:11.000Z</time>
      </trkpt>
      <trkpt lat="45.61869" lon="6.65691">
        <ele>2241</ele>
        <time>2012-02-22T11:15:20.000Z</time>
      </trkpt>
      <trkpt lat="45.61872" lon="6.65692">
        <ele>2243.3999023438</ele>
        <time>2012-02-22T11:15:24.000Z</time>
      </trkpt>
      <trkpt lat="45.61879" lon="6.65694">
        <ele>2244.3999023438</ele>
        <time>2012-02-22T11:15:33.000Z</time>
      </trkpt>
      <trkpt lat="45.61884" lon="6.65696">
        <ele>2245.8000488281</ele>
        <time>2012-02-22T11:15:40.000Z</time>
      </trkpt>
      <trkpt lat="45.61888" lon="6.65699">
        <ele>2246.6000976562</ele>
        <time>2012-02-22T11:15:47.000Z</time>
      </trkpt>
      <trkpt lat="45.61894" lon="6.65701">
        <ele>2249</ele>
        <time>2012-02-22T11:15:54.000Z</time>
      </trkpt>
      <trkpt lat="45.61894" lon="6.65703">
        <ele>2250</ele>
        <time>2012-02-22T11:15:56.000Z</time>
      </trkpt>
      <trkpt lat="45.61895" lon="6.65704">
        <ele>2250.6000976562</ele>
        <time>2012-02-22T11:15:57.000Z</time>
      </trkpt>
      <trkpt lat="45.61896" lon="6.6571">
        <ele>2251.3999023438</ele>
        <time>2012-02-22T11:16:03.000Z</time>
      </trkpt>
      <trkpt lat="45.61897" lon="6.65717">
        <ele>2254</ele>
        <time>2012-02-22T11:16:11.000Z</time>
      </trkpt>
      <trkpt lat="45.61897" lon="6.65725">
        <ele>2254.3999023438</ele>
        <time>2012-02-22T11:16:20.000Z</time>
      </trkpt>
      <trkpt lat="45.61899" lon="6.65731">
        <ele>2255.6000976562</ele>
        <time>2012-02-22T11:16:28.000Z</time>
      </trkpt>
      <trkpt lat="45.61901" lon="6.65731">
        <ele>2257.1999511719</ele>
        <time>2012-02-22T11:16:31.000Z</time>
      </trkpt>
      <trkpt lat="45.61904" lon="6.65731">
        <ele>2258.8000488281</ele>
        <time>2012-02-22T11:16:37.000Z</time>
      </trkpt>
      <trkpt lat="45.61911" lon="6.65733">
        <ele>2260.3999023438</ele>
        <time>2012-02-22T11:16:48.000Z</time>
      </trkpt>
      <trkpt lat="45.61916" lon="6.65733">
        <ele>2261.6000976562</ele>
        <time>2012-02-22T11:16:56.000Z</time>
      </trkpt>
      <trkpt lat="45.61919" lon="6.65733">
        <ele>2262.6000976562</ele>
        <time>2012-02-22T11:17:02.000Z</time>
      </trkpt>
      <trkpt lat="45.61921" lon="6.65733">
        <ele>2263.6000976562</ele>
        <time>2012-02-22T11:17:06.000Z</time>
      </trkpt>
      <trkpt lat="45.61924" lon="6.65732">
        <ele>2264.3999023438</ele>
        <time>2012-02-22T11:17:11.000Z</time>
      </trkpt>
      <trkpt lat="45.61929" lon="6.65732">
        <ele>2266.3999023438</ele>
        <time>2012-02-22T11:17:19.000Z</time>
      </trkpt>
      <trkpt lat="45.6193" lon="6.65731">
        <ele>2266.3999023438</ele>
        <time>2012-02-22T11:17:22.000Z</time>
      </trkpt>
      <trkpt lat="45.61933" lon="6.65732">
        <ele>2269.1999511719</ele>
        <time>2012-02-22T11:17:27.000Z</time>
      </trkpt>
      <trkpt lat="45.61939" lon="6.65735">
        <ele>2270.6000976562</ele>
        <time>2012-02-22T11:17:35.000Z</time>
      </trkpt>
      <trkpt lat="45.61943" lon="6.65739">
        <ele>2271.1999511719</ele>
        <time>2012-02-22T11:17:42.000Z</time>
      </trkpt>
      <trkpt lat="45.61945" lon="6.65741">
        <ele>2272.6000976562</ele>
        <time>2012-02-22T11:17:45.000Z</time>
      </trkpt>
      <trkpt lat="45.61951" lon="6.65745">
        <ele>2272.8000488281</ele>
        <time>2012-02-22T11:17:54.000Z</time>
      </trkpt>
      <trkpt lat="45.61954" lon="6.65751">
        <ele>2274.8000488281</ele>
        <time>2012-02-22T11:18:07.000Z</time>
      </trkpt>
      <trkpt lat="45.61962" lon="6.65756">
        <ele>2276.6000976562</ele>
        <time>2012-02-22T11:18:17.000Z</time>
      </trkpt>
      <trkpt lat="45.61967" lon="6.6576">
        <ele>2277.8000488281</ele>
        <time>2012-02-22T11:18:25.000Z</time>
      </trkpt>
      <trkpt lat="45.61975" lon="6.65764">
        <ele>2279.1999511719</ele>
        <time>2012-02-22T11:18:34.000Z</time>
      </trkpt>
      <trkpt lat="45.61979" lon="6.65767">
        <ele>2280.1999511719</ele>
        <time>2012-02-22T11:18:39.000Z</time>
      </trkpt>
      <trkpt lat="45.61981" lon="6.6577">
        <ele>2280.6000976562</ele>
        <time>2012-02-22T11:18:42.000Z</time>
      </trkpt>
      <trkpt lat="45.61989" lon="6.65775">
        <ele>2283.6000976562</ele>
        <time>2012-02-22T11:18:52.000Z</time>
      </trkpt>
      <trkpt lat="45.61995" lon="6.65779">
        <ele>2285.6000976562</ele>
        <time>2012-02-22T11:19:01.000Z</time>
      </trkpt>
      <trkpt lat="45.62" lon="6.65785">
        <ele>2286.3999023438</ele>
        <time>2012-02-22T11:19:09.000Z</time>
      </trkpt>
      <trkpt lat="45.62004" lon="6.65787">
        <ele>2287.1999511719</ele>
        <time>2012-02-22T11:19:15.000Z</time>
      </trkpt>
      <trkpt lat="45.62012" lon="6.65788">
        <ele>2289.1999511719</ele>
        <time>2012-02-22T11:19:23.000Z</time>
      </trkpt>
      <trkpt lat="45.62018" lon="6.65787">
        <ele>2292</ele>
        <time>2012-02-22T11:19:29.000Z</time>
      </trkpt>
      <trkpt lat="45.62023" lon="6.65789">
        <ele>2293</ele>
        <time>2012-02-22T11:19:36.000Z</time>
      </trkpt>
      <trkpt lat="45.62027" lon="6.65789">
        <ele>2293</ele>
        <time>2012-02-22T11:19:41.000Z</time>
      </trkpt>
      <trkpt lat="45.6203" lon="6.6579">
        <ele>2295.8000488281</ele>
        <time>2012-02-22T11:19:46.000Z</time>
      </trkpt>
      <trkpt lat="45.62035" lon="6.6579">
        <ele>2295.3999023438</ele>
        <time>2012-02-22T11:19:51.000Z</time>
      </trkpt>
      <trkpt lat="45.62041" lon="6.65791">
        <ele>2297.8000488281</ele>
        <time>2012-02-22T11:19:58.000Z</time>
      </trkpt>
      <trkpt lat="45.62045" lon="6.65793">
        <ele>2299.6000976562</ele>
        <time>2012-02-22T11:20:05.000Z</time>
      </trkpt>
      <trkpt lat="45.62049" lon="6.65796">
        <ele>2299.6000976562</ele>
        <time>2012-02-22T11:20:13.000Z</time>
      </trkpt>
      <trkpt lat="45.62054" lon="6.65799">
        <ele>2300.6000976562</ele>
        <time>2012-02-22T11:20:21.000Z</time>
      </trkpt>
      <trkpt lat="45.62057" lon="6.65801">
        <ele>2303</ele>
        <time>2012-02-22T11:20:26.000Z</time>
      </trkpt>
      <trkpt lat="45.62063" lon="6.65802">
        <ele>2303.3999023438</ele>
        <time>2012-02-22T11:20:35.000Z</time>
      </trkpt>
      <trkpt lat="45.62069" lon="6.65804">
        <ele>2304</ele>
        <time>2012-02-22T11:20:44.000Z</time>
      </trkpt>
      <trkpt lat="45.62075" lon="6.65807">
        <ele>2307</ele>
        <time>2012-02-22T11:20:51.000Z</time>
      </trkpt>
      <trkpt lat="45.6208" lon="6.65809">
        <ele>2308.1999511719</ele>
        <time>2012-02-22T11:20:58.000Z</time>
      </trkpt>
      <trkpt lat="45.62085" lon="6.65809">
        <ele>2308.6000976562</ele>
        <time>2012-02-22T11:21:05.000Z</time>
      </trkpt>
      <trkpt lat="45.62091" lon="6.65807">
        <ele>2309.6000976562</ele>
        <time>2012-02-22T11:21:13.000Z</time>
      </trkpt>
      <trkpt lat="45.62093" lon="6.65806">
        <ele>2310.8000488281</ele>
        <time>2012-02-22T11:21:16.000Z</time>
      </trkpt>
      <trkpt lat="45.62098" lon="6.65803">
        <ele>2312.1999511719</ele>
        <time>2012-02-22T11:21:24.000Z</time>
      </trkpt>
      <trkpt lat="45.62104" lon="6.65802">
        <ele>2313.3999023438</ele>
        <time>2012-02-22T11:21:33.000Z</time>
      </trkpt>
      <trkpt lat="45.62107" lon="6.65803">
        <ele>2315.6000976562</ele>
        <time>2012-02-22T11:21:38.000Z</time>
      </trkpt>
      <trkpt lat="45.62111" lon="6.65805">
        <ele>2316.3999023438</ele>
        <time>2012-02-22T11:21:45.000Z</time>
      </trkpt>
      <trkpt lat="45.62116" lon="6.65806">
        <ele>2316.8000488281</ele>
        <time>2012-02-22T11:21:52.000Z</time>
      </trkpt>
      <trkpt lat="45.62121" lon="6.65807">
        <ele>2319.1999511719</ele>
        <time>2012-02-22T11:22:00.000Z</time>
      </trkpt>
      <trkpt lat="45.62125" lon="6.65806">
        <ele>2321.8000488281</ele>
        <time>2012-02-22T11:22:08.000Z</time>
      </trkpt>
      <trkpt lat="45.6213" lon="6.65807">
        <ele>2321.1999511719</ele>
        <time>2012-02-22T11:22:16.000Z</time>
      </trkpt>
      <trkpt lat="45.62136" lon="6.65811">
        <ele>2323.1999511719</ele>
        <time>2012-02-22T11:22:25.000Z</time>
      </trkpt>
      <trkpt lat="45.62142" lon="6.65815">
        <ele>2325.3999023438</ele>
        <time>2012-02-22T11:22:35.000Z</time>
      </trkpt>
      <trkpt lat="45.62143" lon="6.65816">
        <ele>2325.3999023438</ele>
        <time>2012-02-22T11:22:37.000Z</time>
      </trkpt>
      <trkpt lat="45.62147" lon="6.65816">
        <ele>2327.3999023438</ele>
        <time>2012-02-22T11:22:41.000Z</time>
      </trkpt>
      <trkpt lat="45.6215" lon="6.65817">
        <ele>2326.3999023438</ele>
        <time>2012-02-22T11:22:45.000Z</time>
      </trkpt>
      <trkpt lat="45.62153" lon="6.65818">
        <ele>2329.1999511719</ele>
        <time>2012-02-22T11:22:50.000Z</time>
      </trkpt>
      <trkpt lat="45.62159" lon="6.65822">
        <ele>2331</ele>
        <time>2012-02-22T11:22:59.000Z</time>
      </trkpt>
      <trkpt lat="45.6216" lon="6.65822">
        <ele>2330.6000976562</ele>
        <time>2012-02-22T11:23:00.000Z</time>
      </trkpt>
      <trkpt lat="45.62163" lon="6.65823">
        <ele>2329.1999511719</ele>
        <time>2012-02-22T11:23:04.000Z</time>
      </trkpt>
      <trkpt lat="45.62163" lon="6.65824">
        <ele>2328.8000488281</ele>
        <time>2012-02-22T11:23:05.000Z</time>
      </trkpt>
      <trkpt lat="45.62166" lon="6.65824">
        <ele>2329.8000488281</ele>
        <time>2012-02-22T11:23:07.000Z</time>
      </trkpt>
      <trkpt lat="45.62173" lon="6.6583">
        <ele>2330.8000488281</ele>
        <time>2012-02-22T11:23:16.000Z</time>
      </trkpt>
      <trkpt lat="45.62183" lon="6.65838">
        <ele>2332.1999511719</ele>
        <time>2012-02-22T11:23:27.000Z</time>
      </trkpt>
      <trkpt lat="45.6219" lon="6.65844">
        <ele>2333.1999511719</ele>
        <time>2012-02-22T11:23:36.000Z</time>
      </trkpt>
      <trkpt lat="45.62198" lon="6.65847">
        <ele>2334.6000976562</ele>
        <time>2012-02-22T11:23:46.000Z</time>
      </trkpt>
      <trkpt lat="45.62205" lon="6.65848">
        <ele>2335.3999023438</ele>
        <time>2012-02-22T11:23:54.000Z</time>
      </trkpt>
      <trkpt lat="45.62211" lon="6.65848">
        <ele>2336.8000488281</ele>
        <time>2012-02-22T11:24:01.000Z</time>
      </trkpt>
      <trkpt lat="45.62216" lon="6.65845">
        <ele>2338.8000488281</ele>
        <time>2012-02-22T11:24:08.000Z</time>
      </trkpt>
      <trkpt lat="45.62217" lon="6.65844">
        <ele>2338.8000488281</ele>
        <time>2012-02-22T11:24:10.000Z</time>
      </trkpt>
      <trkpt lat="45.6222" lon="6.65843">
        <ele>2337.8000488281</ele>
        <time>2012-02-22T11:24:13.000Z</time>
      </trkpt>
      <trkpt lat="45.62228" lon="6.65843">
        <ele>2339.3999023438</ele>
        <time>2012-02-22T11:24:23.000Z</time>
      </trkpt>
      <trkpt lat="45.62229" lon="6.65843">
        <ele>2339</ele>
        <time>2012-02-22T11:24:34.000Z</time>
      </trkpt>
      <trkpt lat="45.6223" lon="6.65842">
        <ele>2338.8000488281</ele>
        <time>2012-02-22T11:24:45.000Z</time>
      </trkpt>
      <trkpt lat="45.62227" lon="6.6584">
        <ele>2338.8000488281</ele>
        <time>2012-02-22T11:24:52.000Z</time>
      </trkpt>
      <trkpt lat="45.62219" lon="6.65833">
        <ele>2338.6000976562</ele>
        <time>2012-02-22T11:25:00.000Z</time>
      </trkpt>
      <trkpt lat="45.62211" lon="6.65827">
        <ele>2338.6000976562</ele>
        <time>2012-02-22T11:25:09.000Z</time>
      </trkpt>
      <trkpt lat="45.62206" lon="6.65822">
        <ele>2338.8000488281</ele>
        <time>2012-02-22T11:25:16.000Z</time>
      </trkpt>
      <trkpt lat="45.62204" lon="6.65821">
        <ele>2338.8000488281</ele>
        <time>2012-02-22T11:25:23.000Z</time>
      </trkpt>
      <trkpt lat="45.62202" lon="6.6582">
        <ele>2336.8000488281</ele>
        <time>2012-02-22T11:27:17.000Z</time>
      </trkpt>
      <trkpt lat="45.62206" lon="6.65822">
        <ele>2337.1999511719</ele>
        <time>2012-02-22T11:29:22.000Z</time>
      </trkpt>
      <trkpt lat="45.62208" lon="6.65826">
        <ele>2338</ele>
        <time>2012-02-22T11:29:35.000Z</time>
      </trkpt>
      <trkpt lat="45.62209" lon="6.65828">
        <ele>2338.6000976562</ele>
        <time>2012-02-22T11:29:47.000Z</time>
      </trkpt>
      <trkpt lat="45.62207" lon="6.65829">
        <ele>2337</ele>
        <time>2012-02-22T11:29:51.000Z</time>
      </trkpt>
      <trkpt lat="45.62201" lon="6.65834">
        <ele>2335.6000976562</ele>
        <time>2012-02-22T11:29:55.000Z</time>
      </trkpt>
      <trkpt lat="45.62199" lon="6.65833">
        <ele>2335</ele>
        <time>2012-02-22T11:29:58.000Z</time>
      </trkpt>
      <trkpt lat="45.62191" lon="6.65831">
        <ele>2334.1999511719</ele>
        <time>2012-02-22T11:30:02.000Z</time>
      </trkpt>
      <trkpt lat="45.62175" lon="6.65824">
        <ele>2331.1999511719</ele>
        <time>2012-02-22T11:30:06.000Z</time>
      </trkpt>
      <trkpt lat="45.62167" lon="6.65814">
        <ele>2329.8000488281</ele>
        <time>2012-02-22T11:30:09.000Z</time>
      </trkpt>
      <trkpt lat="45.62163" lon="6.65812">
        <ele>2329.6000976562</ele>
        <time>2012-02-22T11:30:11.000Z</time>
      </trkpt>
      <trkpt lat="45.6214" lon="6.65808">
        <ele>2325.6000976562</ele>
        <time>2012-02-22T11:30:16.000Z</time>
      </trkpt>
      <trkpt lat="45.62128" lon="6.65804">
        <ele>2323</ele>
        <time>2012-02-22T11:30:19.000Z</time>
      </trkpt>
      <trkpt lat="45.62117" lon="6.65801">
        <ele>2320</ele>
        <time>2012-02-22T11:30:22.000Z</time>
      </trkpt>
      <trkpt lat="45.62105" lon="6.65801">
        <ele>2317</ele>
        <time>2012-02-22T11:30:25.000Z</time>
      </trkpt>
      <trkpt lat="45.62098" lon="6.65802">
        <ele>2314</ele>
        <time>2012-02-22T11:30:27.000Z</time>
      </trkpt>
      <trkpt lat="45.6209" lon="6.65803">
        <ele>2310.6000976562</ele>
        <time>2012-02-22T11:30:30.000Z</time>
      </trkpt>
      <trkpt lat="45.62082" lon="6.65804">
        <ele>2306.8000488281</ele>
        <time>2012-02-22T11:30:33.000Z</time>
      </trkpt>
      <trkpt lat="45.62076" lon="6.65803">
        <ele>2303.1999511719</ele>
        <time>2012-02-22T11:30:36.000Z</time>
      </trkpt>
      <trkpt lat="45.62078" lon="6.658">
        <ele>2302.3999023438</ele>
        <time>2012-02-22T11:30:38.000Z</time>
      </trkpt>
      <trkpt lat="45.62081" lon="6.65798">
        <ele>2305.6000976562</ele>
        <time>2012-02-22T11:30:40.000Z</time>
      </trkpt>
      <trkpt lat="45.6208" lon="6.65797">
        <ele>2308</ele>
        <time>2012-02-22T11:30:46.000Z</time>
      </trkpt>
      <trkpt lat="45.62075" lon="6.65798">
        <ele>2304</ele>
        <time>2012-02-22T11:30:49.000Z</time>
      </trkpt>
      <trkpt lat="45.62059" lon="6.65792">
        <ele>2300.6000976562</ele>
        <time>2012-02-22T11:30:53.000Z</time>
      </trkpt>
      <trkpt lat="45.62042" lon="6.65784">
        <ele>2297.8000488281</ele>
        <time>2012-02-22T11:30:57.000Z</time>
      </trkpt>
      <trkpt lat="45.62033" lon="6.65784">
        <ele>2295</ele>
        <time>2012-02-22T11:30:59.000Z</time>
      </trkpt>
      <trkpt lat="45.62029" lon="6.65781">
        <ele>2294.8000488281</ele>
        <time>2012-02-22T11:31:00.000Z</time>
      </trkpt>
      <trkpt lat="45.62023" lon="6.65784">
        <ele>2290.8000488281</ele>
        <time>2012-02-22T11:31:02.000Z</time>
      </trkpt>
      <trkpt lat="45.62009" lon="6.65781">
        <ele>2287.6000976562</ele>
        <time>2012-02-22T11:31:05.000Z</time>
      </trkpt>
      <trkpt lat="45.61994" lon="6.65776">
        <ele>2283.1999511719</ele>
        <time>2012-02-22T11:31:08.000Z</time>
      </trkpt>
      <trkpt lat="45.61986" lon="6.65765">
        <ele>2281</ele>
        <time>2012-02-22T11:31:10.000Z</time>
      </trkpt>
      <trkpt lat="45.61977" lon="6.6576">
        <ele>2278.6000976562</ele>
        <time>2012-02-22T11:31:12.000Z</time>
      </trkpt>
      <trkpt lat="45.61973" lon="6.65757">
        <ele>2277.6000976562</ele>
        <time>2012-02-22T11:31:13.000Z</time>
      </trkpt>
      <trkpt lat="45.61962" lon="6.65753">
        <ele>2274.6000976562</ele>
        <time>2012-02-22T11:31:16.000Z</time>
      </trkpt>
      <trkpt lat="45.61952" lon="6.65742">
        <ele>2271.3999023438</ele>
        <time>2012-02-22T11:31:19.000Z</time>
      </trkpt>
      <trkpt lat="45.61943" lon="6.65737">
        <ele>2269.6000976562</ele>
        <time>2012-02-22T11:31:21.000Z</time>
      </trkpt>
      <trkpt lat="45.61939" lon="6.65741">
        <ele>2267.1999511719</ele>
        <time>2012-02-22T11:31:23.000Z</time>
      </trkpt>
      <trkpt lat="45.61939" lon="6.65742">
        <ele>2267</ele>
        <time>2012-02-22T11:31:28.000Z</time>
      </trkpt>
      <trkpt lat="45.61929" lon="6.65736">
        <ele>2265.8000488281</ele>
        <time>2012-02-22T11:31:32.000Z</time>
      </trkpt>
      <trkpt lat="45.61926" lon="6.65729">
        <ele>2265</ele>
        <time>2012-02-22T11:31:34.000Z</time>
      </trkpt>
      <trkpt lat="45.61913" lon="6.65727">
        <ele>2260.8000488281</ele>
        <time>2012-02-22T11:31:38.000Z</time>
      </trkpt>
      <trkpt lat="45.61902" lon="6.65733">
        <ele>2257.1999511719</ele>
        <time>2012-02-22T11:31:41.000Z</time>
      </trkpt>
      <trkpt lat="45.61899" lon="6.65723">
        <ele>2254.1999511719</ele>
        <time>2012-02-22T11:31:43.000Z</time>
      </trkpt>
      <trkpt lat="45.61889" lon="6.65719">
        <ele>2252.8000488281</ele>
        <time>2012-02-22T11:31:46.000Z</time>
      </trkpt>
      <trkpt lat="45.61889" lon="6.65719">
        <ele>2251.1999511719</ele>
        <time>2012-02-22T11:31:50.000Z</time>
      </trkpt>
      <trkpt lat="45.61887" lon="6.65718">
        <ele>2250.8000488281</ele>
        <time>2012-02-22T11:31:59.000Z</time>
      </trkpt>
      <trkpt lat="45.61886" lon="6.65708">
        <ele>2249</ele>
        <time>2012-02-22T11:32:02.000Z</time>
      </trkpt>
      <trkpt lat="45.61886" lon="6.65699">
        <ele>2246.8000488281</ele>
        <time>2012-02-22T11:32:05.000Z</time>
      </trkpt>
      <trkpt lat="45.61875" lon="6.65693">
        <ele>2244.1999511719</ele>
        <time>2012-02-22T11:32:08.000Z</time>
      </trkpt>
      <trkpt lat="45.61865" lon="6.65687">
        <ele>2242.1999511719</ele>
        <time>2012-02-22T11:32:10.000Z</time>
      </trkpt>
      <trkpt lat="45.61855" lon="6.65686">
        <ele>2239</ele>
        <time>2012-02-22T11:32:12.000Z</time>
      </trkpt>
      <trkpt lat="45.61845" lon="6.65698">
        <ele>2236.8000488281</ele>
        <time>2012-02-22T11:32:15.000Z</time>
      </trkpt>
      <trkpt lat="45.61838" lon="6.65704">
        <ele>2235.8000488281</ele>
        <time>2012-02-22T11:32:18.000Z</time>
      </trkpt>
      <trkpt lat="45.61838" lon="6.65703">
        <ele>2236.3999023438</ele>
        <time>2012-02-22T11:32:25.000Z</time>
      </trkpt>
      <trkpt lat="45.6183" lon="6.65695">
        <ele>2234.6000976562</ele>
        <time>2012-02-22T11:32:29.000Z</time>
      </trkpt>
      <trkpt lat="45.61818" lon="6.65679">
        <ele>2231.3999023438</ele>
        <time>2012-02-22T11:32:32.000Z</time>
      </trkpt>
      <trkpt lat="45.61803" lon="6.65675">
        <ele>2228.6000976562</ele>
        <time>2012-02-22T11:32:35.000Z</time>
      </trkpt>
      <trkpt lat="45.61799" lon="6.65669">
        <ele>2228.3999023438</ele>
        <time>2012-02-22T11:32:36.000Z</time>
      </trkpt>
      <trkpt lat="45.61791" lon="6.65664">
        <ele>2225.3999023438</ele>
        <time>2012-02-22T11:32:38.000Z</time>
      </trkpt>
      <trkpt lat="45.61777" lon="6.65659">
        <ele>2222.6000976562</ele>
        <time>2012-02-22T11:32:41.000Z</time>
      </trkpt>
      <trkpt lat="45.61757" lon="6.6565">
        <ele>2218.3999023438</ele>
        <time>2012-02-22T11:32:45.000Z</time>
      </trkpt>
      <trkpt lat="45.61748" lon="6.6564">
        <ele>2215.3999023438</ele>
        <time>2012-02-22T11:32:48.000Z</time>
      </trkpt>
      <trkpt lat="45.61743" lon="6.65644">
        <ele>2214.8000488281</ele>
        <time>2012-02-22T11:32:49.000Z</time>
      </trkpt>
      <trkpt lat="45.61733" lon="6.65645">
        <ele>2212</ele>
        <time>2012-02-22T11:32:53.000Z</time>
      </trkpt>
      <trkpt lat="45.61732" lon="6.65643">
        <ele>2210.8000488281</ele>
        <time>2012-02-22T11:33:11.000Z</time>
      </trkpt>
      <trkpt lat="45.6172" lon="6.65642">
        <ele>2209.1999511719</ele>
        <time>2012-02-22T11:33:17.000Z</time>
      </trkpt>
      <trkpt lat="45.61703" lon="6.65653">
        <ele>2207.8000488281</ele>
        <time>2012-02-22T11:33:23.000Z</time>
      </trkpt>
      <trkpt lat="45.61697" lon="6.65662">
        <ele>2207</ele>
        <time>2012-02-22T11:33:28.000Z</time>
      </trkpt>
      <trkpt lat="45.61692" lon="6.65679">
        <ele>2205.6000976562</ele>
        <time>2012-02-22T11:33:33.000Z</time>
      </trkpt>
      <trkpt lat="45.61692" lon="6.6569">
        <ele>2204.3999023438</ele>
        <time>2012-02-22T11:33:35.000Z</time>
      </trkpt>
      <trkpt lat="45.61683" lon="6.65698">
        <ele>2201.1999511719</ele>
        <time>2012-02-22T11:33:39.000Z</time>
      </trkpt>
      <trkpt lat="45.61674" lon="6.65699">
        <ele>2200.1999511719</ele>
        <time>2012-02-22T11:33:41.000Z</time>
      </trkpt>
      <trkpt lat="45.61664" lon="6.65699">
        <ele>2198.6000976562</ele>
        <time>2012-02-22T11:33:44.000Z</time>
      </trkpt>
      <trkpt lat="45.61646" lon="6.657">
        <ele>2195.8000488281</ele>
        <time>2012-02-22T11:33:49.000Z</time>
      </trkpt>
      <trkpt lat="45.61633" lon="6.65703">
        <ele>2193.3999023438</ele>
        <time>2012-02-22T11:33:52.000Z</time>
      </trkpt>
      <trkpt lat="45.61623" lon="6.65709">
        <ele>2191.3999023438</ele>
        <time>2012-02-22T11:33:55.000Z</time>
      </trkpt>
      <trkpt lat="45.61612" lon="6.65712">
        <ele>2189.3999023438</ele>
        <time>2012-02-22T11:33:59.000Z</time>
      </trkpt>
      <trkpt lat="45.61598" lon="6.65717">
        <ele>2187</ele>
        <time>2012-02-22T11:34:03.000Z</time>
      </trkpt>
      <trkpt lat="45.61596" lon="6.65719">
        <ele>2187</ele>
        <time>2012-02-22T11:34:04.000Z</time>
      </trkpt>
      <trkpt lat="45.61596" lon="6.65719">
        <ele>2186.6000976562</ele>
        <time>2012-02-22T11:34:05.000Z</time>
      </trkpt>
      <trkpt lat="45.61586" lon="6.65715">
        <ele>2185</ele>
        <time>2012-02-22T11:34:09.000Z</time>
      </trkpt>
      <trkpt lat="45.61566" lon="6.65714">
        <ele>2180.1999511719</ele>
        <time>2012-02-22T11:34:13.000Z</time>
      </trkpt>
      <trkpt lat="45.61561" lon="6.65714">
        <ele>2179.6000976562</ele>
        <time>2012-02-22T11:34:14.000Z</time>
      </trkpt>
      <trkpt lat="45.61542" lon="6.65712">
        <ele>2175.6000976562</ele>
        <time>2012-02-22T11:34:19.000Z</time>
      </trkpt>
      <trkpt lat="45.61531" lon="6.65708">
        <ele>2173.8000488281</ele>
        <time>2012-02-22T11:34:23.000Z</time>
      </trkpt>
      <trkpt lat="45.61515" lon="6.65705">
        <ele>2169.1999511719</ele>
        <time>2012-02-22T11:34:27.000Z</time>
      </trkpt>
      <trkpt lat="45.61514" lon="6.65705">
        <ele>2168.6000976562</ele>
        <time>2012-02-22T11:34:29.000Z</time>
      </trkpt>
      <trkpt lat="45.61514" lon="6.65704">
        <ele>2168.3999023438</ele>
        <time>2012-02-22T11:34:33.000Z</time>
      </trkpt>
      <trkpt lat="45.61504" lon="6.65695">
        <ele>2166.3999023438</ele>
        <time>2012-02-22T11:34:37.000Z</time>
      </trkpt>
      <trkpt lat="45.61494" lon="6.65691">
        <ele>2164.8000488281</ele>
        <time>2012-02-22T11:34:39.000Z</time>
      </trkpt>
      <trkpt lat="45.61464" lon="6.65687">
        <ele>2159.1999511719</ele>
        <time>2012-02-22T11:34:45.000Z</time>
      </trkpt>
      <trkpt lat="45.61449" lon="6.65685">
        <ele>2156</ele>
        <time>2012-02-22T11:34:49.000Z</time>
      </trkpt>
      <trkpt lat="45.61456" lon="6.65671">
        <ele>2151.3999023438</ele>
        <time>2012-02-22T11:34:53.000Z</time>
      </trkpt>
      <trkpt lat="45.61458" lon="6.65671">
        <ele>2150.8000488281</ele>
        <time>2012-02-22T11:34:55.000Z</time>
      </trkpt>
      <trkpt lat="45.61458" lon="6.65671">
        <ele>2149.6000976562</ele>
        <time>2012-02-22T11:34:57.000Z</time>
      </trkpt>
      <trkpt lat="45.61458" lon="6.65672">
        <ele>2148.1999511719</ele>
        <time>2012-02-22T11:34:59.000Z</time>
      </trkpt>
      <trkpt lat="45.61456" lon="6.65671">
        <ele>2148.3999023438</ele>
        <time>2012-02-22T11:35:03.000Z</time>
      </trkpt>
      <trkpt lat="45.6145" lon="6.65668">
        <ele>2147.8000488281</ele>
        <time>2012-02-22T11:35:06.000Z</time>
      </trkpt>
      <trkpt lat="45.61431" lon="6.65663">
        <ele>2143.6000976562</ele>
        <time>2012-02-22T11:35:10.000Z</time>
      </trkpt>
      <trkpt lat="45.61407" lon="6.65655">
        <ele>2139.1999511719</ele>
        <time>2012-02-22T11:35:15.000Z</time>
      </trkpt>
      <trkpt lat="45.61404" lon="6.65654">
        <ele>2138.6000976562</ele>
        <time>2012-02-22T11:35:17.000Z</time>
      </trkpt>
      <trkpt lat="45.61394" lon="6.65648">
        <ele>2136.3999023438</ele>
        <time>2012-02-22T11:35:21.000Z</time>
      </trkpt>
      <trkpt lat="45.61386" lon="6.65645">
        <ele>2134.1999511719</ele>
        <time>2012-02-22T11:35:24.000Z</time>
      </trkpt>
      <trkpt lat="45.6139" lon="6.65633">
        <ele>2129.3999023438</ele>
        <time>2012-02-22T11:35:28.000Z</time>
      </trkpt>
      <trkpt lat="45.61393" lon="6.6563">
        <ele>2127.6000976562</ele>
        <time>2012-02-22T11:35:30.000Z</time>
      </trkpt>
      <trkpt lat="45.61392" lon="6.6563">
        <ele>2126.8000488281</ele>
        <time>2012-02-22T11:35:34.000Z</time>
      </trkpt>
      <trkpt lat="45.61383" lon="6.6562">
        <ele>2124.8000488281</ele>
        <time>2012-02-22T11:35:38.000Z</time>
      </trkpt>
      <trkpt lat="45.61385" lon="6.65611">
        <ele>2124</ele>
        <time>2012-02-22T11:35:40.000Z</time>
      </trkpt>
      <trkpt lat="45.61384" lon="6.65599">
        <ele>2123.6000976562</ele>
        <time>2012-02-22T11:35:43.000Z</time>
      </trkpt>
      <trkpt lat="45.61373" lon="6.65588">
        <ele>2118.6000976562</ele>
        <time>2012-02-22T11:35:46.000Z</time>
      </trkpt>
      <trkpt lat="45.61374" lon="6.65575">
        <ele>2115</ele>
        <time>2012-02-22T11:35:49.000Z</time>
      </trkpt>
      <trkpt lat="45.61381" lon="6.65567">
        <ele>2113.3999023438</ele>
        <time>2012-02-22T11:35:51.000Z</time>
      </trkpt>
      <trkpt lat="45.614" lon="6.65551">
        <ele>2111.1999511719</ele>
        <time>2012-02-22T11:35:56.000Z</time>
      </trkpt>
      <trkpt lat="45.61399" lon="6.6555">
        <ele>2111.6000976562</ele>
        <time>2012-02-22T11:36:02.000Z</time>
      </trkpt>
      <trkpt lat="45.61401" lon="6.65551">
        <ele>2110.6000976562</ele>
        <time>2012-02-22T11:36:49.000Z</time>
      </trkpt>
      <trkpt lat="45.614" lon="6.65546">
        <ele>2111.6000976562</ele>
        <time>2012-02-22T11:38:01.000Z</time>
      </trkpt>
      <trkpt lat="45.61404" lon="6.65549">
        <ele>2111.8000488281</ele>
        <time>2012-02-22T11:39:27.000Z</time>
      </trkpt>
      <trkpt lat="45.61407" lon="6.65544">
        <ele>2113.3999023438</ele>
        <time>2012-02-22T11:39:34.000Z</time>
      </trkpt>
      <trkpt lat="45.61409" lon="6.65541">
        <ele>2112.8000488281</ele>
        <time>2012-02-22T11:39:40.000Z</time>
      </trkpt>
      <trkpt lat="45.61411" lon="6.65539">
        <ele>2110</ele>
        <time>2012-02-22T11:39:49.000Z</time>
      </trkpt>
      <trkpt lat="45.61412" lon="6.65539">
        <ele>2113</ele>
        <time>2012-02-22T11:39:54.000Z</time>
      </trkpt>
      <trkpt lat="45.61418" lon="6.65532">
        <ele>2113.8000488281</ele>
        <time>2012-02-22T11:40:09.000Z</time>
      </trkpt>
      <trkpt lat="45.61422" lon="6.65527">
        <ele>2115.1999511719</ele>
        <time>2012-02-22T11:40:16.000Z</time>
      </trkpt>
      <trkpt lat="45.61426" lon="6.65521">
        <ele>2115.3999023438</ele>
        <time>2012-02-22T11:40:23.000Z</time>
      </trkpt>
      <trkpt lat="45.6143" lon="6.65514">
        <ele>2118.1999511719</ele>
        <time>2012-02-22T11:40:31.000Z</time>
      </trkpt>
      <trkpt lat="45.61433" lon="6.65504">
        <ele>2119.6000976562</ele>
        <time>2012-02-22T11:40:39.000Z</time>
      </trkpt>
      <trkpt lat="45.61433" lon="6.65496">
        <ele>2121</ele>
        <time>2012-02-22T11:40:44.000Z</time>
      </trkpt>
      <trkpt lat="45.61433" lon="6.65484">
        <ele>2122.1999511719</ele>
        <time>2012-02-22T11:40:54.000Z</time>
      </trkpt>
      <trkpt lat="45.61433" lon="6.65481">
        <ele>2123.8000488281</ele>
        <time>2012-02-22T11:40:57.000Z</time>
      </trkpt>
      <trkpt lat="45.61432" lon="6.65473">
        <ele>2125.1999511719</ele>
        <time>2012-02-22T11:41:05.000Z</time>
      </trkpt>
      <trkpt lat="45.61436" lon="6.6547">
        <ele>2125.6000976562</ele>
        <time>2012-02-22T11:41:12.000Z</time>
      </trkpt>
      <trkpt lat="45.61438" lon="6.6547">
        <ele>2126.1999511719</ele>
        <time>2012-02-22T11:41:18.000Z</time>
      </trkpt>
      <trkpt lat="45.61442" lon="6.65469">
        <ele>2126.6000976562</ele>
        <time>2012-02-22T11:41:31.000Z</time>
      </trkpt>
      <trkpt lat="45.61444" lon="6.65469">
        <ele>2127.6000976562</ele>
        <time>2012-02-22T11:41:33.000Z</time>
      </trkpt>
      <trkpt lat="45.61446" lon="6.65469">
        <ele>2127.1999511719</ele>
        <time>2012-02-22T11:41:35.000Z</time>
      </trkpt>
      <trkpt lat="45.61449" lon="6.65467">
        <ele>2129.3999023438</ele>
        <time>2012-02-22T11:41:40.000Z</time>
      </trkpt>
      <trkpt lat="45.61453" lon="6.65468">
        <ele>2129.3999023438</ele>
        <time>2012-02-22T11:41:45.000Z</time>
      </trkpt>
      <trkpt lat="45.61455" lon="6.65469">
        <ele>2130.3999023438</ele>
        <time>2012-02-22T11:41:47.000Z</time>
      </trkpt>
      <trkpt lat="45.61458" lon="6.65471">
        <ele>2131.1999511719</ele>
        <time>2012-02-22T11:41:51.000Z</time>
      </trkpt>
      <trkpt lat="45.61461" lon="6.65472">
        <ele>2133.1999511719</ele>
        <time>2012-02-22T11:41:58.000Z</time>
      </trkpt>
      <trkpt lat="45.61463" lon="6.6547">
        <ele>2135.1999511719</ele>
        <time>2012-02-22T11:42:02.000Z</time>
      </trkpt>
      <trkpt lat="45.61466" lon="6.65464">
        <ele>2137.6000976562</ele>
        <time>2012-02-22T11:42:11.000Z</time>
      </trkpt>
      <trkpt lat="45.6147" lon="6.65458">
        <ele>2139</ele>
        <time>2012-02-22T11:42:18.000Z</time>
      </trkpt>
      <trkpt lat="45.61474" lon="6.6545">
        <ele>2138.3999023438</ele>
        <time>2012-02-22T11:42:27.000Z</time>
      </trkpt>
      <trkpt lat="45.61476" lon="6.6545">
        <ele>2140</ele>
        <time>2012-02-22T11:42:33.000Z</time>
      </trkpt>
      <trkpt lat="45.61481" lon="6.65455">
        <ele>2141.8000488281</ele>
        <time>2012-02-22T11:42:41.000Z</time>
      </trkpt>
      <trkpt lat="45.61484" lon="6.6546">
        <ele>2144.8000488281</ele>
        <time>2012-02-22T11:42:47.000Z</time>
      </trkpt>
      <trkpt lat="45.61484" lon="6.65466">
        <ele>2146</ele>
        <time>2012-02-22T11:42:53.000Z</time>
      </trkpt>
      <trkpt lat="45.61486" lon="6.65473">
        <ele>2147.1999511719</ele>
        <time>2012-02-22T11:43:01.000Z</time>
      </trkpt>
      <trkpt lat="45.61488" lon="6.65477">
        <ele>2148</ele>
        <time>2012-02-22T11:43:08.000Z</time>
      </trkpt>
      <trkpt lat="45.61489" lon="6.65478">
        <ele>2148.8000488281</ele>
        <time>2012-02-22T11:43:24.000Z</time>
      </trkpt>
      <trkpt lat="45.61495" lon="6.65473">
        <ele>2150.8000488281</ele>
        <time>2012-02-22T11:43:32.000Z</time>
      </trkpt>
      <trkpt lat="45.615" lon="6.65467">
        <ele>2151.1999511719</ele>
        <time>2012-02-22T11:43:40.000Z</time>
      </trkpt>
      <trkpt lat="45.61503" lon="6.6546">
        <ele>2152.6000976562</ele>
        <time>2012-02-22T11:43:47.000Z</time>
      </trkpt>
      <trkpt lat="45.61509" lon="6.65453">
        <ele>2154.3999023438</ele>
        <time>2012-02-22T11:43:56.000Z</time>
      </trkpt>
      <trkpt lat="45.61514" lon="6.65444">
        <ele>2156</ele>
        <time>2012-02-22T11:44:05.000Z</time>
      </trkpt>
      <trkpt lat="45.61519" lon="6.65436">
        <ele>2157.3999023438</ele>
        <time>2012-02-22T11:44:13.000Z</time>
      </trkpt>
      <trkpt lat="45.61523" lon="6.65428">
        <ele>2159.3999023438</ele>
        <time>2012-02-22T11:44:22.000Z</time>
      </trkpt>
      <trkpt lat="45.61525" lon="6.65422">
        <ele>2162.8000488281</ele>
        <time>2012-02-22T11:44:30.000Z</time>
      </trkpt>
      <trkpt lat="45.61528" lon="6.65413">
        <ele>2162.1999511719</ele>
        <time>2012-02-22T11:44:40.000Z</time>
      </trkpt>
      <trkpt lat="45.6153" lon="6.6541">
        <ele>2164</ele>
        <time>2012-02-22T11:44:43.000Z</time>
      </trkpt>
      <trkpt lat="45.61531" lon="6.65403">
        <ele>2165.3999023438</ele>
        <time>2012-02-22T11:44:51.000Z</time>
      </trkpt>
      <trkpt lat="45.61534" lon="6.65396">
        <ele>2166.3999023438</ele>
        <time>2012-02-22T11:44:58.000Z</time>
      </trkpt>
      <trkpt lat="45.61534" lon="6.65395">
        <ele>2166.3999023438</ele>
        <time>2012-02-22T11:44:59.000Z</time>
      </trkpt>
      <trkpt lat="45.61535" lon="6.65391">
        <ele>2167.8000488281</ele>
        <time>2012-02-22T11:45:02.000Z</time>
      </trkpt>
      <trkpt lat="45.61536" lon="6.65386">
        <ele>2168.6000976562</ele>
        <time>2012-02-22T11:45:08.000Z</time>
      </trkpt>
      <trkpt lat="45.61538" lon="6.65385">
        <ele>2170.1999511719</ele>
        <time>2012-02-22T11:45:12.000Z</time>
      </trkpt>
      <trkpt lat="45.61542" lon="6.6539">
        <ele>2170</ele>
        <time>2012-02-22T11:45:20.000Z</time>
      </trkpt>
      <trkpt lat="45.61546" lon="6.65393">
        <ele>2172.1999511719</ele>
        <time>2012-02-22T11:45:26.000Z</time>
      </trkpt>
      <trkpt lat="45.61548" lon="6.65396">
        <ele>2173.8000488281</ele>
        <time>2012-02-22T11:45:30.000Z</time>
      </trkpt>
      <trkpt lat="45.61554" lon="6.65401">
        <ele>2173.6000976562</ele>
        <time>2012-02-22T11:45:39.000Z</time>
      </trkpt>
      <trkpt lat="45.61559" lon="6.65404">
        <ele>2175.3999023438</ele>
        <time>2012-02-22T11:45:48.000Z</time>
      </trkpt>
      <trkpt lat="45.61564" lon="6.65408">
        <ele>2179</ele>
        <time>2012-02-22T11:45:57.000Z</time>
      </trkpt>
      <trkpt lat="45.61565" lon="6.65408">
        <ele>2179.8000488281</ele>
        <time>2012-02-22T11:45:58.000Z</time>
      </trkpt>
      <trkpt lat="45.61572" lon="6.65407">
        <ele>2181.1999511719</ele>
        <time>2012-02-22T11:46:07.000Z</time>
      </trkpt>
      <trkpt lat="45.61573" lon="6.65407">
        <ele>2181.1999511719</ele>
        <time>2012-02-22T11:46:08.000Z</time>
      </trkpt>
      <trkpt lat="45.6158" lon="6.65404">
        <ele>2182.3999023438</ele>
        <time>2012-02-22T11:46:18.000Z</time>
      </trkpt>
      <trkpt lat="45.61586" lon="6.65398">
        <ele>2184.8000488281</ele>
        <time>2012-02-22T11:46:28.000Z</time>
      </trkpt>
      <trkpt lat="45.61592" lon="6.65393">
        <ele>2185.6000976562</ele>
        <time>2012-02-22T11:46:36.000Z</time>
      </trkpt>
      <trkpt lat="45.61599" lon="6.65386">
        <ele>2186.8000488281</ele>
        <time>2012-02-22T11:46:46.000Z</time>
      </trkpt>
      <trkpt lat="45.61606" lon="6.6538">
        <ele>2188.1999511719</ele>
        <time>2012-02-22T11:46:55.000Z</time>
      </trkpt>
      <trkpt lat="45.61614" lon="6.65375">
        <ele>2189.6000976562</ele>
        <time>2012-02-22T11:47:05.000Z</time>
      </trkpt>
      <trkpt lat="45.61619" lon="6.6537">
        <ele>2190.6000976562</ele>
        <time>2012-02-22T11:47:13.000Z</time>
      </trkpt>
      <trkpt lat="45.61624" lon="6.65366">
        <ele>2192</ele>
        <time>2012-02-22T11:47:21.000Z</time>
      </trkpt>
      <trkpt lat="45.61628" lon="6.65363">
        <ele>2192.8000488281</ele>
        <time>2012-02-22T11:47:27.000Z</time>
      </trkpt>
      <trkpt lat="45.61632" lon="6.65359">
        <ele>2193.3999023438</ele>
        <time>2012-02-22T11:47:33.000Z</time>
      </trkpt>
      <trkpt lat="45.61636" lon="6.65357">
        <ele>2196</ele>
        <time>2012-02-22T11:47:38.000Z</time>
      </trkpt>
      <trkpt lat="45.6164" lon="6.65354">
        <ele>2197</ele>
        <time>2012-02-22T11:47:45.000Z</time>
      </trkpt>
      <trkpt lat="45.61647" lon="6.65348">
        <ele>2198.6000976562</ele>
        <time>2012-02-22T11:47:54.000Z</time>
      </trkpt>
      <trkpt lat="45.61649" lon="6.65345">
        <ele>2199.1999511719</ele>
        <time>2012-02-22T11:48:04.000Z</time>
      </trkpt>
      <trkpt lat="45.61651" lon="6.65344">
        <ele>2201.1999511719</ele>
        <time>2012-02-22T11:48:10.000Z</time>
      </trkpt>
      <trkpt lat="45.61655" lon="6.65342">
        <ele>2201.3999023438</ele>
        <time>2012-02-22T11:48:17.000Z</time>
      </trkpt>
      <trkpt lat="45.61658" lon="6.65339">
        <ele>2203.1999511719</ele>
        <time>2012-02-22T11:48:24.000Z</time>
      </trkpt>
      <trkpt lat="45.6166" lon="6.65337">
        <ele>2204.3999023438</ele>
        <time>2012-02-22T11:48:27.000Z</time>
      </trkpt>
      <trkpt lat="45.61664" lon="6.65333">
        <ele>2206.3999023438</ele>
        <time>2012-02-22T11:48:35.000Z</time>
      </trkpt>
      <trkpt lat="45.61664" lon="6.65332">
        <ele>2206.6000976562</ele>
        <time>2012-02-22T11:48:36.000Z</time>
      </trkpt>
      <trkpt lat="45.61669" lon="6.65326">
        <ele>2206.1999511719</ele>
        <time>2012-02-22T11:48:45.000Z</time>
      </trkpt>
      <trkpt lat="45.6167" lon="6.65325">
        <ele>2207.6000976562</ele>
        <time>2012-02-22T11:48:47.000Z</time>
      </trkpt>
      <trkpt lat="45.61671" lon="6.65324">
        <ele>2208.8000488281</ele>
        <time>2012-02-22T11:48:49.000Z</time>
      </trkpt>
      <trkpt lat="45.61676" lon="6.65318">
        <ele>2209.6000976562</ele>
        <time>2012-02-22T11:48:58.000Z</time>
      </trkpt>
      <trkpt lat="45.61678" lon="6.65315">
        <ele>2210.8000488281</ele>
        <time>2012-02-22T11:49:01.000Z</time>
      </trkpt>
      <trkpt lat="45.61683" lon="6.65307">
        <ele>2211.3999023438</ele>
        <time>2012-02-22T11:49:10.000Z</time>
      </trkpt>
      <trkpt lat="45.61684" lon="6.65299">
        <ele>2215.1999511719</ele>
        <time>2012-02-22T11:49:18.000Z</time>
      </trkpt>
      <trkpt lat="45.61685" lon="6.65298">
        <ele>2215.8000488281</ele>
        <time>2012-02-22T11:49:19.000Z</time>
      </trkpt>
      <trkpt lat="45.61687" lon="6.65289">
        <ele>2215.3999023438</ele>
        <time>2012-02-22T11:49:27.000Z</time>
      </trkpt>
      <trkpt lat="45.61687" lon="6.65288">
        <ele>2215.8000488281</ele>
        <time>2012-02-22T11:49:28.000Z</time>
      </trkpt>
      <trkpt lat="45.61691" lon="6.65282">
        <ele>2217.8000488281</ele>
        <time>2012-02-22T11:49:36.000Z</time>
      </trkpt>
      <trkpt lat="45.61693" lon="6.65282">
        <ele>2218.1999511719</ele>
        <time>2012-02-22T11:49:38.000Z</time>
      </trkpt>
      <trkpt lat="45.61697" lon="6.65269">
        <ele>2219.1999511719</ele>
        <time>2012-02-22T11:49:47.000Z</time>
      </trkpt>
      <trkpt lat="45.61702" lon="6.65262">
        <ele>2218.8000488281</ele>
        <time>2012-02-22T11:49:55.000Z</time>
      </trkpt>
      <trkpt lat="45.61706" lon="6.65255">
        <ele>2219.6000976562</ele>
        <time>2012-02-22T11:50:02.000Z</time>
      </trkpt>
      <trkpt lat="45.6171" lon="6.65249">
        <ele>2220.1999511719</ele>
        <time>2012-02-22T11:50:09.000Z</time>
      </trkpt>
      <trkpt lat="45.6171" lon="6.65246">
        <ele>2220.3999023438</ele>
        <time>2012-02-22T11:50:11.000Z</time>
      </trkpt>
      <trkpt lat="45.61718" lon="6.6524">
        <ele>2222</ele>
        <time>2012-02-22T11:50:21.000Z</time>
      </trkpt>
      <trkpt lat="45.6172" lon="6.65238">
        <ele>2223.6000976562</ele>
        <time>2012-02-22T11:50:25.000Z</time>
      </trkpt>
      <trkpt lat="45.61725" lon="6.65235">
        <ele>2224.3999023438</ele>
        <time>2012-02-22T11:50:32.000Z</time>
      </trkpt>
      <trkpt lat="45.6173" lon="6.65234">
        <ele>2225.1999511719</ele>
        <time>2012-02-22T11:50:35.000Z</time>
      </trkpt>
      <trkpt lat="45.61734" lon="6.65228">
        <ele>2226.6000976562</ele>
        <time>2012-02-22T11:50:43.000Z</time>
      </trkpt>
      <trkpt lat="45.61739" lon="6.65226">
        <ele>2227.8000488281</ele>
        <time>2012-02-22T11:50:50.000Z</time>
      </trkpt>
      <trkpt lat="45.61744" lon="6.65221">
        <ele>2229.1999511719</ele>
        <time>2012-02-22T11:50:58.000Z</time>
      </trkpt>
      <trkpt lat="45.61751" lon="6.65215">
        <ele>2231.1999511719</ele>
        <time>2012-02-22T11:51:07.000Z</time>
      </trkpt>
      <trkpt lat="45.61755" lon="6.65213">
        <ele>2233</ele>
        <time>2012-02-22T11:51:14.000Z</time>
      </trkpt>
      <trkpt lat="45.61758" lon="6.65214">
        <ele>2233</ele>
        <time>2012-02-22T11:51:20.000Z</time>
      </trkpt>
      <trkpt lat="45.61765" lon="6.6522">
        <ele>2236.6000976562</ele>
        <time>2012-02-22T11:51:30.000Z</time>
      </trkpt>
      <trkpt lat="45.61769" lon="6.65223">
        <ele>2238</ele>
        <time>2012-02-22T11:51:37.000Z</time>
      </trkpt>
      <trkpt lat="45.61773" lon="6.65228">
        <ele>2240.1999511719</ele>
        <time>2012-02-22T11:51:45.000Z</time>
      </trkpt>
      <trkpt lat="45.61778" lon="6.65233">
        <ele>2241.8000488281</ele>
        <time>2012-02-22T11:51:53.000Z</time>
      </trkpt>
      <trkpt lat="45.61784" lon="6.65235">
        <ele>2241.1999511719</ele>
        <time>2012-02-22T11:52:01.000Z</time>
      </trkpt>
      <trkpt lat="45.61786" lon="6.65235">
        <ele>2243.1999511719</ele>
        <time>2012-02-22T11:52:04.000Z</time>
      </trkpt>
      <trkpt lat="45.61792" lon="6.65236">
        <ele>2244.1999511719</ele>
        <time>2012-02-22T11:52:14.000Z</time>
      </trkpt>
      <trkpt lat="45.61794" lon="6.65238">
        <ele>2244.3999023438</ele>
        <time>2012-02-22T11:52:19.000Z</time>
      </trkpt>
      <trkpt lat="45.61796" lon="6.65239">
        <ele>2246.8000488281</ele>
        <time>2012-02-22T11:52:24.000Z</time>
      </trkpt>
      <trkpt lat="45.61799" lon="6.65234">
        <ele>2247.1999511719</ele>
        <time>2012-02-22T11:52:32.000Z</time>
      </trkpt>
      <trkpt lat="45.618" lon="6.65228">
        <ele>2248.1999511719</ele>
        <time>2012-02-22T11:52:38.000Z</time>
      </trkpt>
      <trkpt lat="45.618" lon="6.65226">
        <ele>2248.3999023438</ele>
        <time>2012-02-22T11:52:40.000Z</time>
      </trkpt>
      <trkpt lat="45.61801" lon="6.65216">
        <ele>2249.8000488281</ele>
        <time>2012-02-22T11:52:49.000Z</time>
      </trkpt>
      <trkpt lat="45.61801" lon="6.65212">
        <ele>2251</ele>
        <time>2012-02-22T11:52:52.000Z</time>
      </trkpt>
      <trkpt lat="45.61802" lon="6.65208">
        <ele>2252.1999511719</ele>
        <time>2012-02-22T11:52:58.000Z</time>
      </trkpt>
      <trkpt lat="45.61806" lon="6.6521">
        <ele>2252</ele>
        <time>2012-02-22T11:53:04.000Z</time>
      </trkpt>
      <trkpt lat="45.6181" lon="6.65213">
        <ele>2253.6000976562</ele>
        <time>2012-02-22T11:53:10.000Z</time>
      </trkpt>
      <trkpt lat="45.61814" lon="6.65217">
        <ele>2254.6000976562</ele>
        <time>2012-02-22T11:53:17.000Z</time>
      </trkpt>
      <trkpt lat="45.61817" lon="6.65219">
        <ele>2256</ele>
        <time>2012-02-22T11:53:21.000Z</time>
      </trkpt>
      <trkpt lat="45.61822" lon="6.65224">
        <ele>2255.8000488281</ele>
        <time>2012-02-22T11:53:28.000Z</time>
      </trkpt>
      <trkpt lat="45.61826" lon="6.65229">
        <ele>2258.6000976562</ele>
        <time>2012-02-22T11:53:35.000Z</time>
      </trkpt>
      <trkpt lat="45.61828" lon="6.65229">
        <ele>2258.8000488281</ele>
        <time>2012-02-22T11:53:41.000Z</time>
      </trkpt>
      <trkpt lat="45.61829" lon="6.65228">
        <ele>2258.6000976562</ele>
        <time>2012-02-22T11:53:42.000Z</time>
      </trkpt>
      <trkpt lat="45.61831" lon="6.65219">
        <ele>2260.6000976562</ele>
        <time>2012-02-22T11:53:52.000Z</time>
      </trkpt>
      <trkpt lat="45.61833" lon="6.6521">
        <ele>2262.8000488281</ele>
        <time>2012-02-22T11:54:01.000Z</time>
      </trkpt>
      <trkpt lat="45.61835" lon="6.65201">
        <ele>2262.8000488281</ele>
        <time>2012-02-22T11:54:10.000Z</time>
      </trkpt>
      <trkpt lat="45.61835" lon="6.65199">
        <ele>2264.1999511719</ele>
        <time>2012-02-22T11:54:12.000Z</time>
      </trkpt>
      <trkpt lat="45.61835" lon="6.65196">
        <ele>2266</ele>
        <time>2012-02-22T11:54:14.000Z</time>
      </trkpt>
      <trkpt lat="45.61835" lon="6.65189">
        <ele>2266.8000488281</ele>
        <time>2012-02-22T11:54:20.000Z</time>
      </trkpt>
      <trkpt lat="45.61836" lon="6.6519">
        <ele>2266.1999511719</ele>
        <time>2012-02-22T11:54:26.000Z</time>
      </trkpt>
      <trkpt lat="45.61836" lon="6.65191">
        <ele>2265.8000488281</ele>
        <time>2012-02-22T11:54:28.000Z</time>
      </trkpt>
      <trkpt lat="45.61841" lon="6.65198">
        <ele>2267.3999023438</ele>
        <time>2012-02-22T11:54:36.000Z</time>
      </trkpt>
      <trkpt lat="45.61844" lon="6.65203">
        <ele>2269</ele>
        <time>2012-02-22T11:54:41.000Z</time>
      </trkpt>
      <trkpt lat="45.61848" lon="6.65212">
        <ele>2271.3999023438</ele>
        <time>2012-02-22T11:54:50.000Z</time>
      </trkpt>
      <trkpt lat="45.6185" lon="6.65218">
        <ele>2271.8000488281</ele>
        <time>2012-02-22T11:54:57.000Z</time>
      </trkpt>
      <trkpt lat="45.61852" lon="6.65227">
        <ele>2272.3999023438</ele>
        <time>2012-02-22T11:55:06.000Z</time>
      </trkpt>
      <trkpt lat="45.61854" lon="6.65232">
        <ele>2275.3999023438</ele>
        <time>2012-02-22T11:55:11.000Z</time>
      </trkpt>
      <trkpt lat="45.61856" lon="6.6524">
        <ele>2276.6000976562</ele>
        <time>2012-02-22T11:55:19.000Z</time>
      </trkpt>
      <trkpt lat="45.61857" lon="6.65247">
        <ele>2277.6000976562</ele>
        <time>2012-02-22T11:55:26.000Z</time>
      </trkpt>
      <trkpt lat="45.61858" lon="6.65256">
        <ele>2279.1999511719</ele>
        <time>2012-02-22T11:55:34.000Z</time>
      </trkpt>
      <trkpt lat="45.61861" lon="6.65263">
        <ele>2279.1999511719</ele>
        <time>2012-02-22T11:55:42.000Z</time>
      </trkpt>
      <trkpt lat="45.61864" lon="6.65269">
        <ele>2282.1999511719</ele>
        <time>2012-02-22T11:55:51.000Z</time>
      </trkpt>
      <trkpt lat="45.61866" lon="6.65272">
        <ele>2282.6000976562</ele>
        <time>2012-02-22T11:55:56.000Z</time>
      </trkpt>
      <trkpt lat="45.6187" lon="6.65276">
        <ele>2283.8000488281</ele>
        <time>2012-02-22T11:56:03.000Z</time>
      </trkpt>
      <trkpt lat="45.61874" lon="6.6528">
        <ele>2287.6000976562</ele>
        <time>2012-02-22T11:56:11.000Z</time>
      </trkpt>
      <trkpt lat="45.61878" lon="6.65284">
        <ele>2287</ele>
        <time>2012-02-22T11:56:19.000Z</time>
      </trkpt>
      <trkpt lat="45.61881" lon="6.65286">
        <ele>2288.8000488281</ele>
        <time>2012-02-22T11:56:26.000Z</time>
      </trkpt>
      <trkpt lat="45.61882" lon="6.65286">
        <ele>2289.8000488281</ele>
        <time>2012-02-22T11:56:28.000Z</time>
      </trkpt>
      <trkpt lat="45.61887" lon="6.65288">
        <ele>2290.6000976562</ele>
        <time>2012-02-22T11:56:36.000Z</time>
      </trkpt>
      <trkpt lat="45.61891" lon="6.6529">
        <ele>2292.6000976562</ele>
        <time>2012-02-22T11:56:45.000Z</time>
      </trkpt>
      <trkpt lat="45.61894" lon="6.65294">
        <ele>2291.8000488281</ele>
        <time>2012-02-22T11:56:52.000Z</time>
      </trkpt>
      <trkpt lat="45.61896" lon="6.65296">
        <ele>2293.8000488281</ele>
        <time>2012-02-22T11:56:56.000Z</time>
      </trkpt>
      <trkpt lat="45.61901" lon="6.65301">
        <ele>2295.3999023438</ele>
        <time>2012-02-22T11:57:04.000Z</time>
      </trkpt>
      <trkpt lat="45.61902" lon="6.65303">
        <ele>2296.1999511719</ele>
        <time>2012-02-22T11:57:06.000Z</time>
      </trkpt>
      <trkpt lat="45.61906" lon="6.6531">
        <ele>2298.3999023438</ele>
        <time>2012-02-22T11:57:15.000Z</time>
      </trkpt>
      <trkpt lat="45.61911" lon="6.65313">
        <ele>2297.8000488281</ele>
        <time>2012-02-22T11:57:22.000Z</time>
      </trkpt>
      <trkpt lat="45.61912" lon="6.6531">
        <ele>2299.1999511719</ele>
        <time>2012-02-22T11:57:26.000Z</time>
      </trkpt>
      <trkpt lat="45.61915" lon="6.65303">
        <ele>2301.8000488281</ele>
        <time>2012-02-22T11:57:35.000Z</time>
      </trkpt>
      <trkpt lat="45.61915" lon="6.65301">
        <ele>2302.1999511719</ele>
        <time>2012-02-22T11:57:36.000Z</time>
      </trkpt>
      <trkpt lat="45.61916" lon="6.65294">
        <ele>2302</ele>
        <time>2012-02-22T11:57:44.000Z</time>
      </trkpt>
      <trkpt lat="45.61917" lon="6.65293">
        <ele>2303.1999511719</ele>
        <time>2012-02-22T11:57:46.000Z</time>
      </trkpt>
      <trkpt lat="45.61917" lon="6.65291">
        <ele>2304.3999023438</ele>
        <time>2012-02-22T11:57:48.000Z</time>
      </trkpt>
      <trkpt lat="45.61918" lon="6.65282">
        <ele>2304.3999023438</ele>
        <time>2012-02-22T11:57:58.000Z</time>
      </trkpt>
      <trkpt lat="45.61918" lon="6.65282">
        <ele>2305.3999023438</ele>
        <time>2012-02-22T11:58:03.000Z</time>
      </trkpt>
      <trkpt lat="45.61921" lon="6.65286">
        <ele>2305.3999023438</ele>
        <time>2012-02-22T11:58:10.000Z</time>
      </trkpt>
      <trkpt lat="45.61923" lon="6.65289">
        <ele>2307.8000488281</ele>
        <time>2012-02-22T11:58:14.000Z</time>
      </trkpt>
      <trkpt lat="45.61926" lon="6.65291">
        <ele>2307</ele>
        <time>2012-02-22T11:58:19.000Z</time>
      </trkpt>
      <trkpt lat="45.61931" lon="6.65296">
        <ele>2309.8000488281</ele>
        <time>2012-02-22T11:58:28.000Z</time>
      </trkpt>
      <trkpt lat="45.61932" lon="6.65298">
        <ele>2310.3999023438</ele>
        <time>2012-02-22T11:58:31.000Z</time>
      </trkpt>
      <trkpt lat="45.61937" lon="6.65303">
        <ele>2312.6000976562</ele>
        <time>2012-02-22T11:58:39.000Z</time>
      </trkpt>
      <trkpt lat="45.61938" lon="6.65301">
        <ele>2312</ele>
        <time>2012-02-22T11:58:43.000Z</time>
      </trkpt>
      <trkpt lat="45.61937" lon="6.65296">
        <ele>2311.8000488281</ele>
        <time>2012-02-22T11:58:49.000Z</time>
      </trkpt>
      <trkpt lat="45.61937" lon="6.6529">
        <ele>2315.1999511719</ele>
        <time>2012-02-22T11:58:55.000Z</time>
      </trkpt>
      <trkpt lat="45.61936" lon="6.6528">
        <ele>2314.6000976562</ele>
        <time>2012-02-22T11:59:04.000Z</time>
      </trkpt>
      <trkpt lat="45.61936" lon="6.65278">
        <ele>2315</ele>
        <time>2012-02-22T11:59:05.000Z</time>
      </trkpt>
      <trkpt lat="45.61937" lon="6.65274">
        <ele>2318</ele>
        <time>2012-02-22T11:59:09.000Z</time>
      </trkpt>
      <trkpt lat="45.61939" lon="6.65267">
        <ele>2318.3999023438</ele>
        <time>2012-02-22T11:59:17.000Z</time>
      </trkpt>
      <trkpt lat="45.61941" lon="6.6526">
        <ele>2318.8000488281</ele>
        <time>2012-02-22T11:59:21.000Z</time>
      </trkpt>
      <trkpt lat="45.61942" lon="6.65254">
        <ele>2320</ele>
        <time>2012-02-22T11:59:26.000Z</time>
      </trkpt>
      <trkpt lat="45.61945" lon="6.6525">
        <ele>2320.6000976562</ele>
        <time>2012-02-22T11:59:32.000Z</time>
      </trkpt>
      <trkpt lat="45.6195" lon="6.65248">
        <ele>2322</ele>
        <time>2012-02-22T11:59:39.000Z</time>
      </trkpt>
      <trkpt lat="45.6195" lon="6.65249">
        <ele>2322.1999511719</ele>
        <time>2012-02-22T11:59:40.000Z</time>
      </trkpt>
      <trkpt lat="45.61952" lon="6.65251">
        <ele>2323.3999023438</ele>
        <time>2012-02-22T11:59:43.000Z</time>
      </trkpt>
      <trkpt lat="45.61956" lon="6.6526">
        <ele>2325.1999511719</ele>
        <time>2012-02-22T11:59:52.000Z</time>
      </trkpt>
      <trkpt lat="45.6196" lon="6.6526">
        <ele>2326.3999023438</ele>
        <time>2012-02-22T11:59:59.000Z</time>
      </trkpt>
      <trkpt lat="45.61963" lon="6.6526">
        <ele>2326.6000976562</ele>
        <time>2012-02-22T12:00:02.000Z</time>
      </trkpt>
      <trkpt lat="45.61967" lon="6.65253">
        <ele>2327.3999023438</ele>
        <time>2012-02-22T12:00:08.000Z</time>
      </trkpt>
      <trkpt lat="45.61971" lon="6.65244">
        <ele>2328.6000976562</ele>
        <time>2012-02-22T12:00:17.000Z</time>
      </trkpt>
      <trkpt lat="45.61974" lon="6.65237">
        <ele>2330.1999511719</ele>
        <time>2012-02-22T12:00:25.000Z</time>
      </trkpt>
      <trkpt lat="45.61977" lon="6.6523">
        <ele>2331.6000976562</ele>
        <time>2012-02-22T12:00:31.000Z</time>
      </trkpt>
      <trkpt lat="45.6198" lon="6.6522">
        <ele>2331.6000976562</ele>
        <time>2012-02-22T12:00:40.000Z</time>
      </trkpt>
      <trkpt lat="45.6198" lon="6.65218">
        <ele>2332.1999511719</ele>
        <time>2012-02-22T12:00:50.000Z</time>
      </trkpt>
      <trkpt lat="45.61986" lon="6.65209">
        <ele>2332</ele>
        <time>2012-02-22T12:03:24.000Z</time>
      </trkpt>
      <trkpt lat="45.61991" lon="6.65202">
        <ele>2332.6000976562</ele>
        <time>2012-02-22T12:03:33.000Z</time>
      </trkpt>
      <trkpt lat="45.61995" lon="6.65196">
        <ele>2334.1999511719</ele>
        <time>2012-02-22T12:03:39.000Z</time>
      </trkpt>
      <trkpt lat="45.61999" lon="6.65185">
        <ele>2337.3999023438</ele>
        <time>2012-02-22T12:03:49.000Z</time>
      </trkpt>
      <trkpt lat="45.62002" lon="6.65177">
        <ele>2338</ele>
        <time>2012-02-22T12:03:58.000Z</time>
      </trkpt>
      <trkpt lat="45.62005" lon="6.65165">
        <ele>2338.1999511719</ele>
        <time>2012-02-22T12:04:08.000Z</time>
      </trkpt>
      <trkpt lat="45.62006" lon="6.65162">
        <ele>2338.3999023438</ele>
        <time>2012-02-22T12:04:10.000Z</time>
      </trkpt>
      <trkpt lat="45.62005" lon="6.65159">
        <ele>2338.8000488281</ele>
        <time>2012-02-22T12:04:12.000Z</time>
      </trkpt>
      <trkpt lat="45.62005" lon="6.65153">
        <ele>2339.1999511719</ele>
        <time>2012-02-22T12:04:16.000Z</time>
      </trkpt>
      <trkpt lat="45.62007" lon="6.65149">
        <ele>2340.1999511719</ele>
        <time>2012-02-22T12:04:20.000Z</time>
      </trkpt>
      <trkpt lat="45.62008" lon="6.65142">
        <ele>2340.3999023438</ele>
        <time>2012-02-22T12:04:27.000Z</time>
      </trkpt>
      <trkpt lat="45.62012" lon="6.65129">
        <ele>2341.3999023438</ele>
        <time>2012-02-22T12:04:38.000Z</time>
      </trkpt>
      <trkpt lat="45.62014" lon="6.6512">
        <ele>2342.3999023438</ele>
        <time>2012-02-22T12:04:46.000Z</time>
      </trkpt>
      <trkpt lat="45.62016" lon="6.65113">
        <ele>2343</ele>
        <time>2012-02-22T12:04:52.000Z</time>
      </trkpt>
      <trkpt lat="45.6202" lon="6.65103">
        <ele>2343.6000976562</ele>
        <time>2012-02-22T12:05:01.000Z</time>
      </trkpt>
      <trkpt lat="45.62026" lon="6.65096">
        <ele>2344</ele>
        <time>2012-02-22T12:05:09.000Z</time>
      </trkpt>
      <trkpt lat="45.6203" lon="6.65089">
        <ele>2345.1999511719</ele>
        <time>2012-02-22T12:05:17.000Z</time>
      </trkpt>
      <trkpt lat="45.62035" lon="6.65082">
        <ele>2346.3999023438</ele>
        <time>2012-02-22T12:05:25.000Z</time>
      </trkpt>
      <trkpt lat="45.6204" lon="6.65078">
        <ele>2346.8000488281</ele>
        <time>2012-02-22T12:05:33.000Z</time>
      </trkpt>
      <trkpt lat="45.62041" lon="6.65077">
        <ele>2348.1999511719</ele>
        <time>2012-02-22T12:05:35.000Z</time>
      </trkpt>
      <trkpt lat="45.62043" lon="6.65074">
        <ele>2350.3999023438</ele>
        <time>2012-02-22T12:05:40.000Z</time>
      </trkpt>
      <trkpt lat="45.62046" lon="6.6507">
        <ele>2349.6000976562</ele>
        <time>2012-02-22T12:05:47.000Z</time>
      </trkpt>
      <trkpt lat="45.62049" lon="6.65066">
        <ele>2351.8000488281</ele>
        <time>2012-02-22T12:05:54.000Z</time>
      </trkpt>
      <trkpt lat="45.62053" lon="6.65061">
        <ele>2351.8000488281</ele>
        <time>2012-02-22T12:06:03.000Z</time>
      </trkpt>
      <trkpt lat="45.62057" lon="6.65057">
        <ele>2353.3999023438</ele>
        <time>2012-02-22T12:06:11.000Z</time>
      </trkpt>
      <trkpt lat="45.62063" lon="6.65054">
        <ele>2354</ele>
        <time>2012-02-22T12:06:18.000Z</time>
      </trkpt>
      <trkpt lat="45.62065" lon="6.6505">
        <ele>2355.3999023438</ele>
        <time>2012-02-22T12:06:24.000Z</time>
      </trkpt>
      <trkpt lat="45.6207" lon="6.65046">
        <ele>2355.8000488281</ele>
        <time>2012-02-22T12:06:32.000Z</time>
      </trkpt>
      <trkpt lat="45.62073" lon="6.65042">
        <ele>2355.8000488281</ele>
        <time>2012-02-22T12:06:38.000Z</time>
      </trkpt>
      <trkpt lat="45.62078" lon="6.65035">
        <ele>2356.6000976562</ele>
        <time>2012-02-22T12:06:46.000Z</time>
      </trkpt>
      <trkpt lat="45.6208" lon="6.6503">
        <ele>2357.1999511719</ele>
        <time>2012-02-22T12:06:53.000Z</time>
      </trkpt>
      <trkpt lat="45.62083" lon="6.65027">
        <ele>2356.6000976562</ele>
        <time>2012-02-22T12:07:01.000Z</time>
      </trkpt>
      <trkpt lat="45.62086" lon="6.65025">
        <ele>2358</ele>
        <time>2012-02-22T12:07:07.000Z</time>
      </trkpt>
      <trkpt lat="45.62087" lon="6.65025">
        <ele>2358.3999023438</ele>
        <time>2012-02-22T12:07:15.000Z</time>
      </trkpt>
      <trkpt lat="45.62091" lon="6.65021">
        <ele>2359.1999511719</ele>
        <time>2012-02-22T12:07:33.000Z</time>
      </trkpt>
      <trkpt lat="45.62094" lon="6.65018">
        <ele>2359.3999023438</ele>
        <time>2012-02-22T12:07:39.000Z</time>
      </trkpt>
      <trkpt lat="45.62098" lon="6.65015">
        <ele>2361.1999511719</ele>
        <time>2012-02-22T12:07:44.000Z</time>
      </trkpt>
      <trkpt lat="45.62103" lon="6.65012">
        <ele>2362.1999511719</ele>
        <time>2012-02-22T12:07:52.000Z</time>
      </trkpt>
      <trkpt lat="45.62108" lon="6.65009">
        <ele>2363.3999023438</ele>
        <time>2012-02-22T12:08:01.000Z</time>
      </trkpt>
      <trkpt lat="45.6211" lon="6.65009">
        <ele>2364.1999511719</ele>
        <time>2012-02-22T12:08:03.000Z</time>
      </trkpt>
      <trkpt lat="45.62115" lon="6.65007">
        <ele>2364.1999511719</ele>
        <time>2012-02-22T12:08:12.000Z</time>
      </trkpt>
      <trkpt lat="45.62118" lon="6.65006">
        <ele>2365.3999023438</ele>
        <time>2012-02-22T12:08:18.000Z</time>
      </trkpt>
      <trkpt lat="45.62121" lon="6.65006">
        <ele>2366.3999023438</ele>
        <time>2012-02-22T12:08:24.000Z</time>
      </trkpt>
      <trkpt lat="45.62124" lon="6.65004">
        <ele>2367.6000976562</ele>
        <time>2012-02-22T12:08:32.000Z</time>
      </trkpt>
      <trkpt lat="45.62125" lon="6.65002">
        <ele>2368.8000488281</ele>
        <time>2012-02-22T12:08:36.000Z</time>
      </trkpt>
      <trkpt lat="45.62129" lon="6.65001">
        <ele>2372</ele>
        <time>2012-02-22T12:08:43.000Z</time>
      </trkpt>
      <trkpt lat="45.6213" lon="6.65001">
        <ele>2372</ele>
        <time>2012-02-22T12:08:44.000Z</time>
      </trkpt>
      <trkpt lat="45.62133" lon="6.64999">
        <ele>2371.3999023438</ele>
        <time>2012-02-22T12:08:50.000Z</time>
      </trkpt>
      <trkpt lat="45.62136" lon="6.64998">
        <ele>2371</ele>
        <time>2012-02-22T12:08:55.000Z</time>
      </trkpt>
      <trkpt lat="45.62139" lon="6.64996">
        <ele>2371.6000976562</ele>
        <time>2012-02-22T12:09:01.000Z</time>
      </trkpt>
      <trkpt lat="45.62141" lon="6.64995">
        <ele>2373.1999511719</ele>
        <time>2012-02-22T12:09:08.000Z</time>
      </trkpt>
      <trkpt lat="45.62144" lon="6.64993">
        <ele>2374</ele>
        <time>2012-02-22T12:09:14.000Z</time>
      </trkpt>
      <trkpt lat="45.62148" lon="6.64991">
        <ele>2375</ele>
        <time>2012-02-22T12:09:20.000Z</time>
      </trkpt>
      <trkpt lat="45.62149" lon="6.64989">
        <ele>2374.6000976562</ele>
        <time>2012-02-22T12:09:25.000Z</time>
      </trkpt>
      <trkpt lat="45.62153" lon="6.64986">
        <ele>2376</ele>
        <time>2012-02-22T12:09:33.000Z</time>
      </trkpt>
      <trkpt lat="45.62156" lon="6.64983">
        <ele>2376.1999511719</ele>
        <time>2012-02-22T12:09:41.000Z</time>
      </trkpt>
      <trkpt lat="45.62158" lon="6.64982">
        <ele>2375.8000488281</ele>
        <time>2012-02-22T12:09:46.000Z</time>
      </trkpt>
      <trkpt lat="45.6216" lon="6.64981">
        <ele>2377.3999023438</ele>
        <time>2012-02-22T12:09:50.000Z</time>
      </trkpt>
      <trkpt lat="45.62162" lon="6.64979">
        <ele>2377.6000976562</ele>
        <time>2012-02-22T12:09:56.000Z</time>
      </trkpt>
      <trkpt lat="45.62164" lon="6.64979">
        <ele>2377.6000976562</ele>
        <time>2012-02-22T12:10:01.000Z</time>
      </trkpt>
      <trkpt lat="45.62167" lon="6.64978">
        <ele>2378</ele>
        <time>2012-02-22T12:10:06.000Z</time>
      </trkpt>
      <trkpt lat="45.62169" lon="6.64978">
        <ele>2379.6000976562</ele>
        <time>2012-02-22T12:10:11.000Z</time>
      </trkpt>
      <trkpt lat="45.6217" lon="6.64979">
        <ele>2379.8000488281</ele>
        <time>2012-02-22T12:10:12.000Z</time>
      </trkpt>
      <trkpt lat="45.62172" lon="6.64978">
        <ele>2379.8000488281</ele>
        <time>2012-02-22T12:10:17.000Z</time>
      </trkpt>
      <trkpt lat="45.62172" lon="6.64978">
        <ele>2380.8000488281</ele>
        <time>2012-02-22T12:10:18.000Z</time>
      </trkpt>
      <trkpt lat="45.62178" lon="6.64977">
        <ele>2381</ele>
        <time>2012-02-22T12:10:26.000Z</time>
      </trkpt>
      <trkpt lat="45.6218" lon="6.64976">
        <ele>2382</ele>
        <time>2012-02-22T12:10:30.000Z</time>
      </trkpt>
      <trkpt lat="45.62183" lon="6.64975">
        <ele>2383</ele>
        <time>2012-02-22T12:10:35.000Z</time>
      </trkpt>
      <trkpt lat="45.62187" lon="6.64972">
        <ele>2382</ele>
        <time>2012-02-22T12:10:42.000Z</time>
      </trkpt>
      <trkpt lat="45.62189" lon="6.6497">
        <ele>2382.1999511719</ele>
        <time>2012-02-22T12:10:48.000Z</time>
      </trkpt>
      <trkpt lat="45.6219" lon="6.64967">
        <ele>2383</ele>
        <time>2012-02-22T12:10:52.000Z</time>
      </trkpt>
      <trkpt lat="45.62191" lon="6.64966">
        <ele>2384</ele>
        <time>2012-02-22T12:10:57.000Z</time>
      </trkpt>
      <trkpt lat="45.62195" lon="6.64964">
        <ele>2385.1999511719</ele>
        <time>2012-02-22T12:11:03.000Z</time>
      </trkpt>
      <trkpt lat="45.62198" lon="6.64963">
        <ele>2386</ele>
        <time>2012-02-22T12:11:11.000Z</time>
      </trkpt>
      <trkpt lat="45.62203" lon="6.64962">
        <ele>2388.1999511719</ele>
        <time>2012-02-22T12:11:20.000Z</time>
      </trkpt>
      <trkpt lat="45.62207" lon="6.64961">
        <ele>2388.1999511719</ele>
        <time>2012-02-22T12:11:27.000Z</time>
      </trkpt>
      <trkpt lat="45.6221" lon="6.6496">
        <ele>2388.8000488281</ele>
        <time>2012-02-22T12:11:33.000Z</time>
      </trkpt>
      <trkpt lat="45.62212" lon="6.64959">
        <ele>2390.6000976562</ele>
        <time>2012-02-22T12:11:38.000Z</time>
      </trkpt>
      <trkpt lat="45.62215" lon="6.64957">
        <ele>2391.3999023438</ele>
        <time>2012-02-22T12:11:48.000Z</time>
      </trkpt>
      <trkpt lat="45.62219" lon="6.64954">
        <ele>2392</ele>
        <time>2012-02-22T12:11:57.000Z</time>
      </trkpt>
      <trkpt lat="45.62221" lon="6.64953">
        <ele>2392.8000488281</ele>
        <time>2012-02-22T12:12:02.000Z</time>
      </trkpt>
      <trkpt lat="45.62224" lon="6.64951">
        <ele>2393.6000976562</ele>
        <time>2012-02-22T12:12:07.000Z</time>
      </trkpt>
      <trkpt lat="45.62228" lon="6.6495">
        <ele>2394.6000976562</ele>
        <time>2012-02-22T12:12:14.000Z</time>
      </trkpt>
      <trkpt lat="45.62234" lon="6.64949">
        <ele>2394.8000488281</ele>
        <time>2012-02-22T12:12:22.000Z</time>
      </trkpt>
      <trkpt lat="45.62237" lon="6.64944">
        <ele>2396.1999511719</ele>
        <time>2012-02-22T12:12:28.000Z</time>
      </trkpt>
      <trkpt lat="45.62242" lon="6.64939">
        <ele>2395.8000488281</ele>
        <time>2012-02-22T12:12:36.000Z</time>
      </trkpt>
      <trkpt lat="45.62245" lon="6.6493">
        <ele>2397.6000976562</ele>
        <time>2012-02-22T12:12:46.000Z</time>
      </trkpt>
      <trkpt lat="45.62247" lon="6.64926">
        <ele>2397.8000488281</ele>
        <time>2012-02-22T12:12:52.000Z</time>
      </trkpt>
      <trkpt lat="45.62248" lon="6.64923">
        <ele>2397.6000976562</ele>
        <time>2012-02-22T12:12:55.000Z</time>
      </trkpt>
      <trkpt lat="45.62253" lon="6.64911">
        <ele>2397.3999023438</ele>
        <time>2012-02-22T12:13:06.000Z</time>
      </trkpt>
      <trkpt lat="45.62256" lon="6.64903">
        <ele>2399</ele>
        <time>2012-02-22T12:13:15.000Z</time>
      </trkpt>
      <trkpt lat="45.6226" lon="6.64896">
        <ele>2400.6000976562</ele>
        <time>2012-02-22T12:13:23.000Z</time>
      </trkpt>
      <trkpt lat="45.62263" lon="6.6489">
        <ele>2403</ele>
        <time>2012-02-22T12:13:32.000Z</time>
      </trkpt>
      <trkpt lat="45.62263" lon="6.64888">
        <ele>2403.8000488281</ele>
        <time>2012-02-22T12:13:34.000Z</time>
      </trkpt>
      <trkpt lat="45.62266" lon="6.64877">
        <ele>2406</ele>
        <time>2012-02-22T12:13:45.000Z</time>
      </trkpt>
      <trkpt lat="45.6227" lon="6.64869">
        <ele>2406.1999511719</ele>
        <time>2012-02-22T12:13:54.000Z</time>
      </trkpt>
      <trkpt lat="45.62273" lon="6.64863">
        <ele>2406</ele>
        <time>2012-02-22T12:14:02.000Z</time>
      </trkpt>
      <trkpt lat="45.62275" lon="6.6486">
        <ele>2406.1999511719</ele>
        <time>2012-02-22T12:14:11.000Z</time>
      </trkpt>
      <trkpt lat="45.6228" lon="6.64856">
        <ele>2408.6000976562</ele>
        <time>2012-02-22T12:14:21.000Z</time>
      </trkpt>
      <trkpt lat="45.62284" lon="6.64854">
        <ele>2408.1999511719</ele>
        <time>2012-02-22T12:14:26.000Z</time>
      </trkpt>
      <trkpt lat="45.62288" lon="6.64852">
        <ele>2410.3999023438</ele>
        <time>2012-02-22T12:14:31.000Z</time>
      </trkpt>
      <trkpt lat="45.62292" lon="6.64849">
        <ele>2410</ele>
        <time>2012-02-22T12:14:38.000Z</time>
      </trkpt>
      <trkpt lat="45.62293" lon="6.64847">
        <ele>2411.6000976562</ele>
        <time>2012-02-22T12:14:40.000Z</time>
      </trkpt>
      <trkpt lat="45.62299" lon="6.64842">
        <ele>2412</ele>
        <time>2012-02-22T12:14:48.000Z</time>
      </trkpt>
      <trkpt lat="45.62302" lon="6.64838">
        <ele>2414</ele>
        <time>2012-02-22T12:14:55.000Z</time>
      </trkpt>
      <trkpt lat="45.62306" lon="6.64829">
        <ele>2414</ele>
        <time>2012-02-22T12:15:06.000Z</time>
      </trkpt>
      <trkpt lat="45.62307" lon="6.64822">
        <ele>2416.1999511719</ele>
        <time>2012-02-22T12:15:14.000Z</time>
      </trkpt>
      <trkpt lat="45.62308" lon="6.64821">
        <ele>2417</ele>
        <time>2012-02-22T12:15:16.000Z</time>
      </trkpt>
      <trkpt lat="45.62309" lon="6.64817">
        <ele>2417.6000976562</ele>
        <time>2012-02-22T12:15:22.000Z</time>
      </trkpt>
      <trkpt lat="45.6231" lon="6.64813">
        <ele>2419.6000976562</ele>
        <time>2012-02-22T12:15:28.000Z</time>
      </trkpt>
      <trkpt lat="45.62312" lon="6.6481">
        <ele>2420.8000488281</ele>
        <time>2012-02-22T12:15:35.000Z</time>
      </trkpt>
      <trkpt lat="45.62313" lon="6.6481">
        <ele>2421.6000976562</ele>
        <time>2012-02-22T12:15:37.000Z</time>
      </trkpt>
      <trkpt lat="45.62318" lon="6.64815">
        <ele>2421.1999511719</ele>
        <time>2012-02-22T12:15:47.000Z</time>
      </trkpt>
      <trkpt lat="45.62319" lon="6.64818">
        <ele>2421.8000488281</ele>
        <time>2012-02-22T12:15:51.000Z</time>
      </trkpt>
      <trkpt lat="45.62322" lon="6.64821">
        <ele>2423.6000976562</ele>
        <time>2012-02-22T12:15:56.000Z</time>
      </trkpt>
      <trkpt lat="45.62326" lon="6.64825">
        <ele>2426</ele>
        <time>2012-02-22T12:16:04.000Z</time>
      </trkpt>
      <trkpt lat="45.6233" lon="6.6483">
        <ele>2426.6000976562</ele>
        <time>2012-02-22T12:16:12.000Z</time>
      </trkpt>
      <trkpt lat="45.62332" lon="6.64836">
        <ele>2427.1999511719</ele>
        <time>2012-02-22T12:16:20.000Z</time>
      </trkpt>
      <trkpt lat="45.62335" lon="6.64841">
        <ele>2428.6000976562</ele>
        <time>2012-02-22T12:16:28.000Z</time>
      </trkpt>
      <trkpt lat="45.62338" lon="6.64846">
        <ele>2431.1999511719</ele>
        <time>2012-02-22T12:16:36.000Z</time>
      </trkpt>
      <trkpt lat="45.62341" lon="6.64852">
        <ele>2430.8000488281</ele>
        <time>2012-02-22T12:16:44.000Z</time>
      </trkpt>
      <trkpt lat="45.62344" lon="6.64856">
        <ele>2433.6000976562</ele>
        <time>2012-02-22T12:16:50.000Z</time>
      </trkpt>
      <trkpt lat="45.62346" lon="6.64859">
        <ele>2433.6000976562</ele>
        <time>2012-02-22T12:16:57.000Z</time>
      </trkpt>
      <trkpt lat="45.62348" lon="6.64862">
        <ele>2435.8000488281</ele>
        <time>2012-02-22T12:17:02.000Z</time>
      </trkpt>
      <trkpt lat="45.6235" lon="6.64864">
        <ele>2435.3999023438</ele>
        <time>2012-02-22T12:17:08.000Z</time>
      </trkpt>
      <trkpt lat="45.62353" lon="6.64865">
        <ele>2437.1999511719</ele>
        <time>2012-02-22T12:17:13.000Z</time>
      </trkpt>
      <trkpt lat="45.62356" lon="6.64867">
        <ele>2437.8000488281</ele>
        <time>2012-02-22T12:17:19.000Z</time>
      </trkpt>
      <trkpt lat="45.6236" lon="6.6487">
        <ele>2438.6000976562</ele>
        <time>2012-02-22T12:17:25.000Z</time>
      </trkpt>
      <trkpt lat="45.62363" lon="6.6487">
        <ele>2441</ele>
        <time>2012-02-22T12:17:31.000Z</time>
      </trkpt>
      <trkpt lat="45.62363" lon="6.6487">
        <ele>2441.1999511719</ele>
        <time>2012-02-22T12:17:32.000Z</time>
      </trkpt>
      <trkpt lat="45.62364" lon="6.64869">
        <ele>2441.1999511719</ele>
        <time>2012-02-22T12:17:34.000Z</time>
      </trkpt>
      <trkpt lat="45.62369" lon="6.64867">
        <ele>2442</ele>
        <time>2012-02-22T12:17:41.000Z</time>
      </trkpt>
      <trkpt lat="45.62371" lon="6.64864">
        <ele>2443.1999511719</ele>
        <time>2012-02-22T12:17:47.000Z</time>
      </trkpt>
      <trkpt lat="45.62377" lon="6.64858">
        <ele>2445.6000976562</ele>
        <time>2012-02-22T12:17:57.000Z</time>
      </trkpt>
      <trkpt lat="45.62377" lon="6.64857">
        <ele>2446</ele>
        <time>2012-02-22T12:17:58.000Z</time>
      </trkpt>
      <trkpt lat="45.62381" lon="6.64854">
        <ele>2446.3999023438</ele>
        <time>2012-02-22T12:18:04.000Z</time>
      </trkpt>
      <trkpt lat="45.62386" lon="6.6485">
        <ele>2446.3999023438</ele>
        <time>2012-02-22T12:18:12.000Z</time>
      </trkpt>
      <trkpt lat="45.6239" lon="6.64847">
        <ele>2446.1999511719</ele>
        <time>2012-02-22T12:18:19.000Z</time>
      </trkpt>
      <trkpt lat="45.62395" lon="6.64844">
        <ele>2448.6000976562</ele>
        <time>2012-02-22T12:18:27.000Z</time>
      </trkpt>
      <trkpt lat="45.62396" lon="6.64843">
        <ele>2449.8000488281</ele>
        <time>2012-02-22T12:18:30.000Z</time>
      </trkpt>
      <trkpt lat="45.624" lon="6.64843">
        <ele>2450.6000976562</ele>
        <time>2012-02-22T12:18:35.000Z</time>
      </trkpt>
      <trkpt lat="45.62404" lon="6.6484">
        <ele>2450.8000488281</ele>
        <time>2012-02-22T12:18:43.000Z</time>
      </trkpt>
      <trkpt lat="45.62407" lon="6.64839">
        <ele>2452.1999511719</ele>
        <time>2012-02-22T12:18:49.000Z</time>
      </trkpt>
      <trkpt lat="45.62409" lon="6.64839">
        <ele>2451</ele>
        <time>2012-02-22T12:18:52.000Z</time>
      </trkpt>
      <trkpt lat="45.62413" lon="6.64838">
        <ele>2452.1999511719</ele>
        <time>2012-02-22T12:18:57.000Z</time>
      </trkpt>
      <trkpt lat="45.62419" lon="6.64838">
        <ele>2454.3999023438</ele>
        <time>2012-02-22T12:19:07.000Z</time>
      </trkpt>
      <trkpt lat="45.62425" lon="6.64838">
        <ele>2455.8000488281</ele>
        <time>2012-02-22T12:19:14.000Z</time>
      </trkpt>
      <trkpt lat="45.6243" lon="6.64841">
        <ele>2458</ele>
        <time>2012-02-22T12:19:22.000Z</time>
      </trkpt>
      <trkpt lat="45.62433" lon="6.64842">
        <ele>2457.1999511719</ele>
        <time>2012-02-22T12:19:28.000Z</time>
      </trkpt>
      <trkpt lat="45.62436" lon="6.64849">
        <ele>2457.8000488281</ele>
        <time>2012-02-22T12:19:35.000Z</time>
      </trkpt>
      <trkpt lat="45.62431" lon="6.6486">
        <ele>2457.1999511719</ele>
        <time>2012-02-22T12:20:02.000Z</time>
      </trkpt>
      <trkpt lat="45.62432" lon="6.64861">
        <ele>2457.1999511719</ele>
        <time>2012-02-22T12:20:03.000Z</time>
      </trkpt>
      <trkpt lat="45.62434" lon="6.64874">
        <ele>2455.6000976562</ele>
        <time>2012-02-22T12:20:07.000Z</time>
      </trkpt>
      <trkpt lat="45.62436" lon="6.64882">
        <ele>2455</ele>
        <time>2012-02-22T12:20:08.000Z</time>
      </trkpt>
      <trkpt lat="45.6245" lon="6.649">
        <ele>2449.8000488281</ele>
        <time>2012-02-22T12:20:12.000Z</time>
      </trkpt>
      <trkpt lat="45.62453" lon="6.649">
        <ele>2448.3999023438</ele>
        <time>2012-02-22T12:20:15.000Z</time>
      </trkpt>
      <trkpt lat="45.62462" lon="6.649">
        <ele>2450</ele>
        <time>2012-02-22T12:20:24.000Z</time>
      </trkpt>
      <trkpt lat="45.62466" lon="6.64897">
        <ele>2450.3999023438</ele>
        <time>2012-02-22T12:20:30.000Z</time>
      </trkpt>
      <trkpt lat="45.62469" lon="6.64897">
        <ele>2452.3999023438</ele>
        <time>2012-02-22T12:20:34.000Z</time>
      </trkpt>
      <trkpt lat="45.62476" lon="6.64893">
        <ele>2453.1999511719</ele>
        <time>2012-02-22T12:20:43.000Z</time>
      </trkpt>
      <trkpt lat="45.6248" lon="6.64893">
        <ele>2453.8000488281</ele>
        <time>2012-02-22T12:20:50.000Z</time>
      </trkpt>
      <trkpt lat="45.62487" lon="6.64894">
        <ele>2453.3999023438</ele>
        <time>2012-02-22T12:20:59.000Z</time>
      </trkpt>
      <trkpt lat="45.62491" lon="6.64893">
        <ele>2455.3999023438</ele>
        <time>2012-02-22T12:21:03.000Z</time>
      </trkpt>
      <trkpt lat="45.62497" lon="6.64891">
        <ele>2456.1999511719</ele>
        <time>2012-02-22T12:21:08.000Z</time>
      </trkpt>
      <trkpt lat="45.62506" lon="6.64888">
        <ele>2455</ele>
        <time>2012-02-22T12:21:16.000Z</time>
      </trkpt>
      <trkpt lat="45.62509" lon="6.64884">
        <ele>2456.3999023438</ele>
        <time>2012-02-22T12:21:21.000Z</time>
      </trkpt>
      <trkpt lat="45.62515" lon="6.6488">
        <ele>2457.6000976562</ele>
        <time>2012-02-22T12:21:28.000Z</time>
      </trkpt>
      <trkpt lat="45.62517" lon="6.64877">
        <ele>2455.8000488281</ele>
        <time>2012-02-22T12:21:32.000Z</time>
      </trkpt>
      <trkpt lat="45.62523" lon="6.64871">
        <ele>2458</ele>
        <time>2012-02-22T12:21:40.000Z</time>
      </trkpt>
      <trkpt lat="45.62526" lon="6.64865">
        <ele>2459.3999023438</ele>
        <time>2012-02-22T12:21:46.000Z</time>
      </trkpt>
      <trkpt lat="45.62531" lon="6.64862">
        <ele>2459</ele>
        <time>2012-02-22T12:21:52.000Z</time>
      </trkpt>
      <trkpt lat="45.62535" lon="6.64858">
        <ele>2461.6000976562</ele>
        <time>2012-02-22T12:21:59.000Z</time>
      </trkpt>
      <trkpt lat="45.62539" lon="6.64858">
        <ele>2460.6000976562</ele>
        <time>2012-02-22T12:22:04.000Z</time>
      </trkpt>
      <trkpt lat="45.62541" lon="6.64853">
        <ele>2463</ele>
        <time>2012-02-22T12:22:11.000Z</time>
      </trkpt>
      <trkpt lat="45.62544" lon="6.64852">
        <ele>2461.3999023438</ele>
        <time>2012-02-22T12:22:16.000Z</time>
      </trkpt>
      <trkpt lat="45.62549" lon="6.64851">
        <ele>2462.8000488281</ele>
        <time>2012-02-22T12:22:22.000Z</time>
      </trkpt>
      <trkpt lat="45.62552" lon="6.64849">
        <ele>2463</ele>
        <time>2012-02-22T12:22:26.000Z</time>
      </trkpt>
      <trkpt lat="45.62556" lon="6.64847">
        <ele>2464.8000488281</ele>
        <time>2012-02-22T12:22:31.000Z</time>
      </trkpt>
      <trkpt lat="45.6256" lon="6.64845">
        <ele>2465.6000976562</ele>
        <time>2012-02-22T12:22:36.000Z</time>
      </trkpt>
      <trkpt lat="45.62566" lon="6.64842">
        <ele>2465</ele>
        <time>2012-02-22T12:22:43.000Z</time>
      </trkpt>
      <trkpt lat="45.62571" lon="6.64839">
        <ele>2464.1999511719</ele>
        <time>2012-02-22T12:22:50.000Z</time>
      </trkpt>
      <trkpt lat="45.62578" lon="6.64839">
        <ele>2466</ele>
        <time>2012-02-22T12:22:56.000Z</time>
      </trkpt>
      <trkpt lat="45.62583" lon="6.64837">
        <ele>2465.8000488281</ele>
        <time>2012-02-22T12:23:01.000Z</time>
      </trkpt>
      <trkpt lat="45.62588" lon="6.64835">
        <ele>2466</ele>
        <time>2012-02-22T12:23:07.000Z</time>
      </trkpt>
      <trkpt lat="45.62595" lon="6.64833">
        <ele>2468</ele>
        <time>2012-02-22T12:23:15.000Z</time>
      </trkpt>
      <trkpt lat="45.62596" lon="6.64833">
        <ele>2467.8000488281</ele>
        <time>2012-02-22T12:23:19.000Z</time>
      </trkpt>
      <trkpt lat="45.62598" lon="6.64828">
        <ele>2470.8000488281</ele>
        <time>2012-02-22T12:23:34.000Z</time>
      </trkpt>
      <trkpt lat="45.62598" lon="6.64827">
        <ele>2470.8000488281</ele>
        <time>2012-02-22T12:23:35.000Z</time>
      </trkpt>
      <trkpt lat="45.62598" lon="6.64823">
        <ele>2470.3999023438</ele>
        <time>2012-02-22T12:23:40.000Z</time>
      </trkpt>
      <trkpt lat="45.62599" lon="6.64816">
        <ele>2471.3999023438</ele>
        <time>2012-02-22T12:23:47.000Z</time>
      </trkpt>
      <trkpt lat="45.62598" lon="6.64808">
        <ele>2472</ele>
        <time>2012-02-22T12:23:54.000Z</time>
      </trkpt>
      <trkpt lat="45.62598" lon="6.648">
        <ele>2472.1999511719</ele>
        <time>2012-02-22T12:24:02.000Z</time>
      </trkpt>
      <trkpt lat="45.62599" lon="6.64795">
        <ele>2473</ele>
        <time>2012-02-22T12:24:07.000Z</time>
      </trkpt>
      <trkpt lat="45.62601" lon="6.64788">
        <ele>2474.6000976562</ele>
        <time>2012-02-22T12:24:15.000Z</time>
      </trkpt>
      <trkpt lat="45.62604" lon="6.6478">
        <ele>2475.8000488281</ele>
        <time>2012-02-22T12:24:22.000Z</time>
      </trkpt>
      <trkpt lat="45.62607" lon="6.6478">
        <ele>2476</ele>
        <time>2012-02-22T12:24:25.000Z</time>
      </trkpt>
      <trkpt lat="45.62608" lon="6.64785">
        <ele>2477.3999023438</ele>
        <time>2012-02-22T12:24:32.000Z</time>
      </trkpt>
      <trkpt lat="45.62607" lon="6.64791">
        <ele>2479.1999511719</ele>
        <time>2012-02-22T12:24:38.000Z</time>
      </trkpt>
      <trkpt lat="45.62606" lon="6.64793">
        <ele>2479.3999023438</ele>
        <time>2012-02-22T12:24:40.000Z</time>
      </trkpt>
      <trkpt lat="45.62605" lon="6.64797">
        <ele>2479.8000488281</ele>
        <time>2012-02-22T12:24:43.000Z</time>
      </trkpt>
      <trkpt lat="45.62604" lon="6.64803">
        <ele>2479.3999023438</ele>
        <time>2012-02-22T12:24:49.000Z</time>
      </trkpt>
      <trkpt lat="45.62606" lon="6.64809">
        <ele>2481.8000488281</ele>
        <time>2012-02-22T12:24:56.000Z</time>
      </trkpt>
      <trkpt lat="45.62614" lon="6.6481">
        <ele>2480.6000976562</ele>
        <time>2012-02-22T12:25:01.000Z</time>
      </trkpt>
      <trkpt lat="45.62624" lon="6.64809">
        <ele>2481.1999511719</ele>
        <time>2012-02-22T12:25:09.000Z</time>
      </trkpt>
      <trkpt lat="45.62629" lon="6.64807">
        <ele>2482.6000976562</ele>
        <time>2012-02-22T12:25:15.000Z</time>
      </trkpt>
      <trkpt lat="45.62633" lon="6.64805">
        <ele>2483</ele>
        <time>2012-02-22T12:25:21.000Z</time>
      </trkpt>
      <trkpt lat="45.62636" lon="6.64803">
        <ele>2485</ele>
        <time>2012-02-22T12:25:26.000Z</time>
      </trkpt>
      <trkpt lat="45.6264" lon="6.64801">
        <ele>2485.1999511719</ele>
        <time>2012-02-22T12:25:33.000Z</time>
      </trkpt>
      <trkpt lat="45.62645" lon="6.64799">
        <ele>2486.8000488281</ele>
        <time>2012-02-22T12:25:39.000Z</time>
      </trkpt>
      <trkpt lat="45.62647" lon="6.648">
        <ele>2486.8000488281</ele>
        <time>2012-02-22T12:25:40.000Z</time>
      </trkpt>
      <trkpt lat="45.62651" lon="6.64798">
        <ele>2488.3999023438</ele>
        <time>2012-02-22T12:25:45.000Z</time>
      </trkpt>
      <trkpt lat="45.62655" lon="6.64792">
        <ele>2490.6000976562</ele>
        <time>2012-02-22T12:25:54.000Z</time>
      </trkpt>
      <trkpt lat="45.62657" lon="6.64789">
        <ele>2490.1999511719</ele>
        <time>2012-02-22T12:25:58.000Z</time>
      </trkpt>
      <trkpt lat="45.6266" lon="6.64784">
        <ele>2490.3999023438</ele>
        <time>2012-02-22T12:26:05.000Z</time>
      </trkpt>
      <trkpt lat="45.62661" lon="6.64781">
        <ele>2490</ele>
        <time>2012-02-22T12:26:10.000Z</time>
      </trkpt>
      <trkpt lat="45.62663" lon="6.64776">
        <ele>2491.6000976562</ele>
        <time>2012-02-22T12:26:17.000Z</time>
      </trkpt>
      <trkpt lat="45.62666" lon="6.64771">
        <ele>2491.8000488281</ele>
        <time>2012-02-22T12:26:25.000Z</time>
      </trkpt>
      <trkpt lat="45.62669" lon="6.64766">
        <ele>2494.3999023438</ele>
        <time>2012-02-22T12:26:33.000Z</time>
      </trkpt>
      <trkpt lat="45.62672" lon="6.64766">
        <ele>2496</ele>
        <time>2012-02-22T12:26:43.000Z</time>
      </trkpt>
      <trkpt lat="45.62674" lon="6.64773">
        <ele>2495.8000488281</ele>
        <time>2012-02-22T12:26:50.000Z</time>
      </trkpt>
      <trkpt lat="45.62676" lon="6.64774">
        <ele>2496.8000488281</ele>
        <time>2012-02-22T12:26:54.000Z</time>
      </trkpt>
      <trkpt lat="45.6268" lon="6.64774">
        <ele>2498</ele>
        <time>2012-02-22T12:26:59.000Z</time>
      </trkpt>
      <trkpt lat="45.62686" lon="6.64774">
        <ele>2499.1999511719</ele>
        <time>2012-02-22T12:27:06.000Z</time>
      </trkpt>
      <trkpt lat="45.62691" lon="6.64773">
        <ele>2500.6000976562</ele>
        <time>2012-02-22T12:27:13.000Z</time>
      </trkpt>
      <trkpt lat="45.62694" lon="6.64771">
        <ele>2501.1999511719</ele>
        <time>2012-02-22T12:27:19.000Z</time>
      </trkpt>
      <trkpt lat="45.62697" lon="6.6477">
        <ele>2502.6000976562</ele>
        <time>2012-02-22T12:27:23.000Z</time>
      </trkpt>
      <trkpt lat="45.62699" lon="6.6477">
        <ele>2502.6000976562</ele>
        <time>2012-02-22T12:27:26.000Z</time>
      </trkpt>
      <trkpt lat="45.62701" lon="6.64768">
        <ele>2503.8000488281</ele>
        <time>2012-02-22T12:27:31.000Z</time>
      </trkpt>
      <trkpt lat="45.62703" lon="6.64764">
        <ele>2504.1999511719</ele>
        <time>2012-02-22T12:27:36.000Z</time>
      </trkpt>
      <trkpt lat="45.62704" lon="6.64759">
        <ele>2504.6000976562</ele>
        <time>2012-02-22T12:27:42.000Z</time>
      </trkpt>
      <trkpt lat="45.62704" lon="6.64756">
        <ele>2505.8000488281</ele>
        <time>2012-02-22T12:27:47.000Z</time>
      </trkpt>
      <trkpt lat="45.62706" lon="6.64761">
        <ele>2505.8000488281</ele>
        <time>2012-02-22T12:27:53.000Z</time>
      </trkpt>
      <trkpt lat="45.62707" lon="6.64767">
        <ele>2507.1999511719</ele>
        <time>2012-02-22T12:28:00.000Z</time>
      </trkpt>
      <trkpt lat="45.62706" lon="6.64769">
        <ele>2507</ele>
        <time>2012-02-22T12:28:02.000Z</time>
      </trkpt>
      <trkpt lat="45.62705" lon="6.64778">
        <ele>2507.1999511719</ele>
        <time>2012-02-22T12:28:12.000Z</time>
      </trkpt>
      <trkpt lat="45.62705" lon="6.6478">
        <ele>2507.3999023438</ele>
        <time>2012-02-22T12:28:21.000Z</time>
      </trkpt>
      <trkpt lat="45.62705" lon="6.64779">
        <ele>2506.8000488281</ele>
        <time>2012-02-22T12:28:24.000Z</time>
      </trkpt>
      <trkpt lat="45.62706" lon="6.64767">
        <ele>2506.3999023438</ele>
        <time>2012-02-22T12:28:33.000Z</time>
      </trkpt>
      <trkpt lat="45.62704" lon="6.64758">
        <ele>2505.8000488281</ele>
        <time>2012-02-22T12:28:40.000Z</time>
      </trkpt>
      <trkpt lat="45.62701" lon="6.64751">
        <ele>2503.8000488281</ele>
        <time>2012-02-22T12:28:45.000Z</time>
      </trkpt>
      <trkpt lat="45.62701" lon="6.64747">
        <ele>2503.8000488281</ele>
        <time>2012-02-22T12:28:52.000Z</time>
      </trkpt>
      <trkpt lat="45.62699" lon="6.64744">
        <ele>2505.1999511719</ele>
        <time>2012-02-22T12:29:07.000Z</time>
      </trkpt>
      <trkpt lat="45.627" lon="6.64743">
        <ele>2502.8000488281</ele>
        <time>2012-02-22T12:29:11.000Z</time>
      </trkpt>
      <trkpt lat="45.62699" lon="6.64738">
        <ele>2505.3999023438</ele>
        <time>2012-02-22T12:29:26.000Z</time>
      </trkpt>
      <trkpt lat="45.62699" lon="6.64745">
        <ele>2504.3999023438</ele>
        <time>2012-02-22T12:30:13.000Z</time>
      </trkpt>
      <trkpt lat="45.62698" lon="6.64752">
        <ele>2505</ele>
        <time>2012-02-22T12:49:48.000Z</time>
      </trkpt>
      <trkpt lat="45.62699" lon="6.64752">
        <ele>2505</ele>
        <time>2012-02-22T12:49:49.000Z</time>
      </trkpt>
      <trkpt lat="45.62702" lon="6.6475">
        <ele>2504.6000976562</ele>
        <time>2012-02-22T12:50:02.000Z</time>
      </trkpt>
      <trkpt lat="45.62708" lon="6.64751">
        <ele>2504.8000488281</ele>
        <time>2012-02-22T12:51:02.000Z</time>
      </trkpt>
      <trkpt lat="45.62703" lon="6.6476">
        <ele>2505.6000976562</ele>
        <time>2012-02-22T12:52:01.000Z</time>
      </trkpt>
      <trkpt lat="45.62705" lon="6.64764">
        <ele>2507</ele>
        <time>2012-02-22T12:52:10.000Z</time>
      </trkpt>
      <trkpt lat="45.62706" lon="6.64769">
        <ele>2507.3999023438</ele>
        <time>2012-02-22T12:52:17.000Z</time>
      </trkpt>
      <trkpt lat="45.62705" lon="6.64773">
        <ele>2507.8000488281</ele>
        <time>2012-02-22T12:52:25.000Z</time>
      </trkpt>
      <trkpt lat="45.62705" lon="6.64781">
        <ele>2508</ele>
        <time>2012-02-22T12:52:34.000Z</time>
      </trkpt>
      <trkpt lat="45.62704" lon="6.64781">
        <ele>2506.1999511719</ele>
        <time>2012-02-22T12:52:44.000Z</time>
      </trkpt>
      <trkpt lat="45.62703" lon="6.64789">
        <ele>2508</ele>
        <time>2012-02-22T12:53:26.000Z</time>
      </trkpt>
      <trkpt lat="45.62704" lon="6.64786">
        <ele>2508.3999023438</ele>
        <time>2012-02-22T12:53:37.000Z</time>
      </trkpt>
      <trkpt lat="45.62705" lon="6.64779">
        <ele>2508.8000488281</ele>
        <time>2012-02-22T12:53:46.000Z</time>
      </trkpt>
      <trkpt lat="45.62705" lon="6.64774">
        <ele>2506.8000488281</ele>
        <time>2012-02-22T12:54:03.000Z</time>
      </trkpt>
      <trkpt lat="45.62705" lon="6.64774">
        <ele>2508.8000488281</ele>
        <time>2012-02-22T12:54:06.000Z</time>
      </trkpt>
      <trkpt lat="45.62703" lon="6.64779">
        <ele>2507</ele>
        <time>2012-02-22T12:54:43.000Z</time>
      </trkpt>
      <trkpt lat="45.62703" lon="6.64777">
        <ele>2508.6000976562</ele>
        <time>2012-02-22T12:54:48.000Z</time>
      </trkpt>
      <trkpt lat="45.62705" lon="6.64779">
        <ele>2505.8000488281</ele>
        <time>2012-02-22T12:55:30.000Z</time>
      </trkpt>
      <trkpt lat="45.62705" lon="6.6478">
        <ele>2508.3999023438</ele>
        <time>2012-02-22T12:55:37.000Z</time>
      </trkpt>
      <trkpt lat="45.62704" lon="6.64787">
        <ele>2508.6000976562</ele>
        <time>2012-02-22T12:56:33.000Z</time>
      </trkpt>
      <trkpt lat="45.62699" lon="6.6479">
        <ele>2508.6000976562</ele>
        <time>2012-02-22T12:56:41.000Z</time>
      </trkpt>
      <trkpt lat="45.62699" lon="6.6479">
        <ele>2508.3999023438</ele>
        <time>2012-02-22T12:56:42.000Z</time>
      </trkpt>
      <trkpt lat="45.62693" lon="6.64801">
        <ele>2506</ele>
        <time>2012-02-22T12:56:47.000Z</time>
      </trkpt>
      <trkpt lat="45.62693" lon="6.64803">
        <ele>2505.8000488281</ele>
        <time>2012-02-22T12:56:48.000Z</time>
      </trkpt>
      <trkpt lat="45.62696" lon="6.64806">
        <ele>2505</ele>
        <time>2012-02-22T12:56:50.000Z</time>
      </trkpt>
      <trkpt lat="45.62698" lon="6.64807">
        <ele>2504.1999511719</ele>
        <time>2012-02-22T12:56:53.000Z</time>
      </trkpt>
      <trkpt lat="45.62698" lon="6.6482">
        <ele>2502.8000488281</ele>
        <time>2012-02-22T12:56:58.000Z</time>
      </trkpt>
      <trkpt lat="45.62698" lon="6.64834">
        <ele>2499.6000976562</ele>
        <time>2012-02-22T12:57:01.000Z</time>
      </trkpt>
      <trkpt lat="45.627" lon="6.64848">
        <ele>2496.1999511719</ele>
        <time>2012-02-22T12:57:04.000Z</time>
      </trkpt>
      <trkpt lat="45.62703" lon="6.64877">
        <ele>2490.1999511719</ele>
        <time>2012-02-22T12:57:09.000Z</time>
      </trkpt>
      <trkpt lat="45.62702" lon="6.64892">
        <ele>2486.6000976562</ele>
        <time>2012-02-22T12:57:13.000Z</time>
      </trkpt>
      <trkpt lat="45.62702" lon="6.64894">
        <ele>2486.1999511719</ele>
        <time>2012-02-22T12:57:14.000Z</time>
      </trkpt>
      <trkpt lat="45.62702" lon="6.64892">
        <ele>2485.8000488281</ele>
        <time>2012-02-22T12:57:47.000Z</time>
      </trkpt>
      <trkpt lat="45.62706" lon="6.64907">
        <ele>2483.1999511719</ele>
        <time>2012-02-22T12:57:52.000Z</time>
      </trkpt>
      <trkpt lat="45.62711" lon="6.64915">
        <ele>2480.8000488281</ele>
        <time>2012-02-22T12:57:55.000Z</time>
      </trkpt>
      <trkpt lat="45.62709" lon="6.64924">
        <ele>2478.1999511719</ele>
        <time>2012-02-22T12:57:57.000Z</time>
      </trkpt>
      <trkpt lat="45.6271" lon="6.64915">
        <ele>2476.1999511719</ele>
        <time>2012-02-22T12:57:59.000Z</time>
      </trkpt>
      <trkpt lat="45.62717" lon="6.64889">
        <ele>2471.1999511719</ele>
        <time>2012-02-22T12:58:04.000Z</time>
      </trkpt>
      <trkpt lat="45.62726" lon="6.64892">
        <ele>2468.3999023438</ele>
        <time>2012-02-22T12:58:08.000Z</time>
      </trkpt>
      <trkpt lat="45.62734" lon="6.649">
        <ele>2463.6000976562</ele>
        <time>2012-02-22T12:58:11.000Z</time>
      </trkpt>
      <trkpt lat="45.62739" lon="6.64908">
        <ele>2460</ele>
        <time>2012-02-22T12:58:14.000Z</time>
      </trkpt>
      <trkpt lat="45.62752" lon="6.64904">
        <ele>2456.1999511719</ele>
        <time>2012-02-22T12:58:17.000Z</time>
      </trkpt>
      <trkpt lat="45.62765" lon="6.64899">
        <ele>2451.8000488281</ele>
        <time>2012-02-22T12:58:20.000Z</time>
      </trkpt>
      <trkpt lat="45.6278" lon="6.64896">
        <ele>2448</ele>
        <time>2012-02-22T12:58:24.000Z</time>
      </trkpt>
      <trkpt lat="45.62781" lon="6.64895">
        <ele>2447.8000488281</ele>
        <time>2012-02-22T12:58:25.000Z</time>
      </trkpt>
      <trkpt lat="45.62782" lon="6.64897">
        <ele>2448.1999511719</ele>
        <time>2012-02-22T12:58:35.000Z</time>
      </trkpt>
      <trkpt lat="45.62785" lon="6.64903">
        <ele>2448</ele>
        <time>2012-02-22T12:59:43.000Z</time>
      </trkpt>
      <trkpt lat="45.62783" lon="6.64914">
        <ele>2446.8000488281</ele>
        <time>2012-02-22T12:59:47.000Z</time>
      </trkpt>
      <trkpt lat="45.62783" lon="6.64934">
        <ele>2442.8000488281</ele>
        <time>2012-02-22T12:59:50.000Z</time>
      </trkpt>
      <trkpt lat="45.62785" lon="6.64941">
        <ele>2440.8000488281</ele>
        <time>2012-02-22T12:59:51.000Z</time>
      </trkpt>
      <trkpt lat="45.62791" lon="6.64954">
        <ele>2437.6000976562</ele>
        <time>2012-02-22T12:59:53.000Z</time>
      </trkpt>
      <trkpt lat="45.62808" lon="6.64989">
        <ele>2429.3999023438</ele>
        <time>2012-02-22T12:59:58.000Z</time>
      </trkpt>
      <trkpt lat="45.6282" lon="6.65011">
        <ele>2423.3999023438</ele>
        <time>2012-02-22T13:00:01.000Z</time>
      </trkpt>
      <trkpt lat="45.62828" lon="6.65026">
        <ele>2420.6000976562</ele>
        <time>2012-02-22T13:00:03.000Z</time>
      </trkpt>
      <trkpt lat="45.62843" lon="6.65054">
        <ele>2413.3999023438</ele>
        <time>2012-02-22T13:00:07.000Z</time>
      </trkpt>
      <trkpt lat="45.62844" lon="6.65075">
        <ele>2409.6000976562</ele>
        <time>2012-02-22T13:00:10.000Z</time>
      </trkpt>
      <trkpt lat="45.62842" lon="6.65074">
        <ele>2408.1999511719</ele>
        <time>2012-02-22T13:00:12.000Z</time>
      </trkpt>
      <trkpt lat="45.62839" lon="6.65075">
        <ele>2407.8000488281</ele>
        <time>2012-02-22T13:00:21.000Z</time>
      </trkpt>
      <trkpt lat="45.62837" lon="6.6508">
        <ele>2407.8000488281</ele>
        <time>2012-02-22T13:00:36.000Z</time>
      </trkpt>
      <trkpt lat="45.62842" lon="6.651">
        <ele>2406</ele>
        <time>2012-02-22T13:00:40.000Z</time>
      </trkpt>
      <trkpt lat="45.62849" lon="6.65117">
        <ele>2403.6000976562</ele>
        <time>2012-02-22T13:00:43.000Z</time>
      </trkpt>
      <trkpt lat="45.62854" lon="6.6513">
        <ele>2400</ele>
        <time>2012-02-22T13:00:45.000Z</time>
      </trkpt>
      <trkpt lat="45.62852" lon="6.65124">
        <ele>2397.8000488281</ele>
        <time>2012-02-22T13:00:47.000Z</time>
      </trkpt>
      <trkpt lat="45.62849" lon="6.65123">
        <ele>2395.1999511719</ele>
        <time>2012-02-22T13:00:50.000Z</time>
      </trkpt>
      <trkpt lat="45.62848" lon="6.65124">
        <ele>2394.3999023438</ele>
        <time>2012-02-22T13:00:56.000Z</time>
      </trkpt>
      <trkpt lat="45.62862" lon="6.65113">
        <ele>2394.8000488281</ele>
        <time>2012-02-22T13:01:08.000Z</time>
      </trkpt>
      <trkpt lat="45.62871" lon="6.65107">
        <ele>2393.6000976562</ele>
        <time>2012-02-22T13:01:14.000Z</time>
      </trkpt>
      <trkpt lat="45.62874" lon="6.65105">
        <ele>2392.8000488281</ele>
        <time>2012-02-22T13:01:16.000Z</time>
      </trkpt>
      <trkpt lat="45.62875" lon="6.65113">
        <ele>2391.6000976562</ele>
        <time>2012-02-22T13:01:19.000Z</time>
      </trkpt>
      <trkpt lat="45.62884" lon="6.65122">
        <ele>2387.1999511719</ele>
        <time>2012-02-22T13:01:23.000Z</time>
      </trkpt>
      <trkpt lat="45.62882" lon="6.65125">
        <ele>2385.1999511719</ele>
        <time>2012-02-22T13:01:24.000Z</time>
      </trkpt>
      <trkpt lat="45.62876" lon="6.65131">
        <ele>2383</ele>
        <time>2012-02-22T13:01:27.000Z</time>
      </trkpt>
      <trkpt lat="45.62876" lon="6.65145">
        <ele>2379.1999511719</ele>
        <time>2012-02-22T13:01:31.000Z</time>
      </trkpt>
      <trkpt lat="45.62877" lon="6.65149">
        <ele>2379.1999511719</ele>
        <time>2012-02-22T13:01:32.000Z</time>
      </trkpt>
      <trkpt lat="45.62878" lon="6.65169">
        <ele>2371</ele>
        <time>2012-02-22T13:01:37.000Z</time>
      </trkpt>
      <trkpt lat="45.62876" lon="6.65172">
        <ele>2370</ele>
        <time>2012-02-22T13:01:38.000Z</time>
      </trkpt>
      <trkpt lat="45.62874" lon="6.65175">
        <ele>2369</ele>
        <time>2012-02-22T13:01:40.000Z</time>
      </trkpt>
      <trkpt lat="45.62875" lon="6.65176">
        <ele>2368.8000488281</ele>
        <time>2012-02-22T13:01:42.000Z</time>
      </trkpt>
      <trkpt lat="45.62882" lon="6.65187">
        <ele>2367</ele>
        <time>2012-02-22T13:01:46.000Z</time>
      </trkpt>
      <trkpt lat="45.62891" lon="6.65205">
        <ele>2362</ele>
        <time>2012-02-22T13:01:50.000Z</time>
      </trkpt>
      <trkpt lat="45.62894" lon="6.6521">
        <ele>2362</ele>
        <time>2012-02-22T13:01:51.000Z</time>
      </trkpt>
      <trkpt lat="45.62904" lon="6.65231">
        <ele>2353.8000488281</ele>
        <time>2012-02-22T13:01:55.000Z</time>
      </trkpt>
      <trkpt lat="45.62908" lon="6.65242">
        <ele>2351.1999511719</ele>
        <time>2012-02-22T13:01:57.000Z</time>
      </trkpt>
      <trkpt lat="45.62913" lon="6.65254">
        <ele>2347</ele>
        <time>2012-02-22T13:02:00.000Z</time>
      </trkpt>
      <trkpt lat="45.62912" lon="6.65256">
        <ele>2345.3999023438</ele>
        <time>2012-02-22T13:02:03.000Z</time>
      </trkpt>
      <trkpt lat="45.62915" lon="6.65269">
        <ele>2343.6000976562</ele>
        <time>2012-02-22T13:02:07.000Z</time>
      </trkpt>
      <trkpt lat="45.62927" lon="6.65289">
        <ele>2339.6000976562</ele>
        <time>2012-02-22T13:02:11.000Z</time>
      </trkpt>
      <trkpt lat="45.62943" lon="6.653">
        <ele>2334.1999511719</ele>
        <time>2012-02-22T13:02:14.000Z</time>
      </trkpt>
      <trkpt lat="45.62951" lon="6.65314">
        <ele>2331</ele>
        <time>2012-02-22T13:02:16.000Z</time>
      </trkpt>
      <trkpt lat="45.62964" lon="6.65332">
        <ele>2325.6000976562</ele>
        <time>2012-02-22T13:02:19.000Z</time>
      </trkpt>
      <trkpt lat="45.6298" lon="6.65343">
        <ele>2320.8000488281</ele>
        <time>2012-02-22T13:02:22.000Z</time>
      </trkpt>
      <trkpt lat="45.62998" lon="6.65359">
        <ele>2313.6000976562</ele>
        <time>2012-02-22T13:02:27.000Z</time>
      </trkpt>
      <trkpt lat="45.63003" lon="6.65347">
        <ele>2310.1999511719</ele>
        <time>2012-02-22T13:02:30.000Z</time>
      </trkpt>
      <trkpt lat="45.63005" lon="6.65342">
        <ele>2309.3999023438</ele>
        <time>2012-02-22T13:02:32.000Z</time>
      </trkpt>
      <trkpt lat="45.63015" lon="6.65338">
        <ele>2308.1999511719</ele>
        <time>2012-02-22T13:02:36.000Z</time>
      </trkpt>
      <trkpt lat="45.63014" lon="6.65348">
        <ele>2306.8000488281</ele>
        <time>2012-02-22T13:02:39.000Z</time>
      </trkpt>
      <trkpt lat="45.63014" lon="6.65351">
        <ele>2305.8000488281</ele>
        <time>2012-02-22T13:03:10.000Z</time>
      </trkpt>
      <trkpt lat="45.6303" lon="6.65365">
        <ele>2301.1999511719</ele>
        <time>2012-02-22T13:03:15.000Z</time>
      </trkpt>
      <trkpt lat="45.63038" lon="6.65369">
        <ele>2298.6000976562</ele>
        <time>2012-02-22T13:03:17.000Z</time>
      </trkpt>
      <trkpt lat="45.63043" lon="6.65368">
        <ele>2295.1999511719</ele>
        <time>2012-02-22T13:03:21.000Z</time>
      </trkpt>
      <trkpt lat="45.63045" lon="6.65371">
        <ele>2295</ele>
        <time>2012-02-22T13:03:43.000Z</time>
      </trkpt>
      <trkpt lat="45.63045" lon="6.6539">
        <ele>2293.3999023438</ele>
        <time>2012-02-22T13:03:48.000Z</time>
      </trkpt>
      <trkpt lat="45.63042" lon="6.65404">
        <ele>2292</ele>
        <time>2012-02-22T13:03:51.000Z</time>
      </trkpt>
      <trkpt lat="45.63041" lon="6.6541">
        <ele>2290.8000488281</ele>
        <time>2012-02-22T13:03:53.000Z</time>
      </trkpt>
      <trkpt lat="45.6305" lon="6.65429">
        <ele>2286</ele>
        <time>2012-02-22T13:03:58.000Z</time>
      </trkpt>
      <trkpt lat="45.6306" lon="6.6543">
        <ele>2281.8000488281</ele>
        <time>2012-02-22T13:04:01.000Z</time>
      </trkpt>
      <trkpt lat="45.63061" lon="6.65423">
        <ele>2279.6000976562</ele>
        <time>2012-02-22T13:04:03.000Z</time>
      </trkpt>
      <trkpt lat="45.63062" lon="6.65406">
        <ele>2276.1999511719</ele>
        <time>2012-02-22T13:04:09.000Z</time>
      </trkpt>
      <trkpt lat="45.63064" lon="6.654">
        <ele>2275</ele>
        <time>2012-02-22T13:04:14.000Z</time>
      </trkpt>
      <trkpt lat="45.63065" lon="6.65396">
        <ele>2274.8000488281</ele>
        <time>2012-02-22T13:04:16.000Z</time>
      </trkpt>
      <trkpt lat="45.6307" lon="6.6538">
        <ele>2271.8000488281</ele>
        <time>2012-02-22T13:04:20.000Z</time>
      </trkpt>
      <trkpt lat="45.63073" lon="6.65374">
        <ele>2270.3999023438</ele>
        <time>2012-02-22T13:04:23.000Z</time>
      </trkpt>
      <trkpt lat="45.63072" lon="6.65372">
        <ele>2270</ele>
        <time>2012-02-22T13:04:29.000Z</time>
      </trkpt>
      <trkpt lat="45.6308" lon="6.6538">
        <ele>2266.6000976562</ele>
        <time>2012-02-22T13:04:33.000Z</time>
      </trkpt>
      <trkpt lat="45.63102" lon="6.65384">
        <ele>2258.8000488281</ele>
        <time>2012-02-22T13:04:38.000Z</time>
      </trkpt>
      <trkpt lat="45.63107" lon="6.65391">
        <ele>2257.3999023438</ele>
        <time>2012-02-22T13:04:40.000Z</time>
      </trkpt>
      <trkpt lat="45.63116" lon="6.6542">
        <ele>2252.1999511719</ele>
        <time>2012-02-22T13:04:45.000Z</time>
      </trkpt>
      <trkpt lat="45.63126" lon="6.65447">
        <ele>2247.3999023438</ele>
        <time>2012-02-22T13:04:49.000Z</time>
      </trkpt>
      <trkpt lat="45.63132" lon="6.65464">
        <ele>2244.1999511719</ele>
        <time>2012-02-22T13:04:51.000Z</time>
      </trkpt>
      <trkpt lat="45.63139" lon="6.65481">
        <ele>2240</ele>
        <time>2012-02-22T13:04:53.000Z</time>
      </trkpt>
      <trkpt lat="45.63153" lon="6.65518">
        <ele>2234</ele>
        <time>2012-02-22T13:04:58.000Z</time>
      </trkpt>
      <trkpt lat="45.63156" lon="6.65524">
        <ele>2233.3999023438</ele>
        <time>2012-02-22T13:04:59.000Z</time>
      </trkpt>
      <trkpt lat="45.63161" lon="6.65537">
        <ele>2232.3999023438</ele>
        <time>2012-02-22T13:05:01.000Z</time>
      </trkpt>
      <trkpt lat="45.63169" lon="6.65547">
        <ele>2230.1999511719</ele>
        <time>2012-02-22T13:05:05.000Z</time>
      </trkpt>
      <trkpt lat="45.63166" lon="6.65533">
        <ele>2229.3999023438</ele>
        <time>2012-02-22T13:06:16.000Z</time>
      </trkpt>
      <trkpt lat="45.63171" lon="6.65558">
        <ele>2226.6000976562</ele>
        <time>2012-02-22T13:06:24.000Z</time>
      </trkpt>
      <trkpt lat="45.63177" lon="6.65581">
        <ele>2224.1999511719</ele>
        <time>2012-02-22T13:06:31.000Z</time>
      </trkpt>
      <trkpt lat="45.63179" lon="6.65604">
        <ele>2221.6000976562</ele>
        <time>2012-02-22T13:06:36.000Z</time>
      </trkpt>
      <trkpt lat="45.6318" lon="6.65618">
        <ele>2220</ele>
        <time>2012-02-22T13:06:38.000Z</time>
      </trkpt>
      <trkpt lat="45.63177" lon="6.65637">
        <ele>2216.6000976562</ele>
        <time>2012-02-22T13:06:41.000Z</time>
      </trkpt>
      <trkpt lat="45.63174" lon="6.65654">
        <ele>2212</ele>
        <time>2012-02-22T13:06:44.000Z</time>
      </trkpt>
      <trkpt lat="45.63171" lon="6.65661">
        <ele>2209.3999023438</ele>
        <time>2012-02-22T13:06:47.000Z</time>
      </trkpt>
      <trkpt lat="45.63171" lon="6.65662">
        <ele>2209.3999023438</ele>
        <time>2012-02-22T13:06:48.000Z</time>
      </trkpt>
      <trkpt lat="45.63171" lon="6.65663">
        <ele>2209</ele>
        <time>2012-02-22T13:07:16.000Z</time>
      </trkpt>
      <trkpt lat="45.63166" lon="6.65674">
        <ele>2208.1999511719</ele>
        <time>2012-02-22T13:07:23.000Z</time>
      </trkpt>
      <trkpt lat="45.63166" lon="6.65674">
        <ele>2208</ele>
        <time>2012-02-22T13:07:24.000Z</time>
      </trkpt>
      <trkpt lat="45.63169" lon="6.65679">
        <ele>2206.8000488281</ele>
        <time>2012-02-22T13:07:27.000Z</time>
      </trkpt>
      <trkpt lat="45.63175" lon="6.65697">
        <ele>2200.6000976562</ele>
        <time>2012-02-22T13:07:32.000Z</time>
      </trkpt>
      <trkpt lat="45.63171" lon="6.65704">
        <ele>2196.8000488281</ele>
        <time>2012-02-22T13:07:35.000Z</time>
      </trkpt>
      <trkpt lat="45.63169" lon="6.65719">
        <ele>2192.8000488281</ele>
        <time>2012-02-22T13:07:39.000Z</time>
      </trkpt>
      <trkpt lat="45.63184" lon="6.65746">
        <ele>2186</ele>
        <time>2012-02-22T13:07:43.000Z</time>
      </trkpt>
      <trkpt lat="45.63198" lon="6.65759">
        <ele>2180.6000976562</ele>
        <time>2012-02-22T13:07:46.000Z</time>
      </trkpt>
      <trkpt lat="45.63208" lon="6.65776">
        <ele>2174.1999511719</ele>
        <time>2012-02-22T13:07:49.000Z</time>
      </trkpt>
      <trkpt lat="45.63214" lon="6.65792">
        <ele>2171.6000976562</ele>
        <time>2012-02-22T13:07:53.000Z</time>
      </trkpt>
      <trkpt lat="45.63214" lon="6.65797">
        <ele>2170.8000488281</ele>
        <time>2012-02-22T13:07:57.000Z</time>
      </trkpt>
      <trkpt lat="45.63218" lon="6.65801">
        <ele>2170.1999511719</ele>
        <time>2012-02-22T13:07:59.000Z</time>
      </trkpt>
      <trkpt lat="45.63234" lon="6.6582">
        <ele>2164.6000976562</ele>
        <time>2012-02-22T13:08:03.000Z</time>
      </trkpt>
      <trkpt lat="45.63244" lon="6.65842">
        <ele>2159.8000488281</ele>
        <time>2012-02-22T13:08:06.000Z</time>
      </trkpt>
      <trkpt lat="45.63258" lon="6.65872">
        <ele>2154.6000976562</ele>
        <time>2012-02-22T13:08:10.000Z</time>
      </trkpt>
      <trkpt lat="45.63265" lon="6.65888">
        <ele>2152</ele>
        <time>2012-02-22T13:08:12.000Z</time>
      </trkpt>
      <trkpt lat="45.63277" lon="6.65926">
        <ele>2145.8000488281</ele>
        <time>2012-02-22T13:08:17.000Z</time>
      </trkpt>
      <trkpt lat="45.63284" lon="6.6597">
        <ele>2139.8000488281</ele>
        <time>2012-02-22T13:08:23.000Z</time>
      </trkpt>
      <trkpt lat="45.63285" lon="6.65978">
        <ele>2138.6000976562</ele>
        <time>2012-02-22T13:08:24.000Z</time>
      </trkpt>
      <trkpt lat="45.6329" lon="6.66004">
        <ele>2134.6000976562</ele>
        <time>2012-02-22T13:08:28.000Z</time>
      </trkpt>
      <trkpt lat="45.63288" lon="6.66011">
        <ele>2133.6000976562</ele>
        <time>2012-02-22T13:08:30.000Z</time>
      </trkpt>
      <trkpt lat="45.63287" lon="6.66022">
        <ele>2132.3999023438</ele>
        <time>2012-02-22T13:08:33.000Z</time>
      </trkpt>
      <trkpt lat="45.63285" lon="6.66051">
        <ele>2129.1999511719</ele>
        <time>2012-02-22T13:08:38.000Z</time>
      </trkpt>
      <trkpt lat="45.63288" lon="6.66062">
        <ele>2126.6000976562</ele>
        <time>2012-02-22T13:08:40.000Z</time>
      </trkpt>
      <trkpt lat="45.63294" lon="6.6609">
        <ele>2121.1999511719</ele>
        <time>2012-02-22T13:08:44.000Z</time>
      </trkpt>
      <trkpt lat="45.63295" lon="6.66125">
        <ele>2115.1999511719</ele>
        <time>2012-02-22T13:08:48.000Z</time>
      </trkpt>
      <trkpt lat="45.63291" lon="6.66134">
        <ele>2114.1999511719</ele>
        <time>2012-02-22T13:08:50.000Z</time>
      </trkpt>
      <trkpt lat="45.63288" lon="6.66153">
        <ele>2111.8000488281</ele>
        <time>2012-02-22T13:08:54.000Z</time>
      </trkpt>
      <trkpt lat="45.63285" lon="6.66181">
        <ele>2107.8000488281</ele>
        <time>2012-02-22T13:08:57.000Z</time>
      </trkpt>
      <trkpt lat="45.6328" lon="6.66223">
        <ele>2101.6000976562</ele>
        <time>2012-02-22T13:09:01.000Z</time>
      </trkpt>
      <trkpt lat="45.63278" lon="6.6623">
        <ele>2100.1999511719</ele>
        <time>2012-02-22T13:09:02.000Z</time>
      </trkpt>
      <trkpt lat="45.63269" lon="6.66256">
        <ele>2097.6000976562</ele>
        <time>2012-02-22T13:09:06.000Z</time>
      </trkpt>
      <trkpt lat="45.63268" lon="6.66302">
        <ele>2090</ele>
        <time>2012-02-22T13:09:10.000Z</time>
      </trkpt>
      <trkpt lat="45.63263" lon="6.66337">
        <ele>2086</ele>
        <time>2012-02-22T13:09:14.000Z</time>
      </trkpt>
      <trkpt lat="45.63255" lon="6.6636">
        <ele>2083.8000488281</ele>
        <time>2012-02-22T13:09:17.000Z</time>
      </trkpt>
      <trkpt lat="45.63246" lon="6.66391">
        <ele>2080.3999023438</ele>
        <time>2012-02-22T13:09:21.000Z</time>
      </trkpt>
      <trkpt lat="45.63242" lon="6.66423">
        <ele>2077</ele>
        <time>2012-02-22T13:09:25.000Z</time>
      </trkpt>
      <trkpt lat="45.63244" lon="6.66455">
        <ele>2072</ele>
        <time>2012-02-22T13:09:28.000Z</time>
      </trkpt>
      <trkpt lat="45.63244" lon="6.66493">
        <ele>2066.3999023438</ele>
        <time>2012-02-22T13:09:31.000Z</time>
      </trkpt>
      <trkpt lat="45.63243" lon="6.66518">
        <ele>2062</ele>
        <time>2012-02-22T13:09:33.000Z</time>
      </trkpt>
      <trkpt lat="45.63244" lon="6.66554">
        <ele>2057.6000976562</ele>
        <time>2012-02-22T13:09:36.000Z</time>
      </trkpt>
      <trkpt lat="45.63241" lon="6.66567">
        <ele>2055.8000488281</ele>
        <time>2012-02-22T13:09:37.000Z</time>
      </trkpt>
      <trkpt lat="45.63235" lon="6.66645">
        <ele>2047</ele>
        <time>2012-02-22T13:09:44.000Z</time>
      </trkpt>
      <trkpt lat="45.63231" lon="6.66676">
        <ele>2044</ele>
        <time>2012-02-22T13:09:48.000Z</time>
      </trkpt>
      <trkpt lat="45.63228" lon="6.66676">
        <ele>2043.5999755859</ele>
        <time>2012-02-22T13:09:53.000Z</time>
      </trkpt>
      <trkpt lat="45.63222" lon="6.66657">
        <ele>2042.8000488281</ele>
        <time>2012-02-22T13:11:12.000Z</time>
      </trkpt>
      <trkpt lat="45.63225" lon="6.66679">
        <ele>2041.1999511719</ele>
        <time>2012-02-22T13:11:17.000Z</time>
      </trkpt>
      <trkpt lat="45.63223" lon="6.66717">
        <ele>2037.4000244141</ele>
        <time>2012-02-22T13:11:21.000Z</time>
      </trkpt>
      <trkpt lat="45.63219" lon="6.66796">
        <ele>2030.4000244141</ele>
        <time>2012-02-22T13:11:29.000Z</time>
      </trkpt>
      <trkpt lat="45.63216" lon="6.66843">
        <ele>2026.8000488281</ele>
        <time>2012-02-22T13:11:34.000Z</time>
      </trkpt>
      <trkpt lat="45.63213" lon="6.66876">
        <ele>2023.8000488281</ele>
        <time>2012-02-22T13:11:38.000Z</time>
      </trkpt>
      <trkpt lat="45.63212" lon="6.66907">
        <ele>2021.4000244141</ele>
        <time>2012-02-22T13:11:42.000Z</time>
      </trkpt>
      <trkpt lat="45.63211" lon="6.66919">
        <ele>2019.4000244141</ele>
        <time>2012-02-22T13:11:45.000Z</time>
      </trkpt>
      <trkpt lat="45.63212" lon="6.6692">
        <ele>2018.5999755859</ele>
        <time>2012-02-22T13:11:47.000Z</time>
      </trkpt>
      <trkpt lat="45.63211" lon="6.66924">
        <ele>2018.1999511719</ele>
        <time>2012-02-22T13:11:50.000Z</time>
      </trkpt>
      <trkpt lat="45.63213" lon="6.66932">
        <ele>2016</ele>
        <time>2012-02-22T13:11:54.000Z</time>
      </trkpt>
      <trkpt lat="45.63214" lon="6.66932">
        <ele>2015.8000488281</ele>
        <time>2012-02-22T13:11:55.000Z</time>
      </trkpt>
      <trkpt lat="45.63218" lon="6.66932">
        <ele>2015</ele>
        <time>2012-02-22T13:12:00.000Z</time>
      </trkpt>
      <trkpt lat="45.63212" lon="6.66925">
        <ele>2014.1999511719</ele>
        <time>2012-02-22T13:12:30.000Z</time>
      </trkpt>
      <trkpt lat="45.63212" lon="6.66922">
        <ele>2018.4000244141</ele>
        <time>2012-02-22T13:12:33.000Z</time>
      </trkpt>
      <trkpt lat="45.63212" lon="6.66921">
        <ele>2015</ele>
        <time>2012-02-22T13:12:38.000Z</time>
      </trkpt>
      <trkpt lat="45.63214" lon="6.66919">
        <ele>2015.4000244141</ele>
        <time>2012-02-22T13:12:44.000Z</time>
      </trkpt>
      <trkpt lat="45.63215" lon="6.66914">
        <ele>2017.4000244141</ele>
        <time>2012-02-22T13:12:51.000Z</time>
      </trkpt>
      <trkpt lat="45.63215" lon="6.66912">
        <ele>2018</ele>
        <time>2012-02-22T13:12:58.000Z</time>
      </trkpt>
      <trkpt lat="45.63218" lon="6.66922">
        <ele>2017.8000488281</ele>
        <time>2012-02-22T13:13:46.000Z</time>
      </trkpt>
      <trkpt lat="45.63221" lon="6.66922">
        <ele>2017.4000244141</ele>
        <time>2012-02-22T13:14:31.000Z</time>
      </trkpt>
      <trkpt lat="45.63222" lon="6.66919">
        <ele>2016.1999511719</ele>
        <time>2012-02-22T13:14:38.000Z</time>
      </trkpt>
      <trkpt lat="45.63221" lon="6.66918">
        <ele>2015.8000488281</ele>
        <time>2012-02-22T13:14:40.000Z</time>
      </trkpt>
      <trkpt lat="45.63228" lon="6.66918">
        <ele>2015.5999755859</ele>
        <time>2012-02-22T13:14:44.000Z</time>
      </trkpt>
      <trkpt lat="45.63224" lon="6.66918">
        <ele>2015.4000244141</ele>
        <time>2012-02-22T13:14:54.000Z</time>
      </trkpt>
      <trkpt lat="45.63222" lon="6.6691">
        <ele>2015.4000244141</ele>
        <time>2012-02-22T13:15:02.000Z</time>
      </trkpt>
      <trkpt lat="45.63224" lon="6.66904">
        <ele>2015.4000244141</ele>
        <time>2012-02-22T13:15:10.000Z</time>
      </trkpt>
      <trkpt lat="45.63218" lon="6.66906">
        <ele>2015.4000244141</ele>
        <time>2012-02-22T13:15:31.000Z</time>
      </trkpt>
      <trkpt lat="45.63225" lon="6.66904">
        <ele>2015.4000244141</ele>
        <time>2012-02-22T13:15:35.000Z</time>
      </trkpt>
      <trkpt lat="45.63227" lon="6.66914">
        <ele>2015.1999511719</ele>
        <time>2012-02-22T13:15:41.000Z</time>
      </trkpt>
      <trkpt lat="45.63216" lon="6.66916">
        <ele>2011</ele>
        <time>2012-02-22T13:57:55.000Z</time>
      </trkpt>
      <trkpt lat="45.63216" lon="6.66916">
        <ele>2011.1999511719</ele>
        <time>2012-02-22T13:57:56.000Z</time>
      </trkpt>
      <trkpt lat="45.63215" lon="6.66913">
        <ele>2011</ele>
        <time>2012-02-22T13:58:03.000Z</time>
      </trkpt>
      <trkpt lat="45.63217" lon="6.66904">
        <ele>2012.1999511719</ele>
        <time>2012-02-22T13:58:10.000Z</time>
      </trkpt>
      <trkpt lat="45.6322" lon="6.66893">
        <ele>2013.4000244141</ele>
        <time>2012-02-22T13:58:18.000Z</time>
      </trkpt>
      <trkpt lat="45.63223" lon="6.66881">
        <ele>2014.4000244141</ele>
        <time>2012-02-22T13:58:26.000Z</time>
      </trkpt>
      <trkpt lat="45.63223" lon="6.66869">
        <ele>2016</ele>
        <time>2012-02-22T13:58:33.000Z</time>
      </trkpt>
      <trkpt lat="45.63223" lon="6.6686">
        <ele>2017</ele>
        <time>2012-02-22T13:58:39.000Z</time>
      </trkpt>
      <trkpt lat="45.63224" lon="6.6685">
        <ele>2017.1999511719</ele>
        <time>2012-02-22T13:58:46.000Z</time>
      </trkpt>
      <trkpt lat="45.63225" lon="6.66843">
        <ele>2018.1999511719</ele>
        <time>2012-02-22T13:58:53.000Z</time>
      </trkpt>
      <trkpt lat="45.63225" lon="6.66834">
        <ele>2018.5999755859</ele>
        <time>2012-02-22T13:59:01.000Z</time>
      </trkpt>
      <trkpt lat="45.63227" lon="6.66824">
        <ele>2019.1999511719</ele>
        <time>2012-02-22T13:59:07.000Z</time>
      </trkpt>
      <trkpt lat="45.63227" lon="6.66823">
        <ele>2019</ele>
        <time>2012-02-22T13:59:08.000Z</time>
      </trkpt>
      <trkpt lat="45.63228" lon="6.66815">
        <ele>2020.4000244141</ele>
        <time>2012-02-22T13:59:13.000Z</time>
      </trkpt>
      <trkpt lat="45.6323" lon="6.66804">
        <ele>2021.8000488281</ele>
        <time>2012-02-22T13:59:22.000Z</time>
      </trkpt>
      <trkpt lat="45.6323" lon="6.66799">
        <ele>2022</ele>
        <time>2012-02-22T13:59:26.000Z</time>
      </trkpt>
      <trkpt lat="45.63231" lon="6.66791">
        <ele>2022.8000488281</ele>
        <time>2012-02-22T13:59:35.000Z</time>
      </trkpt>
      <trkpt lat="45.63234" lon="6.66782">
        <ele>2024.4000244141</ele>
        <time>2012-02-22T13:59:42.000Z</time>
      </trkpt>
      <trkpt lat="45.63235" lon="6.66772">
        <ele>2025</ele>
        <time>2012-02-22T13:59:48.000Z</time>
      </trkpt>
      <trkpt lat="45.63236" lon="6.66763">
        <ele>2025.1999511719</ele>
        <time>2012-02-22T13:59:53.000Z</time>
      </trkpt>
      <trkpt lat="45.63238" lon="6.66748">
        <ele>2026.4000244141</ele>
        <time>2012-02-22T14:00:02.000Z</time>
      </trkpt>
      <trkpt lat="45.6324" lon="6.66735">
        <ele>2027</ele>
        <time>2012-02-22T14:00:10.000Z</time>
      </trkpt>
      <trkpt lat="45.6324" lon="6.66724">
        <ele>2027.8000488281</ele>
        <time>2012-02-22T14:00:17.000Z</time>
      </trkpt>
      <trkpt lat="45.63242" lon="6.66714">
        <ele>2028.4000244141</ele>
        <time>2012-02-22T14:00:24.000Z</time>
      </trkpt>
      <trkpt lat="45.63243" lon="6.66702">
        <ele>2029.4000244141</ele>
        <time>2012-02-22T14:00:31.000Z</time>
      </trkpt>
      <trkpt lat="45.63244" lon="6.66694">
        <ele>2030</ele>
        <time>2012-02-22T14:00:36.000Z</time>
      </trkpt>
      <trkpt lat="45.63244" lon="6.66689">
        <ele>2030.4000244141</ele>
        <time>2012-02-22T14:00:39.000Z</time>
      </trkpt>
      <trkpt lat="45.63244" lon="6.6668">
        <ele>2032</ele>
        <time>2012-02-22T14:00:47.000Z</time>
      </trkpt>
      <trkpt lat="45.63243" lon="6.66669">
        <ele>2033.5999755859</ele>
        <time>2012-02-22T14:00:55.000Z</time>
      </trkpt>
      <trkpt lat="45.63246" lon="6.66664">
        <ele>2034.4000244141</ele>
        <time>2012-02-22T14:01:01.000Z</time>
      </trkpt>
      <trkpt lat="45.63251" lon="6.66659">
        <ele>2035.1999511719</ele>
        <time>2012-02-22T14:01:07.000Z</time>
      </trkpt>
      <trkpt lat="45.63253" lon="6.66658">
        <ele>2035.4000244141</ele>
        <time>2012-02-22T14:01:16.000Z</time>
      </trkpt>
      <trkpt lat="45.63253" lon="6.66648">
        <ele>2036.1999511719</ele>
        <time>2012-02-22T14:02:01.000Z</time>
      </trkpt>
      <trkpt lat="45.63255" lon="6.66634">
        <ele>2036.4000244141</ele>
        <time>2012-02-22T14:02:10.000Z</time>
      </trkpt>
      <trkpt lat="45.63255" lon="6.66631">
        <ele>2036.4000244141</ele>
        <time>2012-02-22T14:02:12.000Z</time>
      </trkpt>
      <trkpt lat="45.63257" lon="6.66623">
        <ele>2036.8000488281</ele>
        <time>2012-02-22T14:02:19.000Z</time>
      </trkpt>
      <trkpt lat="45.63259" lon="6.66613">
        <ele>2037.8000488281</ele>
        <time>2012-02-22T14:02:26.000Z</time>
      </trkpt>
      <trkpt lat="45.63261" lon="6.66605">
        <ele>2038.5999755859</ele>
        <time>2012-02-22T14:02:31.000Z</time>
      </trkpt>
      <trkpt lat="45.63262" lon="6.66601">
        <ele>2038.8000488281</ele>
        <time>2012-02-22T14:02:34.000Z</time>
      </trkpt>
      <trkpt lat="45.63264" lon="6.66592">
        <ele>2039.1999511719</ele>
        <time>2012-02-22T14:02:40.000Z</time>
      </trkpt>
      <trkpt lat="45.63265" lon="6.66587">
        <ele>2039.8000488281</ele>
        <time>2012-02-22T14:02:44.000Z</time>
      </trkpt>
      <trkpt lat="45.63264" lon="6.66578">
        <ele>2040.4000244141</ele>
        <time>2012-02-22T14:02:50.000Z</time>
      </trkpt>
      <trkpt lat="45.63263" lon="6.66569">
        <ele>2041.8000488281</ele>
        <time>2012-02-22T14:02:58.000Z</time>
      </trkpt>
      <trkpt lat="45.63263" lon="6.66561">
        <ele>2043.4000244141</ele>
        <time>2012-02-22T14:03:05.000Z</time>
      </trkpt>
      <trkpt lat="45.63263" lon="6.66554">
        <ele>2043.8000488281</ele>
        <time>2012-02-22T14:03:12.000Z</time>
      </trkpt>
      <trkpt lat="45.63264" lon="6.66546">
        <ele>2045.4000244141</ele>
        <time>2012-02-22T14:03:20.000Z</time>
      </trkpt>
      <trkpt lat="45.63264" lon="6.66535">
        <ele>2047</ele>
        <time>2012-02-22T14:03:30.000Z</time>
      </trkpt>
      <trkpt lat="45.63264" lon="6.66528">
        <ele>2048</ele>
        <time>2012-02-22T14:03:37.000Z</time>
      </trkpt>
      <trkpt lat="45.63264" lon="6.66521">
        <ele>2049.3999023438</ele>
        <time>2012-02-22T14:03:44.000Z</time>
      </trkpt>
      <trkpt lat="45.63264" lon="6.66514">
        <ele>2050</ele>
        <time>2012-02-22T14:03:52.000Z</time>
      </trkpt>
      <trkpt lat="45.63264" lon="6.6651">
        <ele>2050.6000976562</ele>
        <time>2012-02-22T14:03:58.000Z</time>
      </trkpt>
      <trkpt lat="45.63263" lon="6.66505">
        <ele>2052</ele>
        <time>2012-02-22T14:04:08.000Z</time>
      </trkpt>
      <trkpt lat="45.63263" lon="6.66504">
        <ele>2052.1999511719</ele>
        <time>2012-02-22T14:04:09.000Z</time>
      </trkpt>
      <trkpt lat="45.63262" lon="6.665">
        <ele>2052.6000976562</ele>
        <time>2012-02-22T14:04:12.000Z</time>
      </trkpt>
      <trkpt lat="45.63262" lon="6.6649">
        <ele>2053.3999023438</ele>
        <time>2012-02-22T14:04:21.000Z</time>
      </trkpt>
      <trkpt lat="45.6326" lon="6.66483">
        <ele>2054.6000976562</ele>
        <time>2012-02-22T14:04:27.000Z</time>
      </trkpt>
      <trkpt lat="45.63259" lon="6.66478">
        <ele>2054.3999023438</ele>
        <time>2012-02-22T14:04:32.000Z</time>
      </trkpt>
      <trkpt lat="45.63256" lon="6.66471">
        <ele>2055.1999511719</ele>
        <time>2012-02-22T14:04:40.000Z</time>
      </trkpt>
      <trkpt lat="45.6325" lon="6.66463">
        <ele>2056</ele>
        <time>2012-02-22T14:04:48.000Z</time>
      </trkpt>
      <trkpt lat="45.63246" lon="6.66457">
        <ele>2056.8000488281</ele>
        <time>2012-02-22T14:04:56.000Z</time>
      </trkpt>
      <trkpt lat="45.63246" lon="6.66453">
        <ele>2056.8000488281</ele>
        <time>2012-02-22T14:05:02.000Z</time>
      </trkpt>
      <trkpt lat="45.63243" lon="6.66448">
        <ele>2056.8000488281</ele>
        <time>2012-02-22T14:05:09.000Z</time>
      </trkpt>
      <trkpt lat="45.63243" lon="6.66445">
        <ele>2057.8000488281</ele>
        <time>2012-02-22T14:05:12.000Z</time>
      </trkpt>
      <trkpt lat="45.63245" lon="6.66437">
        <ele>2060</ele>
        <time>2012-02-22T14:05:20.000Z</time>
      </trkpt>
      <trkpt lat="45.63246" lon="6.66435">
        <ele>2060.3999023438</ele>
        <time>2012-02-22T14:05:23.000Z</time>
      </trkpt>
      <trkpt lat="45.63245" lon="6.66425">
        <ele>2062.1999511719</ele>
        <time>2012-02-22T14:05:31.000Z</time>
      </trkpt>
      <trkpt lat="45.63247" lon="6.66419">
        <ele>2062.8000488281</ele>
        <time>2012-02-22T14:05:37.000Z</time>
      </trkpt>
      <trkpt lat="45.63248" lon="6.66412">
        <ele>2064.1999511719</ele>
        <time>2012-02-22T14:05:44.000Z</time>
      </trkpt>
      <trkpt lat="45.63248" lon="6.66408">
        <ele>2065.1999511719</ele>
        <time>2012-02-22T14:05:50.000Z</time>
      </trkpt>
      <trkpt lat="45.63247" lon="6.66413">
        <ele>2065.3999023438</ele>
        <time>2012-02-22T14:06:05.000Z</time>
      </trkpt>
      <trkpt lat="45.63247" lon="6.66412">
        <ele>2065.8000488281</ele>
        <time>2012-02-22T14:06:11.000Z</time>
      </trkpt>
      <trkpt lat="45.63248" lon="6.66406">
        <ele>2067.1999511719</ele>
        <time>2012-02-22T14:06:19.000Z</time>
      </trkpt>
      <trkpt lat="45.63249" lon="6.66399">
        <ele>2067.8000488281</ele>
        <time>2012-02-22T14:06:25.000Z</time>
      </trkpt>
      <trkpt lat="45.63252" lon="6.66391">
        <ele>2069</ele>
        <time>2012-02-22T14:06:32.000Z</time>
      </trkpt>
      <trkpt lat="45.63256" lon="6.66377">
        <ele>2070.6000976562</ele>
        <time>2012-02-22T14:06:40.000Z</time>
      </trkpt>
      <trkpt lat="45.6326" lon="6.66365">
        <ele>2072.8000488281</ele>
        <time>2012-02-22T14:06:50.000Z</time>
      </trkpt>
      <trkpt lat="45.63261" lon="6.66364">
        <ele>2072.1999511719</ele>
        <time>2012-02-22T14:06:57.000Z</time>
      </trkpt>
      <trkpt lat="45.63264" lon="6.66354">
        <ele>2073.8000488281</ele>
        <time>2012-02-22T14:07:06.000Z</time>
      </trkpt>
      <trkpt lat="45.63267" lon="6.66347">
        <ele>2074.3999023438</ele>
        <time>2012-02-22T14:07:12.000Z</time>
      </trkpt>
      <trkpt lat="45.6327" lon="6.66338">
        <ele>2075.8000488281</ele>
        <time>2012-02-22T14:07:19.000Z</time>
      </trkpt>
      <trkpt lat="45.63272" lon="6.66332">
        <ele>2076</ele>
        <time>2012-02-22T14:07:23.000Z</time>
      </trkpt>
      <trkpt lat="45.63273" lon="6.66327">
        <ele>2076.6000976562</ele>
        <time>2012-02-22T14:07:26.000Z</time>
      </trkpt>
      <trkpt lat="45.63272" lon="6.66322">
        <ele>2076.6000976562</ele>
        <time>2012-02-22T14:07:29.000Z</time>
      </trkpt>
      <trkpt lat="45.63275" lon="6.66306">
        <ele>2077.1999511719</ele>
        <time>2012-02-22T14:07:39.000Z</time>
      </trkpt>
      <trkpt lat="45.63275" lon="6.66296">
        <ele>2077.6000976562</ele>
        <time>2012-02-22T14:07:46.000Z</time>
      </trkpt>
      <trkpt lat="45.63276" lon="6.66286">
        <ele>2076.8000488281</ele>
        <time>2012-02-22T14:07:53.000Z</time>
      </trkpt>
      <trkpt lat="45.63278" lon="6.66276">
        <ele>2077.8000488281</ele>
        <time>2012-02-22T14:08:00.000Z</time>
      </trkpt>
      <trkpt lat="45.6328" lon="6.66269">
        <ele>2079</ele>
        <time>2012-02-22T14:08:07.000Z</time>
      </trkpt>
      <trkpt lat="45.63282" lon="6.66262">
        <ele>2079.1999511719</ele>
        <time>2012-02-22T14:08:12.000Z</time>
      </trkpt>
      <trkpt lat="45.63283" lon="6.66256">
        <ele>2080.6000976562</ele>
        <time>2012-02-22T14:08:17.000Z</time>
      </trkpt>
      <trkpt lat="45.63284" lon="6.66252">
        <ele>2082</ele>
        <time>2012-02-22T14:08:21.000Z</time>
      </trkpt>
      <trkpt lat="45.63285" lon="6.66247">
        <ele>2082.6000976562</ele>
        <time>2012-02-22T14:08:26.000Z</time>
      </trkpt>
      <trkpt lat="45.63286" lon="6.66242">
        <ele>2082.8000488281</ele>
        <time>2012-02-22T14:08:30.000Z</time>
      </trkpt>
      <trkpt lat="45.63288" lon="6.66233">
        <ele>2084.1999511719</ele>
        <time>2012-02-22T14:08:37.000Z</time>
      </trkpt>
      <trkpt lat="45.6329" lon="6.66229">
        <ele>2084.8000488281</ele>
        <time>2012-02-22T14:08:41.000Z</time>
      </trkpt>
      <trkpt lat="45.63293" lon="6.66224">
        <ele>2085</ele>
        <time>2012-02-22T14:08:47.000Z</time>
      </trkpt>
      <trkpt lat="45.63296" lon="6.66216">
        <ele>2085.8000488281</ele>
        <time>2012-02-22T14:08:54.000Z</time>
      </trkpt>
      <trkpt lat="45.633" lon="6.66208">
        <ele>2086.1999511719</ele>
        <time>2012-02-22T14:09:01.000Z</time>
      </trkpt>
      <trkpt lat="45.63303" lon="6.66203">
        <ele>2086.8000488281</ele>
        <time>2012-02-22T14:09:06.000Z</time>
      </trkpt>
      <trkpt lat="45.63305" lon="6.66193">
        <ele>2088</ele>
        <time>2012-02-22T14:09:14.000Z</time>
      </trkpt>
      <trkpt lat="45.63305" lon="6.66186">
        <ele>2089.1999511719</ele>
        <time>2012-02-22T14:09:20.000Z</time>
      </trkpt>
      <trkpt lat="45.63308" lon="6.66179">
        <ele>2089.8000488281</ele>
        <time>2012-02-22T14:09:26.000Z</time>
      </trkpt>
      <trkpt lat="45.63309" lon="6.66174">
        <ele>2090.6000976562</ele>
        <time>2012-02-22T14:09:31.000Z</time>
      </trkpt>
      <trkpt lat="45.6331" lon="6.66172">
        <ele>2091</ele>
        <time>2012-02-22T14:09:34.000Z</time>
      </trkpt>
      <trkpt lat="45.6331" lon="6.66162">
        <ele>2092.8000488281</ele>
        <time>2012-02-22T14:09:43.000Z</time>
      </trkpt>
      <trkpt lat="45.63311" lon="6.66156">
        <ele>2093.3999023438</ele>
        <time>2012-02-22T14:09:48.000Z</time>
      </trkpt>
      <trkpt lat="45.63313" lon="6.66152">
        <ele>2093.8000488281</ele>
        <time>2012-02-22T14:09:53.000Z</time>
      </trkpt>
      <trkpt lat="45.63313" lon="6.66142">
        <ele>2094.8000488281</ele>
        <time>2012-02-22T14:10:01.000Z</time>
      </trkpt>
      <trkpt lat="45.63314" lon="6.66138">
        <ele>2095.8000488281</ele>
        <time>2012-02-22T14:10:05.000Z</time>
      </trkpt>
      <trkpt lat="45.63314" lon="6.66133">
        <ele>2095.8000488281</ele>
        <time>2012-02-22T14:10:10.000Z</time>
      </trkpt>
      <trkpt lat="45.63314" lon="6.6613">
        <ele>2096.6000976562</ele>
        <time>2012-02-22T14:10:14.000Z</time>
      </trkpt>
      <trkpt lat="45.63315" lon="6.66125">
        <ele>2098</ele>
        <time>2012-02-22T14:10:19.000Z</time>
      </trkpt>
      <trkpt lat="45.63314" lon="6.66118">
        <ele>2098</ele>
        <time>2012-02-22T14:10:26.000Z</time>
      </trkpt>
      <trkpt lat="45.63314" lon="6.66113">
        <ele>2098.3999023438</ele>
        <time>2012-02-22T14:10:31.000Z</time>
      </trkpt>
      <trkpt lat="45.63313" lon="6.66105">
        <ele>2099.1999511719</ele>
        <time>2012-02-22T14:10:37.000Z</time>
      </trkpt>
      <trkpt lat="45.6331" lon="6.66097">
        <ele>2099.3999023438</ele>
        <time>2012-02-22T14:10:43.000Z</time>
      </trkpt>
      <trkpt lat="45.6331" lon="6.6609">
        <ele>2099.8000488281</ele>
        <time>2012-02-22T14:10:49.000Z</time>
      </trkpt>
      <trkpt lat="45.6331" lon="6.66089">
        <ele>2099.6000976562</ele>
        <time>2012-02-22T14:10:51.000Z</time>
      </trkpt>
      <trkpt lat="45.63311" lon="6.66083">
        <ele>2100.3999023438</ele>
        <time>2012-02-22T14:10:56.000Z</time>
      </trkpt>
      <trkpt lat="45.63312" lon="6.66079">
        <ele>2101.1999511719</ele>
        <time>2012-02-22T14:11:00.000Z</time>
      </trkpt>
      <trkpt lat="45.63313" lon="6.66073">
        <ele>2100.3999023438</ele>
        <time>2012-02-22T14:11:06.000Z</time>
      </trkpt>
      <trkpt lat="45.63316" lon="6.66064">
        <ele>2098.6000976562</ele>
        <time>2012-02-22T14:11:12.000Z</time>
      </trkpt>
      <trkpt lat="45.63319" lon="6.66055">
        <ele>2098</ele>
        <time>2012-02-22T14:11:19.000Z</time>
      </trkpt>
      <trkpt lat="45.63323" lon="6.66048">
        <ele>2098</ele>
        <time>2012-02-22T14:11:26.000Z</time>
      </trkpt>
      <trkpt lat="45.63326" lon="6.66044">
        <ele>2098.1999511719</ele>
        <time>2012-02-22T14:11:31.000Z</time>
      </trkpt>
      <trkpt lat="45.6333" lon="6.66037">
        <ele>2098.6000976562</ele>
        <time>2012-02-22T14:11:39.000Z</time>
      </trkpt>
      <trkpt lat="45.63332" lon="6.66029">
        <ele>2099.6000976562</ele>
        <time>2012-02-22T14:11:47.000Z</time>
      </trkpt>
      <trkpt lat="45.63333" lon="6.66025">
        <ele>2100.1999511719</ele>
        <time>2012-02-22T14:11:52.000Z</time>
      </trkpt>
      <trkpt lat="45.63334" lon="6.66019">
        <ele>2100.8000488281</ele>
        <time>2012-02-22T14:11:58.000Z</time>
      </trkpt>
      <trkpt lat="45.63335" lon="6.66012">
        <ele>2101.3999023438</ele>
        <time>2012-02-22T14:12:04.000Z</time>
      </trkpt>
      <trkpt lat="45.63336" lon="6.66004">
        <ele>2101.3999023438</ele>
        <time>2012-02-22T14:12:11.000Z</time>
      </trkpt>
      <trkpt lat="45.63337" lon="6.65997">
        <ele>2102.3999023438</ele>
        <time>2012-02-22T14:12:18.000Z</time>
      </trkpt>
      <trkpt lat="45.63339" lon="6.65991">
        <ele>2103.6000976562</ele>
        <time>2012-02-22T14:12:25.000Z</time>
      </trkpt>
      <trkpt lat="45.63341" lon="6.65986">
        <ele>2104.8000488281</ele>
        <time>2012-02-22T14:12:31.000Z</time>
      </trkpt>
      <trkpt lat="45.63342" lon="6.65984">
        <ele>2105.6000976562</ele>
        <time>2012-02-22T14:12:42.000Z</time>
      </trkpt>
      <trkpt lat="45.63345" lon="6.65981">
        <ele>2106.3999023438</ele>
        <time>2012-02-22T14:12:47.000Z</time>
      </trkpt>
      <trkpt lat="45.63348" lon="6.65974">
        <ele>2107.1999511719</ele>
        <time>2012-02-22T14:12:55.000Z</time>
      </trkpt>
      <trkpt lat="45.63349" lon="6.6597">
        <ele>2108.1999511719</ele>
        <time>2012-02-22T14:13:01.000Z</time>
      </trkpt>
      <trkpt lat="45.6335" lon="6.65967">
        <ele>2109</ele>
        <time>2012-02-22T14:13:05.000Z</time>
      </trkpt>
      <trkpt lat="45.63353" lon="6.65962">
        <ele>2110.3999023438</ele>
        <time>2012-02-22T14:13:10.000Z</time>
      </trkpt>
      <trkpt lat="45.63353" lon="6.65958">
        <ele>2111.1999511719</ele>
        <time>2012-02-22T14:13:15.000Z</time>
      </trkpt>
      <trkpt lat="45.63341" lon="6.65957">
        <ele>2112.3999023438</ele>
        <time>2012-02-22T14:15:00.000Z</time>
      </trkpt>
      <trkpt lat="45.63342" lon="6.65954">
        <ele>2113.3999023438</ele>
        <time>2012-02-22T14:15:05.000Z</time>
      </trkpt>
      <trkpt lat="45.63342" lon="6.65948">
        <ele>2114</ele>
        <time>2012-02-22T14:15:11.000Z</time>
      </trkpt>
      <trkpt lat="45.63343" lon="6.65944">
        <ele>2115.1999511719</ele>
        <time>2012-02-22T14:15:15.000Z</time>
      </trkpt>
      <trkpt lat="45.63342" lon="6.65937">
        <ele>2115.6000976562</ele>
        <time>2012-02-22T14:15:21.000Z</time>
      </trkpt>
      <trkpt lat="45.63342" lon="6.65934">
        <ele>2115.6000976562</ele>
        <time>2012-02-22T14:15:25.000Z</time>
      </trkpt>
      <trkpt lat="45.6334" lon="6.65924">
        <ele>2117.8000488281</ele>
        <time>2012-02-22T14:15:33.000Z</time>
      </trkpt>
      <trkpt lat="45.63337" lon="6.65919">
        <ele>2118.1999511719</ele>
        <time>2012-02-22T14:15:39.000Z</time>
      </trkpt>
      <trkpt lat="45.63335" lon="6.65914">
        <ele>2119.6000976562</ele>
        <time>2012-02-22T14:15:45.000Z</time>
      </trkpt>
      <trkpt lat="45.63332" lon="6.65909">
        <ele>2119.8000488281</ele>
        <time>2012-02-22T14:15:52.000Z</time>
      </trkpt>
      <trkpt lat="45.63331" lon="6.65903">
        <ele>2120.8000488281</ele>
        <time>2012-02-22T14:15:58.000Z</time>
      </trkpt>
      <trkpt lat="45.63329" lon="6.65895">
        <ele>2122.1999511719</ele>
        <time>2012-02-22T14:16:07.000Z</time>
      </trkpt>
      <trkpt lat="45.63328" lon="6.6589">
        <ele>2122.6000976562</ele>
        <time>2012-02-22T14:16:12.000Z</time>
      </trkpt>
      <trkpt lat="45.63327" lon="6.65885">
        <ele>2124.3999023438</ele>
        <time>2012-02-22T14:16:19.000Z</time>
      </trkpt>
      <trkpt lat="45.63326" lon="6.65881">
        <ele>2125.1999511719</ele>
        <time>2012-02-22T14:16:25.000Z</time>
      </trkpt>
      <trkpt lat="45.63324" lon="6.65874">
        <ele>2127</ele>
        <time>2012-02-22T14:16:33.000Z</time>
      </trkpt>
      <trkpt lat="45.63323" lon="6.6587">
        <ele>2126.8000488281</ele>
        <time>2012-02-22T14:16:38.000Z</time>
      </trkpt>
      <trkpt lat="45.63323" lon="6.65865">
        <ele>2127.3999023438</ele>
        <time>2012-02-22T14:16:43.000Z</time>
      </trkpt>
      <trkpt lat="45.63321" lon="6.65861">
        <ele>2129.3999023438</ele>
        <time>2012-02-22T14:16:49.000Z</time>
      </trkpt>
      <trkpt lat="45.63319" lon="6.65856">
        <ele>2129.8000488281</ele>
        <time>2012-02-22T14:16:55.000Z</time>
      </trkpt>
      <trkpt lat="45.63316" lon="6.6585">
        <ele>2131.6000976562</ele>
        <time>2012-02-22T14:17:03.000Z</time>
      </trkpt>
      <trkpt lat="45.63316" lon="6.6585">
        <ele>2131</ele>
        <time>2012-02-22T14:17:14.000Z</time>
      </trkpt>
      <trkpt lat="45.63313" lon="6.65845">
        <ele>2132.3999023438</ele>
        <time>2012-02-22T14:17:20.000Z</time>
      </trkpt>
      <trkpt lat="45.63311" lon="6.65839">
        <ele>2133.3999023438</ele>
        <time>2012-02-22T14:17:26.000Z</time>
      </trkpt>
      <trkpt lat="45.6331" lon="6.65832">
        <ele>2135</ele>
        <time>2012-02-22T14:17:32.000Z</time>
      </trkpt>
      <trkpt lat="45.63309" lon="6.65826">
        <ele>2135.6000976562</ele>
        <time>2012-02-22T14:17:39.000Z</time>
      </trkpt>
      <trkpt lat="45.63308" lon="6.65824">
        <ele>2135.3999023438</ele>
        <time>2012-02-22T14:17:43.000Z</time>
      </trkpt>
      <trkpt lat="45.63306" lon="6.6582">
        <ele>2136.6000976562</ele>
        <time>2012-02-22T14:17:48.000Z</time>
      </trkpt>
      <trkpt lat="45.63303" lon="6.65816">
        <ele>2137.6000976562</ele>
        <time>2012-02-22T14:17:55.000Z</time>
      </trkpt>
      <trkpt lat="45.633" lon="6.65811">
        <ele>2138.8000488281</ele>
        <time>2012-02-22T14:18:00.000Z</time>
      </trkpt>
      <trkpt lat="45.63297" lon="6.65806">
        <ele>2140</ele>
        <time>2012-02-22T14:18:07.000Z</time>
      </trkpt>
      <trkpt lat="45.63295" lon="6.65802">
        <ele>2140.6000976562</ele>
        <time>2012-02-22T14:18:14.000Z</time>
      </trkpt>
      <trkpt lat="45.63287" lon="6.65797">
        <ele>2141.8000488281</ele>
        <time>2012-02-22T14:18:25.000Z</time>
      </trkpt>
      <trkpt lat="45.63283" lon="6.65795">
        <ele>2141.8000488281</ele>
        <time>2012-02-22T14:18:32.000Z</time>
      </trkpt>
      <trkpt lat="45.63277" lon="6.65791">
        <ele>2142.6000976562</ele>
        <time>2012-02-22T14:18:41.000Z</time>
      </trkpt>
      <trkpt lat="45.63272" lon="6.65787">
        <ele>2144.1999511719</ele>
        <time>2012-02-22T14:18:48.000Z</time>
      </trkpt>
      <trkpt lat="45.63268" lon="6.65783">
        <ele>2145.3999023438</ele>
        <time>2012-02-22T14:18:55.000Z</time>
      </trkpt>
      <trkpt lat="45.63265" lon="6.6578">
        <ele>2145.6000976562</ele>
        <time>2012-02-22T14:19:01.000Z</time>
      </trkpt>
      <trkpt lat="45.63263" lon="6.65777">
        <ele>2146.3999023438</ele>
        <time>2012-02-22T14:19:06.000Z</time>
      </trkpt>
      <trkpt lat="45.6326" lon="6.65775">
        <ele>2147.8000488281</ele>
        <time>2012-02-22T14:19:13.000Z</time>
      </trkpt>
      <trkpt lat="45.63255" lon="6.65769">
        <ele>2148</ele>
        <time>2012-02-22T14:19:21.000Z</time>
      </trkpt>
      <trkpt lat="45.63251" lon="6.65764">
        <ele>2149.1999511719</ele>
        <time>2012-02-22T14:19:29.000Z</time>
      </trkpt>
      <trkpt lat="45.63249" lon="6.65763">
        <ele>2149.8000488281</ele>
        <time>2012-02-22T14:19:31.000Z</time>
      </trkpt>
      <trkpt lat="45.63246" lon="6.65764">
        <ele>2150.8000488281</ele>
        <time>2012-02-22T14:19:35.000Z</time>
      </trkpt>
      <trkpt lat="45.63241" lon="6.65758">
        <ele>2152.8000488281</ele>
        <time>2012-02-22T14:19:44.000Z</time>
      </trkpt>
      <trkpt lat="45.63238" lon="6.65755">
        <ele>2153.8000488281</ele>
        <time>2012-02-22T14:19:51.000Z</time>
      </trkpt>
      <trkpt lat="45.63234" lon="6.6575">
        <ele>2154.6000976562</ele>
        <time>2012-02-22T14:20:00.000Z</time>
      </trkpt>
      <trkpt lat="45.6323" lon="6.65745">
        <ele>2157.1999511719</ele>
        <time>2012-02-22T14:20:09.000Z</time>
      </trkpt>
      <trkpt lat="45.63227" lon="6.65742">
        <ele>2158.1999511719</ele>
        <time>2012-02-22T14:20:15.000Z</time>
      </trkpt>
      <trkpt lat="45.63224" lon="6.65741">
        <ele>2159.1999511719</ele>
        <time>2012-02-22T14:20:20.000Z</time>
      </trkpt>
      <trkpt lat="45.63221" lon="6.65736">
        <ele>2160.3999023438</ele>
        <time>2012-02-22T14:20:27.000Z</time>
      </trkpt>
      <trkpt lat="45.63219" lon="6.65733">
        <ele>2161.3999023438</ele>
        <time>2012-02-22T14:20:31.000Z</time>
      </trkpt>
      <trkpt lat="45.63216" lon="6.65731">
        <ele>2161.8000488281</ele>
        <time>2012-02-22T14:20:36.000Z</time>
      </trkpt>
      <trkpt lat="45.63213" lon="6.65725">
        <ele>2163</ele>
        <time>2012-02-22T14:20:42.000Z</time>
      </trkpt>
      <trkpt lat="45.6321" lon="6.65721">
        <ele>2163.6000976562</ele>
        <time>2012-02-22T14:20:48.000Z</time>
      </trkpt>
      <trkpt lat="45.63208" lon="6.65719">
        <ele>2165.1999511719</ele>
        <time>2012-02-22T14:20:53.000Z</time>
      </trkpt>
      <trkpt lat="45.63206" lon="6.65717">
        <ele>2165.8000488281</ele>
        <time>2012-02-22T14:20:58.000Z</time>
      </trkpt>
      <trkpt lat="45.63204" lon="6.65715">
        <ele>2166.3999023438</ele>
        <time>2012-02-22T14:21:02.000Z</time>
      </trkpt>
      <trkpt lat="45.632" lon="6.65712">
        <ele>2167.6000976562</ele>
        <time>2012-02-22T14:21:09.000Z</time>
      </trkpt>
      <trkpt lat="45.63198" lon="6.6571">
        <ele>2168.3999023438</ele>
        <time>2012-02-22T14:21:14.000Z</time>
      </trkpt>
      <trkpt lat="45.63193" lon="6.65711">
        <ele>2169</ele>
        <time>2012-02-22T14:21:22.000Z</time>
      </trkpt>
      <trkpt lat="45.63186" lon="6.65712">
        <ele>2171.6000976562</ele>
        <time>2012-02-22T14:21:31.000Z</time>
      </trkpt>
      <trkpt lat="45.63181" lon="6.65714">
        <ele>2173</ele>
        <time>2012-02-22T14:21:38.000Z</time>
      </trkpt>
      <trkpt lat="45.63182" lon="6.6571">
        <ele>2173</ele>
        <time>2012-02-22T14:21:44.000Z</time>
      </trkpt>
      <trkpt lat="45.63184" lon="6.65703">
        <ele>2174.8000488281</ele>
        <time>2012-02-22T14:21:53.000Z</time>
      </trkpt>
      <trkpt lat="45.63185" lon="6.65701">
        <ele>2175.3999023438</ele>
        <time>2012-02-22T14:21:57.000Z</time>
      </trkpt>
      <trkpt lat="45.63187" lon="6.65695">
        <ele>2176.6000976562</ele>
        <time>2012-02-22T14:22:04.000Z</time>
      </trkpt>
      <trkpt lat="45.63188" lon="6.6569">
        <ele>2177.1999511719</ele>
        <time>2012-02-22T14:22:13.000Z</time>
      </trkpt>
      <trkpt lat="45.63192" lon="6.65685">
        <ele>2179</ele>
        <time>2012-02-22T14:22:21.000Z</time>
      </trkpt>
      <trkpt lat="45.63193" lon="6.65682">
        <ele>2179.3999023438</ele>
        <time>2012-02-22T14:22:26.000Z</time>
      </trkpt>
      <trkpt lat="45.63189" lon="6.65681">
        <ele>2180.3999023438</ele>
        <time>2012-02-22T14:22:35.000Z</time>
      </trkpt>
      <trkpt lat="45.63185" lon="6.65683">
        <ele>2182</ele>
        <time>2012-02-22T14:22:42.000Z</time>
      </trkpt>
      <trkpt lat="45.63182" lon="6.65685">
        <ele>2182.8000488281</ele>
        <time>2012-02-22T14:22:49.000Z</time>
      </trkpt>
      <trkpt lat="45.63179" lon="6.65686">
        <ele>2183.6000976562</ele>
        <time>2012-02-22T14:22:55.000Z</time>
      </trkpt>
      <trkpt lat="45.63175" lon="6.65688">
        <ele>2184.3999023438</ele>
        <time>2012-02-22T14:23:02.000Z</time>
      </trkpt>
      <trkpt lat="45.63174" lon="6.65687">
        <ele>2185</ele>
        <time>2012-02-22T14:23:10.000Z</time>
      </trkpt>
      <trkpt lat="45.63173" lon="6.65683">
        <ele>2186.1999511719</ele>
        <time>2012-02-22T14:23:14.000Z</time>
      </trkpt>
      <trkpt lat="45.63174" lon="6.65679">
        <ele>2186.6000976562</ele>
        <time>2012-02-22T14:23:20.000Z</time>
      </trkpt>
      <trkpt lat="45.63178" lon="6.65674">
        <ele>2186.8000488281</ele>
        <time>2012-02-22T14:23:28.000Z</time>
      </trkpt>
      <trkpt lat="45.63178" lon="6.65673">
        <ele>2188.6000976562</ele>
        <time>2012-02-22T14:23:31.000Z</time>
      </trkpt>
      <trkpt lat="45.6318" lon="6.65666">
        <ele>2189.3999023438</ele>
        <time>2012-02-22T14:23:41.000Z</time>
      </trkpt>
      <trkpt lat="45.6318" lon="6.65663">
        <ele>2190.8000488281</ele>
        <time>2012-02-22T14:23:47.000Z</time>
      </trkpt>
      <trkpt lat="45.63183" lon="6.65658">
        <ele>2192</ele>
        <time>2012-02-22T14:23:56.000Z</time>
      </trkpt>
      <trkpt lat="45.63188" lon="6.65656">
        <ele>2194.1999511719</ele>
        <time>2012-02-22T14:24:05.000Z</time>
      </trkpt>
      <trkpt lat="45.63192" lon="6.65654">
        <ele>2194.6000976562</ele>
        <time>2012-02-22T14:24:11.000Z</time>
      </trkpt>
      <trkpt lat="45.63188" lon="6.6565">
        <ele>2196.6000976562</ele>
        <time>2012-02-22T14:24:18.000Z</time>
      </trkpt>
      <trkpt lat="45.63184" lon="6.65644">
        <ele>2197.8000488281</ele>
        <time>2012-02-22T14:24:26.000Z</time>
      </trkpt>
      <trkpt lat="45.6318" lon="6.65641">
        <ele>2199</ele>
        <time>2012-02-22T14:24:34.000Z</time>
      </trkpt>
      <trkpt lat="45.63175" lon="6.65637">
        <ele>2201.3999023438</ele>
        <time>2012-02-22T14:24:43.000Z</time>
      </trkpt>
      <trkpt lat="45.63175" lon="6.65636">
        <ele>2201.8000488281</ele>
        <time>2012-02-22T14:24:44.000Z</time>
      </trkpt>
      <trkpt lat="45.63174" lon="6.65628">
        <ele>2204</ele>
        <time>2012-02-22T14:24:54.000Z</time>
      </trkpt>
      <trkpt lat="45.63176" lon="6.65623">
        <ele>2204.6000976562</ele>
        <time>2012-02-22T14:25:01.000Z</time>
      </trkpt>
      <trkpt lat="45.63175" lon="6.65617">
        <ele>2206.1999511719</ele>
        <time>2012-02-22T14:25:09.000Z</time>
      </trkpt>
      <trkpt lat="45.63174" lon="6.65612">
        <ele>2206.8000488281</ele>
        <time>2012-02-22T14:25:15.000Z</time>
      </trkpt>
      <trkpt lat="45.63174" lon="6.65607">
        <ele>2207.6000976562</ele>
        <time>2012-02-22T14:25:21.000Z</time>
      </trkpt>
      <trkpt lat="45.63171" lon="6.65602">
        <ele>2209.3999023438</ele>
        <time>2012-02-22T14:25:28.000Z</time>
      </trkpt>
      <trkpt lat="45.63166" lon="6.65598">
        <ele>2211.1999511719</ele>
        <time>2012-02-22T14:25:37.000Z</time>
      </trkpt>
      <trkpt lat="45.63161" lon="6.65593">
        <ele>2212.8000488281</ele>
        <time>2012-02-22T14:25:46.000Z</time>
      </trkpt>
      <trkpt lat="45.63158" lon="6.65589">
        <ele>2214</ele>
        <time>2012-02-22T14:25:54.000Z</time>
      </trkpt>
      <trkpt lat="45.63155" lon="6.65583">
        <ele>2215.3999023438</ele>
        <time>2012-02-22T14:26:02.000Z</time>
      </trkpt>
      <trkpt lat="45.63151" lon="6.65578">
        <ele>2217.8000488281</ele>
        <time>2012-02-22T14:26:10.000Z</time>
      </trkpt>
      <trkpt lat="45.63147" lon="6.65575">
        <ele>2218.3999023438</ele>
        <time>2012-02-22T14:26:18.000Z</time>
      </trkpt>
      <trkpt lat="45.63143" lon="6.65572">
        <ele>2219.1999511719</ele>
        <time>2012-02-22T14:26:26.000Z</time>
      </trkpt>
      <trkpt lat="45.63142" lon="6.65571">
        <ele>2220</ele>
        <time>2012-02-22T14:28:46.000Z</time>
      </trkpt>
      <trkpt lat="45.6314" lon="6.65568">
        <ele>2220.8000488281</ele>
        <time>2012-02-22T14:28:55.000Z</time>
      </trkpt>
      <trkpt lat="45.63138" lon="6.65566">
        <ele>2221.3999023438</ele>
        <time>2012-02-22T14:28:58.000Z</time>
      </trkpt>
      <trkpt lat="45.63135" lon="6.65564">
        <ele>2222</ele>
        <time>2012-02-22T14:29:04.000Z</time>
      </trkpt>
      <trkpt lat="45.63131" lon="6.65558">
        <ele>2224</ele>
        <time>2012-02-22T14:29:13.000Z</time>
      </trkpt>
      <trkpt lat="45.63128" lon="6.65551">
        <ele>2224.6000976562</ele>
        <time>2012-02-22T14:29:22.000Z</time>
      </trkpt>
      <trkpt lat="45.63126" lon="6.65547">
        <ele>2225.8000488281</ele>
        <time>2012-02-22T14:29:27.000Z</time>
      </trkpt>
      <trkpt lat="45.63121" lon="6.65539">
        <ele>2227.3999023438</ele>
        <time>2012-02-22T14:29:38.000Z</time>
      </trkpt>
      <trkpt lat="45.63121" lon="6.65539">
        <ele>2227.8000488281</ele>
        <time>2012-02-22T14:29:39.000Z</time>
      </trkpt>
      <trkpt lat="45.63117" lon="6.65532">
        <ele>2228.6000976562</ele>
        <time>2012-02-22T14:29:48.000Z</time>
      </trkpt>
      <trkpt lat="45.63114" lon="6.65525">
        <ele>2230.1999511719</ele>
        <time>2012-02-22T14:29:56.000Z</time>
      </trkpt>
      <trkpt lat="45.63111" lon="6.65518">
        <ele>2231.3999023438</ele>
        <time>2012-02-22T14:30:04.000Z</time>
      </trkpt>
      <trkpt lat="45.63106" lon="6.65508">
        <ele>2233.8000488281</ele>
        <time>2012-02-22T14:30:16.000Z</time>
      </trkpt>
      <trkpt lat="45.63105" lon="6.65508">
        <ele>2233.8000488281</ele>
        <time>2012-02-22T14:30:20.000Z</time>
      </trkpt>
      <trkpt lat="45.63107" lon="6.65509">
        <ele>2234.1999511719</ele>
        <time>2012-02-22T14:30:23.000Z</time>
      </trkpt>
      <trkpt lat="45.63105" lon="6.6552">
        <ele>2235.8000488281</ele>
        <time>2012-02-22T14:30:32.000Z</time>
      </trkpt>
      <trkpt lat="45.63103" lon="6.65528">
        <ele>2236.8000488281</ele>
        <time>2012-02-22T14:30:40.000Z</time>
      </trkpt>
      <trkpt lat="45.63102" lon="6.65536">
        <ele>2238.1999511719</ele>
        <time>2012-02-22T14:30:48.000Z</time>
      </trkpt>
      <trkpt lat="45.631" lon="6.65547">
        <ele>2239.3999023438</ele>
        <time>2012-02-22T14:30:59.000Z</time>
      </trkpt>
      <trkpt lat="45.63098" lon="6.65554">
        <ele>2241</ele>
        <time>2012-02-22T14:31:07.000Z</time>
      </trkpt>
      <trkpt lat="45.63097" lon="6.65558">
        <ele>2243</ele>
        <time>2012-02-22T14:31:16.000Z</time>
      </trkpt>
      <trkpt lat="45.63095" lon="6.65553">
        <ele>2243.8000488281</ele>
        <time>2012-02-22T14:31:24.000Z</time>
      </trkpt>
      <trkpt lat="45.63092" lon="6.65545">
        <ele>2244.3999023438</ele>
        <time>2012-02-22T14:31:33.000Z</time>
      </trkpt>
      <trkpt lat="45.63089" lon="6.65537">
        <ele>2246.3999023438</ele>
        <time>2012-02-22T14:31:43.000Z</time>
      </trkpt>
      <trkpt lat="45.63086" lon="6.6553">
        <ele>2249.1999511719</ele>
        <time>2012-02-22T14:31:52.000Z</time>
      </trkpt>
      <trkpt lat="45.63083" lon="6.65522">
        <ele>2250.6000976562</ele>
        <time>2012-02-22T14:32:02.000Z</time>
      </trkpt>
      <trkpt lat="45.63081" lon="6.65515">
        <ele>2251.3999023438</ele>
        <time>2012-02-22T14:32:09.000Z</time>
      </trkpt>
      <trkpt lat="45.63078" lon="6.65505">
        <ele>2252.3999023438</ele>
        <time>2012-02-22T14:32:19.000Z</time>
      </trkpt>
      <trkpt lat="45.63075" lon="6.65497">
        <ele>2253.3999023438</ele>
        <time>2012-02-22T14:32:28.000Z</time>
      </trkpt>
      <trkpt lat="45.63072" lon="6.65487">
        <ele>2254.1999511719</ele>
        <time>2012-02-22T14:32:37.000Z</time>
      </trkpt>
      <trkpt lat="45.63069" lon="6.6548">
        <ele>2256.6000976562</ele>
        <time>2012-02-22T14:32:46.000Z</time>
      </trkpt>
      <trkpt lat="45.63068" lon="6.65473">
        <ele>2257.3999023438</ele>
        <time>2012-02-22T14:32:53.000Z</time>
      </trkpt>
      <trkpt lat="45.63066" lon="6.65463">
        <ele>2258.6000976562</ele>
        <time>2012-02-22T14:33:01.000Z</time>
      </trkpt>
      <trkpt lat="45.63064" lon="6.65453">
        <ele>2261.6000976562</ele>
        <time>2012-02-22T14:33:12.000Z</time>
      </trkpt>
      <trkpt lat="45.63063" lon="6.65447">
        <ele>2262.3999023438</ele>
        <time>2012-02-22T14:33:19.000Z</time>
      </trkpt>
      <trkpt lat="45.63061" lon="6.65444">
        <ele>2263.8000488281</ele>
        <time>2012-02-22T14:33:25.000Z</time>
      </trkpt>
      <trkpt lat="45.6306" lon="6.65437">
        <ele>2265.1999511719</ele>
        <time>2012-02-22T14:33:33.000Z</time>
      </trkpt>
      <trkpt lat="45.63059" lon="6.65431">
        <ele>2265.3999023438</ele>
        <time>2012-02-22T14:33:41.000Z</time>
      </trkpt>
      <trkpt lat="45.63057" lon="6.65427">
        <ele>2267.6000976562</ele>
        <time>2012-02-22T14:33:47.000Z</time>
      </trkpt>
      <trkpt lat="45.63055" lon="6.65421">
        <ele>2269.8000488281</ele>
        <time>2012-02-22T14:33:57.000Z</time>
      </trkpt>
      <trkpt lat="45.63053" lon="6.65416">
        <ele>2270.3999023438</ele>
        <time>2012-02-22T14:34:04.000Z</time>
      </trkpt>
      <trkpt lat="45.6305" lon="6.65408">
        <ele>2272.3999023438</ele>
        <time>2012-02-22T14:34:14.000Z</time>
      </trkpt>
      <trkpt lat="45.63048" lon="6.65405">
        <ele>2273.8000488281</ele>
        <time>2012-02-22T14:34:21.000Z</time>
      </trkpt>
      <trkpt lat="45.63048" lon="6.65404">
        <ele>2274.8000488281</ele>
        <time>2012-02-22T14:34:23.000Z</time>
      </trkpt>
      <trkpt lat="45.63047" lon="6.65401">
        <ele>2275</ele>
        <time>2012-02-22T14:34:28.000Z</time>
      </trkpt>
      <trkpt lat="45.63045" lon="6.65397">
        <ele>2276.1999511719</ele>
        <time>2012-02-22T14:34:35.000Z</time>
      </trkpt>
      <trkpt lat="45.63043" lon="6.65391">
        <ele>2278.1999511719</ele>
        <time>2012-02-22T14:34:43.000Z</time>
      </trkpt>
      <trkpt lat="45.63041" lon="6.65385">
        <ele>2279.1999511719</ele>
        <time>2012-02-22T14:34:51.000Z</time>
      </trkpt>
      <trkpt lat="45.6304" lon="6.6538">
        <ele>2280.8000488281</ele>
        <time>2012-02-22T14:34:58.000Z</time>
      </trkpt>
      <trkpt lat="45.63039" lon="6.65374">
        <ele>2281.6000976562</ele>
        <time>2012-02-22T14:35:05.000Z</time>
      </trkpt>
      <trkpt lat="45.63039" lon="6.65371">
        <ele>2282.1999511719</ele>
        <time>2012-02-22T14:35:13.000Z</time>
      </trkpt>
      <trkpt lat="45.63038" lon="6.65366">
        <ele>2282.8000488281</ele>
        <time>2012-02-22T14:35:19.000Z</time>
      </trkpt>
      <trkpt lat="45.63037" lon="6.65361">
        <ele>2284</ele>
        <time>2012-02-22T14:35:26.000Z</time>
      </trkpt>
      <trkpt lat="45.63036" lon="6.65358">
        <ele>2285.3999023438</ele>
        <time>2012-02-22T14:35:29.000Z</time>
      </trkpt>
      <trkpt lat="45.63035" lon="6.65349">
        <ele>2286.1999511719</ele>
        <time>2012-02-22T14:35:39.000Z</time>
      </trkpt>
      <trkpt lat="45.63035" lon="6.65344">
        <ele>2286.8000488281</ele>
        <time>2012-02-22T14:35:45.000Z</time>
      </trkpt>
      <trkpt lat="45.63034" lon="6.65337">
        <ele>2288.1999511719</ele>
        <time>2012-02-22T14:35:52.000Z</time>
      </trkpt>
      <trkpt lat="45.6303" lon="6.65334">
        <ele>2289.3999023438</ele>
        <time>2012-02-22T14:36:00.000Z</time>
      </trkpt>
      <trkpt lat="45.63027" lon="6.65332">
        <ele>2290.6000976562</ele>
        <time>2012-02-22T14:36:05.000Z</time>
      </trkpt>
      <trkpt lat="45.63024" lon="6.65331">
        <ele>2291.3999023438</ele>
        <time>2012-02-22T14:36:10.000Z</time>
      </trkpt>
      <trkpt lat="45.63021" lon="6.65331">
        <ele>2292.3999023438</ele>
        <time>2012-02-22T14:36:15.000Z</time>
      </trkpt>
      <trkpt lat="45.63017" lon="6.65332">
        <ele>2293.6000976562</ele>
        <time>2012-02-22T14:36:21.000Z</time>
      </trkpt>
      <trkpt lat="45.63014" lon="6.65332">
        <ele>2294.6000976562</ele>
        <time>2012-02-22T14:36:25.000Z</time>
      </trkpt>
      <trkpt lat="45.63009" lon="6.65332">
        <ele>2295.1999511719</ele>
        <time>2012-02-22T14:36:34.000Z</time>
      </trkpt>
      <trkpt lat="45.63005" lon="6.65331">
        <ele>2296.3999023438</ele>
        <time>2012-02-22T14:36:40.000Z</time>
      </trkpt>
      <trkpt lat="45.63004" lon="6.6533">
        <ele>2296.8000488281</ele>
        <time>2012-02-22T14:36:42.000Z</time>
      </trkpt>
      <trkpt lat="45.62999" lon="6.65321">
        <ele>2298.8000488281</ele>
        <time>2012-02-22T14:36:52.000Z</time>
      </trkpt>
      <trkpt lat="45.62993" lon="6.65313">
        <ele>2301</ele>
        <time>2012-02-22T14:37:02.000Z</time>
      </trkpt>
      <trkpt lat="45.62988" lon="6.65307">
        <ele>2301.8000488281</ele>
        <time>2012-02-22T14:37:11.000Z</time>
      </trkpt>
      <trkpt lat="45.62982" lon="6.65299">
        <ele>2304.6000976562</ele>
        <time>2012-02-22T14:37:22.000Z</time>
      </trkpt>
      <trkpt lat="45.62978" lon="6.65291">
        <ele>2306</ele>
        <time>2012-02-22T14:37:31.000Z</time>
      </trkpt>
      <trkpt lat="45.62973" lon="6.65284">
        <ele>2307.6000976562</ele>
        <time>2012-02-22T14:37:40.000Z</time>
      </trkpt>
      <trkpt lat="45.62967" lon="6.65276">
        <ele>2309.1999511719</ele>
        <time>2012-02-22T14:37:50.000Z</time>
      </trkpt>
      <trkpt lat="45.62963" lon="6.6527">
        <ele>2310.6000976562</ele>
        <time>2012-02-22T14:37:57.000Z</time>
      </trkpt>
      <trkpt lat="45.62959" lon="6.65262">
        <ele>2312.8000488281</ele>
        <time>2012-02-22T14:38:07.000Z</time>
      </trkpt>
      <trkpt lat="45.62955" lon="6.65256">
        <ele>2314.1999511719</ele>
        <time>2012-02-22T14:38:14.000Z</time>
      </trkpt>
      <trkpt lat="45.62951" lon="6.65251">
        <ele>2315.8000488281</ele>
        <time>2012-02-22T14:38:22.000Z</time>
      </trkpt>
      <trkpt lat="45.62948" lon="6.65246">
        <ele>2317.3999023438</ele>
        <time>2012-02-22T14:38:29.000Z</time>
      </trkpt>
      <trkpt lat="45.62944" lon="6.6524">
        <ele>2318.3999023438</ele>
        <time>2012-02-22T14:38:37.000Z</time>
      </trkpt>
      <trkpt lat="45.62941" lon="6.65236">
        <ele>2320.1999511719</ele>
        <time>2012-02-22T14:38:44.000Z</time>
      </trkpt>
      <trkpt lat="45.62937" lon="6.6523">
        <ele>2322</ele>
        <time>2012-02-22T14:38:52.000Z</time>
      </trkpt>
      <trkpt lat="45.62933" lon="6.65225">
        <ele>2323</ele>
        <time>2012-02-22T14:38:58.000Z</time>
      </trkpt>
      <trkpt lat="45.6293" lon="6.65217">
        <ele>2324.6000976562</ele>
        <time>2012-02-22T14:39:07.000Z</time>
      </trkpt>
      <trkpt lat="45.62929" lon="6.65211">
        <ele>2325.8000488281</ele>
        <time>2012-02-22T14:39:12.000Z</time>
      </trkpt>
      <trkpt lat="45.62929" lon="6.65206">
        <ele>2327.1999511719</ele>
        <time>2012-02-22T14:39:18.000Z</time>
      </trkpt>
      <trkpt lat="45.6293" lon="6.65202">
        <ele>2328.1999511719</ele>
        <time>2012-02-22T14:39:23.000Z</time>
      </trkpt>
      <trkpt lat="45.6293" lon="6.65196">
        <ele>2329.3999023438</ele>
        <time>2012-02-22T14:39:30.000Z</time>
      </trkpt>
      <trkpt lat="45.62931" lon="6.65192">
        <ele>2330.3999023438</ele>
        <time>2012-02-22T14:39:35.000Z</time>
      </trkpt>
      <trkpt lat="45.62929" lon="6.65189">
        <ele>2332.3999023438</ele>
        <time>2012-02-22T14:39:45.000Z</time>
      </trkpt>
      <trkpt lat="45.62924" lon="6.65189">
        <ele>2333.1999511719</ele>
        <time>2012-02-22T14:39:54.000Z</time>
      </trkpt>
      <trkpt lat="45.6292" lon="6.6519">
        <ele>2335.1999511719</ele>
        <time>2012-02-22T14:40:01.000Z</time>
      </trkpt>
      <trkpt lat="45.62919" lon="6.65191">
        <ele>2336.6000976562</ele>
        <time>2012-02-22T14:40:05.000Z</time>
      </trkpt>
      <trkpt lat="45.62916" lon="6.65192">
        <ele>2337.1999511719</ele>
        <time>2012-02-22T14:40:10.000Z</time>
      </trkpt>
      <trkpt lat="45.62912" lon="6.65194">
        <ele>2338.3999023438</ele>
        <time>2012-02-22T14:40:16.000Z</time>
      </trkpt>
      <trkpt lat="45.62908" lon="6.65195">
        <ele>2339.1999511719</ele>
        <time>2012-02-22T14:40:21.000Z</time>
      </trkpt>
      <trkpt lat="45.62908" lon="6.65196">
        <ele>2339.3999023438</ele>
        <time>2012-02-22T14:40:22.000Z</time>
      </trkpt>
      <trkpt lat="45.62904" lon="6.65196">
        <ele>2340.8000488281</ele>
        <time>2012-02-22T14:40:27.000Z</time>
      </trkpt>
      <trkpt lat="45.62902" lon="6.65196">
        <ele>2341.3999023438</ele>
        <time>2012-02-22T14:40:30.000Z</time>
      </trkpt>
      <trkpt lat="45.62896" lon="6.65198">
        <ele>2342.6000976562</ele>
        <time>2012-02-22T14:40:37.000Z</time>
      </trkpt>
      <trkpt lat="45.62892" lon="6.65199">
        <ele>2343.6000976562</ele>
        <time>2012-02-22T14:40:43.000Z</time>
      </trkpt>
      <trkpt lat="45.62892" lon="6.65194">
        <ele>2344</ele>
        <time>2012-02-22T14:40:49.000Z</time>
      </trkpt>
      <trkpt lat="45.62889" lon="6.65188">
        <ele>2345</ele>
        <time>2012-02-22T14:40:53.000Z</time>
      </trkpt>
      <trkpt lat="45.6289" lon="6.65181">
        <ele>2345.8000488281</ele>
        <time>2012-02-22T14:40:59.000Z</time>
      </trkpt>
      <trkpt lat="45.62892" lon="6.65171">
        <ele>2348.3999023438</ele>
        <time>2012-02-22T14:41:08.000Z</time>
      </trkpt>
      <trkpt lat="45.62893" lon="6.65163">
        <ele>2350</ele>
        <time>2012-02-22T14:41:16.000Z</time>
      </trkpt>
      <trkpt lat="45.62897" lon="6.65155">
        <ele>2351.6000976562</ele>
        <time>2012-02-22T14:41:25.000Z</time>
      </trkpt>
      <trkpt lat="45.629" lon="6.65149">
        <ele>2353.1999511719</ele>
        <time>2012-02-22T14:41:32.000Z</time>
      </trkpt>
      <trkpt lat="45.62901" lon="6.65145">
        <ele>2354.6000976562</ele>
        <time>2012-02-22T14:41:37.000Z</time>
      </trkpt>
      <trkpt lat="45.62903" lon="6.65138">
        <ele>2356</ele>
        <time>2012-02-22T14:41:45.000Z</time>
      </trkpt>
      <trkpt lat="45.62906" lon="6.65133">
        <ele>2357.3999023438</ele>
        <time>2012-02-22T14:41:52.000Z</time>
      </trkpt>
      <trkpt lat="45.62909" lon="6.65128">
        <ele>2359</ele>
        <time>2012-02-22T14:41:58.000Z</time>
      </trkpt>
      <trkpt lat="45.62914" lon="6.65124">
        <ele>2360.3999023438</ele>
        <time>2012-02-22T14:42:06.000Z</time>
      </trkpt>
      <trkpt lat="45.62913" lon="6.65122">
        <ele>2361.1999511719</ele>
        <time>2012-02-22T14:42:10.000Z</time>
      </trkpt>
      <trkpt lat="45.62908" lon="6.65118">
        <ele>2362.6000976562</ele>
        <time>2012-02-22T14:42:19.000Z</time>
      </trkpt>
      <trkpt lat="45.62904" lon="6.65115">
        <ele>2364.1999511719</ele>
        <time>2012-02-22T14:42:26.000Z</time>
      </trkpt>
      <trkpt lat="45.62899" lon="6.65114">
        <ele>2366.1999511719</ele>
        <time>2012-02-22T14:42:34.000Z</time>
      </trkpt>
      <trkpt lat="45.62896" lon="6.65113">
        <ele>2368.3999023438</ele>
        <time>2012-02-22T14:42:41.000Z</time>
      </trkpt>
      <trkpt lat="45.62892" lon="6.65112">
        <ele>2369</ele>
        <time>2012-02-22T14:42:47.000Z</time>
      </trkpt>
      <trkpt lat="45.62888" lon="6.6511">
        <ele>2370.1999511719</ele>
        <time>2012-02-22T14:42:53.000Z</time>
      </trkpt>
      <trkpt lat="45.62882" lon="6.6511">
        <ele>2372</ele>
        <time>2012-02-22T14:43:01.000Z</time>
      </trkpt>
      <trkpt lat="45.62883" lon="6.65105">
        <ele>2371.8000488281</ele>
        <time>2012-02-22T14:43:08.000Z</time>
      </trkpt>
      <trkpt lat="45.62886" lon="6.65098">
        <ele>2374.3999023438</ele>
        <time>2012-02-22T14:43:16.000Z</time>
      </trkpt>
      <trkpt lat="45.62888" lon="6.65094">
        <ele>2375.8000488281</ele>
        <time>2012-02-22T14:43:21.000Z</time>
      </trkpt>
      <trkpt lat="45.6289" lon="6.6509">
        <ele>2377.3999023438</ele>
        <time>2012-02-22T14:43:26.000Z</time>
      </trkpt>
      <trkpt lat="45.62892" lon="6.65082">
        <ele>2378.8000488281</ele>
        <time>2012-02-22T14:43:33.000Z</time>
      </trkpt>
      <trkpt lat="45.62894" lon="6.65076">
        <ele>2379.6000976562</ele>
        <time>2012-02-22T14:43:40.000Z</time>
      </trkpt>
      <trkpt lat="45.62894" lon="6.65074">
        <ele>2380.8000488281</ele>
        <time>2012-02-22T14:43:43.000Z</time>
      </trkpt>
      <trkpt lat="45.62895" lon="6.65071">
        <ele>2381.6000976562</ele>
        <time>2012-02-22T14:43:49.000Z</time>
      </trkpt>
      <trkpt lat="45.62892" lon="6.6507">
        <ele>2382.8000488281</ele>
        <time>2012-02-22T14:43:53.000Z</time>
      </trkpt>
      <trkpt lat="45.62886" lon="6.65069">
        <ele>2384.3999023438</ele>
        <time>2012-02-22T14:44:02.000Z</time>
      </trkpt>
      <trkpt lat="45.62879" lon="6.65068">
        <ele>2385.6000976562</ele>
        <time>2012-02-22T14:44:10.000Z</time>
      </trkpt>
      <trkpt lat="45.62877" lon="6.65068">
        <ele>2386.1999511719</ele>
        <time>2012-02-22T14:44:13.000Z</time>
      </trkpt>
      <trkpt lat="45.62875" lon="6.65067">
        <ele>2386.6000976562</ele>
        <time>2012-02-22T14:44:15.000Z</time>
      </trkpt>
      <trkpt lat="45.62869" lon="6.65066">
        <ele>2389</ele>
        <time>2012-02-22T14:44:24.000Z</time>
      </trkpt>
      <trkpt lat="45.62866" lon="6.65066">
        <ele>2389</ele>
        <time>2012-02-22T14:44:30.000Z</time>
      </trkpt>
      <trkpt lat="45.62859" lon="6.65065">
        <ele>2391</ele>
        <time>2012-02-22T14:44:39.000Z</time>
      </trkpt>
      <trkpt lat="45.62856" lon="6.65064">
        <ele>2392.8000488281</ele>
        <time>2012-02-22T14:44:44.000Z</time>
      </trkpt>
      <trkpt lat="45.62855" lon="6.65057">
        <ele>2393.1999511719</ele>
        <time>2012-02-22T14:44:51.000Z</time>
      </trkpt>
      <trkpt lat="45.62854" lon="6.65048">
        <ele>2394.3999023438</ele>
        <time>2012-02-22T14:44:59.000Z</time>
      </trkpt>
      <trkpt lat="45.62853" lon="6.6504">
        <ele>2396.6000976562</ele>
        <time>2012-02-22T14:45:08.000Z</time>
      </trkpt>
      <trkpt lat="45.62851" lon="6.65032">
        <ele>2398.6000976562</ele>
        <time>2012-02-22T14:45:18.000Z</time>
      </trkpt>
      <trkpt lat="45.62845" lon="6.65028">
        <ele>2400</ele>
        <time>2012-02-22T14:45:27.000Z</time>
      </trkpt>
      <trkpt lat="45.62843" lon="6.65027">
        <ele>2400.1999511719</ele>
        <time>2012-02-22T14:45:29.000Z</time>
      </trkpt>
      <trkpt lat="45.62837" lon="6.65023">
        <ele>2401.6000976562</ele>
        <time>2012-02-22T14:45:38.000Z</time>
      </trkpt>
      <trkpt lat="45.62834" lon="6.65017">
        <ele>2402.3999023438</ele>
        <time>2012-02-22T14:45:45.000Z</time>
      </trkpt>
      <trkpt lat="45.62833" lon="6.65014">
        <ele>2403.6000976562</ele>
        <time>2012-02-22T14:45:48.000Z</time>
      </trkpt>
      <trkpt lat="45.62829" lon="6.65003">
        <ele>2405.1999511719</ele>
        <time>2012-02-22T14:45:57.000Z</time>
      </trkpt>
      <trkpt lat="45.62828" lon="6.64996">
        <ele>2407</ele>
        <time>2012-02-22T14:46:04.000Z</time>
      </trkpt>
      <trkpt lat="45.62827" lon="6.6499">
        <ele>2407.1999511719</ele>
        <time>2012-02-22T14:46:09.000Z</time>
      </trkpt>
      <trkpt lat="45.62826" lon="6.64985">
        <ele>2408.6000976562</ele>
        <time>2012-02-22T14:46:14.000Z</time>
      </trkpt>
      <trkpt lat="45.62825" lon="6.64975">
        <ele>2410.1999511719</ele>
        <time>2012-02-22T14:46:23.000Z</time>
      </trkpt>
      <trkpt lat="45.62822" lon="6.6497">
        <ele>2411.6000976562</ele>
        <time>2012-02-22T14:46:30.000Z</time>
      </trkpt>
      <trkpt lat="45.62818" lon="6.64968">
        <ele>2412.3999023438</ele>
        <time>2012-02-22T14:46:36.000Z</time>
      </trkpt>
      <trkpt lat="45.62811" lon="6.64964">
        <ele>2413.3999023438</ele>
        <time>2012-02-22T14:46:45.000Z</time>
      </trkpt>
      <trkpt lat="45.62803" lon="6.6496">
        <ele>2415.6000976562</ele>
        <time>2012-02-22T14:46:54.000Z</time>
      </trkpt>
      <trkpt lat="45.62796" lon="6.64951">
        <ele>2418.6000976562</ele>
        <time>2012-02-22T14:47:05.000Z</time>
      </trkpt>
      <trkpt lat="45.6279" lon="6.64941">
        <ele>2420.8000488281</ele>
        <time>2012-02-22T14:47:18.000Z</time>
      </trkpt>
      <trkpt lat="45.62785" lon="6.64934">
        <ele>2423.3999023438</ele>
        <time>2012-02-22T14:47:28.000Z</time>
      </trkpt>
      <trkpt lat="45.6278" lon="6.64929">
        <ele>2425.1999511719</ele>
        <time>2012-02-22T14:47:38.000Z</time>
      </trkpt>
      <trkpt lat="45.62776" lon="6.64926">
        <ele>2426.1999511719</ele>
        <time>2012-02-22T14:47:44.000Z</time>
      </trkpt>
      <trkpt lat="45.6277" lon="6.64922">
        <ele>2428.1999511719</ele>
        <time>2012-02-22T14:47:53.000Z</time>
      </trkpt>
      <trkpt lat="45.62764" lon="6.64914">
        <ele>2429</ele>
        <time>2012-02-22T14:48:02.000Z</time>
      </trkpt>
      <trkpt lat="45.62762" lon="6.64909">
        <ele>2430.8000488281</ele>
        <time>2012-02-22T14:48:08.000Z</time>
      </trkpt>
      <trkpt lat="45.62761" lon="6.64902">
        <ele>2432</ele>
        <time>2012-02-22T14:48:15.000Z</time>
      </trkpt>
      <trkpt lat="45.6276" lon="6.64898">
        <ele>2433.3999023438</ele>
        <time>2012-02-22T14:48:20.000Z</time>
      </trkpt>
      <trkpt lat="45.6276" lon="6.64896">
        <ele>2434</ele>
        <time>2012-02-22T14:48:25.000Z</time>
      </trkpt>
      <trkpt lat="45.62759" lon="6.64899">
        <ele>2434.6000976562</ele>
        <time>2012-02-22T14:48:30.000Z</time>
      </trkpt>
      <trkpt lat="45.62757" lon="6.64903">
        <ele>2436.6000976562</ele>
        <time>2012-02-22T14:48:38.000Z</time>
      </trkpt>
      <trkpt lat="45.62755" lon="6.64906">
        <ele>2437.6000976562</ele>
        <time>2012-02-22T14:48:43.000Z</time>
      </trkpt>
      <trkpt lat="45.62752" lon="6.64904">
        <ele>2438</ele>
        <time>2012-02-22T14:48:50.000Z</time>
      </trkpt>
      <trkpt lat="45.62751" lon="6.64895">
        <ele>2440</ele>
        <time>2012-02-22T14:48:58.000Z</time>
      </trkpt>
      <trkpt lat="45.62751" lon="6.6489">
        <ele>2442</ele>
        <time>2012-02-22T14:49:04.000Z</time>
      </trkpt>
      <trkpt lat="45.62752" lon="6.64884">
        <ele>2443.1999511719</ele>
        <time>2012-02-22T14:49:11.000Z</time>
      </trkpt>
      <trkpt lat="45.62752" lon="6.64879">
        <ele>2444.6000976562</ele>
        <time>2012-02-22T14:49:17.000Z</time>
      </trkpt>
      <trkpt lat="45.62754" lon="6.64872">
        <ele>2446</ele>
        <time>2012-02-22T14:49:25.000Z</time>
      </trkpt>
      <trkpt lat="45.62755" lon="6.64863">
        <ele>2446.8000488281</ele>
        <time>2012-02-22T14:49:34.000Z</time>
      </trkpt>
      <trkpt lat="45.62751" lon="6.64864">
        <ele>2449.1999511719</ele>
        <time>2012-02-22T14:49:44.000Z</time>
      </trkpt>
      <trkpt lat="45.62746" lon="6.64864">
        <ele>2450.1999511719</ele>
        <time>2012-02-22T14:49:51.000Z</time>
      </trkpt>
      <trkpt lat="45.62742" lon="6.64863">
        <ele>2452.1999511719</ele>
        <time>2012-02-22T14:49:59.000Z</time>
      </trkpt>
      <trkpt lat="45.62739" lon="6.64858">
        <ele>2452.8000488281</ele>
        <time>2012-02-22T14:50:06.000Z</time>
      </trkpt>
      <trkpt lat="45.62738" lon="6.64855">
        <ele>2455</ele>
        <time>2012-02-22T14:50:11.000Z</time>
      </trkpt>
      <trkpt lat="45.62739" lon="6.6485">
        <ele>2456.1999511719</ele>
        <time>2012-02-22T14:50:17.000Z</time>
      </trkpt>
      <trkpt lat="45.6274" lon="6.64846">
        <ele>2458.3999023438</ele>
        <time>2012-02-22T14:50:23.000Z</time>
      </trkpt>
      <trkpt lat="45.62739" lon="6.64841">
        <ele>2458.3999023438</ele>
        <time>2012-02-22T14:50:31.000Z</time>
      </trkpt>
      <trkpt lat="45.62737" lon="6.6484">
        <ele>2460</ele>
        <time>2012-02-22T14:50:35.000Z</time>
      </trkpt>
      <trkpt lat="45.62734" lon="6.64835">
        <ele>2461.3999023438</ele>
        <time>2012-02-22T14:50:43.000Z</time>
      </trkpt>
      <trkpt lat="45.62732" lon="6.64832">
        <ele>2463</ele>
        <time>2012-02-22T14:50:53.000Z</time>
      </trkpt>
      <trkpt lat="45.62734" lon="6.64827">
        <ele>2463.8000488281</ele>
        <time>2012-02-22T14:51:00.000Z</time>
      </trkpt>
      <trkpt lat="45.62737" lon="6.64824">
        <ele>2465.1999511719</ele>
        <time>2012-02-22T14:51:06.000Z</time>
      </trkpt>
      <trkpt lat="45.6274" lon="6.64822">
        <ele>2466.8000488281</ele>
        <time>2012-02-22T14:51:12.000Z</time>
      </trkpt>
      <trkpt lat="45.62741" lon="6.64822">
        <ele>2468.8000488281</ele>
        <time>2012-02-22T14:51:16.000Z</time>
      </trkpt>
      <trkpt lat="45.62746" lon="6.64822">
        <ele>2469.3999023438</ele>
        <time>2012-02-22T14:51:25.000Z</time>
      </trkpt>
      <trkpt lat="45.62745" lon="6.64815">
        <ele>2470.8000488281</ele>
        <time>2012-02-22T14:51:36.000Z</time>
      </trkpt>
      <trkpt lat="45.62742" lon="6.64809">
        <ele>2472.6000976562</ele>
        <time>2012-02-22T14:51:45.000Z</time>
      </trkpt>
      <trkpt lat="45.6274" lon="6.64806">
        <ele>2473.6000976562</ele>
        <time>2012-02-22T14:51:52.000Z</time>
      </trkpt>
      <trkpt lat="45.62743" lon="6.64805">
        <ele>2474.6000976562</ele>
        <time>2012-02-22T14:51:59.000Z</time>
      </trkpt>
      <trkpt lat="45.62747" lon="6.64802">
        <ele>2476.3999023438</ele>
        <time>2012-02-22T14:52:07.000Z</time>
      </trkpt>
      <trkpt lat="45.62748" lon="6.64799">
        <ele>2477.3999023438</ele>
        <time>2012-02-22T14:52:14.000Z</time>
      </trkpt>
      <trkpt lat="45.62745" lon="6.64793">
        <ele>2479.3999023438</ele>
        <time>2012-02-22T14:52:24.000Z</time>
      </trkpt>
      <trkpt lat="45.6274" lon="6.64791">
        <ele>2480.6000976562</ele>
        <time>2012-02-22T14:52:32.000Z</time>
      </trkpt>
      <trkpt lat="45.62736" lon="6.64791">
        <ele>2481.6000976562</ele>
        <time>2012-02-22T14:52:39.000Z</time>
      </trkpt>
      <trkpt lat="45.62733" lon="6.64788">
        <ele>2483</ele>
        <time>2012-02-22T14:52:48.000Z</time>
      </trkpt>
      <trkpt lat="45.62734" lon="6.64785">
        <ele>2483.1999511719</ele>
        <time>2012-02-22T14:52:53.000Z</time>
      </trkpt>
      <trkpt lat="45.62735" lon="6.64781">
        <ele>2484.1999511719</ele>
        <time>2012-02-22T14:52:59.000Z</time>
      </trkpt>
      <trkpt lat="45.62736" lon="6.64777">
        <ele>2485.6000976562</ele>
        <time>2012-02-22T14:53:05.000Z</time>
      </trkpt>
      <trkpt lat="45.62737" lon="6.64772">
        <ele>2487</ele>
        <time>2012-02-22T14:53:11.000Z</time>
      </trkpt>
      <trkpt lat="45.62737" lon="6.64768">
        <ele>2487.8000488281</ele>
        <time>2012-02-22T14:53:16.000Z</time>
      </trkpt>
      <trkpt lat="45.62736" lon="6.64763">
        <ele>2490.6000976562</ele>
        <time>2012-02-22T14:53:23.000Z</time>
      </trkpt>
      <trkpt lat="45.62732" lon="6.64759">
        <ele>2492.3999023438</ele>
        <time>2012-02-22T14:53:32.000Z</time>
      </trkpt>
      <trkpt lat="45.62726" lon="6.64758">
        <ele>2493.1999511719</ele>
        <time>2012-02-22T14:53:41.000Z</time>
      </trkpt>
      <trkpt lat="45.62722" lon="6.64757">
        <ele>2495.3999023438</ele>
        <time>2012-02-22T14:53:48.000Z</time>
      </trkpt>
      <trkpt lat="45.62717" lon="6.64756">
        <ele>2496.6000976562</ele>
        <time>2012-02-22T14:53:58.000Z</time>
      </trkpt>
      <trkpt lat="45.62717" lon="6.64754">
        <ele>2496</ele>
        <time>2012-02-22T14:54:08.000Z</time>
      </trkpt>
      <trkpt lat="45.62719" lon="6.64754">
        <ele>2495.8000488281</ele>
        <time>2012-02-22T14:54:43.000Z</time>
      </trkpt>
      <trkpt lat="45.62719" lon="6.64753">
        <ele>2496</ele>
        <time>2012-02-22T14:54:44.000Z</time>
      </trkpt>
      <trkpt lat="45.62717" lon="6.64751">
        <ele>2495.8000488281</ele>
        <time>2012-02-22T14:54:49.000Z</time>
      </trkpt>
      <trkpt lat="45.62716" lon="6.64748">
        <ele>2496.6000976562</ele>
        <time>2012-02-22T14:54:57.000Z</time>
      </trkpt>
      <trkpt lat="45.62716" lon="6.64746">
        <ele>2498.3999023438</ele>
        <time>2012-02-22T14:55:10.000Z</time>
      </trkpt>
      <trkpt lat="45.62717" lon="6.64743">
        <ele>2496.1999511719</ele>
        <time>2012-02-22T14:55:42.000Z</time>
      </trkpt>
      <trkpt lat="45.62718" lon="6.64737">
        <ele>2497.3999023438</ele>
        <time>2012-02-22T14:55:50.000Z</time>
      </trkpt>
      <trkpt lat="45.62717" lon="6.64736">
        <ele>2497.3999023438</ele>
        <time>2012-02-22T14:55:56.000Z</time>
      </trkpt>
      <trkpt lat="45.62715" lon="6.6474">
        <ele>2496.1999511719</ele>
        <time>2012-02-22T14:56:08.000Z</time>
      </trkpt>
      <trkpt lat="45.62718" lon="6.6474">
        <ele>2495.3999023438</ele>
        <time>2012-02-22T14:56:34.000Z</time>
      </trkpt>
      <trkpt lat="45.62718" lon="6.64737">
        <ele>2495.3999023438</ele>
        <time>2012-02-22T14:56:41.000Z</time>
      </trkpt>
      <trkpt lat="45.62718" lon="6.64739">
        <ele>2495.3999023438</ele>
        <time>2012-02-22T14:57:02.000Z</time>
      </trkpt>
      <trkpt lat="45.62725" lon="6.64733">
        <ele>2495.3999023438</ele>
        <time>2012-02-22T14:57:10.000Z</time>
      </trkpt>
      <trkpt lat="45.62717" lon="6.6474">
        <ele>2496</ele>
        <time>2012-02-22T14:58:38.000Z</time>
      </trkpt>
      <trkpt lat="45.6272" lon="6.64741">
        <ele>2497.8000488281</ele>
        <time>2012-02-22T14:58:45.000Z</time>
      </trkpt>
      <trkpt lat="45.6272" lon="6.64746">
        <ele>2497.1999511719</ele>
        <time>2012-02-22T14:58:51.000Z</time>
      </trkpt>
      <trkpt lat="45.6272" lon="6.64748">
        <ele>2497</ele>
        <time>2012-02-22T14:58:57.000Z</time>
      </trkpt>
      <trkpt lat="45.6272" lon="6.64747">
        <ele>2496.8000488281</ele>
        <time>2012-02-22T14:58:59.000Z</time>
      </trkpt>
      <trkpt lat="45.62721" lon="6.6475">
        <ele>2499.3999023438</ele>
        <time>2012-02-22T15:11:38.000Z</time>
      </trkpt>
      <trkpt lat="45.62721" lon="6.6475">
        <ele>2499.3999023438</ele>
        <time>2012-02-22T15:11:39.000Z</time>
      </trkpt>
      <trkpt lat="45.62722" lon="6.64749">
        <ele>2499.3999023438</ele>
        <time>2012-02-22T15:11:47.000Z</time>
      </trkpt>
      <trkpt lat="45.62724" lon="6.64747">
        <ele>2496.3999023438</ele>
        <time>2012-02-22T15:12:05.000Z</time>
      </trkpt>
      <trkpt lat="45.62723" lon="6.64747">
        <ele>2499</ele>
        <time>2012-02-22T15:12:10.000Z</time>
      </trkpt>
      <trkpt lat="45.62722" lon="6.64746">
        <ele>2499.3999023438</ele>
        <time>2012-02-22T15:12:21.000Z</time>
      </trkpt>
      <trkpt lat="45.62731" lon="6.64753">
        <ele>2498.6000976562</ele>
        <time>2012-02-22T15:13:30.000Z</time>
      </trkpt>
      <trkpt lat="45.62737" lon="6.64753">
        <ele>2497</ele>
        <time>2012-02-22T15:13:36.000Z</time>
      </trkpt>
      <trkpt lat="45.6274" lon="6.64754">
        <ele>2495.6000976562</ele>
        <time>2012-02-22T15:13:41.000Z</time>
      </trkpt>
      <trkpt lat="45.62748" lon="6.64757">
        <ele>2495.3999023438</ele>
        <time>2012-02-22T15:13:49.000Z</time>
      </trkpt>
      <trkpt lat="45.62749" lon="6.64757">
        <ele>2495.3999023438</ele>
        <time>2012-02-22T15:13:50.000Z</time>
      </trkpt>
      <trkpt lat="45.62754" lon="6.64767">
        <ele>2495.1999511719</ele>
        <time>2012-02-22T15:14:00.000Z</time>
      </trkpt>
      <trkpt lat="45.62759" lon="6.64775">
        <ele>2494.6000976562</ele>
        <time>2012-02-22T15:14:06.000Z</time>
      </trkpt>
      <trkpt lat="45.62765" lon="6.6478">
        <ele>2494.1999511719</ele>
        <time>2012-02-22T15:14:14.000Z</time>
      </trkpt>
      <trkpt lat="45.62771" lon="6.64784">
        <ele>2493.6000976562</ele>
        <time>2012-02-22T15:14:22.000Z</time>
      </trkpt>
      <trkpt lat="45.62775" lon="6.64785">
        <ele>2493.6000976562</ele>
        <time>2012-02-22T15:14:29.000Z</time>
      </trkpt>
      <trkpt lat="45.62782" lon="6.64788">
        <ele>2493</ele>
        <time>2012-02-22T15:14:35.000Z</time>
      </trkpt>
      <trkpt lat="45.62786" lon="6.64787">
        <ele>2493</ele>
        <time>2012-02-22T15:14:43.000Z</time>
      </trkpt>
      <trkpt lat="45.62794" lon="6.64781">
        <ele>2491.8000488281</ele>
        <time>2012-02-22T15:14:48.000Z</time>
      </trkpt>
      <trkpt lat="45.62799" lon="6.64781">
        <ele>2491.6000976562</ele>
        <time>2012-02-22T15:14:51.000Z</time>
      </trkpt>
      <trkpt lat="45.62813" lon="6.64783">
        <ele>2489.1999511719</ele>
        <time>2012-02-22T15:14:56.000Z</time>
      </trkpt>
      <trkpt lat="45.62825" lon="6.64796">
        <ele>2486.3999023438</ele>
        <time>2012-02-22T15:15:02.000Z</time>
      </trkpt>
      <trkpt lat="45.62829" lon="6.64803">
        <ele>2485.3999023438</ele>
        <time>2012-02-22T15:15:06.000Z</time>
      </trkpt>
      <trkpt lat="45.62846" lon="6.64819">
        <ele>2483.3999023438</ele>
        <time>2012-02-22T15:15:13.000Z</time>
      </trkpt>
      <trkpt lat="45.62863" lon="6.64833">
        <ele>2480.8000488281</ele>
        <time>2012-02-22T15:15:17.000Z</time>
      </trkpt>
      <trkpt lat="45.62879" lon="6.64845">
        <ele>2479.1999511719</ele>
        <time>2012-02-22T15:15:22.000Z</time>
      </trkpt>
      <trkpt lat="45.62891" lon="6.64851">
        <ele>2477.1999511719</ele>
        <time>2012-02-22T15:15:28.000Z</time>
      </trkpt>
      <trkpt lat="45.62895" lon="6.64853">
        <ele>2477.1999511719</ele>
        <time>2012-02-22T15:15:31.000Z</time>
      </trkpt>
      <trkpt lat="45.62892" lon="6.64861">
        <ele>2474.1999511719</ele>
        <time>2012-02-22T15:15:35.000Z</time>
      </trkpt>
      <trkpt lat="45.62894" lon="6.64872">
        <ele>2469.8000488281</ele>
        <time>2012-02-22T15:15:38.000Z</time>
      </trkpt>
      <trkpt lat="45.62898" lon="6.64882">
        <ele>2465.6000976562</ele>
        <time>2012-02-22T15:15:41.000Z</time>
      </trkpt>
      <trkpt lat="45.62902" lon="6.64881">
        <ele>2463.6000976562</ele>
        <time>2012-02-22T15:15:43.000Z</time>
      </trkpt>
      <trkpt lat="45.62918" lon="6.64879">
        <ele>2460.8000488281</ele>
        <time>2012-02-22T15:15:50.000Z</time>
      </trkpt>
      <trkpt lat="45.62921" lon="6.64879">
        <ele>2460.8000488281</ele>
        <time>2012-02-22T15:15:51.000Z</time>
      </trkpt>
      <trkpt lat="45.62938" lon="6.64879">
        <ele>2457.3999023438</ele>
        <time>2012-02-22T15:15:57.000Z</time>
      </trkpt>
      <trkpt lat="45.62952" lon="6.64884">
        <ele>2454.8000488281</ele>
        <time>2012-02-22T15:16:06.000Z</time>
      </trkpt>
      <trkpt lat="45.62961" lon="6.64885">
        <ele>2454</ele>
        <time>2012-02-22T15:16:12.000Z</time>
      </trkpt>
      <trkpt lat="45.62976" lon="6.64887">
        <ele>2452.1999511719</ele>
        <time>2012-02-22T15:16:25.000Z</time>
      </trkpt>
      <trkpt lat="45.62992" lon="6.64891">
        <ele>2450</ele>
        <time>2012-02-22T15:16:30.000Z</time>
      </trkpt>
      <trkpt lat="45.62999" lon="6.64892">
        <ele>2448.8000488281</ele>
        <time>2012-02-22T15:16:33.000Z</time>
      </trkpt>
      <trkpt lat="45.63015" lon="6.64892">
        <ele>2448.3999023438</ele>
        <time>2012-02-22T15:16:53.000Z</time>
      </trkpt>
      <trkpt lat="45.63023" lon="6.649">
        <ele>2446.8000488281</ele>
        <time>2012-02-22T15:16:58.000Z</time>
      </trkpt>
      <trkpt lat="45.63032" lon="6.64909">
        <ele>2445.3999023438</ele>
        <time>2012-02-22T15:17:04.000Z</time>
      </trkpt>
      <trkpt lat="45.63041" lon="6.64916">
        <ele>2444</ele>
        <time>2012-02-22T15:17:10.000Z</time>
      </trkpt>
      <trkpt lat="45.63039" lon="6.64931">
        <ele>2440.8000488281</ele>
        <time>2012-02-22T15:17:14.000Z</time>
      </trkpt>
      <trkpt lat="45.63032" lon="6.64946">
        <ele>2435.6000976562</ele>
        <time>2012-02-22T15:17:17.000Z</time>
      </trkpt>
      <trkpt lat="45.63031" lon="6.64962">
        <ele>2428.1999511719</ele>
        <time>2012-02-22T15:17:20.000Z</time>
      </trkpt>
      <trkpt lat="45.63031" lon="6.64979">
        <ele>2421.6000976562</ele>
        <time>2012-02-22T15:17:23.000Z</time>
      </trkpt>
      <trkpt lat="45.63033" lon="6.65001">
        <ele>2413.1999511719</ele>
        <time>2012-02-22T15:17:26.000Z</time>
      </trkpt>
      <trkpt lat="45.63034" lon="6.65021">
        <ele>2404</ele>
        <time>2012-02-22T15:17:29.000Z</time>
      </trkpt>
      <trkpt lat="45.63033" lon="6.65035">
        <ele>2397.8000488281</ele>
        <time>2012-02-22T15:17:32.000Z</time>
      </trkpt>
      <trkpt lat="45.63033" lon="6.65053">
        <ele>2388.8000488281</ele>
        <time>2012-02-22T15:17:35.000Z</time>
      </trkpt>
      <trkpt lat="45.63037" lon="6.65073">
        <ele>2381.3999023438</ele>
        <time>2012-02-22T15:17:38.000Z</time>
      </trkpt>
      <trkpt lat="45.63037" lon="6.65081">
        <ele>2377.1999511719</ele>
        <time>2012-02-22T15:17:40.000Z</time>
      </trkpt>
      <trkpt lat="45.63041" lon="6.65096">
        <ele>2368.1999511719</ele>
        <time>2012-02-22T15:17:43.000Z</time>
      </trkpt>
      <trkpt lat="45.63033" lon="6.65106">
        <ele>2362.8000488281</ele>
        <time>2012-02-22T15:17:49.000Z</time>
      </trkpt>
      <trkpt lat="45.63031" lon="6.65106">
        <ele>2363</ele>
        <time>2012-02-22T15:17:55.000Z</time>
      </trkpt>
      <trkpt lat="45.63032" lon="6.65107">
        <ele>2362.6000976562</ele>
        <time>2012-02-22T15:17:57.000Z</time>
      </trkpt>
      <trkpt lat="45.63049" lon="6.6511">
        <ele>2359.6000976562</ele>
        <time>2012-02-22T15:18:02.000Z</time>
      </trkpt>
      <trkpt lat="45.63058" lon="6.65111">
        <ele>2358.3999023438</ele>
        <time>2012-02-22T15:18:05.000Z</time>
      </trkpt>
      <trkpt lat="45.63079" lon="6.65113">
        <ele>2355.6000976562</ele>
        <time>2012-02-22T15:18:12.000Z</time>
      </trkpt>
      <trkpt lat="45.63081" lon="6.65113">
        <ele>2355.1999511719</ele>
        <time>2012-02-22T15:18:13.000Z</time>
      </trkpt>
      <trkpt lat="45.63086" lon="6.65125">
        <ele>2352.3999023438</ele>
        <time>2012-02-22T15:18:17.000Z</time>
      </trkpt>
      <trkpt lat="45.63088" lon="6.65143">
        <ele>2347.8000488281</ele>
        <time>2012-02-22T15:18:20.000Z</time>
      </trkpt>
      <trkpt lat="45.63088" lon="6.65153">
        <ele>2343</ele>
        <time>2012-02-22T15:18:22.000Z</time>
      </trkpt>
      <trkpt lat="45.63097" lon="6.65154">
        <ele>2334.8000488281</ele>
        <time>2012-02-22T15:18:28.000Z</time>
      </trkpt>
      <trkpt lat="45.63102" lon="6.65152">
        <ele>2334</ele>
        <time>2012-02-22T15:18:35.000Z</time>
      </trkpt>
      <trkpt lat="45.63116" lon="6.65155">
        <ele>2332.3999023438</ele>
        <time>2012-02-22T15:19:02.000Z</time>
      </trkpt>
      <trkpt lat="45.63126" lon="6.65156">
        <ele>2328.8000488281</ele>
        <time>2012-02-22T15:19:06.000Z</time>
      </trkpt>
      <trkpt lat="45.63129" lon="6.65156">
        <ele>2327.8000488281</ele>
        <time>2012-02-22T15:19:10.000Z</time>
      </trkpt>
      <trkpt lat="45.63134" lon="6.65158">
        <ele>2327.1999511719</ele>
        <time>2012-02-22T15:19:17.000Z</time>
      </trkpt>
      <trkpt lat="45.63131" lon="6.65169">
        <ele>2325.1999511719</ele>
        <time>2012-02-22T15:19:21.000Z</time>
      </trkpt>
      <trkpt lat="45.63132" lon="6.65191">
        <ele>2318.8000488281</ele>
        <time>2012-02-22T15:19:25.000Z</time>
      </trkpt>
      <trkpt lat="45.63132" lon="6.65207">
        <ele>2311.1999511719</ele>
        <time>2012-02-22T15:19:28.000Z</time>
      </trkpt>
      <trkpt lat="45.6313" lon="6.65228">
        <ele>2304.8000488281</ele>
        <time>2012-02-22T15:19:32.000Z</time>
      </trkpt>
      <trkpt lat="45.63129" lon="6.65234">
        <ele>2304.6000976562</ele>
        <time>2012-02-22T15:19:33.000Z</time>
      </trkpt>
      <trkpt lat="45.6313" lon="6.65255">
        <ele>2297.8000488281</ele>
        <time>2012-02-22T15:19:37.000Z</time>
      </trkpt>
      <trkpt lat="45.6313" lon="6.6526">
        <ele>2292.8000488281</ele>
        <time>2012-02-22T15:19:38.000Z</time>
      </trkpt>
      <trkpt lat="45.6313" lon="6.6527">
        <ele>2281.1999511719</ele>
        <time>2012-02-22T15:19:42.000Z</time>
      </trkpt>
      <trkpt lat="45.63127" lon="6.65268">
        <ele>2278</ele>
        <time>2012-02-22T15:19:48.000Z</time>
      </trkpt>
      <trkpt lat="45.63122" lon="6.6527">
        <ele>2277.6000976562</ele>
        <time>2012-02-22T15:19:53.000Z</time>
      </trkpt>
      <trkpt lat="45.63126" lon="6.65281">
        <ele>2275.1999511719</ele>
        <time>2012-02-22T15:19:58.000Z</time>
      </trkpt>
      <trkpt lat="45.63125" lon="6.653">
        <ele>2270.3999023438</ele>
        <time>2012-02-22T15:20:02.000Z</time>
      </trkpt>
      <trkpt lat="45.63125" lon="6.65317">
        <ele>2266.6000976562</ele>
        <time>2012-02-22T15:20:05.000Z</time>
      </trkpt>
      <trkpt lat="45.6313" lon="6.65333">
        <ele>2260.3999023438</ele>
        <time>2012-02-22T15:20:08.000Z</time>
      </trkpt>
      <trkpt lat="45.6313" lon="6.65357">
        <ele>2253.6000976562</ele>
        <time>2012-02-22T15:20:12.000Z</time>
      </trkpt>
      <trkpt lat="45.6313" lon="6.65369">
        <ele>2250.6000976562</ele>
        <time>2012-02-22T15:20:14.000Z</time>
      </trkpt>
      <trkpt lat="45.63133" lon="6.65393">
        <ele>2245</ele>
        <time>2012-02-22T15:20:18.000Z</time>
      </trkpt>
      <trkpt lat="45.63135" lon="6.65409">
        <ele>2240.8000488281</ele>
        <time>2012-02-22T15:20:21.000Z</time>
      </trkpt>
      <trkpt lat="45.63138" lon="6.65436">
        <ele>2235.6000976562</ele>
        <time>2012-02-22T15:20:25.000Z</time>
      </trkpt>
      <trkpt lat="45.6315" lon="6.65473">
        <ele>2228.3999023438</ele>
        <time>2012-02-22T15:20:30.000Z</time>
      </trkpt>
      <trkpt lat="45.63159" lon="6.65523">
        <ele>2221.6000976562</ele>
        <time>2012-02-22T15:20:36.000Z</time>
      </trkpt>
      <trkpt lat="45.63165" lon="6.65534">
        <ele>2220.1999511719</ele>
        <time>2012-02-22T15:20:38.000Z</time>
      </trkpt>
      <trkpt lat="45.63169" lon="6.65543">
        <ele>2219.8000488281</ele>
        <time>2012-02-22T15:20:42.000Z</time>
      </trkpt>
      <trkpt lat="45.6317" lon="6.6555">
        <ele>2220.1999511719</ele>
        <time>2012-02-22T15:21:03.000Z</time>
      </trkpt>
      <trkpt lat="45.63167" lon="6.65566">
        <ele>2218</ele>
        <time>2012-02-22T15:21:07.000Z</time>
      </trkpt>
      <trkpt lat="45.63178" lon="6.6558">
        <ele>2215.8000488281</ele>
        <time>2012-02-22T15:21:10.000Z</time>
      </trkpt>
      <trkpt lat="45.63191" lon="6.65603">
        <ele>2212.8000488281</ele>
        <time>2012-02-22T15:21:14.000Z</time>
      </trkpt>
      <trkpt lat="45.63195" lon="6.65619">
        <ele>2211.6000976562</ele>
        <time>2012-02-22T15:21:16.000Z</time>
      </trkpt>
      <trkpt lat="45.63204" lon="6.65638">
        <ele>2207.8000488281</ele>
        <time>2012-02-22T15:21:20.000Z</time>
      </trkpt>
      <trkpt lat="45.63212" lon="6.65643">
        <ele>2206.3999023438</ele>
        <time>2012-02-22T15:21:25.000Z</time>
      </trkpt>
      <trkpt lat="45.63211" lon="6.65642">
        <ele>2206.3999023438</ele>
        <time>2012-02-22T15:21:42.000Z</time>
      </trkpt>
      <trkpt lat="45.63206" lon="6.65647">
        <ele>2205.1999511719</ele>
        <time>2012-02-22T15:21:46.000Z</time>
      </trkpt>
      <trkpt lat="45.63194" lon="6.65647">
        <ele>2203</ele>
        <time>2012-02-22T15:21:49.000Z</time>
      </trkpt>
      <trkpt lat="45.63177" lon="6.65657">
        <ele>2199.8000488281</ele>
        <time>2012-02-22T15:21:54.000Z</time>
      </trkpt>
      <trkpt lat="45.63164" lon="6.6568">
        <ele>2197.8000488281</ele>
        <time>2012-02-22T15:22:01.000Z</time>
      </trkpt>
      <trkpt lat="45.63157" lon="6.657">
        <ele>2195.6000976562</ele>
        <time>2012-02-22T15:22:04.000Z</time>
      </trkpt>
      <trkpt lat="45.63151" lon="6.65732">
        <ele>2191.8000488281</ele>
        <time>2012-02-22T15:22:08.000Z</time>
      </trkpt>
      <trkpt lat="45.6315" lon="6.6576">
        <ele>2188.8000488281</ele>
        <time>2012-02-22T15:22:12.000Z</time>
      </trkpt>
      <trkpt lat="45.63152" lon="6.65771">
        <ele>2187.8000488281</ele>
        <time>2012-02-22T15:22:16.000Z</time>
      </trkpt>
      <trkpt lat="45.63162" lon="6.65774">
        <ele>2186</ele>
        <time>2012-02-22T15:22:19.000Z</time>
      </trkpt>
      <trkpt lat="45.63176" lon="6.65779">
        <ele>2181.8000488281</ele>
        <time>2012-02-22T15:22:22.000Z</time>
      </trkpt>
      <trkpt lat="45.63199" lon="6.65775">
        <ele>2174.3999023438</ele>
        <time>2012-02-22T15:22:25.000Z</time>
      </trkpt>
      <trkpt lat="45.63213" lon="6.65782">
        <ele>2167</ele>
        <time>2012-02-22T15:22:28.000Z</time>
      </trkpt>
      <trkpt lat="45.63221" lon="6.65779">
        <ele>2162.3999023438</ele>
        <time>2012-02-22T15:22:31.000Z</time>
      </trkpt>
      <trkpt lat="45.63225" lon="6.65784">
        <ele>2160.8000488281</ele>
        <time>2012-02-22T15:22:32.000Z</time>
      </trkpt>
      <trkpt lat="45.63228" lon="6.65789">
        <ele>2158</ele>
        <time>2012-02-22T15:22:34.000Z</time>
      </trkpt>
      <trkpt lat="45.63231" lon="6.65781">
        <ele>2157</ele>
        <time>2012-02-22T15:22:40.000Z</time>
      </trkpt>
      <trkpt lat="45.63238" lon="6.65791">
        <ele>2155.8000488281</ele>
        <time>2012-02-22T15:22:44.000Z</time>
      </trkpt>
      <trkpt lat="45.63253" lon="6.65819">
        <ele>2150.3999023438</ele>
        <time>2012-02-22T15:22:48.000Z</time>
      </trkpt>
      <trkpt lat="45.63258" lon="6.65837">
        <ele>2148.3999023438</ele>
        <time>2012-02-22T15:22:50.000Z</time>
      </trkpt>
      <trkpt lat="45.63265" lon="6.65856">
        <ele>2145</ele>
        <time>2012-02-22T15:22:52.000Z</time>
      </trkpt>
      <trkpt lat="45.63282" lon="6.65889">
        <ele>2139.1999511719</ele>
        <time>2012-02-22T15:22:56.000Z</time>
      </trkpt>
      <trkpt lat="45.63292" lon="6.65923">
        <ele>2133.6000976562</ele>
        <time>2012-02-22T15:23:00.000Z</time>
      </trkpt>
      <trkpt lat="45.63309" lon="6.6597">
        <ele>2124</ele>
        <time>2012-02-22T15:23:05.000Z</time>
      </trkpt>
      <trkpt lat="45.6332" lon="6.6599">
        <ele>2119.1999511719</ele>
        <time>2012-02-22T15:23:08.000Z</time>
      </trkpt>
      <trkpt lat="45.63322" lon="6.66004">
        <ele>2116.1999511719</ele>
        <time>2012-02-22T15:23:12.000Z</time>
      </trkpt>
      <trkpt lat="45.63325" lon="6.66016">
        <ele>2113.6000976562</ele>
        <time>2012-02-22T15:23:14.000Z</time>
      </trkpt>
      <trkpt lat="45.63319" lon="6.66048">
        <ele>2107.6000976562</ele>
        <time>2012-02-22T15:23:18.000Z</time>
      </trkpt>
      <trkpt lat="45.63324" lon="6.66093">
        <ele>2101</ele>
        <time>2012-02-22T15:23:22.000Z</time>
      </trkpt>
      <trkpt lat="45.63326" lon="6.66132">
        <ele>2096.3999023438</ele>
        <time>2012-02-22T15:23:26.000Z</time>
      </trkpt>
      <trkpt lat="45.63323" lon="6.66154">
        <ele>2094.1999511719</ele>
        <time>2012-02-22T15:23:29.000Z</time>
      </trkpt>
      <trkpt lat="45.63322" lon="6.66188">
        <ele>2090.6000976562</ele>
        <time>2012-02-22T15:23:34.000Z</time>
      </trkpt>
      <trkpt lat="45.63319" lon="6.66203">
        <ele>2088.8000488281</ele>
        <time>2012-02-22T15:23:36.000Z</time>
      </trkpt>
      <trkpt lat="45.63313" lon="6.66245">
        <ele>2084.1999511719</ele>
        <time>2012-02-22T15:23:41.000Z</time>
      </trkpt>
      <trkpt lat="45.63301" lon="6.66278">
        <ele>2080.6000976562</ele>
        <time>2012-02-22T15:23:45.000Z</time>
      </trkpt>
      <trkpt lat="45.63292" lon="6.66298">
        <ele>2082.1999511719</ele>
        <time>2012-02-22T15:23:49.000Z</time>
      </trkpt>
      <trkpt lat="45.63286" lon="6.66306">
        <ele>2080.6000976562</ele>
        <time>2012-02-22T15:23:54.000Z</time>
      </trkpt>
      <trkpt lat="45.6328" lon="6.66321">
        <ele>2079</ele>
        <time>2012-02-22T15:23:59.000Z</time>
      </trkpt>
      <trkpt lat="45.63272" lon="6.6634">
        <ele>2077.6000976562</ele>
        <time>2012-02-22T15:24:04.000Z</time>
      </trkpt>
      <trkpt lat="45.63262" lon="6.66357">
        <ele>2075.1999511719</ele>
        <time>2012-02-22T15:24:07.000Z</time>
      </trkpt>
      <trkpt lat="45.63256" lon="6.66372">
        <ele>2073.6000976562</ele>
        <time>2012-02-22T15:24:09.000Z</time>
      </trkpt>
      <trkpt lat="45.63253" lon="6.6639">
        <ele>2071.3999023438</ele>
        <time>2012-02-22T15:24:11.000Z</time>
      </trkpt>
      <trkpt lat="45.63253" lon="6.66421">
        <ele>2067.6000976562</ele>
        <time>2012-02-22T15:24:15.000Z</time>
      </trkpt>
      <trkpt lat="45.63253" lon="6.66426">
        <ele>2067.1999511719</ele>
        <time>2012-02-22T15:24:16.000Z</time>
      </trkpt>
      <trkpt lat="45.63245" lon="6.66455">
        <ele>2063.1999511719</ele>
        <time>2012-02-22T15:24:20.000Z</time>
      </trkpt>
      <trkpt lat="45.63239" lon="6.66491">
        <ele>2056.3999023438</ele>
        <time>2012-02-22T15:24:23.000Z</time>
      </trkpt>
      <trkpt lat="45.63238" lon="6.66516">
        <ele>2053.1999511719</ele>
        <time>2012-02-22T15:24:25.000Z</time>
      </trkpt>
      <trkpt lat="45.63235" lon="6.66538">
        <ele>2048.8000488281</ele>
        <time>2012-02-22T15:24:27.000Z</time>
      </trkpt>
      <trkpt lat="45.63231" lon="6.66584">
        <ele>2041</ele>
        <time>2012-02-22T15:24:31.000Z</time>
      </trkpt>
      <trkpt lat="45.63229" lon="6.66604">
        <ele>2039</ele>
        <time>2012-02-22T15:24:33.000Z</time>
      </trkpt>
      <trkpt lat="45.63223" lon="6.66654">
        <ele>2035.1999511719</ele>
        <time>2012-02-22T15:24:39.000Z</time>
      </trkpt>
      <trkpt lat="45.63217" lon="6.66689">
        <ele>2032.8000488281</ele>
        <time>2012-02-22T15:24:45.000Z</time>
      </trkpt>
      <trkpt lat="45.63216" lon="6.66706">
        <ele>2031.4000244141</ele>
        <time>2012-02-22T15:24:47.000Z</time>
      </trkpt>
      <trkpt lat="45.63218" lon="6.66739">
        <ele>2027.4000244141</ele>
        <time>2012-02-22T15:24:50.000Z</time>
      </trkpt>
      <trkpt lat="45.63215" lon="6.66774">
        <ele>2022.8000488281</ele>
        <time>2012-02-22T15:24:54.000Z</time>
      </trkpt>
      <trkpt lat="45.63213" lon="6.66823">
        <ele>2019</ele>
        <time>2012-02-22T15:25:00.000Z</time>
      </trkpt>
      <trkpt lat="45.63215" lon="6.66864">
        <ele>2016.1999511719</ele>
        <time>2012-02-22T15:25:05.000Z</time>
      </trkpt>
      <trkpt lat="45.63219" lon="6.66889">
        <ele>2014.1999511719</ele>
        <time>2012-02-22T15:25:08.000Z</time>
      </trkpt>
      <trkpt lat="45.63218" lon="6.66901">
        <ele>2013</ele>
        <time>2012-02-22T15:25:10.000Z</time>
      </trkpt>
      <trkpt lat="45.63213" lon="6.6691">
        <ele>2011</ele>
        <time>2012-02-22T15:25:13.000Z</time>
      </trkpt>
      <trkpt lat="45.63216" lon="6.66906">
        <ele>2011.4000244141</ele>
        <time>2012-02-22T15:25:41.000Z</time>
      </trkpt>
      <trkpt lat="45.63216" lon="6.66907">
        <ele>2011.4000244141</ele>
        <time>2012-02-22T15:25:45.000Z</time>
      </trkpt>
    </trkseg>
  </trk>
</gpx>